<?xml version="1.0" encoding="UTF-8" standalone="no" ?>
<gpx xmlns="http://www.topografix.com/GPX/1/1" xmlns:xsi="http://www.w3.org/2001/XMLSchema-instance" xsi:schemaLocation="http://www.topografix.com/GPX/1/1 http://www.topografix.com/GPX/1/1/gpx.xsd" version="1.1" creator="VisuGPX - https://www.visugpx.com">
  <metadata>
    <name>Rando vtt Montamisé 2018</name>
    <desc><![CDATA[Rando sous le soleil mais avec une température de -3°5.
Quelques patates à monter,belle balade dans les bois!


]]></desc>
  </metadata>
  <trk>
    <name><![CDATA[Rando vtt Montamisé 2018]]></name>
    <trkseg>
      <trkpt lat="46.63231" lon="0.49081">
        <ele>176.68</ele>
        <time>2018-02-25T07:35:31.129Z</time>
      </trkpt>
      <trkpt lat="46.63239" lon="0.49089">
        <ele>155.02</ele>
        <time>2018-02-25T07:36:42.999Z</time>
      </trkpt>
      <trkpt lat="46.63237" lon="0.49102">
        <ele>155.65</ele>
        <time>2018-02-25T07:36:49.999Z</time>
      </trkpt>
      <trkpt lat="46.63239" lon="0.49117">
        <ele>156.18</ele>
        <time>2018-02-25T07:36:55.999Z</time>
      </trkpt>
      <trkpt lat="46.63244" lon="0.4913">
        <ele>156.55</ele>
        <time>2018-02-25T07:37:02.999Z</time>
      </trkpt>
      <trkpt lat="46.6325" lon="0.49142">
        <ele>156.71</ele>
        <time>2018-02-25T07:37:06.999Z</time>
      </trkpt>
      <trkpt lat="46.63254" lon="0.49156">
        <ele>156.93</ele>
        <time>2018-02-25T07:37:09.999Z</time>
      </trkpt>
      <trkpt lat="46.63257" lon="0.49173">
        <ele>157.37</ele>
        <time>2018-02-25T07:37:12.999Z</time>
      </trkpt>
      <trkpt lat="46.63255" lon="0.49186">
        <ele>158.63</ele>
        <time>2018-02-25T07:37:17.999Z</time>
      </trkpt>
      <trkpt lat="46.63247" lon="0.49193">
        <ele>159.29</ele>
        <time>2018-02-25T07:37:19.999Z</time>
      </trkpt>
      <trkpt lat="46.63239" lon="0.49199">
        <ele>159.9</ele>
        <time>2018-02-25T07:37:21.999Z</time>
      </trkpt>
      <trkpt lat="46.63228" lon="0.49209">
        <ele>161.09</ele>
        <time>2018-02-25T07:37:25.999Z</time>
      </trkpt>
      <trkpt lat="46.63218" lon="0.49219">
        <ele>162</ele>
        <time>2018-02-25T07:37:28.999Z</time>
      </trkpt>
      <trkpt lat="46.63209" lon="0.49229">
        <ele>162.87</ele>
        <time>2018-02-25T07:37:31.999Z</time>
      </trkpt>
      <trkpt lat="46.63202" lon="0.49238">
        <ele>164.33</ele>
        <time>2018-02-25T07:37:36.999Z</time>
      </trkpt>
      <trkpt lat="46.63201" lon="0.49255">
        <ele>165.46</ele>
        <time>2018-02-25T07:37:40.999Z</time>
      </trkpt>
      <trkpt lat="46.63197" lon="0.49272">
        <ele>166.1</ele>
        <time>2018-02-25T07:37:43.999Z</time>
      </trkpt>
      <trkpt lat="46.63195" lon="0.49287">
        <ele>166.79</ele>
        <time>2018-02-25T07:37:46.999Z</time>
      </trkpt>
      <trkpt lat="46.63195" lon="0.49302">
        <ele>167.38</ele>
        <time>2018-02-25T07:37:49.999Z</time>
      </trkpt>
      <trkpt lat="46.63198" lon="0.49315">
        <ele>167.72</ele>
        <time>2018-02-25T07:37:51.999Z</time>
      </trkpt>
      <trkpt lat="46.63202" lon="0.49332">
        <ele>167.98</ele>
        <time>2018-02-25T07:37:53.999Z</time>
      </trkpt>
      <trkpt lat="46.63205" lon="0.49348">
        <ele>168.13</ele>
        <time>2018-02-25T07:37:55.999Z</time>
      </trkpt>
      <trkpt lat="46.63207" lon="0.49365">
        <ele>168.15</ele>
        <time>2018-02-25T07:37:57.999Z</time>
      </trkpt>
      <trkpt lat="46.63205" lon="0.49381">
        <ele>168.16</ele>
        <time>2018-02-25T07:38:00.999Z</time>
      </trkpt>
      <trkpt lat="46.63203" lon="0.494">
        <ele>168.1</ele>
        <time>2018-02-25T07:38:03.999Z</time>
      </trkpt>
      <trkpt lat="46.632" lon="0.49415">
        <ele>168.09</ele>
        <time>2018-02-25T07:38:06.999Z</time>
      </trkpt>
      <trkpt lat="46.63198" lon="0.49431">
        <ele>168.16</ele>
        <time>2018-02-25T07:38:09.999Z</time>
      </trkpt>
      <trkpt lat="46.63198" lon="0.49446">
        <ele>168.28</ele>
        <time>2018-02-25T07:38:12.999Z</time>
      </trkpt>
      <trkpt lat="46.63195" lon="0.49465">
        <ele>168.41</ele>
        <time>2018-02-25T07:38:15.999Z</time>
      </trkpt>
      <trkpt lat="46.63194" lon="0.49479">
        <ele>168.48</ele>
        <time>2018-02-25T07:38:17.999Z</time>
      </trkpt>
      <trkpt lat="46.63192" lon="0.49496">
        <ele>168.56</ele>
        <time>2018-02-25T07:38:20.999Z</time>
      </trkpt>
      <trkpt lat="46.63193" lon="0.4951">
        <ele>168.78</ele>
        <time>2018-02-25T07:38:23.999Z</time>
      </trkpt>
      <trkpt lat="46.63195" lon="0.49525">
        <ele>169.09</ele>
        <time>2018-02-25T07:38:26.999Z</time>
      </trkpt>
      <trkpt lat="46.63195" lon="0.49542">
        <ele>169.18</ele>
        <time>2018-02-25T07:38:29.999Z</time>
      </trkpt>
      <trkpt lat="46.63195" lon="0.49555">
        <ele>169.22</ele>
        <time>2018-02-25T07:38:33.999Z</time>
      </trkpt>
      <trkpt lat="46.63195" lon="0.49571">
        <ele>169.06</ele>
        <time>2018-02-25T07:38:38.999Z</time>
      </trkpt>
      <trkpt lat="46.63192" lon="0.49588">
        <ele>168.6</ele>
        <time>2018-02-25T07:38:43.999Z</time>
      </trkpt>
      <trkpt lat="46.63188" lon="0.49602">
        <ele>167.95</ele>
        <time>2018-02-25T07:38:48.999Z</time>
      </trkpt>
      <trkpt lat="46.6318" lon="0.49612">
        <ele>167.83</ele>
        <time>2018-02-25T07:38:52.999Z</time>
      </trkpt>
      <trkpt lat="46.63179" lon="0.49626">
        <ele>168</ele>
        <time>2018-02-25T07:38:58.999Z</time>
      </trkpt>
      <trkpt lat="46.63187" lon="0.49641">
        <ele>168.54</ele>
        <time>2018-02-25T07:39:01.999Z</time>
      </trkpt>
      <trkpt lat="46.63192" lon="0.49652">
        <ele>169.07</ele>
        <time>2018-02-25T07:39:03.999Z</time>
      </trkpt>
      <trkpt lat="46.63198" lon="0.49665">
        <ele>169.69</ele>
        <time>2018-02-25T07:39:05.999Z</time>
      </trkpt>
      <trkpt lat="46.63206" lon="0.49678">
        <ele>170.64</ele>
        <time>2018-02-25T07:39:08.999Z</time>
      </trkpt>
      <trkpt lat="46.63213" lon="0.49692">
        <ele>171.7</ele>
        <time>2018-02-25T07:39:11.999Z</time>
      </trkpt>
      <trkpt lat="46.63218" lon="0.49704">
        <ele>172.36</ele>
        <time>2018-02-25T07:39:13.999Z</time>
      </trkpt>
      <trkpt lat="46.63223" lon="0.49714">
        <ele>173</ele>
        <time>2018-02-25T07:39:15.999Z</time>
      </trkpt>
      <trkpt lat="46.63229" lon="0.49725">
        <ele>173.59</ele>
        <time>2018-02-25T07:39:17.999Z</time>
      </trkpt>
      <trkpt lat="46.63236" lon="0.49736">
        <ele>174.16</ele>
        <time>2018-02-25T07:39:19.999Z</time>
      </trkpt>
      <trkpt lat="46.63243" lon="0.49752">
        <ele>174.95</ele>
        <time>2018-02-25T07:39:22.999Z</time>
      </trkpt>
      <trkpt lat="46.63247" lon="0.49764">
        <ele>175.86</ele>
        <time>2018-02-25T07:39:26.999Z</time>
      </trkpt>
      <trkpt lat="46.63252" lon="0.49779">
        <ele>176.62</ele>
        <time>2018-02-25T07:39:30.999Z</time>
      </trkpt>
      <trkpt lat="46.63259" lon="0.49788">
        <ele>176.72</ele>
        <time>2018-02-25T07:39:32.999Z</time>
      </trkpt>
      <trkpt lat="46.63265" lon="0.49803">
        <ele>177.04</ele>
        <time>2018-02-25T07:39:36.999Z</time>
      </trkpt>
      <trkpt lat="46.63272" lon="0.49815">
        <ele>177.48</ele>
        <time>2018-02-25T07:39:40.999Z</time>
      </trkpt>
      <trkpt lat="46.63278" lon="0.49831">
        <ele>178.11</ele>
        <time>2018-02-25T07:39:44.999Z</time>
      </trkpt>
      <trkpt lat="46.63284" lon="0.49845">
        <ele>178.71</ele>
        <time>2018-02-25T07:39:47.999Z</time>
      </trkpt>
      <trkpt lat="46.63291" lon="0.49856">
        <ele>179.13</ele>
        <time>2018-02-25T07:39:49.999Z</time>
      </trkpt>
      <trkpt lat="46.63298" lon="0.49865">
        <ele>179.47</ele>
        <time>2018-02-25T07:39:51.999Z</time>
      </trkpt>
      <trkpt lat="46.63307" lon="0.49884">
        <ele>179.78</ele>
        <time>2018-02-25T07:39:54.999Z</time>
      </trkpt>
      <trkpt lat="46.63313" lon="0.49898">
        <ele>179.96</ele>
        <time>2018-02-25T07:39:57.999Z</time>
      </trkpt>
      <trkpt lat="46.63321" lon="0.49914">
        <ele>180.12</ele>
        <time>2018-02-25T07:40:00.999Z</time>
      </trkpt>
      <trkpt lat="46.63331" lon="0.49927">
        <ele>180.16</ele>
        <time>2018-02-25T07:40:03.999Z</time>
      </trkpt>
      <trkpt lat="46.63337" lon="0.4994">
        <ele>180.35</ele>
        <time>2018-02-25T07:40:07.999Z</time>
      </trkpt>
      <trkpt lat="46.63341" lon="0.49954">
        <ele>180.62</ele>
        <time>2018-02-25T07:40:11.999Z</time>
      </trkpt>
      <trkpt lat="46.63348" lon="0.49964">
        <ele>180.94</ele>
        <time>2018-02-25T07:40:14.999Z</time>
      </trkpt>
      <trkpt lat="46.63356" lon="0.49979">
        <ele>181.2</ele>
        <time>2018-02-25T07:40:17.999Z</time>
      </trkpt>
      <trkpt lat="46.63363" lon="0.4999">
        <ele>181.34</ele>
        <time>2018-02-25T07:40:19.999Z</time>
      </trkpt>
      <trkpt lat="46.63369" lon="0.50003">
        <ele>181.58</ele>
        <time>2018-02-25T07:40:22.999Z</time>
      </trkpt>
      <trkpt lat="46.63376" lon="0.50015">
        <ele>181.64</ele>
        <time>2018-02-25T07:40:24.999Z</time>
      </trkpt>
      <trkpt lat="46.63381" lon="0.50027">
        <ele>181.73</ele>
        <time>2018-02-25T07:40:26.999Z</time>
      </trkpt>
      <trkpt lat="46.63387" lon="0.50041">
        <ele>181.94</ele>
        <time>2018-02-25T07:40:29.999Z</time>
      </trkpt>
      <trkpt lat="46.63393" lon="0.50055">
        <ele>182.11</ele>
        <time>2018-02-25T07:40:32.999Z</time>
      </trkpt>
      <trkpt lat="46.63402" lon="0.50071">
        <ele>182.27</ele>
        <time>2018-02-25T07:40:35.999Z</time>
      </trkpt>
      <trkpt lat="46.6341" lon="0.50084">
        <ele>182.59</ele>
        <time>2018-02-25T07:40:38.999Z</time>
      </trkpt>
      <trkpt lat="46.63418" lon="0.50101">
        <ele>183.01</ele>
        <time>2018-02-25T07:40:41.999Z</time>
      </trkpt>
      <trkpt lat="46.63424" lon="0.50114">
        <ele>183.37</ele>
        <time>2018-02-25T07:40:43.999Z</time>
      </trkpt>
      <trkpt lat="46.63432" lon="0.50128">
        <ele>183.67</ele>
        <time>2018-02-25T07:40:45.999Z</time>
      </trkpt>
      <trkpt lat="46.63439" lon="0.50143">
        <ele>183.86</ele>
        <time>2018-02-25T07:40:47.999Z</time>
      </trkpt>
      <trkpt lat="46.63446" lon="0.50154">
        <ele>183.9</ele>
        <time>2018-02-25T07:40:50.999Z</time>
      </trkpt>
      <trkpt lat="46.6345" lon="0.50168">
        <ele>183.65</ele>
        <time>2018-02-25T07:40:54.999Z</time>
      </trkpt>
      <trkpt lat="46.63456" lon="0.50178">
        <ele>183.45</ele>
        <time>2018-02-25T07:40:57.999Z</time>
      </trkpt>
      <trkpt lat="46.63462" lon="0.5019">
        <ele>183.08</ele>
        <time>2018-02-25T07:41:01.999Z</time>
      </trkpt>
      <trkpt lat="46.63468" lon="0.50201">
        <ele>182.93</ele>
        <time>2018-02-25T07:41:04.999Z</time>
      </trkpt>
      <trkpt lat="46.63472" lon="0.50213">
        <ele>182.7</ele>
        <time>2018-02-25T07:41:09.999Z</time>
      </trkpt>
      <trkpt lat="46.63477" lon="0.50225">
        <ele>182.3</ele>
        <time>2018-02-25T07:41:15.999Z</time>
      </trkpt>
      <trkpt lat="46.63483" lon="0.50238">
        <ele>182.22</ele>
        <time>2018-02-25T07:41:18.999Z</time>
      </trkpt>
      <trkpt lat="46.6349" lon="0.50248">
        <ele>182.32</ele>
        <time>2018-02-25T07:41:21.999Z</time>
      </trkpt>
      <trkpt lat="46.63495" lon="0.50259">
        <ele>182.27</ele>
        <time>2018-02-25T07:41:24.999Z</time>
      </trkpt>
      <trkpt lat="46.63503" lon="0.50273">
        <ele>182.04</ele>
        <time>2018-02-25T07:41:27.999Z</time>
      </trkpt>
      <trkpt lat="46.63509" lon="0.50281">
        <ele>181.61</ele>
        <time>2018-02-25T07:41:30.999Z</time>
      </trkpt>
      <trkpt lat="46.63515" lon="0.50292">
        <ele>181.75</ele>
        <time>2018-02-25T07:41:36.999Z</time>
      </trkpt>
      <trkpt lat="46.63519" lon="0.50306">
        <ele>181.75</ele>
        <time>2018-02-25T07:41:41.999Z</time>
      </trkpt>
      <trkpt lat="46.63526" lon="0.50316">
        <ele>181.63</ele>
        <time>2018-02-25T07:41:45.999Z</time>
      </trkpt>
      <trkpt lat="46.63535" lon="0.50333">
        <ele>181.56</ele>
        <time>2018-02-25T07:41:49.999Z</time>
      </trkpt>
      <trkpt lat="46.63542" lon="0.50345">
        <ele>181.99</ele>
        <time>2018-02-25T07:41:55.999Z</time>
      </trkpt>
      <trkpt lat="46.63548" lon="0.50358">
        <ele>182.21</ele>
        <time>2018-02-25T07:41:58.999Z</time>
      </trkpt>
      <trkpt lat="46.63553" lon="0.50371">
        <ele>182.22</ele>
        <time>2018-02-25T07:42:01.999Z</time>
      </trkpt>
      <trkpt lat="46.63559" lon="0.50383">
        <ele>181.96</ele>
        <time>2018-02-25T07:42:05.999Z</time>
      </trkpt>
      <trkpt lat="46.63565" lon="0.50395">
        <ele>181.44</ele>
        <time>2018-02-25T07:42:09.999Z</time>
      </trkpt>
      <trkpt lat="46.63571" lon="0.50408">
        <ele>180.8</ele>
        <time>2018-02-25T07:42:15.999Z</time>
      </trkpt>
      <trkpt lat="46.63578" lon="0.5042">
        <ele>180.7</ele>
        <time>2018-02-25T07:42:19.999Z</time>
      </trkpt>
      <trkpt lat="46.63584" lon="0.50433">
        <ele>180.91</ele>
        <time>2018-02-25T07:42:23.999Z</time>
      </trkpt>
      <trkpt lat="46.63591" lon="0.50449">
        <ele>181.05</ele>
        <time>2018-02-25T07:42:27.999Z</time>
      </trkpt>
      <trkpt lat="46.63597" lon="0.50462">
        <ele>180.87</ele>
        <time>2018-02-25T07:42:31.999Z</time>
      </trkpt>
      <trkpt lat="46.63606" lon="0.50472">
        <ele>180.75</ele>
        <time>2018-02-25T07:42:35.999Z</time>
      </trkpt>
      <trkpt lat="46.63613" lon="0.50483">
        <ele>180.82</ele>
        <time>2018-02-25T07:42:38.999Z</time>
      </trkpt>
      <trkpt lat="46.63617" lon="0.50496">
        <ele>181.91</ele>
        <time>2018-02-25T07:42:47.999Z</time>
      </trkpt>
      <trkpt lat="46.63622" lon="0.50509">
        <ele>183.13</ele>
        <time>2018-02-25T07:42:52.999Z</time>
      </trkpt>
      <trkpt lat="46.63628" lon="0.5052">
        <ele>183.63</ele>
        <time>2018-02-25T07:42:54.999Z</time>
      </trkpt>
      <trkpt lat="46.63635" lon="0.50535">
        <ele>184.13</ele>
        <time>2018-02-25T07:42:57.999Z</time>
      </trkpt>
      <trkpt lat="46.63641" lon="0.50545">
        <ele>184.44</ele>
        <time>2018-02-25T07:43:00.999Z</time>
      </trkpt>
      <trkpt lat="46.63648" lon="0.50559">
        <ele>184.65</ele>
        <time>2018-02-25T07:43:04.999Z</time>
      </trkpt>
      <trkpt lat="46.63652" lon="0.50573">
        <ele>185.03</ele>
        <time>2018-02-25T07:43:10.999Z</time>
      </trkpt>
      <trkpt lat="46.63658" lon="0.50585">
        <ele>185.34</ele>
        <time>2018-02-25T07:43:13.999Z</time>
      </trkpt>
      <trkpt lat="46.63665" lon="0.50595">
        <ele>185.7</ele>
        <time>2018-02-25T07:43:16.999Z</time>
      </trkpt>
      <trkpt lat="46.63671" lon="0.50607">
        <ele>186.28</ele>
        <time>2018-02-25T07:43:20.999Z</time>
      </trkpt>
      <trkpt lat="46.63676" lon="0.50621">
        <ele>186.59</ele>
        <time>2018-02-25T07:43:25.999Z</time>
      </trkpt>
      <trkpt lat="46.63683" lon="0.50633">
        <ele>186.69</ele>
        <time>2018-02-25T07:43:29.999Z</time>
      </trkpt>
      <trkpt lat="46.63689" lon="0.50645">
        <ele>186.87</ele>
        <time>2018-02-25T07:43:33.999Z</time>
      </trkpt>
      <trkpt lat="46.63696" lon="0.50658">
        <ele>187.02</ele>
        <time>2018-02-25T07:43:36.999Z</time>
      </trkpt>
      <trkpt lat="46.63704" lon="0.50669">
        <ele>187.21</ele>
        <time>2018-02-25T07:43:39.999Z</time>
      </trkpt>
      <trkpt lat="46.63713" lon="0.50667">
        <ele>187.16</ele>
        <time>2018-02-25T07:43:43.999Z</time>
      </trkpt>
      <trkpt lat="46.63723" lon="0.5066">
        <ele>186.64</ele>
        <time>2018-02-25T07:43:46.999Z</time>
      </trkpt>
      <trkpt lat="46.63732" lon="0.50654">
        <ele>186.48</ele>
        <time>2018-02-25T07:43:48.999Z</time>
      </trkpt>
      <trkpt lat="46.63745" lon="0.50645">
        <ele>185.35</ele>
        <time>2018-02-25T07:43:51.999Z</time>
      </trkpt>
      <trkpt lat="46.63756" lon="0.50636">
        <ele>183.98</ele>
        <time>2018-02-25T07:43:53.999Z</time>
      </trkpt>
      <trkpt lat="46.63767" lon="0.50628">
        <ele>181.97</ele>
        <time>2018-02-25T07:43:55.999Z</time>
      </trkpt>
      <trkpt lat="46.63778" lon="0.50618">
        <ele>180.78</ele>
        <time>2018-02-25T07:43:57.999Z</time>
      </trkpt>
      <trkpt lat="46.6379" lon="0.50608">
        <ele>179.38</ele>
        <time>2018-02-25T07:43:59.999Z</time>
      </trkpt>
      <trkpt lat="46.63802" lon="0.50596">
        <ele>177.61</ele>
        <time>2018-02-25T07:44:01.999Z</time>
      </trkpt>
      <trkpt lat="46.63812" lon="0.50587">
        <ele>175.59</ele>
        <time>2018-02-25T07:44:03.999Z</time>
      </trkpt>
      <trkpt lat="46.63821" lon="0.50576">
        <ele>173.99</ele>
        <time>2018-02-25T07:44:05.999Z</time>
      </trkpt>
      <trkpt lat="46.63831" lon="0.50565">
        <ele>172.7</ele>
        <time>2018-02-25T07:44:07.999Z</time>
      </trkpt>
      <trkpt lat="46.63839" lon="0.50556">
        <ele>171.97</ele>
        <time>2018-02-25T07:44:09.999Z</time>
      </trkpt>
      <trkpt lat="46.6385" lon="0.50546">
        <ele>170.48</ele>
        <time>2018-02-25T07:44:12.999Z</time>
      </trkpt>
      <trkpt lat="46.63859" lon="0.50535">
        <ele>170.37</ele>
        <time>2018-02-25T07:44:14.999Z</time>
      </trkpt>
      <trkpt lat="46.63869" lon="0.50527">
        <ele>170.47</ele>
        <time>2018-02-25T07:44:16.999Z</time>
      </trkpt>
      <trkpt lat="46.63878" lon="0.50515">
        <ele>170.48</ele>
        <time>2018-02-25T07:44:18.999Z</time>
      </trkpt>
      <trkpt lat="46.6389" lon="0.50504">
        <ele>169.72</ele>
        <time>2018-02-25T07:44:20.999Z</time>
      </trkpt>
      <trkpt lat="46.639" lon="0.50495">
        <ele>167.7</ele>
        <time>2018-02-25T07:44:22.999Z</time>
      </trkpt>
      <trkpt lat="46.63908" lon="0.50486">
        <ele>167.38</ele>
        <time>2018-02-25T07:44:24.999Z</time>
      </trkpt>
      <trkpt lat="46.63911" lon="0.50469">
        <ele>165.24</ele>
        <time>2018-02-25T07:44:27.999Z</time>
      </trkpt>
      <trkpt lat="46.63908" lon="0.50454">
        <ele>164.97</ele>
        <time>2018-02-25T07:44:30.999Z</time>
      </trkpt>
      <trkpt lat="46.63902" lon="0.50442">
        <ele>164.55</ele>
        <time>2018-02-25T07:44:34.999Z</time>
      </trkpt>
      <trkpt lat="46.63901" lon="0.50426">
        <ele>164.35</ele>
        <time>2018-02-25T07:44:38.999Z</time>
      </trkpt>
      <trkpt lat="46.63911" lon="0.50413">
        <ele>164.34</ele>
        <time>2018-02-25T07:44:41.999Z</time>
      </trkpt>
      <trkpt lat="46.63918" lon="0.504">
        <ele>164.74</ele>
        <time>2018-02-25T07:44:43.999Z</time>
      </trkpt>
      <trkpt lat="46.63926" lon="0.50391">
        <ele>164.82</ele>
        <time>2018-02-25T07:44:45.999Z</time>
      </trkpt>
      <trkpt lat="46.63935" lon="0.50382">
        <ele>164.96</ele>
        <time>2018-02-25T07:44:48.999Z</time>
      </trkpt>
      <trkpt lat="46.63945" lon="0.5037">
        <ele>165.1</ele>
        <time>2018-02-25T07:44:51.999Z</time>
      </trkpt>
      <trkpt lat="46.63955" lon="0.5036">
        <ele>165.18</ele>
        <time>2018-02-25T07:44:54.999Z</time>
      </trkpt>
      <trkpt lat="46.63965" lon="0.5035">
        <ele>165.34</ele>
        <time>2018-02-25T07:44:57.999Z</time>
      </trkpt>
      <trkpt lat="46.63974" lon="0.50342">
        <ele>165.29</ele>
        <time>2018-02-25T07:45:00.999Z</time>
      </trkpt>
      <trkpt lat="46.63984" lon="0.50333">
        <ele>165.31</ele>
        <time>2018-02-25T07:45:03.999Z</time>
      </trkpt>
      <trkpt lat="46.63992" lon="0.50323">
        <ele>165.26</ele>
        <time>2018-02-25T07:45:05.999Z</time>
      </trkpt>
      <trkpt lat="46.64002" lon="0.50312">
        <ele>165.19</ele>
        <time>2018-02-25T07:45:08.999Z</time>
      </trkpt>
      <trkpt lat="46.64008" lon="0.50303">
        <ele>165.13</ele>
        <time>2018-02-25T07:45:10.999Z</time>
      </trkpt>
      <trkpt lat="46.64019" lon="0.5029">
        <ele>164.91</ele>
        <time>2018-02-25T07:45:13.999Z</time>
      </trkpt>
      <trkpt lat="46.64027" lon="0.50281">
        <ele>164.88</ele>
        <time>2018-02-25T07:45:15.999Z</time>
      </trkpt>
      <trkpt lat="46.64038" lon="0.50271">
        <ele>164.72</ele>
        <time>2018-02-25T07:45:18.999Z</time>
      </trkpt>
      <trkpt lat="46.64046" lon="0.50262">
        <ele>164.56</ele>
        <time>2018-02-25T07:45:20.999Z</time>
      </trkpt>
      <trkpt lat="46.64055" lon="0.50251">
        <ele>163.39</ele>
        <time>2018-02-25T07:45:23.999Z</time>
      </trkpt>
      <trkpt lat="46.64064" lon="0.50241">
        <ele>163.24</ele>
        <time>2018-02-25T07:45:26.999Z</time>
      </trkpt>
      <trkpt lat="46.64072" lon="0.50233">
        <ele>163.25</ele>
        <time>2018-02-25T07:45:29.999Z</time>
      </trkpt>
      <trkpt lat="46.64082" lon="0.50223">
        <ele>163.16</ele>
        <time>2018-02-25T07:45:32.999Z</time>
      </trkpt>
      <trkpt lat="46.64091" lon="0.50215">
        <ele>162.88</ele>
        <time>2018-02-25T07:45:36.999Z</time>
      </trkpt>
      <trkpt lat="46.64101" lon="0.50204">
        <ele>162.77</ele>
        <time>2018-02-25T07:45:40.999Z</time>
      </trkpt>
      <trkpt lat="46.6411" lon="0.50195">
        <ele>162.89</ele>
        <time>2018-02-25T07:45:44.999Z</time>
      </trkpt>
      <trkpt lat="46.64118" lon="0.50186">
        <ele>162.97</ele>
        <time>2018-02-25T07:45:47.999Z</time>
      </trkpt>
      <trkpt lat="46.64127" lon="0.50181">
        <ele>163.04</ele>
        <time>2018-02-25T07:45:51.999Z</time>
      </trkpt>
      <trkpt lat="46.64137" lon="0.50172">
        <ele>163.17</ele>
        <time>2018-02-25T07:45:56.999Z</time>
      </trkpt>
      <trkpt lat="46.64146" lon="0.5016">
        <ele>163.31</ele>
        <time>2018-02-25T07:46:00.999Z</time>
      </trkpt>
      <trkpt lat="46.64154" lon="0.50152">
        <ele>163.48</ele>
        <time>2018-02-25T07:46:04.999Z</time>
      </trkpt>
      <trkpt lat="46.64161" lon="0.50143">
        <ele>163.8</ele>
        <time>2018-02-25T07:46:08.999Z</time>
      </trkpt>
      <trkpt lat="46.6417" lon="0.50136">
        <ele>164.09</ele>
        <time>2018-02-25T07:46:12.999Z</time>
      </trkpt>
      <trkpt lat="46.64179" lon="0.50143">
        <ele>164.36</ele>
        <time>2018-02-25T07:46:19.999Z</time>
      </trkpt>
      <trkpt lat="46.64188" lon="0.50157">
        <ele>164.52</ele>
        <time>2018-02-25T07:46:22.999Z</time>
      </trkpt>
      <trkpt lat="46.64195" lon="0.5017">
        <ele>164.59</ele>
        <time>2018-02-25T07:46:24.999Z</time>
      </trkpt>
      <trkpt lat="46.64203" lon="0.50184">
        <ele>164.63</ele>
        <time>2018-02-25T07:46:27.999Z</time>
      </trkpt>
      <trkpt lat="46.6421" lon="0.50198">
        <ele>164.63</ele>
        <time>2018-02-25T07:46:30.999Z</time>
      </trkpt>
      <trkpt lat="46.64216" lon="0.50209">
        <ele>164.63</ele>
        <time>2018-02-25T07:46:32.999Z</time>
      </trkpt>
      <trkpt lat="46.64225" lon="0.50224">
        <ele>164.78</ele>
        <time>2018-02-25T07:46:35.999Z</time>
      </trkpt>
      <trkpt lat="46.64232" lon="0.50235">
        <ele>165.03</ele>
        <time>2018-02-25T07:46:37.999Z</time>
      </trkpt>
      <trkpt lat="46.64236" lon="0.50247">
        <ele>165.35</ele>
        <time>2018-02-25T07:46:39.999Z</time>
      </trkpt>
      <trkpt lat="46.6424" lon="0.50259">
        <ele>165.63</ele>
        <time>2018-02-25T07:46:41.999Z</time>
      </trkpt>
      <trkpt lat="46.64247" lon="0.50278">
        <ele>165.8</ele>
        <time>2018-02-25T07:46:44.999Z</time>
      </trkpt>
      <trkpt lat="46.64249" lon="0.50292">
        <ele>165.83</ele>
        <time>2018-02-25T07:46:46.999Z</time>
      </trkpt>
      <trkpt lat="46.64248" lon="0.50307">
        <ele>165.7</ele>
        <time>2018-02-25T07:46:49.999Z</time>
      </trkpt>
      <trkpt lat="46.64259" lon="0.50313">
        <ele>165.66</ele>
        <time>2018-02-25T07:46:53.999Z</time>
      </trkpt>
      <trkpt lat="46.64269" lon="0.50316">
        <ele>165.62</ele>
        <time>2018-02-25T07:46:57.999Z</time>
      </trkpt>
      <trkpt lat="46.64275" lon="0.50328">
        <ele>165.73</ele>
        <time>2018-02-25T07:47:01.999Z</time>
      </trkpt>
      <trkpt lat="46.64283" lon="0.50338">
        <ele>165.7</ele>
        <time>2018-02-25T07:47:04.999Z</time>
      </trkpt>
      <trkpt lat="46.64292" lon="0.50346">
        <ele>165.61</ele>
        <time>2018-02-25T07:47:08.999Z</time>
      </trkpt>
      <trkpt lat="46.64294" lon="0.50359">
        <ele>166.59</ele>
        <time>2018-02-25T07:47:18.999Z</time>
      </trkpt>
      <trkpt lat="46.64299" lon="0.50371">
        <ele>167.16</ele>
        <time>2018-02-25T07:47:22.999Z</time>
      </trkpt>
      <trkpt lat="46.64306" lon="0.50383">
        <ele>167.46</ele>
        <time>2018-02-25T07:47:24.999Z</time>
      </trkpt>
      <trkpt lat="46.64311" lon="0.50394">
        <ele>167.71</ele>
        <time>2018-02-25T07:47:26.999Z</time>
      </trkpt>
      <trkpt lat="46.64315" lon="0.50407">
        <ele>168.04</ele>
        <time>2018-02-25T07:47:29.999Z</time>
      </trkpt>
      <trkpt lat="46.64323" lon="0.50422">
        <ele>168.4</ele>
        <time>2018-02-25T07:47:33.999Z</time>
      </trkpt>
      <trkpt lat="46.64328" lon="0.50433">
        <ele>168.86</ele>
        <time>2018-02-25T07:47:37.999Z</time>
      </trkpt>
      <trkpt lat="46.64334" lon="0.50444">
        <ele>169.41</ele>
        <time>2018-02-25T07:47:42.999Z</time>
      </trkpt>
      <trkpt lat="46.64339" lon="0.50455">
        <ele>170.08</ele>
        <time>2018-02-25T07:47:47.999Z</time>
      </trkpt>
      <trkpt lat="46.64346" lon="0.50468">
        <ele>170.58</ele>
        <time>2018-02-25T07:47:51.999Z</time>
      </trkpt>
      <trkpt lat="46.64352" lon="0.50479">
        <ele>171.32</ele>
        <time>2018-02-25T07:47:56.999Z</time>
      </trkpt>
      <trkpt lat="46.64358" lon="0.50489">
        <ele>172.65</ele>
        <time>2018-02-25T07:48:02.999Z</time>
      </trkpt>
      <trkpt lat="46.64362" lon="0.50502">
        <ele>174.91</ele>
        <time>2018-02-25T07:48:10.999Z</time>
      </trkpt>
      <trkpt lat="46.64367" lon="0.50514">
        <ele>175.74</ele>
        <time>2018-02-25T07:48:14.999Z</time>
      </trkpt>
      <trkpt lat="46.64375" lon="0.50525">
        <ele>176.05</ele>
        <time>2018-02-25T07:48:17.999Z</time>
      </trkpt>
      <trkpt lat="46.6438" lon="0.50538">
        <ele>176.29</ele>
        <time>2018-02-25T07:48:22.999Z</time>
      </trkpt>
      <trkpt lat="46.64386" lon="0.5055">
        <ele>176.12</ele>
        <time>2018-02-25T07:48:26.999Z</time>
      </trkpt>
      <trkpt lat="46.64393" lon="0.5056">
        <ele>175.62</ele>
        <time>2018-02-25T07:48:30.999Z</time>
      </trkpt>
      <trkpt lat="46.64397" lon="0.50573">
        <ele>175.29</ele>
        <time>2018-02-25T07:48:34.999Z</time>
      </trkpt>
      <trkpt lat="46.64402" lon="0.50586">
        <ele>175.17</ele>
        <time>2018-02-25T07:48:38.999Z</time>
      </trkpt>
      <trkpt lat="46.6441" lon="0.50601">
        <ele>175.09</ele>
        <time>2018-02-25T07:48:41.999Z</time>
      </trkpt>
      <trkpt lat="46.64416" lon="0.50614">
        <ele>175.07</ele>
        <time>2018-02-25T07:48:44.999Z</time>
      </trkpt>
      <trkpt lat="46.64422" lon="0.50627">
        <ele>175.09</ele>
        <time>2018-02-25T07:48:48.999Z</time>
      </trkpt>
      <trkpt lat="46.64428" lon="0.50639">
        <ele>175.17</ele>
        <time>2018-02-25T07:48:52.999Z</time>
      </trkpt>
      <trkpt lat="46.64434" lon="0.50651">
        <ele>175.24</ele>
        <time>2018-02-25T07:48:56.999Z</time>
      </trkpt>
      <trkpt lat="46.64441" lon="0.50661">
        <ele>175.33</ele>
        <time>2018-02-25T07:48:59.999Z</time>
      </trkpt>
      <trkpt lat="46.64446" lon="0.50673">
        <ele>175.5</ele>
        <time>2018-02-25T07:49:03.999Z</time>
      </trkpt>
      <trkpt lat="46.64452" lon="0.50686">
        <ele>175.72</ele>
        <time>2018-02-25T07:49:07.999Z</time>
      </trkpt>
      <trkpt lat="46.64458" lon="0.50697">
        <ele>175.91</ele>
        <time>2018-02-25T07:49:11.999Z</time>
      </trkpt>
      <trkpt lat="46.64462" lon="0.50709">
        <ele>176.02</ele>
        <time>2018-02-25T07:49:14.999Z</time>
      </trkpt>
      <trkpt lat="46.64468" lon="0.5072">
        <ele>176.19</ele>
        <time>2018-02-25T07:49:18.999Z</time>
      </trkpt>
      <trkpt lat="46.64473" lon="0.50734">
        <ele>176.55</ele>
        <time>2018-02-25T07:49:23.999Z</time>
      </trkpt>
      <trkpt lat="46.64479" lon="0.50747">
        <ele>176.98</ele>
        <time>2018-02-25T07:49:27.999Z</time>
      </trkpt>
      <trkpt lat="46.64486" lon="0.50758">
        <ele>177.47</ele>
        <time>2018-02-25T07:49:30.999Z</time>
      </trkpt>
      <trkpt lat="46.64494" lon="0.50769">
        <ele>178.12</ele>
        <time>2018-02-25T07:49:33.999Z</time>
      </trkpt>
      <trkpt lat="46.64499" lon="0.50781">
        <ele>178.85</ele>
        <time>2018-02-25T07:49:36.999Z</time>
      </trkpt>
      <trkpt lat="46.64503" lon="0.50792">
        <ele>179.28</ele>
        <time>2018-02-25T07:49:38.999Z</time>
      </trkpt>
      <trkpt lat="46.6451" lon="0.50804">
        <ele>179.99</ele>
        <time>2018-02-25T07:49:42.999Z</time>
      </trkpt>
      <trkpt lat="46.64516" lon="0.50816">
        <ele>180.38</ele>
        <time>2018-02-25T07:49:45.999Z</time>
      </trkpt>
      <trkpt lat="46.64524" lon="0.50828">
        <ele>180.64</ele>
        <time>2018-02-25T07:49:48.999Z</time>
      </trkpt>
      <trkpt lat="46.64529" lon="0.50839">
        <ele>180.9</ele>
        <time>2018-02-25T07:49:51.999Z</time>
      </trkpt>
      <trkpt lat="46.64535" lon="0.50854">
        <ele>181.57</ele>
        <time>2018-02-25T07:49:55.999Z</time>
      </trkpt>
      <trkpt lat="46.64541" lon="0.50867">
        <ele>182.23</ele>
        <time>2018-02-25T07:49:58.999Z</time>
      </trkpt>
      <trkpt lat="46.64547" lon="0.50879">
        <ele>182.82</ele>
        <time>2018-02-25T07:50:01.999Z</time>
      </trkpt>
      <trkpt lat="46.64554" lon="0.50894">
        <ele>183.28</ele>
        <time>2018-02-25T07:50:04.999Z</time>
      </trkpt>
      <trkpt lat="46.64561" lon="0.50908">
        <ele>183.63</ele>
        <time>2018-02-25T07:50:07.999Z</time>
      </trkpt>
      <trkpt lat="46.64566" lon="0.5092">
        <ele>183.95</ele>
        <time>2018-02-25T07:50:10.999Z</time>
      </trkpt>
      <trkpt lat="46.64572" lon="0.50933">
        <ele>184.33</ele>
        <time>2018-02-25T07:50:13.999Z</time>
      </trkpt>
      <trkpt lat="46.64578" lon="0.50945">
        <ele>184.73</ele>
        <time>2018-02-25T07:50:16.999Z</time>
      </trkpt>
      <trkpt lat="46.64585" lon="0.50958">
        <ele>185.07</ele>
        <time>2018-02-25T07:50:19.999Z</time>
      </trkpt>
      <trkpt lat="46.64591" lon="0.50971">
        <ele>185.48</ele>
        <time>2018-02-25T07:50:22.999Z</time>
      </trkpt>
      <trkpt lat="46.64596" lon="0.50982">
        <ele>185.96</ele>
        <time>2018-02-25T07:50:25.999Z</time>
      </trkpt>
      <trkpt lat="46.64601" lon="0.50996">
        <ele>186.74</ele>
        <time>2018-02-25T07:50:29.999Z</time>
      </trkpt>
      <trkpt lat="46.64609" lon="0.51009">
        <ele>187.36</ele>
        <time>2018-02-25T07:50:32.999Z</time>
      </trkpt>
      <trkpt lat="46.64615" lon="0.51019">
        <ele>187.82</ele>
        <time>2018-02-25T07:50:34.999Z</time>
      </trkpt>
      <trkpt lat="46.64622" lon="0.5103">
        <ele>188.24</ele>
        <time>2018-02-25T07:50:36.999Z</time>
      </trkpt>
      <trkpt lat="46.64627" lon="0.51041">
        <ele>188.67</ele>
        <time>2018-02-25T07:50:38.999Z</time>
      </trkpt>
      <trkpt lat="46.64636" lon="0.51054">
        <ele>188.97</ele>
        <time>2018-02-25T07:50:40.999Z</time>
      </trkpt>
      <trkpt lat="46.64643" lon="0.51068">
        <ele>189.27</ele>
        <time>2018-02-25T07:50:43.999Z</time>
      </trkpt>
      <trkpt lat="46.64648" lon="0.5108">
        <ele>189.54</ele>
        <time>2018-02-25T07:50:47.999Z</time>
      </trkpt>
      <trkpt lat="46.64653" lon="0.51091">
        <ele>189.89</ele>
        <time>2018-02-25T07:50:51.999Z</time>
      </trkpt>
      <trkpt lat="46.6466" lon="0.51106">
        <ele>190.16</ele>
        <time>2018-02-25T07:50:54.999Z</time>
      </trkpt>
      <trkpt lat="46.64668" lon="0.51119">
        <ele>190.42</ele>
        <time>2018-02-25T07:50:57.999Z</time>
      </trkpt>
      <trkpt lat="46.64676" lon="0.51132">
        <ele>190.56</ele>
        <time>2018-02-25T07:50:59.999Z</time>
      </trkpt>
      <trkpt lat="46.64682" lon="0.51146">
        <ele>190.66</ele>
        <time>2018-02-25T07:51:02.999Z</time>
      </trkpt>
      <trkpt lat="46.64689" lon="0.5116">
        <ele>190.64</ele>
        <time>2018-02-25T07:51:05.999Z</time>
      </trkpt>
      <trkpt lat="46.64694" lon="0.51172">
        <ele>190.48</ele>
        <time>2018-02-25T07:51:09.999Z</time>
      </trkpt>
      <trkpt lat="46.64699" lon="0.51184">
        <ele>190.31</ele>
        <time>2018-02-25T07:51:12.999Z</time>
      </trkpt>
      <trkpt lat="46.64705" lon="0.51198">
        <ele>190.04</ele>
        <time>2018-02-25T07:51:16.999Z</time>
      </trkpt>
      <trkpt lat="46.64711" lon="0.51213">
        <ele>189.87</ele>
        <time>2018-02-25T07:51:19.999Z</time>
      </trkpt>
      <trkpt lat="46.64715" lon="0.51224">
        <ele>189.78</ele>
        <time>2018-02-25T07:51:22.999Z</time>
      </trkpt>
      <trkpt lat="46.64721" lon="0.51235">
        <ele>189.63</ele>
        <time>2018-02-25T07:51:27.999Z</time>
      </trkpt>
      <trkpt lat="46.64731" lon="0.51247">
        <ele>189.74</ele>
        <time>2018-02-25T07:51:32.999Z</time>
      </trkpt>
      <trkpt lat="46.64738" lon="0.51258">
        <ele>190.02</ele>
        <time>2018-02-25T07:51:36.999Z</time>
      </trkpt>
      <trkpt lat="46.64743" lon="0.5127">
        <ele>190.26</ele>
        <time>2018-02-25T07:51:38.999Z</time>
      </trkpt>
      <trkpt lat="46.64748" lon="0.51281">
        <ele>190.64</ele>
        <time>2018-02-25T07:51:41.999Z</time>
      </trkpt>
      <trkpt lat="46.64755" lon="0.51297">
        <ele>190.96</ele>
        <time>2018-02-25T07:51:44.999Z</time>
      </trkpt>
      <trkpt lat="46.64761" lon="0.51309">
        <ele>191.08</ele>
        <time>2018-02-25T07:51:47.999Z</time>
      </trkpt>
      <trkpt lat="46.64767" lon="0.51321">
        <ele>191.17</ele>
        <time>2018-02-25T07:51:50.999Z</time>
      </trkpt>
      <trkpt lat="46.64773" lon="0.51333">
        <ele>191.26</ele>
        <time>2018-02-25T07:51:54.999Z</time>
      </trkpt>
      <trkpt lat="46.6478" lon="0.51346">
        <ele>191.43</ele>
        <time>2018-02-25T07:51:58.999Z</time>
      </trkpt>
      <trkpt lat="46.64787" lon="0.51358">
        <ele>191.54</ele>
        <time>2018-02-25T07:52:01.999Z</time>
      </trkpt>
      <trkpt lat="46.64793" lon="0.5137">
        <ele>191.53</ele>
        <time>2018-02-25T07:52:05.999Z</time>
      </trkpt>
      <trkpt lat="46.64798" lon="0.51383">
        <ele>191.45</ele>
        <time>2018-02-25T07:52:10.999Z</time>
      </trkpt>
      <trkpt lat="46.64804" lon="0.51399">
        <ele>191.48</ele>
        <time>2018-02-25T07:52:14.999Z</time>
      </trkpt>
      <trkpt lat="46.64811" lon="0.51411">
        <ele>191.59</ele>
        <time>2018-02-25T07:52:16.999Z</time>
      </trkpt>
      <trkpt lat="46.64817" lon="0.51424">
        <ele>191.71</ele>
        <time>2018-02-25T07:52:19.999Z</time>
      </trkpt>
      <trkpt lat="46.64824" lon="0.51437">
        <ele>191.77</ele>
        <time>2018-02-25T07:52:22.999Z</time>
      </trkpt>
      <trkpt lat="46.6483" lon="0.51452">
        <ele>191.89</ele>
        <time>2018-02-25T07:52:27.999Z</time>
      </trkpt>
      <trkpt lat="46.64836" lon="0.51463">
        <ele>191.95</ele>
        <time>2018-02-25T07:52:30.999Z</time>
      </trkpt>
      <trkpt lat="46.64841" lon="0.51474">
        <ele>192.08</ele>
        <time>2018-02-25T07:52:33.999Z</time>
      </trkpt>
      <trkpt lat="46.64848" lon="0.51483">
        <ele>192.26</ele>
        <time>2018-02-25T07:52:36.999Z</time>
      </trkpt>
      <trkpt lat="46.64854" lon="0.51494">
        <ele>192.92</ele>
        <time>2018-02-25T07:52:41.999Z</time>
      </trkpt>
      <trkpt lat="46.64859" lon="0.51505">
        <ele>193.33</ele>
        <time>2018-02-25T07:52:44.999Z</time>
      </trkpt>
      <trkpt lat="46.64867" lon="0.51517">
        <ele>193.71</ele>
        <time>2018-02-25T07:52:47.999Z</time>
      </trkpt>
      <trkpt lat="46.64872" lon="0.5153">
        <ele>194.06</ele>
        <time>2018-02-25T07:52:50.999Z</time>
      </trkpt>
      <trkpt lat="46.64877" lon="0.51541">
        <ele>194.41</ele>
        <time>2018-02-25T07:52:54.999Z</time>
      </trkpt>
      <trkpt lat="46.64883" lon="0.51553">
        <ele>194.93</ele>
        <time>2018-02-25T07:52:58.999Z</time>
      </trkpt>
      <trkpt lat="46.64888" lon="0.51564">
        <ele>195.27</ele>
        <time>2018-02-25T07:53:00.999Z</time>
      </trkpt>
      <trkpt lat="46.64895" lon="0.51575">
        <ele>195.84</ele>
        <time>2018-02-25T07:53:03.999Z</time>
      </trkpt>
      <trkpt lat="46.64902" lon="0.51587">
        <ele>196.16</ele>
        <time>2018-02-25T07:53:05.999Z</time>
      </trkpt>
      <trkpt lat="46.64908" lon="0.516">
        <ele>196.45</ele>
        <time>2018-02-25T07:53:07.999Z</time>
      </trkpt>
      <trkpt lat="46.64914" lon="0.51612">
        <ele>196.68</ele>
        <time>2018-02-25T07:53:10.999Z</time>
      </trkpt>
      <trkpt lat="46.6492" lon="0.51623">
        <ele>196.8</ele>
        <time>2018-02-25T07:53:12.999Z</time>
      </trkpt>
      <trkpt lat="46.64924" lon="0.51637">
        <ele>196.88</ele>
        <time>2018-02-25T07:53:14.999Z</time>
      </trkpt>
      <trkpt lat="46.64929" lon="0.51649">
        <ele>196.89</ele>
        <time>2018-02-25T07:53:16.999Z</time>
      </trkpt>
      <trkpt lat="46.64934" lon="0.51661">
        <ele>196.86</ele>
        <time>2018-02-25T07:53:18.999Z</time>
      </trkpt>
      <trkpt lat="46.64941" lon="0.51678">
        <ele>196.68</ele>
        <time>2018-02-25T07:53:21.999Z</time>
      </trkpt>
      <trkpt lat="46.64948" lon="0.51695">
        <ele>196.4</ele>
        <time>2018-02-25T07:53:24.999Z</time>
      </trkpt>
      <trkpt lat="46.64955" lon="0.51704">
        <ele>196.12</ele>
        <time>2018-02-25T07:53:26.999Z</time>
      </trkpt>
      <trkpt lat="46.64961" lon="0.51717">
        <ele>195.83</ele>
        <time>2018-02-25T07:53:28.999Z</time>
      </trkpt>
      <trkpt lat="46.64967" lon="0.51727">
        <ele>195.61</ele>
        <time>2018-02-25T07:53:30.999Z</time>
      </trkpt>
      <trkpt lat="46.64978" lon="0.51732">
        <ele>195.19</ele>
        <time>2018-02-25T07:53:33.999Z</time>
      </trkpt>
      <trkpt lat="46.64987" lon="0.51724">
        <ele>195.09</ele>
        <time>2018-02-25T07:53:36.999Z</time>
      </trkpt>
      <trkpt lat="46.64997" lon="0.51714">
        <ele>195</ele>
        <time>2018-02-25T07:53:39.999Z</time>
      </trkpt>
      <trkpt lat="46.65005" lon="0.51707">
        <ele>194.91</ele>
        <time>2018-02-25T07:53:42.999Z</time>
      </trkpt>
      <trkpt lat="46.65014" lon="0.51697">
        <ele>194.87</ele>
        <time>2018-02-25T07:53:45.999Z</time>
      </trkpt>
      <trkpt lat="46.65023" lon="0.51688">
        <ele>194.81</ele>
        <time>2018-02-25T07:53:48.999Z</time>
      </trkpt>
      <trkpt lat="46.65033" lon="0.51677">
        <ele>194.76</ele>
        <time>2018-02-25T07:53:51.999Z</time>
      </trkpt>
      <trkpt lat="46.65044" lon="0.51667">
        <ele>194.72</ele>
        <time>2018-02-25T07:53:54.999Z</time>
      </trkpt>
      <trkpt lat="46.65053" lon="0.51656">
        <ele>194.73</ele>
        <time>2018-02-25T07:53:57.999Z</time>
      </trkpt>
      <trkpt lat="46.65063" lon="0.51648">
        <ele>194.85</ele>
        <time>2018-02-25T07:54:00.999Z</time>
      </trkpt>
      <trkpt lat="46.65072" lon="0.5164">
        <ele>194.84</ele>
        <time>2018-02-25T07:54:02.999Z</time>
      </trkpt>
      <trkpt lat="46.65083" lon="0.51629">
        <ele>194.22</ele>
        <time>2018-02-25T07:54:05.999Z</time>
      </trkpt>
      <trkpt lat="46.65093" lon="0.5162">
        <ele>193.53</ele>
        <time>2018-02-25T07:54:07.999Z</time>
      </trkpt>
      <trkpt lat="46.65104" lon="0.51607">
        <ele>192</ele>
        <time>2018-02-25T07:54:09.999Z</time>
      </trkpt>
      <trkpt lat="46.65113" lon="0.51594">
        <ele>190.76</ele>
        <time>2018-02-25T07:54:11.999Z</time>
      </trkpt>
      <trkpt lat="46.65125" lon="0.51579">
        <ele>188.63</ele>
        <time>2018-02-25T07:54:13.999Z</time>
      </trkpt>
      <trkpt lat="46.65137" lon="0.51567">
        <ele>186.03</ele>
        <time>2018-02-25T07:54:15.999Z</time>
      </trkpt>
      <trkpt lat="46.65145" lon="0.51558">
        <ele>184.67</ele>
        <time>2018-02-25T07:54:17.999Z</time>
      </trkpt>
      <trkpt lat="46.65153" lon="0.51549">
        <ele>184.55</ele>
        <time>2018-02-25T07:54:19.999Z</time>
      </trkpt>
      <trkpt lat="46.65162" lon="0.51542">
        <ele>184.45</ele>
        <time>2018-02-25T07:54:21.999Z</time>
      </trkpt>
      <trkpt lat="46.6517" lon="0.51535">
        <ele>184.22</ele>
        <time>2018-02-25T07:54:23.999Z</time>
      </trkpt>
      <trkpt lat="46.65179" lon="0.51527">
        <ele>184.3</ele>
        <time>2018-02-25T07:54:25.999Z</time>
      </trkpt>
      <trkpt lat="46.65189" lon="0.51518">
        <ele>184.35</ele>
        <time>2018-02-25T07:54:27.999Z</time>
      </trkpt>
      <trkpt lat="46.65198" lon="0.51507">
        <ele>184.45</ele>
        <time>2018-02-25T07:54:30.999Z</time>
      </trkpt>
      <trkpt lat="46.65205" lon="0.515">
        <ele>184.56</ele>
        <time>2018-02-25T07:54:32.999Z</time>
      </trkpt>
      <trkpt lat="46.65213" lon="0.51489">
        <ele>184.61</ele>
        <time>2018-02-25T07:54:34.999Z</time>
      </trkpt>
      <trkpt lat="46.6522" lon="0.51479">
        <ele>184.85</ele>
        <time>2018-02-25T07:54:37.999Z</time>
      </trkpt>
      <trkpt lat="46.65226" lon="0.51469">
        <ele>185.12</ele>
        <time>2018-02-25T07:54:40.999Z</time>
      </trkpt>
      <trkpt lat="46.65232" lon="0.51455">
        <ele>185.93</ele>
        <time>2018-02-25T07:54:45.999Z</time>
      </trkpt>
      <trkpt lat="46.65239" lon="0.51443">
        <ele>186.35</ele>
        <time>2018-02-25T07:54:48.999Z</time>
      </trkpt>
      <trkpt lat="46.65248" lon="0.51432">
        <ele>186.57</ele>
        <time>2018-02-25T07:54:51.999Z</time>
      </trkpt>
      <trkpt lat="46.65258" lon="0.51427">
        <ele>186.34</ele>
        <time>2018-02-25T07:54:54.999Z</time>
      </trkpt>
      <trkpt lat="46.65269" lon="0.51422">
        <ele>185.95</ele>
        <time>2018-02-25T07:54:57.999Z</time>
      </trkpt>
      <trkpt lat="46.65278" lon="0.51422">
        <ele>185.72</ele>
        <time>2018-02-25T07:54:59.999Z</time>
      </trkpt>
      <trkpt lat="46.65288" lon="0.51427">
        <ele>185.55</ele>
        <time>2018-02-25T07:55:02.999Z</time>
      </trkpt>
      <trkpt lat="46.65297" lon="0.51437">
        <ele>185.25</ele>
        <time>2018-02-25T07:55:06.999Z</time>
      </trkpt>
      <trkpt lat="46.65307" lon="0.51439">
        <ele>184.77</ele>
        <time>2018-02-25T07:55:09.999Z</time>
      </trkpt>
      <trkpt lat="46.65317" lon="0.51441">
        <ele>181.44</ele>
        <time>2018-02-25T07:55:11.999Z</time>
      </trkpt>
      <trkpt lat="46.65331" lon="0.51443">
        <ele>179.37</ele>
        <time>2018-02-25T07:55:14.999Z</time>
      </trkpt>
      <trkpt lat="46.65343" lon="0.51447">
        <ele>179.23</ele>
        <time>2018-02-25T07:55:17.999Z</time>
      </trkpt>
      <trkpt lat="46.65356" lon="0.51453">
        <ele>179.46</ele>
        <time>2018-02-25T07:55:20.999Z</time>
      </trkpt>
      <trkpt lat="46.65369" lon="0.51459">
        <ele>179.75</ele>
        <time>2018-02-25T07:55:22.999Z</time>
      </trkpt>
      <trkpt lat="46.6538" lon="0.5146">
        <ele>180.13</ele>
        <time>2018-02-25T07:55:24.999Z</time>
      </trkpt>
      <trkpt lat="46.65388" lon="0.51451">
        <ele>180.97</ele>
        <time>2018-02-25T07:55:27.999Z</time>
      </trkpt>
      <trkpt lat="46.65397" lon="0.5144">
        <ele>184.77</ele>
        <time>2018-02-25T07:55:30.999Z</time>
      </trkpt>
      <trkpt lat="46.65411" lon="0.5143">
        <ele>187.54</ele>
        <time>2018-02-25T07:55:33.999Z</time>
      </trkpt>
      <trkpt lat="46.65419" lon="0.51416">
        <ele>186.71</ele>
        <time>2018-02-25T07:55:36.999Z</time>
      </trkpt>
      <trkpt lat="46.65427" lon="0.51409">
        <ele>185.33</ele>
        <time>2018-02-25T07:55:38.999Z</time>
      </trkpt>
      <trkpt lat="46.65437" lon="0.51401">
        <ele>183.82</ele>
        <time>2018-02-25T07:55:40.999Z</time>
      </trkpt>
      <trkpt lat="46.65444" lon="0.51394">
        <ele>182.43</ele>
        <time>2018-02-25T07:55:42.999Z</time>
      </trkpt>
      <trkpt lat="46.65452" lon="0.51384">
        <ele>181.13</ele>
        <time>2018-02-25T07:55:44.999Z</time>
      </trkpt>
      <trkpt lat="46.65461" lon="0.51376">
        <ele>179.44</ele>
        <time>2018-02-25T07:55:46.999Z</time>
      </trkpt>
      <trkpt lat="46.6547" lon="0.51365">
        <ele>177.72</ele>
        <time>2018-02-25T07:55:48.999Z</time>
      </trkpt>
      <trkpt lat="46.65479" lon="0.51356">
        <ele>176.18</ele>
        <time>2018-02-25T07:55:50.999Z</time>
      </trkpt>
      <trkpt lat="46.65489" lon="0.51346">
        <ele>175.29</ele>
        <time>2018-02-25T07:55:53.999Z</time>
      </trkpt>
      <trkpt lat="46.65498" lon="0.51337">
        <ele>175.18</ele>
        <time>2018-02-25T07:55:56.999Z</time>
      </trkpt>
      <trkpt lat="46.65508" lon="0.51328">
        <ele>175.03</ele>
        <time>2018-02-25T07:55:59.999Z</time>
      </trkpt>
      <trkpt lat="46.65516" lon="0.51319">
        <ele>174.59</ele>
        <time>2018-02-25T07:56:01.999Z</time>
      </trkpt>
      <trkpt lat="46.65527" lon="0.51309">
        <ele>175.07</ele>
        <time>2018-02-25T07:56:04.999Z</time>
      </trkpt>
      <trkpt lat="46.65535" lon="0.51301">
        <ele>175.11</ele>
        <time>2018-02-25T07:56:06.999Z</time>
      </trkpt>
      <trkpt lat="46.65544" lon="0.51289">
        <ele>175.32</ele>
        <time>2018-02-25T07:56:09.999Z</time>
      </trkpt>
      <trkpt lat="46.65553" lon="0.51277">
        <ele>175.12</ele>
        <time>2018-02-25T07:56:11.999Z</time>
      </trkpt>
      <trkpt lat="46.65563" lon="0.51267">
        <ele>173.6</ele>
        <time>2018-02-25T07:56:13.999Z</time>
      </trkpt>
      <trkpt lat="46.65574" lon="0.51254">
        <ele>173.4</ele>
        <time>2018-02-25T07:56:16.999Z</time>
      </trkpt>
      <trkpt lat="46.65581" lon="0.51245">
        <ele>173.16</ele>
        <time>2018-02-25T07:56:18.999Z</time>
      </trkpt>
      <trkpt lat="46.6559" lon="0.51234">
        <ele>172.78</ele>
        <time>2018-02-25T07:56:21.999Z</time>
      </trkpt>
      <trkpt lat="46.65599" lon="0.51228">
        <ele>172.38</ele>
        <time>2018-02-25T07:56:24.999Z</time>
      </trkpt>
      <trkpt lat="46.65609" lon="0.51234">
        <ele>171.51</ele>
        <time>2018-02-25T07:56:30.999Z</time>
      </trkpt>
      <trkpt lat="46.65615" lon="0.51246">
        <ele>171.09</ele>
        <time>2018-02-25T07:56:34.999Z</time>
      </trkpt>
      <trkpt lat="46.65622" lon="0.51256">
        <ele>170.98</ele>
        <time>2018-02-25T07:56:36.999Z</time>
      </trkpt>
      <trkpt lat="46.65631" lon="0.5127">
        <ele>170.95</ele>
        <time>2018-02-25T07:56:38.999Z</time>
      </trkpt>
      <trkpt lat="46.65637" lon="0.51282">
        <ele>171.04</ele>
        <time>2018-02-25T07:56:40.999Z</time>
      </trkpt>
      <trkpt lat="46.65643" lon="0.51292">
        <ele>171.17</ele>
        <time>2018-02-25T07:56:42.999Z</time>
      </trkpt>
      <trkpt lat="46.65648" lon="0.51306">
        <ele>171.37</ele>
        <time>2018-02-25T07:56:44.999Z</time>
      </trkpt>
      <trkpt lat="46.65652" lon="0.51321">
        <ele>171.55</ele>
        <time>2018-02-25T07:56:46.999Z</time>
      </trkpt>
      <trkpt lat="46.6566" lon="0.51336">
        <ele>171.95</ele>
        <time>2018-02-25T07:56:48.999Z</time>
      </trkpt>
      <trkpt lat="46.65669" lon="0.51352">
        <ele>172.02</ele>
        <time>2018-02-25T07:56:50.999Z</time>
      </trkpt>
      <trkpt lat="46.65679" lon="0.51368">
        <ele>171.51</ele>
        <time>2018-02-25T07:56:52.999Z</time>
      </trkpt>
      <trkpt lat="46.65686" lon="0.51384">
        <ele>170.46</ele>
        <time>2018-02-25T07:56:54.999Z</time>
      </trkpt>
      <trkpt lat="46.65691" lon="0.51395">
        <ele>169.88</ele>
        <time>2018-02-25T07:56:58.999Z</time>
      </trkpt>
      <trkpt lat="46.65698" lon="0.51409">
        <ele>168.82</ele>
        <time>2018-02-25T07:57:03.999Z</time>
      </trkpt>
      <trkpt lat="46.65704" lon="0.51419">
        <ele>168.26</ele>
        <time>2018-02-25T07:57:06.999Z</time>
      </trkpt>
      <trkpt lat="46.65713" lon="0.51424">
        <ele>167.92</ele>
        <time>2018-02-25T07:57:08.999Z</time>
      </trkpt>
      <trkpt lat="46.65723" lon="0.51421">
        <ele>165.42</ele>
        <time>2018-02-25T07:57:10.999Z</time>
      </trkpt>
      <trkpt lat="46.65733" lon="0.51411">
        <ele>164.26</ele>
        <time>2018-02-25T07:57:12.999Z</time>
      </trkpt>
      <trkpt lat="46.65743" lon="0.51401">
        <ele>163.71</ele>
        <time>2018-02-25T07:57:14.999Z</time>
      </trkpt>
      <trkpt lat="46.65754" lon="0.51391">
        <ele>163</ele>
        <time>2018-02-25T07:57:16.999Z</time>
      </trkpt>
      <trkpt lat="46.65766" lon="0.51386">
        <ele>161.77</ele>
        <time>2018-02-25T07:57:18.999Z</time>
      </trkpt>
      <trkpt lat="46.65778" lon="0.51385">
        <ele>160.69</ele>
        <time>2018-02-25T07:57:20.999Z</time>
      </trkpt>
      <trkpt lat="46.65788" lon="0.51378">
        <ele>160.63</ele>
        <time>2018-02-25T07:57:23.999Z</time>
      </trkpt>
      <trkpt lat="46.65797" lon="0.51388">
        <ele>161.04</ele>
        <time>2018-02-25T07:57:30.999Z</time>
      </trkpt>
      <trkpt lat="46.65802" lon="0.514">
        <ele>161.38</ele>
        <time>2018-02-25T07:57:33.999Z</time>
      </trkpt>
      <trkpt lat="46.65808" lon="0.51415">
        <ele>161.7</ele>
        <time>2018-02-25T07:57:36.999Z</time>
      </trkpt>
      <trkpt lat="46.65812" lon="0.51431">
        <ele>162.02</ele>
        <time>2018-02-25T07:57:39.999Z</time>
      </trkpt>
      <trkpt lat="46.65817" lon="0.51443">
        <ele>162.27</ele>
        <time>2018-02-25T07:57:42.999Z</time>
      </trkpt>
      <trkpt lat="46.65823" lon="0.51454">
        <ele>162.43</ele>
        <time>2018-02-25T07:57:44.999Z</time>
      </trkpt>
      <trkpt lat="46.65831" lon="0.5147">
        <ele>162.64</ele>
        <time>2018-02-25T07:57:47.999Z</time>
      </trkpt>
      <trkpt lat="46.65837" lon="0.51481">
        <ele>162.77</ele>
        <time>2018-02-25T07:57:49.999Z</time>
      </trkpt>
      <trkpt lat="46.65844" lon="0.51492">
        <ele>162.87</ele>
        <time>2018-02-25T07:57:50.999Z</time>
      </trkpt>
      <trkpt lat="46.65851" lon="0.51502">
        <ele>162.95</ele>
        <time>2018-02-25T07:57:51.999Z</time>
      </trkpt>
      <trkpt lat="46.65859" lon="0.51513">
        <ele>163.09</ele>
        <time>2018-02-25T07:57:54.999Z</time>
      </trkpt>
      <trkpt lat="46.65865" lon="0.51524">
        <ele>163.27</ele>
        <time>2018-02-25T07:57:57.999Z</time>
      </trkpt>
      <trkpt lat="46.65872" lon="0.51536">
        <ele>163.65</ele>
        <time>2018-02-25T07:58:00.999Z</time>
      </trkpt>
      <trkpt lat="46.65878" lon="0.51548">
        <ele>164.14</ele>
        <time>2018-02-25T07:58:03.999Z</time>
      </trkpt>
      <trkpt lat="46.65884" lon="0.51561">
        <ele>164.74</ele>
        <time>2018-02-25T07:58:06.999Z</time>
      </trkpt>
      <trkpt lat="46.65889" lon="0.51573">
        <ele>165.15</ele>
        <time>2018-02-25T07:58:08.999Z</time>
      </trkpt>
      <trkpt lat="46.65897" lon="0.51586">
        <ele>165.74</ele>
        <time>2018-02-25T07:58:11.999Z</time>
      </trkpt>
      <trkpt lat="46.65904" lon="0.51601">
        <ele>166.39</ele>
        <time>2018-02-25T07:58:14.999Z</time>
      </trkpt>
      <trkpt lat="46.6591" lon="0.51613">
        <ele>166.76</ele>
        <time>2018-02-25T07:58:16.999Z</time>
      </trkpt>
      <trkpt lat="46.65916" lon="0.51626">
        <ele>167.32</ele>
        <time>2018-02-25T07:58:19.999Z</time>
      </trkpt>
      <trkpt lat="46.65923" lon="0.5164">
        <ele>167.88</ele>
        <time>2018-02-25T07:58:22.999Z</time>
      </trkpt>
      <trkpt lat="46.65928" lon="0.5165">
        <ele>168.23</ele>
        <time>2018-02-25T07:58:24.999Z</time>
      </trkpt>
      <trkpt lat="46.65934" lon="0.51663">
        <ele>168.74</ele>
        <time>2018-02-25T07:58:27.999Z</time>
      </trkpt>
      <trkpt lat="46.65942" lon="0.51675">
        <ele>169.09</ele>
        <time>2018-02-25T07:58:29.999Z</time>
      </trkpt>
      <trkpt lat="46.65948" lon="0.51688">
        <ele>169.66</ele>
        <time>2018-02-25T07:58:32.999Z</time>
      </trkpt>
      <trkpt lat="46.65953" lon="0.51701">
        <ele>170.06</ele>
        <time>2018-02-25T07:58:34.999Z</time>
      </trkpt>
      <trkpt lat="46.65963" lon="0.51713">
        <ele>170.57</ele>
        <time>2018-02-25T07:58:36.999Z</time>
      </trkpt>
      <trkpt lat="46.65969" lon="0.51724">
        <ele>171.13</ele>
        <time>2018-02-25T07:58:38.999Z</time>
      </trkpt>
      <trkpt lat="46.65975" lon="0.51735">
        <ele>171.72</ele>
        <time>2018-02-25T07:58:40.999Z</time>
      </trkpt>
      <trkpt lat="46.6598" lon="0.51747">
        <ele>172.35</ele>
        <time>2018-02-25T07:58:42.999Z</time>
      </trkpt>
      <trkpt lat="46.65989" lon="0.51763">
        <ele>173.31</ele>
        <time>2018-02-25T07:58:45.999Z</time>
      </trkpt>
      <trkpt lat="46.65995" lon="0.51777">
        <ele>173.99</ele>
        <time>2018-02-25T07:58:47.999Z</time>
      </trkpt>
      <trkpt lat="46.66002" lon="0.51791">
        <ele>174.94</ele>
        <time>2018-02-25T07:58:50.999Z</time>
      </trkpt>
      <trkpt lat="46.66011" lon="0.51806">
        <ele>175.73</ele>
        <time>2018-02-25T07:58:53.999Z</time>
      </trkpt>
      <trkpt lat="46.66016" lon="0.5182">
        <ele>176.41</ele>
        <time>2018-02-25T07:58:56.999Z</time>
      </trkpt>
      <trkpt lat="46.66023" lon="0.51836">
        <ele>176.91</ele>
        <time>2018-02-25T07:58:59.999Z</time>
      </trkpt>
      <trkpt lat="46.66029" lon="0.51854">
        <ele>177.26</ele>
        <time>2018-02-25T07:59:02.999Z</time>
      </trkpt>
      <trkpt lat="46.66032" lon="0.51866">
        <ele>177.38</ele>
        <time>2018-02-25T07:59:04.999Z</time>
      </trkpt>
      <trkpt lat="46.66039" lon="0.5188">
        <ele>177.38</ele>
        <time>2018-02-25T07:59:06.999Z</time>
      </trkpt>
      <trkpt lat="46.66045" lon="0.51896">
        <ele>177.17</ele>
        <time>2018-02-25T07:59:09.999Z</time>
      </trkpt>
      <trkpt lat="46.66054" lon="0.51905">
        <ele>176.95</ele>
        <time>2018-02-25T07:59:11.999Z</time>
      </trkpt>
      <trkpt lat="46.6606" lon="0.51916">
        <ele>175.92</ele>
        <time>2018-02-25T07:59:21.999Z</time>
      </trkpt>
      <trkpt lat="46.66065" lon="0.51928">
        <ele>175.31</ele>
        <time>2018-02-25T07:59:23.999Z</time>
      </trkpt>
      <trkpt lat="46.66068" lon="0.51942">
        <ele>171.88</ele>
        <time>2018-02-25T07:59:38.999Z</time>
      </trkpt>
      <trkpt lat="46.66076" lon="0.51954">
        <ele>170.8</ele>
        <time>2018-02-25T07:59:43.999Z</time>
      </trkpt>
      <trkpt lat="46.66082" lon="0.51964">
        <ele>170.47</ele>
        <time>2018-02-25T07:59:46.999Z</time>
      </trkpt>
      <trkpt lat="46.66089" lon="0.51976">
        <ele>170.31</ele>
        <time>2018-02-25T07:59:50.999Z</time>
      </trkpt>
      <trkpt lat="46.66097" lon="0.5199">
        <ele>170.35</ele>
        <time>2018-02-25T07:59:56.999Z</time>
      </trkpt>
      <trkpt lat="46.66104" lon="0.52004">
        <ele>170.41</ele>
        <time>2018-02-25T07:59:59.999Z</time>
      </trkpt>
      <trkpt lat="46.6611" lon="0.52016">
        <ele>170.58</ele>
        <time>2018-02-25T08:00:03.999Z</time>
      </trkpt>
      <trkpt lat="46.66115" lon="0.52028">
        <ele>170.64</ele>
        <time>2018-02-25T08:00:09.999Z</time>
      </trkpt>
      <trkpt lat="46.66122" lon="0.52042">
        <ele>170.71</ele>
        <time>2018-02-25T08:00:13.999Z</time>
      </trkpt>
      <trkpt lat="46.66128" lon="0.52054">
        <ele>170.78</ele>
        <time>2018-02-25T08:00:17.999Z</time>
      </trkpt>
      <trkpt lat="46.66133" lon="0.52069">
        <ele>170.7</ele>
        <time>2018-02-25T08:00:21.999Z</time>
      </trkpt>
      <trkpt lat="46.66137" lon="0.5208">
        <ele>170.49</ele>
        <time>2018-02-25T08:00:25.999Z</time>
      </trkpt>
      <trkpt lat="46.66145" lon="0.52094">
        <ele>170.15</ele>
        <time>2018-02-25T08:00:29.999Z</time>
      </trkpt>
      <trkpt lat="46.6615" lon="0.52107">
        <ele>169.79</ele>
        <time>2018-02-25T08:00:34.999Z</time>
      </trkpt>
      <trkpt lat="46.66159" lon="0.52119">
        <ele>169.66</ele>
        <time>2018-02-25T08:00:37.999Z</time>
      </trkpt>
      <trkpt lat="46.66167" lon="0.52131">
        <ele>169.69</ele>
        <time>2018-02-25T08:00:42.999Z</time>
      </trkpt>
      <trkpt lat="46.66173" lon="0.52141">
        <ele>170.05</ele>
        <time>2018-02-25T08:00:46.999Z</time>
      </trkpt>
      <trkpt lat="46.6618" lon="0.5216">
        <ele>170.24</ele>
        <time>2018-02-25T08:00:50.999Z</time>
      </trkpt>
      <trkpt lat="46.66186" lon="0.52172">
        <ele>170.28</ele>
        <time>2018-02-25T08:00:52.999Z</time>
      </trkpt>
      <trkpt lat="46.66193" lon="0.52184">
        <ele>170.3</ele>
        <time>2018-02-25T08:00:56.999Z</time>
      </trkpt>
      <trkpt lat="46.66198" lon="0.52196">
        <ele>170.39</ele>
        <time>2018-02-25T08:01:00.999Z</time>
      </trkpt>
      <trkpt lat="46.66206" lon="0.52211">
        <ele>170.5</ele>
        <time>2018-02-25T08:01:04.999Z</time>
      </trkpt>
      <trkpt lat="46.66212" lon="0.52224">
        <ele>170.58</ele>
        <time>2018-02-25T08:01:07.999Z</time>
      </trkpt>
      <trkpt lat="46.66218" lon="0.52236">
        <ele>170.66</ele>
        <time>2018-02-25T08:01:11.999Z</time>
      </trkpt>
      <trkpt lat="46.66225" lon="0.5225">
        <ele>170.73</ele>
        <time>2018-02-25T08:01:15.999Z</time>
      </trkpt>
      <trkpt lat="46.6623" lon="0.52263">
        <ele>170.67</ele>
        <time>2018-02-25T08:01:18.999Z</time>
      </trkpt>
      <trkpt lat="46.66236" lon="0.52275">
        <ele>170.55</ele>
        <time>2018-02-25T08:01:21.999Z</time>
      </trkpt>
      <trkpt lat="46.66243" lon="0.52291">
        <ele>170.35</ele>
        <time>2018-02-25T08:01:24.999Z</time>
      </trkpt>
      <trkpt lat="46.6625" lon="0.52303">
        <ele>170.25</ele>
        <time>2018-02-25T08:01:27.999Z</time>
      </trkpt>
      <trkpt lat="46.66256" lon="0.52314">
        <ele>170.28</ele>
        <time>2018-02-25T08:01:30.999Z</time>
      </trkpt>
      <trkpt lat="46.66262" lon="0.52326">
        <ele>170.33</ele>
        <time>2018-02-25T08:01:33.999Z</time>
      </trkpt>
      <trkpt lat="46.66267" lon="0.52337">
        <ele>170.38</ele>
        <time>2018-02-25T08:01:36.999Z</time>
      </trkpt>
      <trkpt lat="46.66274" lon="0.52352">
        <ele>170.46</ele>
        <time>2018-02-25T08:01:39.999Z</time>
      </trkpt>
      <trkpt lat="46.66281" lon="0.52366">
        <ele>170.49</ele>
        <time>2018-02-25T08:01:42.999Z</time>
      </trkpt>
      <trkpt lat="46.66289" lon="0.52383">
        <ele>170.32</ele>
        <time>2018-02-25T08:01:45.999Z</time>
      </trkpt>
      <trkpt lat="46.66294" lon="0.52395">
        <ele>170.13</ele>
        <time>2018-02-25T08:01:47.999Z</time>
      </trkpt>
      <trkpt lat="46.66301" lon="0.52408">
        <ele>168.53</ele>
        <time>2018-02-25T08:01:49.999Z</time>
      </trkpt>
      <trkpt lat="46.66307" lon="0.52422">
        <ele>165.39</ele>
        <time>2018-02-25T08:01:51.999Z</time>
      </trkpt>
      <trkpt lat="46.66314" lon="0.52434">
        <ele>164.42</ele>
        <time>2018-02-25T08:01:53.999Z</time>
      </trkpt>
      <trkpt lat="46.6632" lon="0.52447">
        <ele>162.6</ele>
        <time>2018-02-25T08:01:55.999Z</time>
      </trkpt>
      <trkpt lat="46.66328" lon="0.52461">
        <ele>161.88</ele>
        <time>2018-02-25T08:01:57.999Z</time>
      </trkpt>
      <trkpt lat="46.66333" lon="0.52473">
        <ele>161.42</ele>
        <time>2018-02-25T08:01:59.999Z</time>
      </trkpt>
      <trkpt lat="46.66341" lon="0.52487">
        <ele>161.23</ele>
        <time>2018-02-25T08:02:01.999Z</time>
      </trkpt>
      <trkpt lat="46.66348" lon="0.525">
        <ele>161.24</ele>
        <time>2018-02-25T08:02:03.999Z</time>
      </trkpt>
      <trkpt lat="46.66359" lon="0.52511">
        <ele>161.22</ele>
        <time>2018-02-25T08:02:05.999Z</time>
      </trkpt>
      <trkpt lat="46.66365" lon="0.52499">
        <ele>161.29</ele>
        <time>2018-02-25T08:02:11.999Z</time>
      </trkpt>
      <trkpt lat="46.6637" lon="0.52487">
        <ele>161.26</ele>
        <time>2018-02-25T08:02:14.999Z</time>
      </trkpt>
      <trkpt lat="46.66372" lon="0.52472">
        <ele>161.31</ele>
        <time>2018-02-25T08:02:16.999Z</time>
      </trkpt>
      <trkpt lat="46.66375" lon="0.52459">
        <ele>161.41</ele>
        <time>2018-02-25T08:02:18.999Z</time>
      </trkpt>
      <trkpt lat="46.66378" lon="0.52444">
        <ele>161.6</ele>
        <time>2018-02-25T08:02:21.999Z</time>
      </trkpt>
      <trkpt lat="46.66381" lon="0.5243">
        <ele>161.68</ele>
        <time>2018-02-25T08:02:24.999Z</time>
      </trkpt>
      <trkpt lat="46.66383" lon="0.52417">
        <ele>161.87</ele>
        <time>2018-02-25T08:02:27.999Z</time>
      </trkpt>
      <trkpt lat="46.66385" lon="0.52402">
        <ele>162.11</ele>
        <time>2018-02-25T08:02:29.999Z</time>
      </trkpt>
      <trkpt lat="46.66387" lon="0.52389">
        <ele>162.55</ele>
        <time>2018-02-25T08:02:32.999Z</time>
      </trkpt>
      <trkpt lat="46.6639" lon="0.52374">
        <ele>162.99</ele>
        <time>2018-02-25T08:02:35.999Z</time>
      </trkpt>
      <trkpt lat="46.66393" lon="0.52362">
        <ele>163.42</ele>
        <time>2018-02-25T08:02:38.999Z</time>
      </trkpt>
      <trkpt lat="46.66397" lon="0.52349">
        <ele>163.8</ele>
        <time>2018-02-25T08:02:41.999Z</time>
      </trkpt>
      <trkpt lat="46.66398" lon="0.52335">
        <ele>164.03</ele>
        <time>2018-02-25T08:02:43.999Z</time>
      </trkpt>
      <trkpt lat="46.66398" lon="0.52321">
        <ele>164.35</ele>
        <time>2018-02-25T08:02:45.999Z</time>
      </trkpt>
      <trkpt lat="46.66403" lon="0.52306">
        <ele>165.07</ele>
        <time>2018-02-25T08:02:49.999Z</time>
      </trkpt>
      <trkpt lat="46.66405" lon="0.52291">
        <ele>165.5</ele>
        <time>2018-02-25T08:02:53.999Z</time>
      </trkpt>
      <trkpt lat="46.66408" lon="0.52276">
        <ele>165.68</ele>
        <time>2018-02-25T08:02:56.999Z</time>
      </trkpt>
      <trkpt lat="46.66411" lon="0.52262">
        <ele>165.77</ele>
        <time>2018-02-25T08:02:58.999Z</time>
      </trkpt>
      <trkpt lat="46.66414" lon="0.52249">
        <ele>165.89</ele>
        <time>2018-02-25T08:03:00.999Z</time>
      </trkpt>
      <trkpt lat="46.66418" lon="0.52232">
        <ele>165.95</ele>
        <time>2018-02-25T08:03:02.999Z</time>
      </trkpt>
      <trkpt lat="46.66421" lon="0.52219">
        <ele>166.06</ele>
        <time>2018-02-25T08:03:04.999Z</time>
      </trkpt>
      <trkpt lat="46.66423" lon="0.52203">
        <ele>166.12</ele>
        <time>2018-02-25T08:03:07.999Z</time>
      </trkpt>
      <trkpt lat="46.66425" lon="0.52186">
        <ele>166.19</ele>
        <time>2018-02-25T08:03:10.999Z</time>
      </trkpt>
      <trkpt lat="46.66427" lon="0.52172">
        <ele>166.42</ele>
        <time>2018-02-25T08:03:14.999Z</time>
      </trkpt>
      <trkpt lat="46.66429" lon="0.52159">
        <ele>166.67</ele>
        <time>2018-02-25T08:03:17.999Z</time>
      </trkpt>
      <trkpt lat="46.66432" lon="0.52145">
        <ele>166.98</ele>
        <time>2018-02-25T08:03:20.999Z</time>
      </trkpt>
      <trkpt lat="46.66435" lon="0.52132">
        <ele>167.22</ele>
        <time>2018-02-25T08:03:22.999Z</time>
      </trkpt>
      <trkpt lat="46.66438" lon="0.52115">
        <ele>167.44</ele>
        <time>2018-02-25T08:03:25.999Z</time>
      </trkpt>
      <trkpt lat="46.66442" lon="0.52096">
        <ele>167.64</ele>
        <time>2018-02-25T08:03:28.999Z</time>
      </trkpt>
      <trkpt lat="46.66444" lon="0.52081">
        <ele>168.14</ele>
        <time>2018-02-25T08:03:31.999Z</time>
      </trkpt>
      <trkpt lat="46.66446" lon="0.52066">
        <ele>168.56</ele>
        <time>2018-02-25T08:03:34.999Z</time>
      </trkpt>
      <trkpt lat="46.66454" lon="0.52047">
        <ele>168.94</ele>
        <time>2018-02-25T08:03:38.999Z</time>
      </trkpt>
      <trkpt lat="46.66462" lon="0.52033">
        <ele>169.17</ele>
        <time>2018-02-25T08:03:41.999Z</time>
      </trkpt>
      <trkpt lat="46.66472" lon="0.52021">
        <ele>169.35</ele>
        <time>2018-02-25T08:03:44.999Z</time>
      </trkpt>
      <trkpt lat="46.6648" lon="0.52011">
        <ele>169.52</ele>
        <time>2018-02-25T08:03:46.999Z</time>
      </trkpt>
      <trkpt lat="46.6649" lon="0.51998">
        <ele>169.77</ele>
        <time>2018-02-25T08:03:49.999Z</time>
      </trkpt>
      <trkpt lat="46.66497" lon="0.51987">
        <ele>169.9</ele>
        <time>2018-02-25T08:03:51.999Z</time>
      </trkpt>
      <trkpt lat="46.66505" lon="0.51979">
        <ele>169.88</ele>
        <time>2018-02-25T08:03:54.999Z</time>
      </trkpt>
      <trkpt lat="46.66512" lon="0.51971">
        <ele>169.76</ele>
        <time>2018-02-25T08:03:57.999Z</time>
      </trkpt>
      <trkpt lat="46.6652" lon="0.51962">
        <ele>169.21</ele>
        <time>2018-02-25T08:04:01.999Z</time>
      </trkpt>
      <trkpt lat="46.66528" lon="0.51955">
        <ele>168.48</ele>
        <time>2018-02-25T08:04:05.999Z</time>
      </trkpt>
      <trkpt lat="46.66536" lon="0.51946">
        <ele>167.67</ele>
        <time>2018-02-25T08:04:10.999Z</time>
      </trkpt>
      <trkpt lat="46.66545" lon="0.51937">
        <ele>166.94</ele>
        <time>2018-02-25T08:04:15.999Z</time>
      </trkpt>
      <trkpt lat="46.66554" lon="0.51928">
        <ele>165.79</ele>
        <time>2018-02-25T08:04:20.999Z</time>
      </trkpt>
      <trkpt lat="46.66562" lon="0.51921">
        <ele>164.28</ele>
        <time>2018-02-25T08:04:25.999Z</time>
      </trkpt>
      <trkpt lat="46.66569" lon="0.51914">
        <ele>163.09</ele>
        <time>2018-02-25T08:04:29.999Z</time>
      </trkpt>
      <trkpt lat="46.66576" lon="0.51905">
        <ele>162.14</ele>
        <time>2018-02-25T08:04:33.999Z</time>
      </trkpt>
      <trkpt lat="46.66584" lon="0.51895">
        <ele>161.18</ele>
        <time>2018-02-25T08:04:38.999Z</time>
      </trkpt>
      <trkpt lat="46.66592" lon="0.51887">
        <ele>160.54</ele>
        <time>2018-02-25T08:04:42.999Z</time>
      </trkpt>
      <trkpt lat="46.666" lon="0.51879">
        <ele>159.91</ele>
        <time>2018-02-25T08:04:46.999Z</time>
      </trkpt>
      <trkpt lat="46.66608" lon="0.51871">
        <ele>159.48</ele>
        <time>2018-02-25T08:04:50.999Z</time>
      </trkpt>
      <trkpt lat="46.66616" lon="0.51863">
        <ele>159.28</ele>
        <time>2018-02-25T08:04:55.999Z</time>
      </trkpt>
      <trkpt lat="46.66623" lon="0.51855">
        <ele>159.17</ele>
        <time>2018-02-25T08:04:58.999Z</time>
      </trkpt>
      <trkpt lat="46.66631" lon="0.51847">
        <ele>159.12</ele>
        <time>2018-02-25T08:05:01.999Z</time>
      </trkpt>
      <trkpt lat="46.66637" lon="0.51838">
        <ele>159.28</ele>
        <time>2018-02-25T08:05:04.999Z</time>
      </trkpt>
      <trkpt lat="46.66647" lon="0.51829">
        <ele>159.7</ele>
        <time>2018-02-25T08:05:08.999Z</time>
      </trkpt>
      <trkpt lat="46.66656" lon="0.51821">
        <ele>160.07</ele>
        <time>2018-02-25T08:05:11.999Z</time>
      </trkpt>
      <trkpt lat="46.66665" lon="0.5181">
        <ele>160.33</ele>
        <time>2018-02-25T08:05:14.999Z</time>
      </trkpt>
      <trkpt lat="46.66673" lon="0.51799">
        <ele>160.51</ele>
        <time>2018-02-25T08:05:18.999Z</time>
      </trkpt>
      <trkpt lat="46.66682" lon="0.5179">
        <ele>160.53</ele>
        <time>2018-02-25T08:05:22.999Z</time>
      </trkpt>
      <trkpt lat="46.66688" lon="0.51779">
        <ele>160.37</ele>
        <time>2018-02-25T08:05:25.999Z</time>
      </trkpt>
      <trkpt lat="46.66688" lon="0.51765">
        <ele>160.16</ele>
        <time>2018-02-25T08:05:28.999Z</time>
      </trkpt>
      <trkpt lat="46.66689" lon="0.51751">
        <ele>159.83</ele>
        <time>2018-02-25T08:05:32.999Z</time>
      </trkpt>
      <trkpt lat="46.6669" lon="0.51736">
        <ele>159.12</ele>
        <time>2018-02-25T08:05:36.999Z</time>
      </trkpt>
      <trkpt lat="46.66691" lon="0.51721">
        <ele>158.51</ele>
        <time>2018-02-25T08:05:40.999Z</time>
      </trkpt>
      <trkpt lat="46.66698" lon="0.51706">
        <ele>157.98</ele>
        <time>2018-02-25T08:05:44.999Z</time>
      </trkpt>
      <trkpt lat="46.66703" lon="0.51689">
        <ele>157.51</ele>
        <time>2018-02-25T08:05:48.999Z</time>
      </trkpt>
      <trkpt lat="46.66703" lon="0.51675">
        <ele>157.14</ele>
        <time>2018-02-25T08:05:51.999Z</time>
      </trkpt>
      <trkpt lat="46.66699" lon="0.51659">
        <ele>156.92</ele>
        <time>2018-02-25T08:05:53.999Z</time>
      </trkpt>
      <trkpt lat="46.66699" lon="0.51645">
        <ele>156.65</ele>
        <time>2018-02-25T08:05:56.999Z</time>
      </trkpt>
      <trkpt lat="46.66697" lon="0.51632">
        <ele>156.48</ele>
        <time>2018-02-25T08:05:58.999Z</time>
      </trkpt>
      <trkpt lat="46.66695" lon="0.51617">
        <ele>156.2</ele>
        <time>2018-02-25T08:06:02.999Z</time>
      </trkpt>
      <trkpt lat="46.66695" lon="0.51602">
        <ele>155.85</ele>
        <time>2018-02-25T08:06:17.999Z</time>
      </trkpt>
      <trkpt lat="46.66697" lon="0.51585">
        <ele>155.6</ele>
        <time>2018-02-25T08:06:22.999Z</time>
      </trkpt>
      <trkpt lat="46.667" lon="0.5157">
        <ele>155.67</ele>
        <time>2018-02-25T08:06:25.999Z</time>
      </trkpt>
      <trkpt lat="46.66701" lon="0.51554">
        <ele>156.52</ele>
        <time>2018-02-25T08:06:30.999Z</time>
      </trkpt>
      <trkpt lat="46.66706" lon="0.51543">
        <ele>157.29</ele>
        <time>2018-02-25T08:06:35.999Z</time>
      </trkpt>
      <trkpt lat="46.66713" lon="0.51535">
        <ele>157.79</ele>
        <time>2018-02-25T08:06:40.999Z</time>
      </trkpt>
      <trkpt lat="46.66724" lon="0.51531">
        <ele>158.64</ele>
        <time>2018-02-25T08:06:45.999Z</time>
      </trkpt>
      <trkpt lat="46.66732" lon="0.5153">
        <ele>159.3</ele>
        <time>2018-02-25T08:06:49.999Z</time>
      </trkpt>
      <trkpt lat="46.66743" lon="0.51528">
        <ele>160.08</ele>
        <time>2018-02-25T08:06:54.999Z</time>
      </trkpt>
      <trkpt lat="46.66752" lon="0.51526">
        <ele>160.53</ele>
        <time>2018-02-25T08:06:57.999Z</time>
      </trkpt>
      <trkpt lat="46.66761" lon="0.51526">
        <ele>160.75</ele>
        <time>2018-02-25T08:06:59.999Z</time>
      </trkpt>
      <trkpt lat="46.66772" lon="0.51522">
        <ele>161.22</ele>
        <time>2018-02-25T08:07:02.999Z</time>
      </trkpt>
      <trkpt lat="46.66784" lon="0.51519">
        <ele>161.96</ele>
        <time>2018-02-25T08:07:06.999Z</time>
      </trkpt>
      <trkpt lat="46.66794" lon="0.51514">
        <ele>162.61</ele>
        <time>2018-02-25T08:07:09.999Z</time>
      </trkpt>
      <trkpt lat="46.66803" lon="0.5151">
        <ele>162.91</ele>
        <time>2018-02-25T08:07:11.999Z</time>
      </trkpt>
      <trkpt lat="46.66814" lon="0.51507">
        <ele>163.06</ele>
        <time>2018-02-25T08:07:14.999Z</time>
      </trkpt>
      <trkpt lat="46.66825" lon="0.51509">
        <ele>162.63</ele>
        <time>2018-02-25T08:07:18.999Z</time>
      </trkpt>
      <trkpt lat="46.66836" lon="0.51511">
        <ele>161.6</ele>
        <time>2018-02-25T08:07:23.999Z</time>
      </trkpt>
      <trkpt lat="46.66847" lon="0.5151">
        <ele>160.59</ele>
        <time>2018-02-25T08:07:27.999Z</time>
      </trkpt>
      <trkpt lat="46.66857" lon="0.51511">
        <ele>159.56</ele>
        <time>2018-02-25T08:07:31.999Z</time>
      </trkpt>
      <trkpt lat="46.66866" lon="0.51512">
        <ele>158.74</ele>
        <time>2018-02-25T08:07:34.999Z</time>
      </trkpt>
      <trkpt lat="46.66876" lon="0.51512">
        <ele>158.1</ele>
        <time>2018-02-25T08:07:37.999Z</time>
      </trkpt>
      <trkpt lat="46.66887" lon="0.51511">
        <ele>157.42</ele>
        <time>2018-02-25T08:07:41.999Z</time>
      </trkpt>
      <trkpt lat="46.66898" lon="0.5151">
        <ele>156.98</ele>
        <time>2018-02-25T08:07:45.999Z</time>
      </trkpt>
      <trkpt lat="46.66908" lon="0.51508">
        <ele>156.66</ele>
        <time>2018-02-25T08:07:50.999Z</time>
      </trkpt>
      <trkpt lat="46.66917" lon="0.51503">
        <ele>156.86</ele>
        <time>2018-02-25T08:07:55.999Z</time>
      </trkpt>
      <trkpt lat="46.66927" lon="0.51499">
        <ele>157.71</ele>
        <time>2018-02-25T08:08:01.999Z</time>
      </trkpt>
      <trkpt lat="46.66936" lon="0.51499">
        <ele>159.01</ele>
        <time>2018-02-25T08:08:07.999Z</time>
      </trkpt>
      <trkpt lat="46.66946" lon="0.515">
        <ele>160.66</ele>
        <time>2018-02-25T08:08:14.999Z</time>
      </trkpt>
      <trkpt lat="46.66956" lon="0.51503">
        <ele>162.39</ele>
        <time>2018-02-25T08:08:20.999Z</time>
      </trkpt>
      <trkpt lat="46.66965" lon="0.51501">
        <ele>164.19</ele>
        <time>2018-02-25T08:08:27.999Z</time>
      </trkpt>
      <trkpt lat="46.66976" lon="0.515">
        <ele>164.99</ele>
        <time>2018-02-25T08:08:32.999Z</time>
      </trkpt>
      <trkpt lat="46.66987" lon="0.51499">
        <ele>165.68</ele>
        <time>2018-02-25T08:08:37.999Z</time>
      </trkpt>
      <trkpt lat="46.66996" lon="0.515">
        <ele>165.77</ele>
        <time>2018-02-25T08:08:40.999Z</time>
      </trkpt>
      <trkpt lat="46.67007" lon="0.51497">
        <ele>165.69</ele>
        <time>2018-02-25T08:08:43.999Z</time>
      </trkpt>
      <trkpt lat="46.67017" lon="0.51495">
        <ele>165.8</ele>
        <time>2018-02-25T08:08:47.999Z</time>
      </trkpt>
      <trkpt lat="46.67027" lon="0.51491">
        <ele>166.09</ele>
        <time>2018-02-25T08:08:50.999Z</time>
      </trkpt>
      <trkpt lat="46.67036" lon="0.51488">
        <ele>166.33</ele>
        <time>2018-02-25T08:08:53.999Z</time>
      </trkpt>
      <trkpt lat="46.67045" lon="0.51487">
        <ele>166.34</ele>
        <time>2018-02-25T08:08:56.999Z</time>
      </trkpt>
      <trkpt lat="46.67055" lon="0.51487">
        <ele>165.99</ele>
        <time>2018-02-25T08:09:00.999Z</time>
      </trkpt>
      <trkpt lat="46.67066" lon="0.51483">
        <ele>165.55</ele>
        <time>2018-02-25T08:09:04.999Z</time>
      </trkpt>
      <trkpt lat="46.67075" lon="0.5148">
        <ele>165.05</ele>
        <time>2018-02-25T08:09:08.999Z</time>
      </trkpt>
      <trkpt lat="46.67083" lon="0.51473">
        <ele>164.8</ele>
        <time>2018-02-25T08:09:11.999Z</time>
      </trkpt>
      <trkpt lat="46.67094" lon="0.5147">
        <ele>163.79</ele>
        <time>2018-02-25T08:09:15.999Z</time>
      </trkpt>
      <trkpt lat="46.67104" lon="0.51471">
        <ele>163.12</ele>
        <time>2018-02-25T08:09:17.999Z</time>
      </trkpt>
      <trkpt lat="46.67115" lon="0.51468">
        <ele>162.52</ele>
        <time>2018-02-25T08:09:19.999Z</time>
      </trkpt>
      <trkpt lat="46.67129" lon="0.51467">
        <ele>161.82</ele>
        <time>2018-02-25T08:09:22.999Z</time>
      </trkpt>
      <trkpt lat="46.67137" lon="0.51473">
        <ele>161.37</ele>
        <time>2018-02-25T08:09:25.999Z</time>
      </trkpt>
      <trkpt lat="46.67148" lon="0.5147">
        <ele>161.08</ele>
        <time>2018-02-25T08:09:28.999Z</time>
      </trkpt>
      <trkpt lat="46.67159" lon="0.51471">
        <ele>160.76</ele>
        <time>2018-02-25T08:09:31.999Z</time>
      </trkpt>
      <trkpt lat="46.67172" lon="0.51472">
        <ele>160.49</ele>
        <time>2018-02-25T08:09:34.999Z</time>
      </trkpt>
      <trkpt lat="46.67184" lon="0.51473">
        <ele>159.04</ele>
        <time>2018-02-25T08:09:36.999Z</time>
      </trkpt>
      <trkpt lat="46.67194" lon="0.51473">
        <ele>158.78</ele>
        <time>2018-02-25T08:09:38.999Z</time>
      </trkpt>
      <trkpt lat="46.67206" lon="0.51474">
        <ele>158.1</ele>
        <time>2018-02-25T08:09:41.999Z</time>
      </trkpt>
      <trkpt lat="46.67217" lon="0.51475">
        <ele>157.45</ele>
        <time>2018-02-25T08:09:43.999Z</time>
      </trkpt>
      <trkpt lat="46.67229" lon="0.51475">
        <ele>156.55</ele>
        <time>2018-02-25T08:09:46.999Z</time>
      </trkpt>
      <trkpt lat="46.67239" lon="0.51478">
        <ele>156.04</ele>
        <time>2018-02-25T08:09:49.999Z</time>
      </trkpt>
      <trkpt lat="46.6725" lon="0.5148">
        <ele>155.77</ele>
        <time>2018-02-25T08:09:52.999Z</time>
      </trkpt>
      <trkpt lat="46.6726" lon="0.5148">
        <ele>155.65</ele>
        <time>2018-02-25T08:09:56.999Z</time>
      </trkpt>
      <trkpt lat="46.67272" lon="0.51477">
        <ele>155.93</ele>
        <time>2018-02-25T08:10:01.999Z</time>
      </trkpt>
      <trkpt lat="46.67283" lon="0.51475">
        <ele>155.94</ele>
        <time>2018-02-25T08:10:05.999Z</time>
      </trkpt>
      <trkpt lat="46.67291" lon="0.51469">
        <ele>155.68</ele>
        <time>2018-02-25T08:10:10.999Z</time>
      </trkpt>
      <trkpt lat="46.67298" lon="0.5146">
        <ele>155.97</ele>
        <time>2018-02-25T08:10:17.999Z</time>
      </trkpt>
      <trkpt lat="46.67306" lon="0.5145">
        <ele>156.18</ele>
        <time>2018-02-25T08:10:20.999Z</time>
      </trkpt>
      <trkpt lat="46.67311" lon="0.51438">
        <ele>156.39</ele>
        <time>2018-02-25T08:10:23.999Z</time>
      </trkpt>
      <trkpt lat="46.67318" lon="0.51426">
        <ele>156.75</ele>
        <time>2018-02-25T08:10:28.999Z</time>
      </trkpt>
      <trkpt lat="46.67326" lon="0.51417">
        <ele>156.85</ele>
        <time>2018-02-25T08:10:33.999Z</time>
      </trkpt>
      <trkpt lat="46.67333" lon="0.51408">
        <ele>156.73</ele>
        <time>2018-02-25T08:10:39.999Z</time>
      </trkpt>
      <trkpt lat="46.6734" lon="0.51399">
        <ele>156.38</ele>
        <time>2018-02-25T08:10:43.999Z</time>
      </trkpt>
      <trkpt lat="46.67349" lon="0.51391">
        <ele>156.02</ele>
        <time>2018-02-25T08:10:47.999Z</time>
      </trkpt>
      <trkpt lat="46.67357" lon="0.51383">
        <ele>156.22</ele>
        <time>2018-02-25T08:10:52.999Z</time>
      </trkpt>
      <trkpt lat="46.67364" lon="0.51372">
        <ele>156.7</ele>
        <time>2018-02-25T08:10:57.999Z</time>
      </trkpt>
      <trkpt lat="46.67369" lon="0.5136">
        <ele>157.02</ele>
        <time>2018-02-25T08:11:01.999Z</time>
      </trkpt>
      <trkpt lat="46.67375" lon="0.51349">
        <ele>157.45</ele>
        <time>2018-02-25T08:11:05.999Z</time>
      </trkpt>
      <trkpt lat="46.67384" lon="0.5134">
        <ele>158.08</ele>
        <time>2018-02-25T08:11:11.999Z</time>
      </trkpt>
      <trkpt lat="46.67392" lon="0.51331">
        <ele>158.46</ele>
        <time>2018-02-25T08:11:14.999Z</time>
      </trkpt>
      <trkpt lat="46.674" lon="0.51322">
        <ele>158.91</ele>
        <time>2018-02-25T08:11:18.999Z</time>
      </trkpt>
      <trkpt lat="46.67408" lon="0.51315">
        <ele>159.47</ele>
        <time>2018-02-25T08:11:21.999Z</time>
      </trkpt>
      <trkpt lat="46.67418" lon="0.51303">
        <ele>159.79</ele>
        <time>2018-02-25T08:11:24.999Z</time>
      </trkpt>
      <trkpt lat="46.67425" lon="0.51294">
        <ele>159.89</ele>
        <time>2018-02-25T08:11:26.999Z</time>
      </trkpt>
      <trkpt lat="46.67434" lon="0.51286">
        <ele>159.85</ele>
        <time>2018-02-25T08:11:28.999Z</time>
      </trkpt>
      <trkpt lat="46.67444" lon="0.51278">
        <ele>159.76</ele>
        <time>2018-02-25T08:11:30.999Z</time>
      </trkpt>
      <trkpt lat="46.67452" lon="0.51274">
        <ele>159.79</ele>
        <time>2018-02-25T08:11:32.999Z</time>
      </trkpt>
      <trkpt lat="46.67464" lon="0.5127">
        <ele>159.76</ele>
        <time>2018-02-25T08:11:34.999Z</time>
      </trkpt>
      <trkpt lat="46.67474" lon="0.51273">
        <ele>159.67</ele>
        <time>2018-02-25T08:11:36.999Z</time>
      </trkpt>
      <trkpt lat="46.67482" lon="0.51278">
        <ele>159.59</ele>
        <time>2018-02-25T08:11:39.999Z</time>
      </trkpt>
      <trkpt lat="46.67494" lon="0.51283">
        <ele>159.45</ele>
        <time>2018-02-25T08:11:41.999Z</time>
      </trkpt>
      <trkpt lat="46.67506" lon="0.51286">
        <ele>159.48</ele>
        <time>2018-02-25T08:11:43.999Z</time>
      </trkpt>
      <trkpt lat="46.67518" lon="0.5129">
        <ele>158.98</ele>
        <time>2018-02-25T08:11:45.999Z</time>
      </trkpt>
      <trkpt lat="46.67531" lon="0.51296">
        <ele>158.48</ele>
        <time>2018-02-25T08:11:47.999Z</time>
      </trkpt>
      <trkpt lat="46.67545" lon="0.51302">
        <ele>158.5</ele>
        <time>2018-02-25T08:11:49.999Z</time>
      </trkpt>
      <trkpt lat="46.67556" lon="0.51309">
        <ele>158.64</ele>
        <time>2018-02-25T08:11:51.999Z</time>
      </trkpt>
      <trkpt lat="46.67565" lon="0.51313">
        <ele>158.73</ele>
        <time>2018-02-25T08:11:53.999Z</time>
      </trkpt>
      <trkpt lat="46.67577" lon="0.51319">
        <ele>158.89</ele>
        <time>2018-02-25T08:11:55.999Z</time>
      </trkpt>
      <trkpt lat="46.67587" lon="0.51324">
        <ele>159.06</ele>
        <time>2018-02-25T08:11:57.999Z</time>
      </trkpt>
      <trkpt lat="46.67601" lon="0.51331">
        <ele>160.5</ele>
        <time>2018-02-25T08:11:59.999Z</time>
      </trkpt>
      <trkpt lat="46.6761" lon="0.51334">
        <ele>160.63</ele>
        <time>2018-02-25T08:12:01.999Z</time>
      </trkpt>
      <trkpt lat="46.67621" lon="0.51334">
        <ele>161.13</ele>
        <time>2018-02-25T08:12:03.999Z</time>
      </trkpt>
      <trkpt lat="46.67629" lon="0.51326">
        <ele>161.56</ele>
        <time>2018-02-25T08:12:05.999Z</time>
      </trkpt>
      <trkpt lat="46.67638" lon="0.51313">
        <ele>162.03</ele>
        <time>2018-02-25T08:12:07.999Z</time>
      </trkpt>
      <trkpt lat="46.67648" lon="0.51301">
        <ele>161.33</ele>
        <time>2018-02-25T08:12:09.999Z</time>
      </trkpt>
      <trkpt lat="46.67657" lon="0.51289">
        <ele>159.53</ele>
        <time>2018-02-25T08:12:11.999Z</time>
      </trkpt>
      <trkpt lat="46.67667" lon="0.5128">
        <ele>158.37</ele>
        <time>2018-02-25T08:12:14.999Z</time>
      </trkpt>
      <trkpt lat="46.67676" lon="0.51275">
        <ele>157.43</ele>
        <time>2018-02-25T08:12:19.999Z</time>
      </trkpt>
      <trkpt lat="46.67685" lon="0.51264">
        <ele>156.61</ele>
        <time>2018-02-25T08:12:25.999Z</time>
      </trkpt>
      <trkpt lat="46.67693" lon="0.51254">
        <ele>156.26</ele>
        <time>2018-02-25T08:12:29.999Z</time>
      </trkpt>
      <trkpt lat="46.677" lon="0.51243">
        <ele>155.76</ele>
        <time>2018-02-25T08:12:34.999Z</time>
      </trkpt>
      <trkpt lat="46.67707" lon="0.51234">
        <ele>155.35</ele>
        <time>2018-02-25T08:12:39.999Z</time>
      </trkpt>
      <trkpt lat="46.67713" lon="0.51222">
        <ele>155.1</ele>
        <time>2018-02-25T08:12:43.999Z</time>
      </trkpt>
      <trkpt lat="46.67719" lon="0.51209">
        <ele>155.08</ele>
        <time>2018-02-25T08:12:48.999Z</time>
      </trkpt>
      <trkpt lat="46.67725" lon="0.51198">
        <ele>155.09</ele>
        <time>2018-02-25T08:12:51.999Z</time>
      </trkpt>
      <trkpt lat="46.6773" lon="0.51187">
        <ele>155.16</ele>
        <time>2018-02-25T08:12:54.999Z</time>
      </trkpt>
      <trkpt lat="46.67735" lon="0.51172">
        <ele>155.46</ele>
        <time>2018-02-25T08:12:59.999Z</time>
      </trkpt>
      <trkpt lat="46.6774" lon="0.51158">
        <ele>155.84</ele>
        <time>2018-02-25T08:13:05.999Z</time>
      </trkpt>
      <trkpt lat="46.67739" lon="0.51145">
        <ele>156.27</ele>
        <time>2018-02-25T08:13:10.999Z</time>
      </trkpt>
      <trkpt lat="46.67732" lon="0.51132">
        <ele>156.82</ele>
        <time>2018-02-25T08:13:14.999Z</time>
      </trkpt>
      <trkpt lat="46.67727" lon="0.51121">
        <ele>158.08</ele>
        <time>2018-02-25T08:13:19.999Z</time>
      </trkpt>
      <trkpt lat="46.67722" lon="0.51108">
        <ele>159.28</ele>
        <time>2018-02-25T08:13:24.999Z</time>
      </trkpt>
      <trkpt lat="46.67717" lon="0.51095">
        <ele>161.02</ele>
        <time>2018-02-25T08:13:30.999Z</time>
      </trkpt>
      <trkpt lat="46.67712" lon="0.51085">
        <ele>162.54</ele>
        <time>2018-02-25T08:13:35.999Z</time>
      </trkpt>
      <trkpt lat="46.67706" lon="0.51072">
        <ele>163.71</ele>
        <time>2018-02-25T08:13:39.999Z</time>
      </trkpt>
      <trkpt lat="46.677" lon="0.51052">
        <ele>164.75</ele>
        <time>2018-02-25T08:13:42.999Z</time>
      </trkpt>
      <trkpt lat="46.67698" lon="0.51035">
        <ele>165.29</ele>
        <time>2018-02-25T08:13:44.999Z</time>
      </trkpt>
      <trkpt lat="46.67699" lon="0.5102">
        <ele>165.84</ele>
        <time>2018-02-25T08:13:47.999Z</time>
      </trkpt>
      <trkpt lat="46.67705" lon="0.51009">
        <ele>165.98</ele>
        <time>2018-02-25T08:13:50.999Z</time>
      </trkpt>
      <trkpt lat="46.67714" lon="0.50998">
        <ele>165.62</ele>
        <time>2018-02-25T08:13:54.999Z</time>
      </trkpt>
      <trkpt lat="46.67722" lon="0.5099">
        <ele>164.68</ele>
        <time>2018-02-25T08:13:58.999Z</time>
      </trkpt>
      <trkpt lat="46.6773" lon="0.50981">
        <ele>163.51</ele>
        <time>2018-02-25T08:14:02.999Z</time>
      </trkpt>
      <trkpt lat="46.6774" lon="0.50969">
        <ele>162.37</ele>
        <time>2018-02-25T08:14:06.999Z</time>
      </trkpt>
      <trkpt lat="46.67749" lon="0.50959">
        <ele>161.81</ele>
        <time>2018-02-25T08:14:09.999Z</time>
      </trkpt>
      <trkpt lat="46.67757" lon="0.50952">
        <ele>161.33</ele>
        <time>2018-02-25T08:14:13.999Z</time>
      </trkpt>
      <trkpt lat="46.67765" lon="0.5094">
        <ele>161.23</ele>
        <time>2018-02-25T08:14:17.999Z</time>
      </trkpt>
      <trkpt lat="46.67774" lon="0.50931">
        <ele>161.2</ele>
        <time>2018-02-25T08:14:20.999Z</time>
      </trkpt>
      <trkpt lat="46.67781" lon="0.50922">
        <ele>161.13</ele>
        <time>2018-02-25T08:14:24.999Z</time>
      </trkpt>
      <trkpt lat="46.67791" lon="0.50915">
        <ele>160.61</ele>
        <time>2018-02-25T08:14:29.999Z</time>
      </trkpt>
      <trkpt lat="46.67799" lon="0.50907">
        <ele>160.06</ele>
        <time>2018-02-25T08:14:33.999Z</time>
      </trkpt>
      <trkpt lat="46.67809" lon="0.50898">
        <ele>159.56</ele>
        <time>2018-02-25T08:14:37.999Z</time>
      </trkpt>
      <trkpt lat="46.67816" lon="0.50889">
        <ele>159.19</ele>
        <time>2018-02-25T08:14:40.999Z</time>
      </trkpt>
      <trkpt lat="46.67825" lon="0.50879">
        <ele>158.63</ele>
        <time>2018-02-25T08:14:44.999Z</time>
      </trkpt>
      <trkpt lat="46.67832" lon="0.5087">
        <ele>158.17</ele>
        <time>2018-02-25T08:14:48.999Z</time>
      </trkpt>
      <trkpt lat="46.6784" lon="0.50861">
        <ele>157.95</ele>
        <time>2018-02-25T08:14:51.999Z</time>
      </trkpt>
      <trkpt lat="46.67847" lon="0.50853">
        <ele>157.58</ele>
        <time>2018-02-25T08:14:55.999Z</time>
      </trkpt>
      <trkpt lat="46.67856" lon="0.50844">
        <ele>157.06</ele>
        <time>2018-02-25T08:14:59.999Z</time>
      </trkpt>
      <trkpt lat="46.67865" lon="0.50836">
        <ele>156.11</ele>
        <time>2018-02-25T08:15:05.999Z</time>
      </trkpt>
      <trkpt lat="46.67873" lon="0.50827">
        <ele>155.3</ele>
        <time>2018-02-25T08:15:10.999Z</time>
      </trkpt>
      <trkpt lat="46.6788" lon="0.50818">
        <ele>155.04</ele>
        <time>2018-02-25T08:15:15.999Z</time>
      </trkpt>
      <trkpt lat="46.67888" lon="0.50811">
        <ele>155.19</ele>
        <time>2018-02-25T08:15:19.999Z</time>
      </trkpt>
      <trkpt lat="46.67896" lon="0.50801">
        <ele>155.46</ele>
        <time>2018-02-25T08:15:24.999Z</time>
      </trkpt>
      <trkpt lat="46.67904" lon="0.50792">
        <ele>155.5</ele>
        <time>2018-02-25T08:15:30.999Z</time>
      </trkpt>
      <trkpt lat="46.67911" lon="0.50783">
        <ele>155.65</ele>
        <time>2018-02-25T08:15:37.999Z</time>
      </trkpt>
      <trkpt lat="46.67917" lon="0.50774">
        <ele>156.54</ele>
        <time>2018-02-25T08:15:44.999Z</time>
      </trkpt>
      <trkpt lat="46.67925" lon="0.50764">
        <ele>158.12</ele>
        <time>2018-02-25T08:15:49.999Z</time>
      </trkpt>
      <trkpt lat="46.67934" lon="0.50755">
        <ele>159.56</ele>
        <time>2018-02-25T08:15:54.999Z</time>
      </trkpt>
      <trkpt lat="46.67942" lon="0.50748">
        <ele>160.93</ele>
        <time>2018-02-25T08:16:03.999Z</time>
      </trkpt>
      <trkpt lat="46.67951" lon="0.50742">
        <ele>161.23</ele>
        <time>2018-02-25T08:16:11.999Z</time>
      </trkpt>
      <trkpt lat="46.6796" lon="0.5073">
        <ele>161.42</ele>
        <time>2018-02-25T08:16:18.999Z</time>
      </trkpt>
      <trkpt lat="46.67967" lon="0.5072">
        <ele>161.87</ele>
        <time>2018-02-25T08:16:23.999Z</time>
      </trkpt>
      <trkpt lat="46.67975" lon="0.50711">
        <ele>163.9</ele>
        <time>2018-02-25T08:16:34.999Z</time>
      </trkpt>
      <trkpt lat="46.67983" lon="0.50704">
        <ele>165.74</ele>
        <time>2018-02-25T08:16:41.999Z</time>
      </trkpt>
      <trkpt lat="46.67991" lon="0.50697">
        <ele>168.1</ele>
        <time>2018-02-25T08:16:52.999Z</time>
      </trkpt>
      <trkpt lat="46.68" lon="0.5069">
        <ele>170.05</ele>
        <time>2018-02-25T08:17:01.999Z</time>
      </trkpt>
      <trkpt lat="46.68008" lon="0.50681">
        <ele>171.77</ele>
        <time>2018-02-25T08:17:07.999Z</time>
      </trkpt>
      <trkpt lat="46.68015" lon="0.50671">
        <ele>174.74</ele>
        <time>2018-02-25T08:17:18.999Z</time>
      </trkpt>
      <trkpt lat="46.68021" lon="0.50661">
        <ele>178.35</ele>
        <time>2018-02-25T08:17:25.999Z</time>
      </trkpt>
      <trkpt lat="46.6803" lon="0.50653">
        <ele>180.49</ele>
        <time>2018-02-25T08:17:28.999Z</time>
      </trkpt>
      <trkpt lat="46.68038" lon="0.50647">
        <ele>183.66</ele>
        <time>2018-02-25T08:17:34.999Z</time>
      </trkpt>
      <trkpt lat="46.68046" lon="0.50639">
        <ele>185.84</ele>
        <time>2018-02-25T08:17:40.999Z</time>
      </trkpt>
      <trkpt lat="46.68054" lon="0.50631">
        <ele>186.42</ele>
        <time>2018-02-25T08:17:44.999Z</time>
      </trkpt>
      <trkpt lat="46.68062" lon="0.50623">
        <ele>186.45</ele>
        <time>2018-02-25T08:17:51.999Z</time>
      </trkpt>
      <trkpt lat="46.6807" lon="0.50616">
        <ele>185.76</ele>
        <time>2018-02-25T08:17:56.999Z</time>
      </trkpt>
      <trkpt lat="46.68078" lon="0.50608">
        <ele>184.87</ele>
        <time>2018-02-25T08:18:00.999Z</time>
      </trkpt>
      <trkpt lat="46.68086" lon="0.50598">
        <ele>183.41</ele>
        <time>2018-02-25T08:18:07.999Z</time>
      </trkpt>
      <trkpt lat="46.68096" lon="0.50589">
        <ele>182.67</ele>
        <time>2018-02-25T08:18:10.999Z</time>
      </trkpt>
      <trkpt lat="46.68104" lon="0.5058">
        <ele>180.65</ele>
        <time>2018-02-25T08:18:16.999Z</time>
      </trkpt>
      <trkpt lat="46.68111" lon="0.50571">
        <ele>179.56</ele>
        <time>2018-02-25T08:18:21.999Z</time>
      </trkpt>
      <trkpt lat="46.68118" lon="0.50562">
        <ele>179.25</ele>
        <time>2018-02-25T08:18:24.999Z</time>
      </trkpt>
      <trkpt lat="46.68126" lon="0.50553">
        <ele>178.84</ele>
        <time>2018-02-25T08:18:27.999Z</time>
      </trkpt>
      <trkpt lat="46.68136" lon="0.50544">
        <ele>178.39</ele>
        <time>2018-02-25T08:18:31.999Z</time>
      </trkpt>
      <trkpt lat="46.68143" lon="0.50535">
        <ele>178.14</ele>
        <time>2018-02-25T08:18:34.999Z</time>
      </trkpt>
      <trkpt lat="46.68151" lon="0.50525">
        <ele>178.01</ele>
        <time>2018-02-25T08:18:38.999Z</time>
      </trkpt>
      <trkpt lat="46.68159" lon="0.50513">
        <ele>178.09</ele>
        <time>2018-02-25T08:18:42.999Z</time>
      </trkpt>
      <trkpt lat="46.68167" lon="0.50503">
        <ele>178.32</ele>
        <time>2018-02-25T08:18:46.999Z</time>
      </trkpt>
      <trkpt lat="46.68176" lon="0.50494">
        <ele>178.39</ele>
        <time>2018-02-25T08:18:49.999Z</time>
      </trkpt>
      <trkpt lat="46.68184" lon="0.50487">
        <ele>178.36</ele>
        <time>2018-02-25T08:18:52.999Z</time>
      </trkpt>
      <trkpt lat="46.68192" lon="0.50481">
        <ele>178.4</ele>
        <time>2018-02-25T08:18:57.999Z</time>
      </trkpt>
      <trkpt lat="46.68201" lon="0.50475">
        <ele>178.58</ele>
        <time>2018-02-25T08:19:02.999Z</time>
      </trkpt>
      <trkpt lat="46.68209" lon="0.50465">
        <ele>178.65</ele>
        <time>2018-02-25T08:19:08.999Z</time>
      </trkpt>
      <trkpt lat="46.68219" lon="0.50458">
        <ele>178.12</ele>
        <time>2018-02-25T08:19:13.999Z</time>
      </trkpt>
      <trkpt lat="46.68226" lon="0.50444">
        <ele>177.28</ele>
        <time>2018-02-25T08:19:19.999Z</time>
      </trkpt>
      <trkpt lat="46.68232" lon="0.50432">
        <ele>177.08</ele>
        <time>2018-02-25T08:19:22.999Z</time>
      </trkpt>
      <trkpt lat="46.68242" lon="0.50423">
        <ele>177.08</ele>
        <time>2018-02-25T08:19:25.999Z</time>
      </trkpt>
      <trkpt lat="46.68251" lon="0.50419">
        <ele>177.31</ele>
        <time>2018-02-25T08:19:28.999Z</time>
      </trkpt>
      <trkpt lat="46.68255" lon="0.50404">
        <ele>177.7</ele>
        <time>2018-02-25T08:19:32.999Z</time>
      </trkpt>
      <trkpt lat="46.68249" lon="0.50389">
        <ele>178.35</ele>
        <time>2018-02-25T08:19:36.999Z</time>
      </trkpt>
      <trkpt lat="46.68244" lon="0.50376">
        <ele>179.28</ele>
        <time>2018-02-25T08:19:39.999Z</time>
      </trkpt>
      <trkpt lat="46.68239" lon="0.50362">
        <ele>180.88</ele>
        <time>2018-02-25T08:19:43.999Z</time>
      </trkpt>
      <trkpt lat="46.68235" lon="0.50347">
        <ele>182.45</ele>
        <time>2018-02-25T08:19:47.999Z</time>
      </trkpt>
      <trkpt lat="46.6823" lon="0.50334">
        <ele>183.47</ele>
        <time>2018-02-25T08:19:50.999Z</time>
      </trkpt>
      <trkpt lat="46.68226" lon="0.50319">
        <ele>184.29</ele>
        <time>2018-02-25T08:19:53.999Z</time>
      </trkpt>
      <trkpt lat="46.68224" lon="0.50301">
        <ele>189.41</ele>
        <time>2018-02-25T08:19:56.999Z</time>
      </trkpt>
      <trkpt lat="46.68221" lon="0.50282">
        <ele>195.47</ele>
        <time>2018-02-25T08:19:59.999Z</time>
      </trkpt>
      <trkpt lat="46.68218" lon="0.50264">
        <ele>200.15</ele>
        <time>2018-02-25T08:20:02.999Z</time>
      </trkpt>
      <trkpt lat="46.68215" lon="0.50247">
        <ele>200.75</ele>
        <time>2018-02-25T08:20:06.999Z</time>
      </trkpt>
      <trkpt lat="46.68211" lon="0.50233">
        <ele>201.39</ele>
        <time>2018-02-25T08:20:09.999Z</time>
      </trkpt>
      <trkpt lat="46.68208" lon="0.5022">
        <ele>201.79</ele>
        <time>2018-02-25T08:20:11.999Z</time>
      </trkpt>
      <trkpt lat="46.68205" lon="0.50206">
        <ele>202.24</ele>
        <time>2018-02-25T08:20:14.999Z</time>
      </trkpt>
      <trkpt lat="46.68198" lon="0.50192">
        <ele>204.45</ele>
        <time>2018-02-25T08:20:17.999Z</time>
      </trkpt>
      <trkpt lat="46.68187" lon="0.5018">
        <ele>206.32</ele>
        <time>2018-02-25T08:20:20.999Z</time>
      </trkpt>
      <trkpt lat="46.68178" lon="0.50173">
        <ele>206.77</ele>
        <time>2018-02-25T08:20:22.999Z</time>
      </trkpt>
      <trkpt lat="46.68169" lon="0.50168">
        <ele>206.68</ele>
        <time>2018-02-25T08:20:24.999Z</time>
      </trkpt>
      <trkpt lat="46.6816" lon="0.50162">
        <ele>205.84</ele>
        <time>2018-02-25T08:20:26.999Z</time>
      </trkpt>
      <trkpt lat="46.68151" lon="0.50156">
        <ele>204.45</ele>
        <time>2018-02-25T08:20:28.999Z</time>
      </trkpt>
      <trkpt lat="46.68141" lon="0.50149">
        <ele>203.68</ele>
        <time>2018-02-25T08:20:30.999Z</time>
      </trkpt>
      <trkpt lat="46.68132" lon="0.50142">
        <ele>203.45</ele>
        <time>2018-02-25T08:20:32.999Z</time>
      </trkpt>
      <trkpt lat="46.68124" lon="0.50135">
        <ele>203.61</ele>
        <time>2018-02-25T08:20:34.999Z</time>
      </trkpt>
      <trkpt lat="46.68116" lon="0.50127">
        <ele>203.75</ele>
        <time>2018-02-25T08:20:36.999Z</time>
      </trkpt>
      <trkpt lat="46.68108" lon="0.50118">
        <ele>204</ele>
        <time>2018-02-25T08:20:38.999Z</time>
      </trkpt>
      <trkpt lat="46.681" lon="0.50106">
        <ele>204.78</ele>
        <time>2018-02-25T08:20:40.999Z</time>
      </trkpt>
      <trkpt lat="46.68092" lon="0.50097">
        <ele>205.63</ele>
        <time>2018-02-25T08:20:42.999Z</time>
      </trkpt>
      <trkpt lat="46.68086" lon="0.50086">
        <ele>206.38</ele>
        <time>2018-02-25T08:20:44.999Z</time>
      </trkpt>
      <trkpt lat="46.68079" lon="0.50076">
        <ele>207</ele>
        <time>2018-02-25T08:20:46.999Z</time>
      </trkpt>
      <trkpt lat="46.68072" lon="0.50065">
        <ele>207.31</ele>
        <time>2018-02-25T08:20:48.999Z</time>
      </trkpt>
      <trkpt lat="46.68065" lon="0.50054">
        <ele>207.11</ele>
        <time>2018-02-25T08:20:50.999Z</time>
      </trkpt>
      <trkpt lat="46.68058" lon="0.50042">
        <ele>206.73</ele>
        <time>2018-02-25T08:20:52.999Z</time>
      </trkpt>
      <trkpt lat="46.6805" lon="0.50031">
        <ele>206.3</ele>
        <time>2018-02-25T08:20:54.999Z</time>
      </trkpt>
      <trkpt lat="46.68044" lon="0.50022">
        <ele>205.68</ele>
        <time>2018-02-25T08:20:56.999Z</time>
      </trkpt>
      <trkpt lat="46.68036" lon="0.50014">
        <ele>205.03</ele>
        <time>2018-02-25T08:20:58.999Z</time>
      </trkpt>
      <trkpt lat="46.68026" lon="0.50005">
        <ele>205.13</ele>
        <time>2018-02-25T08:21:00.999Z</time>
      </trkpt>
      <trkpt lat="46.68019" lon="0.49997">
        <ele>205.29</ele>
        <time>2018-02-25T08:21:02.999Z</time>
      </trkpt>
      <trkpt lat="46.68012" lon="0.49988">
        <ele>204.98</ele>
        <time>2018-02-25T08:21:04.999Z</time>
      </trkpt>
      <trkpt lat="46.68004" lon="0.49978">
        <ele>204.48</ele>
        <time>2018-02-25T08:21:06.999Z</time>
      </trkpt>
      <trkpt lat="46.67996" lon="0.4997">
        <ele>203.8</ele>
        <time>2018-02-25T08:21:08.999Z</time>
      </trkpt>
      <trkpt lat="46.67987" lon="0.49961">
        <ele>203.12</ele>
        <time>2018-02-25T08:21:10.999Z</time>
      </trkpt>
      <trkpt lat="46.67979" lon="0.49954">
        <ele>202.79</ele>
        <time>2018-02-25T08:21:12.999Z</time>
      </trkpt>
      <trkpt lat="46.67971" lon="0.49947">
        <ele>202.28</ele>
        <time>2018-02-25T08:21:14.999Z</time>
      </trkpt>
      <trkpt lat="46.67963" lon="0.49936">
        <ele>201.88</ele>
        <time>2018-02-25T08:21:16.999Z</time>
      </trkpt>
      <trkpt lat="46.67957" lon="0.49924">
        <ele>201.09</ele>
        <time>2018-02-25T08:21:18.999Z</time>
      </trkpt>
      <trkpt lat="46.67953" lon="0.49909">
        <ele>199.57</ele>
        <time>2018-02-25T08:21:20.999Z</time>
      </trkpt>
      <trkpt lat="46.6795" lon="0.49889">
        <ele>199.76</ele>
        <time>2018-02-25T08:21:22.999Z</time>
      </trkpt>
      <trkpt lat="46.67947" lon="0.49876">
        <ele>200.55</ele>
        <time>2018-02-25T08:21:24.999Z</time>
      </trkpt>
      <trkpt lat="46.67944" lon="0.49863">
        <ele>201.54</ele>
        <time>2018-02-25T08:21:26.999Z</time>
      </trkpt>
      <trkpt lat="46.6794" lon="0.4985">
        <ele>202.44</ele>
        <time>2018-02-25T08:21:28.999Z</time>
      </trkpt>
      <trkpt lat="46.67937" lon="0.49836">
        <ele>203.37</ele>
        <time>2018-02-25T08:21:30.999Z</time>
      </trkpt>
      <trkpt lat="46.67933" lon="0.49822">
        <ele>204.03</ele>
        <time>2018-02-25T08:21:32.999Z</time>
      </trkpt>
      <trkpt lat="46.6793" lon="0.49809">
        <ele>204.31</ele>
        <time>2018-02-25T08:21:34.999Z</time>
      </trkpt>
      <trkpt lat="46.67923" lon="0.49796">
        <ele>204.27</ele>
        <time>2018-02-25T08:21:37.999Z</time>
      </trkpt>
      <trkpt lat="46.67912" lon="0.49792">
        <ele>204.39</ele>
        <time>2018-02-25T08:21:40.999Z</time>
      </trkpt>
      <trkpt lat="46.67899" lon="0.49785">
        <ele>204.56</ele>
        <time>2018-02-25T08:21:43.999Z</time>
      </trkpt>
      <trkpt lat="46.67891" lon="0.49776">
        <ele>204.63</ele>
        <time>2018-02-25T08:21:45.999Z</time>
      </trkpt>
      <trkpt lat="46.67886" lon="0.49765">
        <ele>204.68</ele>
        <time>2018-02-25T08:21:47.999Z</time>
      </trkpt>
      <trkpt lat="46.6788" lon="0.49754">
        <ele>205.09</ele>
        <time>2018-02-25T08:21:49.999Z</time>
      </trkpt>
      <trkpt lat="46.67875" lon="0.49739">
        <ele>206.21</ele>
        <time>2018-02-25T08:21:51.999Z</time>
      </trkpt>
      <trkpt lat="46.67868" lon="0.49723">
        <ele>206.57</ele>
        <time>2018-02-25T08:21:54.999Z</time>
      </trkpt>
      <trkpt lat="46.67861" lon="0.49706">
        <ele>207.16</ele>
        <time>2018-02-25T08:21:57.999Z</time>
      </trkpt>
      <trkpt lat="46.67854" lon="0.49689">
        <ele>207.78</ele>
        <time>2018-02-25T08:22:00.999Z</time>
      </trkpt>
      <trkpt lat="46.67847" lon="0.49679">
        <ele>208.12</ele>
        <time>2018-02-25T08:22:02.999Z</time>
      </trkpt>
      <trkpt lat="46.6784" lon="0.49666">
        <ele>208.53</ele>
        <time>2018-02-25T08:22:05.999Z</time>
      </trkpt>
      <trkpt lat="46.67836" lon="0.49653">
        <ele>208.61</ele>
        <time>2018-02-25T08:22:07.999Z</time>
      </trkpt>
      <trkpt lat="46.67826" lon="0.49643">
        <ele>208.37</ele>
        <time>2018-02-25T08:22:10.999Z</time>
      </trkpt>
      <trkpt lat="46.67815" lon="0.49633">
        <ele>207.68</ele>
        <time>2018-02-25T08:22:13.999Z</time>
      </trkpt>
      <trkpt lat="46.67808" lon="0.49614">
        <ele>207.11</ele>
        <time>2018-02-25T08:22:15.999Z</time>
      </trkpt>
      <trkpt lat="46.67799" lon="0.496">
        <ele>206.15</ele>
        <time>2018-02-25T08:22:18.999Z</time>
      </trkpt>
      <trkpt lat="46.6779" lon="0.49586">
        <ele>205.56</ele>
        <time>2018-02-25T08:22:20.999Z</time>
      </trkpt>
      <trkpt lat="46.67782" lon="0.49568">
        <ele>203.96</ele>
        <time>2018-02-25T08:22:23.999Z</time>
      </trkpt>
      <trkpt lat="46.67776" lon="0.49555">
        <ele>203.5</ele>
        <time>2018-02-25T08:22:25.999Z</time>
      </trkpt>
      <trkpt lat="46.67771" lon="0.49542">
        <ele>203.52</ele>
        <time>2018-02-25T08:22:27.999Z</time>
      </trkpt>
      <trkpt lat="46.67764" lon="0.49529">
        <ele>203.72</ele>
        <time>2018-02-25T08:22:29.999Z</time>
      </trkpt>
      <trkpt lat="46.67759" lon="0.49514">
        <ele>204.07</ele>
        <time>2018-02-25T08:22:31.999Z</time>
      </trkpt>
      <trkpt lat="46.67754" lon="0.49502">
        <ele>204.41</ele>
        <time>2018-02-25T08:22:33.999Z</time>
      </trkpt>
      <trkpt lat="46.67748" lon="0.49492">
        <ele>204.47</ele>
        <time>2018-02-25T08:22:35.999Z</time>
      </trkpt>
      <trkpt lat="46.67741" lon="0.49477">
        <ele>204.26</ele>
        <time>2018-02-25T08:22:37.999Z</time>
      </trkpt>
      <trkpt lat="46.67736" lon="0.49464">
        <ele>204.43</ele>
        <time>2018-02-25T08:22:39.999Z</time>
      </trkpt>
      <trkpt lat="46.67729" lon="0.49453">
        <ele>204.43</ele>
        <time>2018-02-25T08:22:41.999Z</time>
      </trkpt>
      <trkpt lat="46.67723" lon="0.49441">
        <ele>204.51</ele>
        <time>2018-02-25T08:22:43.999Z</time>
      </trkpt>
      <trkpt lat="46.67716" lon="0.49425">
        <ele>204.71</ele>
        <time>2018-02-25T08:22:46.999Z</time>
      </trkpt>
      <trkpt lat="46.67711" lon="0.49413">
        <ele>205.07</ele>
        <time>2018-02-25T08:22:48.999Z</time>
      </trkpt>
      <trkpt lat="46.67703" lon="0.49398">
        <ele>205.83</ele>
        <time>2018-02-25T08:22:51.999Z</time>
      </trkpt>
      <trkpt lat="46.67698" lon="0.49386">
        <ele>206.37</ele>
        <time>2018-02-25T08:22:53.999Z</time>
      </trkpt>
      <trkpt lat="46.67691" lon="0.49374">
        <ele>206.88</ele>
        <time>2018-02-25T08:22:55.999Z</time>
      </trkpt>
      <trkpt lat="46.67685" lon="0.49363">
        <ele>207.31</ele>
        <time>2018-02-25T08:22:57.999Z</time>
      </trkpt>
      <trkpt lat="46.67685" lon="0.4935">
        <ele>207.61</ele>
        <time>2018-02-25T08:22:59.999Z</time>
      </trkpt>
      <trkpt lat="46.6769" lon="0.49337">
        <ele>207.78</ele>
        <time>2018-02-25T08:23:02.999Z</time>
      </trkpt>
      <trkpt lat="46.67698" lon="0.49328">
        <ele>207.59</ele>
        <time>2018-02-25T08:23:05.999Z</time>
      </trkpt>
      <trkpt lat="46.67704" lon="0.49318">
        <ele>207.36</ele>
        <time>2018-02-25T08:23:07.999Z</time>
      </trkpt>
      <trkpt lat="46.67713" lon="0.4931">
        <ele>204.6</ele>
        <time>2018-02-25T08:23:09.999Z</time>
      </trkpt>
      <trkpt lat="46.67723" lon="0.493">
        <ele>203.09</ele>
        <time>2018-02-25T08:23:12.999Z</time>
      </trkpt>
      <trkpt lat="46.67732" lon="0.49289">
        <ele>202.65</ele>
        <time>2018-02-25T08:23:15.999Z</time>
      </trkpt>
      <trkpt lat="46.6774" lon="0.49281">
        <ele>202.34</ele>
        <time>2018-02-25T08:23:17.999Z</time>
      </trkpt>
      <trkpt lat="46.67748" lon="0.49272">
        <ele>201.94</ele>
        <time>2018-02-25T08:23:19.999Z</time>
      </trkpt>
      <trkpt lat="46.67757" lon="0.49262">
        <ele>201.52</ele>
        <time>2018-02-25T08:23:21.999Z</time>
      </trkpt>
      <trkpt lat="46.67767" lon="0.49251">
        <ele>197.64</ele>
        <time>2018-02-25T08:23:23.999Z</time>
      </trkpt>
      <trkpt lat="46.67775" lon="0.49243">
        <ele>197.37</ele>
        <time>2018-02-25T08:23:25.999Z</time>
      </trkpt>
      <trkpt lat="46.67785" lon="0.49231">
        <ele>195.2</ele>
        <time>2018-02-25T08:23:27.999Z</time>
      </trkpt>
      <trkpt lat="46.67794" lon="0.4922">
        <ele>194.07</ele>
        <time>2018-02-25T08:23:29.999Z</time>
      </trkpt>
      <trkpt lat="46.67803" lon="0.49209">
        <ele>193.74</ele>
        <time>2018-02-25T08:23:31.999Z</time>
      </trkpt>
      <trkpt lat="46.67812" lon="0.492">
        <ele>193.15</ele>
        <time>2018-02-25T08:23:33.999Z</time>
      </trkpt>
      <trkpt lat="46.67821" lon="0.4919">
        <ele>192.32</ele>
        <time>2018-02-25T08:23:35.999Z</time>
      </trkpt>
      <trkpt lat="46.67828" lon="0.49182">
        <ele>191.15</ele>
        <time>2018-02-25T08:23:37.999Z</time>
      </trkpt>
      <trkpt lat="46.67838" lon="0.49171">
        <ele>191.13</ele>
        <time>2018-02-25T08:23:40.999Z</time>
      </trkpt>
      <trkpt lat="46.6785" lon="0.49159">
        <ele>191.43</ele>
        <time>2018-02-25T08:23:43.999Z</time>
      </trkpt>
      <trkpt lat="46.67858" lon="0.49151">
        <ele>191.41</ele>
        <time>2018-02-25T08:23:45.999Z</time>
      </trkpt>
      <trkpt lat="46.67866" lon="0.49143">
        <ele>191.84</ele>
        <time>2018-02-25T08:23:47.999Z</time>
      </trkpt>
      <trkpt lat="46.67874" lon="0.49135">
        <ele>191.89</ele>
        <time>2018-02-25T08:23:49.999Z</time>
      </trkpt>
      <trkpt lat="46.67882" lon="0.49128">
        <ele>191.59</ele>
        <time>2018-02-25T08:23:51.999Z</time>
      </trkpt>
      <trkpt lat="46.6789" lon="0.4912">
        <ele>190.69</ele>
        <time>2018-02-25T08:23:53.999Z</time>
      </trkpt>
      <trkpt lat="46.67901" lon="0.4911">
        <ele>190.5</ele>
        <time>2018-02-25T08:23:56.999Z</time>
      </trkpt>
      <trkpt lat="46.67908" lon="0.49101">
        <ele>190.33</ele>
        <time>2018-02-25T08:23:58.999Z</time>
      </trkpt>
      <trkpt lat="46.67917" lon="0.49089">
        <ele>189.79</ele>
        <time>2018-02-25T08:24:00.999Z</time>
      </trkpt>
      <trkpt lat="46.67926" lon="0.49081">
        <ele>189.71</ele>
        <time>2018-02-25T08:24:03.999Z</time>
      </trkpt>
      <trkpt lat="46.67935" lon="0.49071">
        <ele>189.71</ele>
        <time>2018-02-25T08:24:05.999Z</time>
      </trkpt>
      <trkpt lat="46.6794" lon="0.49059">
        <ele>189.76</ele>
        <time>2018-02-25T08:24:09.999Z</time>
      </trkpt>
      <trkpt lat="46.67936" lon="0.49043">
        <ele>189.98</ele>
        <time>2018-02-25T08:24:12.999Z</time>
      </trkpt>
      <trkpt lat="46.6793" lon="0.49027">
        <ele>192.13</ele>
        <time>2018-02-25T08:24:14.999Z</time>
      </trkpt>
      <trkpt lat="46.67923" lon="0.49013">
        <ele>193.33</ele>
        <time>2018-02-25T08:24:16.999Z</time>
      </trkpt>
      <trkpt lat="46.67918" lon="0.49001">
        <ele>194.15</ele>
        <time>2018-02-25T08:24:18.999Z</time>
      </trkpt>
      <trkpt lat="46.67912" lon="0.4899">
        <ele>194.34</ele>
        <time>2018-02-25T08:24:20.999Z</time>
      </trkpt>
      <trkpt lat="46.67906" lon="0.48978">
        <ele>197.73</ele>
        <time>2018-02-25T08:24:23.999Z</time>
      </trkpt>
      <trkpt lat="46.67901" lon="0.48966">
        <ele>200.07</ele>
        <time>2018-02-25T08:24:25.999Z</time>
      </trkpt>
      <trkpt lat="46.67894" lon="0.48951">
        <ele>200.36</ele>
        <time>2018-02-25T08:24:28.999Z</time>
      </trkpt>
      <trkpt lat="46.67888" lon="0.48938">
        <ele>200.72</ele>
        <time>2018-02-25T08:24:31.999Z</time>
      </trkpt>
      <trkpt lat="46.67881" lon="0.48923">
        <ele>200.94</ele>
        <time>2018-02-25T08:24:34.999Z</time>
      </trkpt>
      <trkpt lat="46.67876" lon="0.48912">
        <ele>200.92</ele>
        <time>2018-02-25T08:24:37.999Z</time>
      </trkpt>
      <trkpt lat="46.67869" lon="0.48898">
        <ele>200.81</ele>
        <time>2018-02-25T08:24:40.999Z</time>
      </trkpt>
      <trkpt lat="46.67863" lon="0.48888">
        <ele>200.76</ele>
        <time>2018-02-25T08:24:42.999Z</time>
      </trkpt>
      <trkpt lat="46.67857" lon="0.48875">
        <ele>200.74</ele>
        <time>2018-02-25T08:24:45.999Z</time>
      </trkpt>
      <trkpt lat="46.67851" lon="0.48862">
        <ele>200.77</ele>
        <time>2018-02-25T08:24:47.999Z</time>
      </trkpt>
      <trkpt lat="46.67845" lon="0.48851">
        <ele>200.89</ele>
        <time>2018-02-25T08:24:49.999Z</time>
      </trkpt>
      <trkpt lat="46.67839" lon="0.48838">
        <ele>201.25</ele>
        <time>2018-02-25T08:24:52.999Z</time>
      </trkpt>
      <trkpt lat="46.67831" lon="0.48825">
        <ele>201.64</ele>
        <time>2018-02-25T08:24:55.999Z</time>
      </trkpt>
      <trkpt lat="46.67824" lon="0.48812">
        <ele>201.84</ele>
        <time>2018-02-25T08:24:58.999Z</time>
      </trkpt>
      <trkpt lat="46.67817" lon="0.48797">
        <ele>202.07</ele>
        <time>2018-02-25T08:25:01.999Z</time>
      </trkpt>
      <trkpt lat="46.6781" lon="0.48784">
        <ele>202.36</ele>
        <time>2018-02-25T08:25:04.999Z</time>
      </trkpt>
      <trkpt lat="46.67804" lon="0.48774">
        <ele>202.73</ele>
        <time>2018-02-25T08:25:07.999Z</time>
      </trkpt>
      <trkpt lat="46.67798" lon="0.48762">
        <ele>202.94</ele>
        <time>2018-02-25T08:25:11.999Z</time>
      </trkpt>
      <trkpt lat="46.67793" lon="0.48749">
        <ele>203.04</ele>
        <time>2018-02-25T08:25:14.999Z</time>
      </trkpt>
      <trkpt lat="46.67788" lon="0.48737">
        <ele>203.14</ele>
        <time>2018-02-25T08:25:16.999Z</time>
      </trkpt>
      <trkpt lat="46.67781" lon="0.48726">
        <ele>203.06</ele>
        <time>2018-02-25T08:25:19.999Z</time>
      </trkpt>
      <trkpt lat="46.67773" lon="0.48712">
        <ele>202.71</ele>
        <time>2018-02-25T08:25:22.999Z</time>
      </trkpt>
      <trkpt lat="46.67765" lon="0.48698">
        <ele>202.14</ele>
        <time>2018-02-25T08:25:25.999Z</time>
      </trkpt>
      <trkpt lat="46.6776" lon="0.48683">
        <ele>201.75</ele>
        <time>2018-02-25T08:25:28.999Z</time>
      </trkpt>
      <trkpt lat="46.67754" lon="0.4867">
        <ele>201.54</ele>
        <time>2018-02-25T08:25:30.999Z</time>
      </trkpt>
      <trkpt lat="46.67749" lon="0.48658">
        <ele>201.32</ele>
        <time>2018-02-25T08:25:32.999Z</time>
      </trkpt>
      <trkpt lat="46.67743" lon="0.4864">
        <ele>199.81</ele>
        <time>2018-02-25T08:25:35.999Z</time>
      </trkpt>
      <trkpt lat="46.67738" lon="0.48626">
        <ele>196.95</ele>
        <time>2018-02-25T08:25:37.999Z</time>
      </trkpt>
      <trkpt lat="46.67734" lon="0.48614">
        <ele>196.66</ele>
        <time>2018-02-25T08:25:40.999Z</time>
      </trkpt>
      <trkpt lat="46.67729" lon="0.48603">
        <ele>196.35</ele>
        <time>2018-02-25T08:25:44.999Z</time>
      </trkpt>
      <trkpt lat="46.6772" lon="0.48593">
        <ele>195.91</ele>
        <time>2018-02-25T08:25:49.999Z</time>
      </trkpt>
      <trkpt lat="46.67715" lon="0.48581">
        <ele>195.66</ele>
        <time>2018-02-25T08:25:52.999Z</time>
      </trkpt>
      <trkpt lat="46.6771" lon="0.4857">
        <ele>195.41</ele>
        <time>2018-02-25T08:25:55.999Z</time>
      </trkpt>
      <trkpt lat="46.67703" lon="0.48557">
        <ele>194.95</ele>
        <time>2018-02-25T08:25:59.999Z</time>
      </trkpt>
      <trkpt lat="46.67702" lon="0.48542">
        <ele>193.98</ele>
        <time>2018-02-25T08:26:02.999Z</time>
      </trkpt>
      <trkpt lat="46.67704" lon="0.48521">
        <ele>193.09</ele>
        <time>2018-02-25T08:26:05.999Z</time>
      </trkpt>
      <trkpt lat="46.67705" lon="0.48496">
        <ele>192.6</ele>
        <time>2018-02-25T08:26:08.999Z</time>
      </trkpt>
      <trkpt lat="46.67707" lon="0.48481">
        <ele>189.53</ele>
        <time>2018-02-25T08:26:10.999Z</time>
      </trkpt>
      <trkpt lat="46.67709" lon="0.48465">
        <ele>186.77</ele>
        <time>2018-02-25T08:26:12.999Z</time>
      </trkpt>
      <trkpt lat="46.6771" lon="0.48447">
        <ele>184.91</ele>
        <time>2018-02-25T08:26:14.999Z</time>
      </trkpt>
      <trkpt lat="46.67712" lon="0.4843">
        <ele>184.61</ele>
        <time>2018-02-25T08:26:16.999Z</time>
      </trkpt>
      <trkpt lat="46.67713" lon="0.48413">
        <ele>184.48</ele>
        <time>2018-02-25T08:26:18.999Z</time>
      </trkpt>
      <trkpt lat="46.67716" lon="0.48393">
        <ele>184.59</ele>
        <time>2018-02-25T08:26:20.999Z</time>
      </trkpt>
      <trkpt lat="46.67717" lon="0.48375">
        <ele>184.62</ele>
        <time>2018-02-25T08:26:22.999Z</time>
      </trkpt>
      <trkpt lat="46.6772" lon="0.48356">
        <ele>184.41</ele>
        <time>2018-02-25T08:26:24.999Z</time>
      </trkpt>
      <trkpt lat="46.67722" lon="0.48335">
        <ele>184.11</ele>
        <time>2018-02-25T08:26:26.999Z</time>
      </trkpt>
      <trkpt lat="46.67723" lon="0.48314">
        <ele>183.81</ele>
        <time>2018-02-25T08:26:28.999Z</time>
      </trkpt>
      <trkpt lat="46.67724" lon="0.48293">
        <ele>183.38</ele>
        <time>2018-02-25T08:26:30.999Z</time>
      </trkpt>
      <trkpt lat="46.67726" lon="0.4827">
        <ele>182.96</ele>
        <time>2018-02-25T08:26:32.999Z</time>
      </trkpt>
      <trkpt lat="46.67727" lon="0.48248">
        <ele>182.46</ele>
        <time>2018-02-25T08:26:34.999Z</time>
      </trkpt>
      <trkpt lat="46.67729" lon="0.48225">
        <ele>182.01</ele>
        <time>2018-02-25T08:26:36.999Z</time>
      </trkpt>
      <trkpt lat="46.6773" lon="0.48205">
        <ele>181.48</ele>
        <time>2018-02-25T08:26:38.999Z</time>
      </trkpt>
      <trkpt lat="46.67732" lon="0.48186">
        <ele>180.89</ele>
        <time>2018-02-25T08:26:40.999Z</time>
      </trkpt>
      <trkpt lat="46.67732" lon="0.48169">
        <ele>180.36</ele>
        <time>2018-02-25T08:26:42.999Z</time>
      </trkpt>
      <trkpt lat="46.67733" lon="0.48153">
        <ele>179.73</ele>
        <time>2018-02-25T08:26:44.999Z</time>
      </trkpt>
      <trkpt lat="46.67734" lon="0.48136">
        <ele>179.08</ele>
        <time>2018-02-25T08:26:47.999Z</time>
      </trkpt>
      <trkpt lat="46.67726" lon="0.4813">
        <ele>179.05</ele>
        <time>2018-02-25T08:26:51.999Z</time>
      </trkpt>
      <trkpt lat="46.67714" lon="0.48128">
        <ele>180.33</ele>
        <time>2018-02-25T08:27:08.999Z</time>
      </trkpt>
      <trkpt lat="46.67704" lon="0.48128">
        <ele>181.22</ele>
        <time>2018-02-25T08:27:13.999Z</time>
      </trkpt>
      <trkpt lat="46.67693" lon="0.48125">
        <ele>181.78</ele>
        <time>2018-02-25T08:27:16.999Z</time>
      </trkpt>
      <trkpt lat="46.67682" lon="0.48128">
        <ele>182.22</ele>
        <time>2018-02-25T08:27:18.999Z</time>
      </trkpt>
      <trkpt lat="46.67672" lon="0.48129">
        <ele>182.9</ele>
        <time>2018-02-25T08:27:21.999Z</time>
      </trkpt>
      <trkpt lat="46.67662" lon="0.48127">
        <ele>183.57</ele>
        <time>2018-02-25T08:27:25.999Z</time>
      </trkpt>
      <trkpt lat="46.67653" lon="0.48125">
        <ele>184.09</ele>
        <time>2018-02-25T08:27:29.999Z</time>
      </trkpt>
      <trkpt lat="46.67641" lon="0.48119">
        <ele>184.82</ele>
        <time>2018-02-25T08:27:35.999Z</time>
      </trkpt>
      <trkpt lat="46.67632" lon="0.48116">
        <ele>185.56</ele>
        <time>2018-02-25T08:27:41.999Z</time>
      </trkpt>
      <trkpt lat="46.67621" lon="0.48113">
        <ele>186.03</ele>
        <time>2018-02-25T08:27:44.999Z</time>
      </trkpt>
      <trkpt lat="46.67612" lon="0.48109">
        <ele>186.45</ele>
        <time>2018-02-25T08:27:47.999Z</time>
      </trkpt>
      <trkpt lat="46.67601" lon="0.48104">
        <ele>187.16</ele>
        <time>2018-02-25T08:27:52.999Z</time>
      </trkpt>
      <trkpt lat="46.67592" lon="0.481">
        <ele>187.77</ele>
        <time>2018-02-25T08:27:56.999Z</time>
      </trkpt>
      <trkpt lat="46.67584" lon="0.48096">
        <ele>188.11</ele>
        <time>2018-02-25T08:27:59.999Z</time>
      </trkpt>
      <trkpt lat="46.67571" lon="0.4809">
        <ele>188.43</ele>
        <time>2018-02-25T08:28:03.999Z</time>
      </trkpt>
      <trkpt lat="46.67561" lon="0.48085">
        <ele>188.5</ele>
        <time>2018-02-25T08:28:06.999Z</time>
      </trkpt>
      <trkpt lat="46.67551" lon="0.48082">
        <ele>188.51</ele>
        <time>2018-02-25T08:28:09.999Z</time>
      </trkpt>
      <trkpt lat="46.67542" lon="0.4808">
        <ele>188.18</ele>
        <time>2018-02-25T08:28:13.999Z</time>
      </trkpt>
      <trkpt lat="46.67533" lon="0.48078">
        <ele>187.73</ele>
        <time>2018-02-25T08:28:17.999Z</time>
      </trkpt>
      <trkpt lat="46.67524" lon="0.48077">
        <ele>187.03</ele>
        <time>2018-02-25T08:28:23.999Z</time>
      </trkpt>
      <trkpt lat="46.67515" lon="0.48076">
        <ele>186.5</ele>
        <time>2018-02-25T08:28:30.999Z</time>
      </trkpt>
      <trkpt lat="46.67505" lon="0.4807">
        <ele>186.09</ele>
        <time>2018-02-25T08:28:35.999Z</time>
      </trkpt>
      <trkpt lat="46.67497" lon="0.48064">
        <ele>185.68</ele>
        <time>2018-02-25T08:28:40.999Z</time>
      </trkpt>
      <trkpt lat="46.67487" lon="0.48069">
        <ele>185.34</ele>
        <time>2018-02-25T08:28:47.999Z</time>
      </trkpt>
      <trkpt lat="46.67479" lon="0.48076">
        <ele>184.44</ele>
        <time>2018-02-25T08:28:51.999Z</time>
      </trkpt>
      <trkpt lat="46.67473" lon="0.48086">
        <ele>183.24</ele>
        <time>2018-02-25T08:28:55.999Z</time>
      </trkpt>
      <trkpt lat="46.67463" lon="0.48094">
        <ele>182.13</ele>
        <time>2018-02-25T08:28:59.999Z</time>
      </trkpt>
      <trkpt lat="46.67455" lon="0.48101">
        <ele>181.03</ele>
        <time>2018-02-25T08:29:04.999Z</time>
      </trkpt>
      <trkpt lat="46.67446" lon="0.4811">
        <ele>180.43</ele>
        <time>2018-02-25T08:29:09.999Z</time>
      </trkpt>
      <trkpt lat="46.67436" lon="0.48117">
        <ele>179.92</ele>
        <time>2018-02-25T08:29:13.999Z</time>
      </trkpt>
      <trkpt lat="46.67429" lon="0.48127">
        <ele>178.84</ele>
        <time>2018-02-25T08:29:20.999Z</time>
      </trkpt>
      <trkpt lat="46.67419" lon="0.48136">
        <ele>177.8</ele>
        <time>2018-02-25T08:29:26.999Z</time>
      </trkpt>
      <trkpt lat="46.67411" lon="0.48143">
        <ele>176.63</ele>
        <time>2018-02-25T08:29:31.999Z</time>
      </trkpt>
      <trkpt lat="46.67403" lon="0.4815">
        <ele>175.72</ele>
        <time>2018-02-25T08:29:38.999Z</time>
      </trkpt>
      <trkpt lat="46.67395" lon="0.48158">
        <ele>175.45</ele>
        <time>2018-02-25T08:29:44.999Z</time>
      </trkpt>
      <trkpt lat="46.67388" lon="0.48169">
        <ele>174.84</ele>
        <time>2018-02-25T08:29:53.999Z</time>
      </trkpt>
      <trkpt lat="46.67381" lon="0.48176">
        <ele>174.35</ele>
        <time>2018-02-25T08:29:59.999Z</time>
      </trkpt>
      <trkpt lat="46.67373" lon="0.48183">
        <ele>173.97</ele>
        <time>2018-02-25T08:30:06.999Z</time>
      </trkpt>
      <trkpt lat="46.67365" lon="0.48192">
        <ele>174.27</ele>
        <time>2018-02-25T08:30:12.999Z</time>
      </trkpt>
      <trkpt lat="46.67357" lon="0.48199">
        <ele>175.29</ele>
        <time>2018-02-25T08:30:18.999Z</time>
      </trkpt>
      <trkpt lat="46.67348" lon="0.48207">
        <ele>176.4</ele>
        <time>2018-02-25T08:30:23.999Z</time>
      </trkpt>
      <trkpt lat="46.67339" lon="0.48216">
        <ele>177.68</ele>
        <time>2018-02-25T08:30:28.999Z</time>
      </trkpt>
      <trkpt lat="46.67331" lon="0.48226">
        <ele>179.07</ele>
        <time>2018-02-25T08:30:33.999Z</time>
      </trkpt>
      <trkpt lat="46.67324" lon="0.48235">
        <ele>180.54</ele>
        <time>2018-02-25T08:30:39.999Z</time>
      </trkpt>
      <trkpt lat="46.67316" lon="0.48244">
        <ele>181.35</ele>
        <time>2018-02-25T08:30:44.999Z</time>
      </trkpt>
      <trkpt lat="46.67309" lon="0.48252">
        <ele>182.35</ele>
        <time>2018-02-25T08:30:50.999Z</time>
      </trkpt>
      <trkpt lat="46.673" lon="0.48258">
        <ele>183.5</ele>
        <time>2018-02-25T08:30:56.999Z</time>
      </trkpt>
      <trkpt lat="46.67291" lon="0.48263">
        <ele>184.28</ele>
        <time>2018-02-25T08:31:00.999Z</time>
      </trkpt>
      <trkpt lat="46.67283" lon="0.48273">
        <ele>184.63</ele>
        <time>2018-02-25T08:31:03.999Z</time>
      </trkpt>
      <trkpt lat="46.67277" lon="0.48284">
        <ele>184.82</ele>
        <time>2018-02-25T08:31:09.999Z</time>
      </trkpt>
      <trkpt lat="46.6727" lon="0.48292">
        <ele>184.78</ele>
        <time>2018-02-25T08:31:14.999Z</time>
      </trkpt>
      <trkpt lat="46.67263" lon="0.48302">
        <ele>185.03</ele>
        <time>2018-02-25T08:31:20.999Z</time>
      </trkpt>
      <trkpt lat="46.67254" lon="0.4831">
        <ele>185.21</ele>
        <time>2018-02-25T08:31:24.999Z</time>
      </trkpt>
      <trkpt lat="46.67245" lon="0.48318">
        <ele>185.76</ele>
        <time>2018-02-25T08:31:30.999Z</time>
      </trkpt>
      <trkpt lat="46.67237" lon="0.48323">
        <ele>185.95</ele>
        <time>2018-02-25T08:31:33.999Z</time>
      </trkpt>
      <trkpt lat="46.67226" lon="0.48329">
        <ele>186.14</ele>
        <time>2018-02-25T08:31:37.999Z</time>
      </trkpt>
      <trkpt lat="46.67214" lon="0.48334">
        <ele>186.26</ele>
        <time>2018-02-25T08:31:41.999Z</time>
      </trkpt>
      <trkpt lat="46.67203" lon="0.4834">
        <ele>186.27</ele>
        <time>2018-02-25T08:31:44.999Z</time>
      </trkpt>
      <trkpt lat="46.67194" lon="0.48345">
        <ele>186.17</ele>
        <time>2018-02-25T08:31:47.999Z</time>
      </trkpt>
      <trkpt lat="46.67185" lon="0.48349">
        <ele>186.02</ele>
        <time>2018-02-25T08:31:50.999Z</time>
      </trkpt>
      <trkpt lat="46.67176" lon="0.48354">
        <ele>185.89</ele>
        <time>2018-02-25T08:31:54.999Z</time>
      </trkpt>
      <trkpt lat="46.67166" lon="0.48349">
        <ele>185.78</ele>
        <time>2018-02-25T08:31:57.999Z</time>
      </trkpt>
      <trkpt lat="46.67157" lon="0.48335">
        <ele>186.44</ele>
        <time>2018-02-25T08:32:01.999Z</time>
      </trkpt>
      <trkpt lat="46.67154" lon="0.4832">
        <ele>187.71</ele>
        <time>2018-02-25T08:32:06.999Z</time>
      </trkpt>
      <trkpt lat="46.67147" lon="0.48307">
        <ele>188.76</ele>
        <time>2018-02-25T08:32:10.999Z</time>
      </trkpt>
      <trkpt lat="46.67139" lon="0.48296">
        <ele>189.49</ele>
        <time>2018-02-25T08:32:13.999Z</time>
      </trkpt>
      <trkpt lat="46.67133" lon="0.48286">
        <ele>190.11</ele>
        <time>2018-02-25T08:32:16.999Z</time>
      </trkpt>
      <trkpt lat="46.67127" lon="0.48276">
        <ele>190.47</ele>
        <time>2018-02-25T08:32:18.999Z</time>
      </trkpt>
      <trkpt lat="46.67119" lon="0.48262">
        <ele>190.78</ele>
        <time>2018-02-25T08:32:20.999Z</time>
      </trkpt>
      <trkpt lat="46.67113" lon="0.4825">
        <ele>191.02</ele>
        <time>2018-02-25T08:32:22.999Z</time>
      </trkpt>
      <trkpt lat="46.6711" lon="0.48238">
        <ele>191.21</ele>
        <time>2018-02-25T08:32:24.999Z</time>
      </trkpt>
      <trkpt lat="46.67106" lon="0.48225">
        <ele>191.36</ele>
        <time>2018-02-25T08:32:26.999Z</time>
      </trkpt>
      <trkpt lat="46.67102" lon="0.4821">
        <ele>191.57</ele>
        <time>2018-02-25T08:32:29.999Z</time>
      </trkpt>
      <trkpt lat="46.67098" lon="0.48195">
        <ele>191.86</ele>
        <time>2018-02-25T08:32:32.999Z</time>
      </trkpt>
      <trkpt lat="46.6709" lon="0.48184">
        <ele>192.2</ele>
        <time>2018-02-25T08:32:37.999Z</time>
      </trkpt>
      <trkpt lat="46.67081" lon="0.48177">
        <ele>192.15</ele>
        <time>2018-02-25T08:32:41.999Z</time>
      </trkpt>
      <trkpt lat="46.67075" lon="0.48166">
        <ele>192.19</ele>
        <time>2018-02-25T08:32:45.999Z</time>
      </trkpt>
      <trkpt lat="46.67067" lon="0.48151">
        <ele>192.35</ele>
        <time>2018-02-25T08:32:49.999Z</time>
      </trkpt>
      <trkpt lat="46.67061" lon="0.48142">
        <ele>192.31</ele>
        <time>2018-02-25T08:32:52.999Z</time>
      </trkpt>
      <trkpt lat="46.67055" lon="0.4813">
        <ele>192.11</ele>
        <time>2018-02-25T08:32:55.999Z</time>
      </trkpt>
      <trkpt lat="46.67051" lon="0.48118">
        <ele>191.56</ele>
        <time>2018-02-25T08:32:59.999Z</time>
      </trkpt>
      <trkpt lat="46.67046" lon="0.48105">
        <ele>190.78</ele>
        <time>2018-02-25T08:33:04.999Z</time>
      </trkpt>
      <trkpt lat="46.67038" lon="0.48094">
        <ele>190.07</ele>
        <time>2018-02-25T08:33:08.999Z</time>
      </trkpt>
      <trkpt lat="46.67031" lon="0.48083">
        <ele>189.45</ele>
        <time>2018-02-25T08:33:13.999Z</time>
      </trkpt>
      <trkpt lat="46.67025" lon="0.48069">
        <ele>188.42</ele>
        <time>2018-02-25T08:33:18.999Z</time>
      </trkpt>
      <trkpt lat="46.67019" lon="0.48056">
        <ele>187.47</ele>
        <time>2018-02-25T08:33:22.999Z</time>
      </trkpt>
      <trkpt lat="46.67014" lon="0.48043">
        <ele>186.76</ele>
        <time>2018-02-25T08:33:25.999Z</time>
      </trkpt>
      <trkpt lat="46.67008" lon="0.48031">
        <ele>186.38</ele>
        <time>2018-02-25T08:33:27.999Z</time>
      </trkpt>
      <trkpt lat="46.67003" lon="0.4802">
        <ele>185.86</ele>
        <time>2018-02-25T08:33:30.999Z</time>
      </trkpt>
      <trkpt lat="46.66996" lon="0.48009">
        <ele>185.5</ele>
        <time>2018-02-25T08:33:33.999Z</time>
      </trkpt>
      <trkpt lat="46.6699" lon="0.47993">
        <ele>185.18</ele>
        <time>2018-02-25T08:33:36.999Z</time>
      </trkpt>
      <trkpt lat="46.66985" lon="0.4798">
        <ele>184.95</ele>
        <time>2018-02-25T08:33:39.999Z</time>
      </trkpt>
      <trkpt lat="46.66982" lon="0.47967">
        <ele>185.09</ele>
        <time>2018-02-25T08:33:41.999Z</time>
      </trkpt>
      <trkpt lat="46.66977" lon="0.47952">
        <ele>186.02</ele>
        <time>2018-02-25T08:33:44.999Z</time>
      </trkpt>
      <trkpt lat="46.66971" lon="0.4794">
        <ele>187.42</ele>
        <time>2018-02-25T08:33:48.999Z</time>
      </trkpt>
      <trkpt lat="46.66966" lon="0.47926">
        <ele>188.47</ele>
        <time>2018-02-25T08:33:51.999Z</time>
      </trkpt>
      <trkpt lat="46.6696" lon="0.47915">
        <ele>189.49</ele>
        <time>2018-02-25T08:33:54.999Z</time>
      </trkpt>
      <trkpt lat="46.66956" lon="0.47903">
        <ele>190.41</ele>
        <time>2018-02-25T08:33:57.999Z</time>
      </trkpt>
      <trkpt lat="46.66949" lon="0.4789">
        <ele>191.9</ele>
        <time>2018-02-25T08:34:02.999Z</time>
      </trkpt>
      <trkpt lat="46.6694" lon="0.47881">
        <ele>192.81</ele>
        <time>2018-02-25T08:34:05.999Z</time>
      </trkpt>
      <trkpt lat="46.66933" lon="0.47868">
        <ele>193.68</ele>
        <time>2018-02-25T08:34:08.999Z</time>
      </trkpt>
      <trkpt lat="46.66927" lon="0.47855">
        <ele>194.58</ele>
        <time>2018-02-25T08:34:11.999Z</time>
      </trkpt>
      <trkpt lat="46.66922" lon="0.47842">
        <ele>195.48</ele>
        <time>2018-02-25T08:34:14.999Z</time>
      </trkpt>
      <trkpt lat="46.66916" lon="0.4783">
        <ele>196.51</ele>
        <time>2018-02-25T08:34:18.999Z</time>
      </trkpt>
      <trkpt lat="46.6691" lon="0.47818">
        <ele>197.62</ele>
        <time>2018-02-25T08:34:23.999Z</time>
      </trkpt>
      <trkpt lat="46.66904" lon="0.47807">
        <ele>198.5</ele>
        <time>2018-02-25T08:34:27.999Z</time>
      </trkpt>
      <trkpt lat="46.66897" lon="0.47797">
        <ele>199.18</ele>
        <time>2018-02-25T08:34:30.999Z</time>
      </trkpt>
      <trkpt lat="46.66891" lon="0.47785">
        <ele>199.77</ele>
        <time>2018-02-25T08:34:34.999Z</time>
      </trkpt>
      <trkpt lat="46.66885" lon="0.47771">
        <ele>200.2</ele>
        <time>2018-02-25T08:34:38.999Z</time>
      </trkpt>
      <trkpt lat="46.66877" lon="0.4776">
        <ele>200.95</ele>
        <time>2018-02-25T08:34:41.999Z</time>
      </trkpt>
      <trkpt lat="46.66869" lon="0.47746">
        <ele>201.97</ele>
        <time>2018-02-25T08:34:44.999Z</time>
      </trkpt>
      <trkpt lat="46.66862" lon="0.47731">
        <ele>202.91</ele>
        <time>2018-02-25T08:34:47.999Z</time>
      </trkpt>
      <trkpt lat="46.66855" lon="0.47718">
        <ele>203.48</ele>
        <time>2018-02-25T08:34:49.999Z</time>
      </trkpt>
      <trkpt lat="46.66849" lon="0.47708">
        <ele>203.94</ele>
        <time>2018-02-25T08:34:51.999Z</time>
      </trkpt>
      <trkpt lat="46.6684" lon="0.47693">
        <ele>204.91</ele>
        <time>2018-02-25T08:34:54.999Z</time>
      </trkpt>
      <trkpt lat="46.66834" lon="0.47682">
        <ele>205.56</ele>
        <time>2018-02-25T08:34:56.999Z</time>
      </trkpt>
      <trkpt lat="46.66827" lon="0.4767">
        <ele>205.91</ele>
        <time>2018-02-25T08:34:58.999Z</time>
      </trkpt>
      <trkpt lat="46.6682" lon="0.47657">
        <ele>205.69</ele>
        <time>2018-02-25T08:35:00.999Z</time>
      </trkpt>
      <trkpt lat="46.66816" lon="0.47643">
        <ele>205.58</ele>
        <time>2018-02-25T08:35:02.999Z</time>
      </trkpt>
      <trkpt lat="46.6681" lon="0.4763">
        <ele>205.38</ele>
        <time>2018-02-25T08:35:04.999Z</time>
      </trkpt>
      <trkpt lat="46.66804" lon="0.4762">
        <ele>203.18</ele>
        <time>2018-02-25T08:35:06.999Z</time>
      </trkpt>
      <trkpt lat="46.66796" lon="0.47606">
        <ele>200.52</ele>
        <time>2018-02-25T08:35:08.999Z</time>
      </trkpt>
      <trkpt lat="46.66789" lon="0.47592">
        <ele>197.06</ele>
        <time>2018-02-25T08:35:10.999Z</time>
      </trkpt>
      <trkpt lat="46.66779" lon="0.47575">
        <ele>193.48</ele>
        <time>2018-02-25T08:35:12.999Z</time>
      </trkpt>
      <trkpt lat="46.66769" lon="0.47556">
        <ele>189.53</ele>
        <time>2018-02-25T08:35:14.999Z</time>
      </trkpt>
      <trkpt lat="46.66761" lon="0.47537">
        <ele>186.08</ele>
        <time>2018-02-25T08:35:16.999Z</time>
      </trkpt>
      <trkpt lat="46.66752" lon="0.47516">
        <ele>184.73</ele>
        <time>2018-02-25T08:35:18.999Z</time>
      </trkpt>
      <trkpt lat="46.66743" lon="0.47499">
        <ele>185.07</ele>
        <time>2018-02-25T08:35:20.999Z</time>
      </trkpt>
      <trkpt lat="46.66733" lon="0.47482">
        <ele>185.48</ele>
        <time>2018-02-25T08:35:22.999Z</time>
      </trkpt>
      <trkpt lat="46.66723" lon="0.47464">
        <ele>185.42</ele>
        <time>2018-02-25T08:35:24.999Z</time>
      </trkpt>
      <trkpt lat="46.66713" lon="0.47447">
        <ele>185.46</ele>
        <time>2018-02-25T08:35:26.999Z</time>
      </trkpt>
      <trkpt lat="46.66706" lon="0.47432">
        <ele>185.82</ele>
        <time>2018-02-25T08:35:28.999Z</time>
      </trkpt>
      <trkpt lat="46.66697" lon="0.47413">
        <ele>185.43</ele>
        <time>2018-02-25T08:35:30.999Z</time>
      </trkpt>
      <trkpt lat="46.66689" lon="0.47397">
        <ele>185.12</ele>
        <time>2018-02-25T08:35:32.999Z</time>
      </trkpt>
      <trkpt lat="46.66683" lon="0.4738">
        <ele>184.84</ele>
        <time>2018-02-25T08:35:34.999Z</time>
      </trkpt>
      <trkpt lat="46.66675" lon="0.47364">
        <ele>183.86</ele>
        <time>2018-02-25T08:35:36.999Z</time>
      </trkpt>
      <trkpt lat="46.66666" lon="0.47344">
        <ele>182.98</ele>
        <time>2018-02-25T08:35:38.999Z</time>
      </trkpt>
      <trkpt lat="46.66658" lon="0.47327">
        <ele>181.83</ele>
        <time>2018-02-25T08:35:40.999Z</time>
      </trkpt>
      <trkpt lat="46.6665" lon="0.47317">
        <ele>181.58</ele>
        <time>2018-02-25T08:35:44.999Z</time>
      </trkpt>
      <trkpt lat="46.66639" lon="0.47328">
        <ele>181.26</ele>
        <time>2018-02-25T08:35:48.999Z</time>
      </trkpt>
      <trkpt lat="46.66631" lon="0.47335">
        <ele>181.03</ele>
        <time>2018-02-25T08:35:50.999Z</time>
      </trkpt>
      <trkpt lat="46.66624" lon="0.47343">
        <ele>180.7</ele>
        <time>2018-02-25T08:35:52.999Z</time>
      </trkpt>
      <trkpt lat="46.66612" lon="0.47353">
        <ele>180.07</ele>
        <time>2018-02-25T08:35:55.999Z</time>
      </trkpt>
      <trkpt lat="46.66603" lon="0.47364">
        <ele>179.38</ele>
        <time>2018-02-25T08:35:58.999Z</time>
      </trkpt>
      <trkpt lat="46.66594" lon="0.47371">
        <ele>178.63</ele>
        <time>2018-02-25T08:36:01.999Z</time>
      </trkpt>
      <trkpt lat="46.66584" lon="0.47381">
        <ele>177.85</ele>
        <time>2018-02-25T08:36:04.999Z</time>
      </trkpt>
      <trkpt lat="46.66575" lon="0.47391">
        <ele>177.06</ele>
        <time>2018-02-25T08:36:07.999Z</time>
      </trkpt>
      <trkpt lat="46.66566" lon="0.474">
        <ele>171.77</ele>
        <time>2018-02-25T08:36:10.999Z</time>
      </trkpt>
      <trkpt lat="46.66556" lon="0.47412">
        <ele>166.9</ele>
        <time>2018-02-25T08:36:13.999Z</time>
      </trkpt>
      <trkpt lat="46.66547" lon="0.47423">
        <ele>164.73</ele>
        <time>2018-02-25T08:36:16.999Z</time>
      </trkpt>
      <trkpt lat="46.6654" lon="0.47432">
        <ele>164.44</ele>
        <time>2018-02-25T08:36:19.999Z</time>
      </trkpt>
      <trkpt lat="46.6653" lon="0.47442">
        <ele>162.56</ele>
        <time>2018-02-25T08:36:22.999Z</time>
      </trkpt>
      <trkpt lat="46.66521" lon="0.47453">
        <ele>162.04</ele>
        <time>2018-02-25T08:36:25.999Z</time>
      </trkpt>
      <trkpt lat="46.66515" lon="0.47463">
        <ele>161.9</ele>
        <time>2018-02-25T08:36:28.999Z</time>
      </trkpt>
      <trkpt lat="46.66508" lon="0.47474">
        <ele>161.61</ele>
        <time>2018-02-25T08:36:32.999Z</time>
      </trkpt>
      <trkpt lat="46.66499" lon="0.47482">
        <ele>161.25</ele>
        <time>2018-02-25T08:36:36.999Z</time>
      </trkpt>
      <trkpt lat="46.6649" lon="0.47486">
        <ele>160.83</ele>
        <time>2018-02-25T08:36:40.999Z</time>
      </trkpt>
      <trkpt lat="46.6648" lon="0.4749">
        <ele>160.72</ele>
        <time>2018-02-25T08:36:47.999Z</time>
      </trkpt>
      <trkpt lat="46.66472" lon="0.47499">
        <ele>160.69</ele>
        <time>2018-02-25T08:36:51.999Z</time>
      </trkpt>
      <trkpt lat="46.66463" lon="0.47508">
        <ele>160.65</ele>
        <time>2018-02-25T08:36:58.999Z</time>
      </trkpt>
      <trkpt lat="46.66455" lon="0.47518">
        <ele>160.61</ele>
        <time>2018-02-25T08:37:02.999Z</time>
      </trkpt>
      <trkpt lat="46.66447" lon="0.47529">
        <ele>160.58</ele>
        <time>2018-02-25T08:37:08.999Z</time>
      </trkpt>
      <trkpt lat="46.66439" lon="0.47538">
        <ele>160.73</ele>
        <time>2018-02-25T08:37:13.999Z</time>
      </trkpt>
      <trkpt lat="46.6643" lon="0.47546">
        <ele>160.92</ele>
        <time>2018-02-25T08:37:19.999Z</time>
      </trkpt>
      <trkpt lat="46.66423" lon="0.47554">
        <ele>161.21</ele>
        <time>2018-02-25T08:37:24.999Z</time>
      </trkpt>
      <trkpt lat="46.66414" lon="0.47563">
        <ele>161.77</ele>
        <time>2018-02-25T08:37:31.999Z</time>
      </trkpt>
      <trkpt lat="46.66406" lon="0.47572">
        <ele>162.39</ele>
        <time>2018-02-25T08:37:37.999Z</time>
      </trkpt>
      <trkpt lat="46.66397" lon="0.4758">
        <ele>163.03</ele>
        <time>2018-02-25T08:37:42.999Z</time>
      </trkpt>
      <trkpt lat="46.66388" lon="0.47584">
        <ele>163.71</ele>
        <time>2018-02-25T08:37:47.999Z</time>
      </trkpt>
      <trkpt lat="46.66379" lon="0.47575">
        <ele>164.37</ele>
        <time>2018-02-25T08:37:51.999Z</time>
      </trkpt>
      <trkpt lat="46.66373" lon="0.47564">
        <ele>166.08</ele>
        <time>2018-02-25T08:37:54.999Z</time>
      </trkpt>
      <trkpt lat="46.66367" lon="0.47554">
        <ele>167.66</ele>
        <time>2018-02-25T08:37:56.999Z</time>
      </trkpt>
      <trkpt lat="46.66361" lon="0.47542">
        <ele>168.27</ele>
        <time>2018-02-25T08:37:58.999Z</time>
      </trkpt>
      <trkpt lat="46.66355" lon="0.47528">
        <ele>168.34</ele>
        <time>2018-02-25T08:38:00.999Z</time>
      </trkpt>
      <trkpt lat="46.66349" lon="0.47509">
        <ele>168.47</ele>
        <time>2018-02-25T08:38:03.999Z</time>
      </trkpt>
      <trkpt lat="46.66339" lon="0.47504">
        <ele>170.91</ele>
        <time>2018-02-25T08:38:11.999Z</time>
      </trkpt>
      <trkpt lat="46.66332" lon="0.47495">
        <ele>171.89</ele>
        <time>2018-02-25T08:38:14.999Z</time>
      </trkpt>
      <trkpt lat="46.66331" lon="0.47481">
        <ele>172.88</ele>
        <time>2018-02-25T08:38:18.999Z</time>
      </trkpt>
      <trkpt lat="46.66327" lon="0.47468">
        <ele>173.67</ele>
        <time>2018-02-25T08:38:22.999Z</time>
      </trkpt>
      <trkpt lat="46.66322" lon="0.47456">
        <ele>174.3</ele>
        <time>2018-02-25T08:38:26.999Z</time>
      </trkpt>
      <trkpt lat="46.66316" lon="0.47442">
        <ele>174.97</ele>
        <time>2018-02-25T08:38:30.999Z</time>
      </trkpt>
      <trkpt lat="46.66309" lon="0.47429">
        <ele>175.65</ele>
        <time>2018-02-25T08:38:34.999Z</time>
      </trkpt>
      <trkpt lat="46.66301" lon="0.47416">
        <ele>176.49</ele>
        <time>2018-02-25T08:38:38.999Z</time>
      </trkpt>
      <trkpt lat="46.66297" lon="0.47404">
        <ele>177.13</ele>
        <time>2018-02-25T08:38:41.999Z</time>
      </trkpt>
      <trkpt lat="46.66292" lon="0.47389">
        <ele>177.97</ele>
        <time>2018-02-25T08:38:45.999Z</time>
      </trkpt>
      <trkpt lat="46.66287" lon="0.47376">
        <ele>178.95</ele>
        <time>2018-02-25T08:38:50.999Z</time>
      </trkpt>
      <trkpt lat="46.66281" lon="0.47365">
        <ele>179.69</ele>
        <time>2018-02-25T08:38:54.999Z</time>
      </trkpt>
      <trkpt lat="46.66274" lon="0.47356">
        <ele>180.24</ele>
        <time>2018-02-25T08:38:58.999Z</time>
      </trkpt>
      <trkpt lat="46.66268" lon="0.47345">
        <ele>180.59</ele>
        <time>2018-02-25T08:39:02.999Z</time>
      </trkpt>
      <trkpt lat="46.66261" lon="0.47334">
        <ele>180.69</ele>
        <time>2018-02-25T08:39:07.999Z</time>
      </trkpt>
      <trkpt lat="46.66255" lon="0.47324">
        <ele>180.62</ele>
        <time>2018-02-25T08:39:12.999Z</time>
      </trkpt>
      <trkpt lat="46.66248" lon="0.47312">
        <ele>180.54</ele>
        <time>2018-02-25T08:39:17.999Z</time>
      </trkpt>
      <trkpt lat="46.66243" lon="0.473">
        <ele>180.51</ele>
        <time>2018-02-25T08:39:21.999Z</time>
      </trkpt>
      <trkpt lat="46.66237" lon="0.47286">
        <ele>180.58</ele>
        <time>2018-02-25T08:39:26.999Z</time>
      </trkpt>
      <trkpt lat="46.66231" lon="0.47273">
        <ele>181</ele>
        <time>2018-02-25T08:39:30.999Z</time>
      </trkpt>
      <trkpt lat="46.66225" lon="0.47261">
        <ele>181.84</ele>
        <time>2018-02-25T08:39:35.999Z</time>
      </trkpt>
      <trkpt lat="46.66218" lon="0.47249">
        <ele>182.62</ele>
        <time>2018-02-25T08:39:40.999Z</time>
      </trkpt>
      <trkpt lat="46.66211" lon="0.47238">
        <ele>182.93</ele>
        <time>2018-02-25T08:39:44.999Z</time>
      </trkpt>
      <trkpt lat="46.66205" lon="0.47227">
        <ele>183.26</ele>
        <time>2018-02-25T08:39:48.999Z</time>
      </trkpt>
      <trkpt lat="46.662" lon="0.47212">
        <ele>183.87</ele>
        <time>2018-02-25T08:39:53.999Z</time>
      </trkpt>
      <trkpt lat="46.66193" lon="0.47199">
        <ele>184.12</ele>
        <time>2018-02-25T08:39:57.999Z</time>
      </trkpt>
      <trkpt lat="46.66194" lon="0.47183">
        <ele>183.02</ele>
        <time>2018-02-25T08:40:04.999Z</time>
      </trkpt>
      <trkpt lat="46.66203" lon="0.47171">
        <ele>180.54</ele>
        <time>2018-02-25T08:40:06.999Z</time>
      </trkpt>
      <trkpt lat="46.66211" lon="0.4716">
        <ele>180.24</ele>
        <time>2018-02-25T08:40:08.999Z</time>
      </trkpt>
      <trkpt lat="46.66219" lon="0.47151">
        <ele>180.02</ele>
        <time>2018-02-25T08:40:10.999Z</time>
      </trkpt>
      <trkpt lat="46.66229" lon="0.4714">
        <ele>179.81</ele>
        <time>2018-02-25T08:40:13.999Z</time>
      </trkpt>
      <trkpt lat="46.66239" lon="0.47129">
        <ele>178.38</ele>
        <time>2018-02-25T08:40:16.999Z</time>
      </trkpt>
      <trkpt lat="46.66249" lon="0.47121">
        <ele>177.39</ele>
        <time>2018-02-25T08:40:18.999Z</time>
      </trkpt>
      <trkpt lat="46.66259" lon="0.47111">
        <ele>175.56</ele>
        <time>2018-02-25T08:40:20.999Z</time>
      </trkpt>
      <trkpt lat="46.66267" lon="0.47102">
        <ele>173.71</ele>
        <time>2018-02-25T08:40:22.999Z</time>
      </trkpt>
      <trkpt lat="46.66276" lon="0.47092">
        <ele>172.31</ele>
        <time>2018-02-25T08:40:24.999Z</time>
      </trkpt>
      <trkpt lat="46.66286" lon="0.4708">
        <ele>171.21</ele>
        <time>2018-02-25T08:40:26.999Z</time>
      </trkpt>
      <trkpt lat="46.66296" lon="0.47067">
        <ele>170.49</ele>
        <time>2018-02-25T08:40:28.999Z</time>
      </trkpt>
      <trkpt lat="46.66307" lon="0.47055">
        <ele>169.67</ele>
        <time>2018-02-25T08:40:30.999Z</time>
      </trkpt>
      <trkpt lat="46.66319" lon="0.47042">
        <ele>168.81</ele>
        <time>2018-02-25T08:40:32.999Z</time>
      </trkpt>
      <trkpt lat="46.66329" lon="0.4703">
        <ele>168</ele>
        <time>2018-02-25T08:40:34.999Z</time>
      </trkpt>
      <trkpt lat="46.6634" lon="0.47018">
        <ele>167.1</ele>
        <time>2018-02-25T08:40:36.999Z</time>
      </trkpt>
      <trkpt lat="46.66351" lon="0.47008">
        <ele>165.27</ele>
        <time>2018-02-25T08:40:38.999Z</time>
      </trkpt>
      <trkpt lat="46.6636" lon="0.46997">
        <ele>163.01</ele>
        <time>2018-02-25T08:40:40.999Z</time>
      </trkpt>
      <trkpt lat="46.66372" lon="0.46986">
        <ele>160.94</ele>
        <time>2018-02-25T08:40:42.999Z</time>
      </trkpt>
      <trkpt lat="46.66381" lon="0.46976">
        <ele>158.93</ele>
        <time>2018-02-25T08:40:44.999Z</time>
      </trkpt>
      <trkpt lat="46.66393" lon="0.46965">
        <ele>157.92</ele>
        <time>2018-02-25T08:40:46.999Z</time>
      </trkpt>
      <trkpt lat="46.664" lon="0.46957">
        <ele>157.95</ele>
        <time>2018-02-25T08:40:48.999Z</time>
      </trkpt>
      <trkpt lat="46.66408" lon="0.46947">
        <ele>158.73</ele>
        <time>2018-02-25T08:40:50.999Z</time>
      </trkpt>
      <trkpt lat="46.66417" lon="0.46939">
        <ele>158.94</ele>
        <time>2018-02-25T08:40:52.999Z</time>
      </trkpt>
      <trkpt lat="46.66426" lon="0.4693">
        <ele>158.88</ele>
        <time>2018-02-25T08:40:55.999Z</time>
      </trkpt>
      <trkpt lat="46.66433" lon="0.4692">
        <ele>158.78</ele>
        <time>2018-02-25T08:40:58.999Z</time>
      </trkpt>
      <trkpt lat="46.66441" lon="0.46913">
        <ele>158.65</ele>
        <time>2018-02-25T08:41:00.999Z</time>
      </trkpt>
      <trkpt lat="46.6645" lon="0.46903">
        <ele>158.76</ele>
        <time>2018-02-25T08:41:02.999Z</time>
      </trkpt>
      <trkpt lat="46.66459" lon="0.46892">
        <ele>158.75</ele>
        <time>2018-02-25T08:41:05.999Z</time>
      </trkpt>
      <trkpt lat="46.6647" lon="0.46881">
        <ele>158.93</ele>
        <time>2018-02-25T08:41:08.999Z</time>
      </trkpt>
      <trkpt lat="46.6648" lon="0.46872">
        <ele>159.01</ele>
        <time>2018-02-25T08:41:11.999Z</time>
      </trkpt>
      <trkpt lat="46.66489" lon="0.46866">
        <ele>159.09</ele>
        <time>2018-02-25T08:41:13.999Z</time>
      </trkpt>
      <trkpt lat="46.66493" lon="0.46854">
        <ele>159.27</ele>
        <time>2018-02-25T08:41:16.999Z</time>
      </trkpt>
      <trkpt lat="46.66486" lon="0.46843">
        <ele>160.43</ele>
        <time>2018-02-25T08:41:23.999Z</time>
      </trkpt>
      <trkpt lat="46.66476" lon="0.46837">
        <ele>161.07</ele>
        <time>2018-02-25T08:41:26.999Z</time>
      </trkpt>
      <trkpt lat="46.66466" lon="0.46831">
        <ele>161.71</ele>
        <time>2018-02-25T08:41:29.999Z</time>
      </trkpt>
      <trkpt lat="46.66456" lon="0.46824">
        <ele>162.33</ele>
        <time>2018-02-25T08:41:32.999Z</time>
      </trkpt>
      <trkpt lat="46.66445" lon="0.46816">
        <ele>162.84</ele>
        <time>2018-02-25T08:41:35.999Z</time>
      </trkpt>
      <trkpt lat="46.66435" lon="0.4681">
        <ele>163.28</ele>
        <time>2018-02-25T08:41:38.999Z</time>
      </trkpt>
      <trkpt lat="46.66424" lon="0.46804">
        <ele>163.63</ele>
        <time>2018-02-25T08:41:41.999Z</time>
      </trkpt>
      <trkpt lat="46.66412" lon="0.46799">
        <ele>163.79</ele>
        <time>2018-02-25T08:41:43.999Z</time>
      </trkpt>
      <trkpt lat="46.66403" lon="0.46792">
        <ele>163.9</ele>
        <time>2018-02-25T08:41:46.999Z</time>
      </trkpt>
      <trkpt lat="46.66393" lon="0.46787">
        <ele>164.01</ele>
        <time>2018-02-25T08:41:49.999Z</time>
      </trkpt>
      <trkpt lat="46.66382" lon="0.46781">
        <ele>164.05</ele>
        <time>2018-02-25T08:41:52.999Z</time>
      </trkpt>
      <trkpt lat="46.66373" lon="0.46776">
        <ele>163.71</ele>
        <time>2018-02-25T08:41:56.999Z</time>
      </trkpt>
      <trkpt lat="46.66364" lon="0.46773">
        <ele>162.83</ele>
        <time>2018-02-25T08:42:03.999Z</time>
      </trkpt>
      <trkpt lat="46.66354" lon="0.46769">
        <ele>162.5</ele>
        <time>2018-02-25T08:42:08.999Z</time>
      </trkpt>
      <trkpt lat="46.66343" lon="0.46764">
        <ele>162.34</ele>
        <time>2018-02-25T08:42:11.999Z</time>
      </trkpt>
      <trkpt lat="46.66333" lon="0.4676">
        <ele>162.25</ele>
        <time>2018-02-25T08:42:13.999Z</time>
      </trkpt>
      <trkpt lat="46.66321" lon="0.46756">
        <ele>162.09</ele>
        <time>2018-02-25T08:42:16.999Z</time>
      </trkpt>
      <trkpt lat="46.66312" lon="0.46753">
        <ele>161.86</ele>
        <time>2018-02-25T08:42:19.999Z</time>
      </trkpt>
      <trkpt lat="46.66302" lon="0.46748">
        <ele>161.55</ele>
        <time>2018-02-25T08:42:22.999Z</time>
      </trkpt>
      <trkpt lat="46.66293" lon="0.46745">
        <ele>161.25</ele>
        <time>2018-02-25T08:42:25.999Z</time>
      </trkpt>
      <trkpt lat="46.66283" lon="0.4674">
        <ele>161.06</ele>
        <time>2018-02-25T08:42:28.999Z</time>
      </trkpt>
      <trkpt lat="46.66271" lon="0.46735">
        <ele>160.91</ele>
        <time>2018-02-25T08:42:31.999Z</time>
      </trkpt>
      <trkpt lat="46.66259" lon="0.46731">
        <ele>160.87</ele>
        <time>2018-02-25T08:42:34.999Z</time>
      </trkpt>
      <trkpt lat="46.66249" lon="0.46725">
        <ele>160.74</ele>
        <time>2018-02-25T08:42:38.999Z</time>
      </trkpt>
      <trkpt lat="46.6624" lon="0.46721">
        <ele>160.55</ele>
        <time>2018-02-25T08:42:41.999Z</time>
      </trkpt>
      <trkpt lat="46.66229" lon="0.46716">
        <ele>160.33</ele>
        <time>2018-02-25T08:42:44.999Z</time>
      </trkpt>
      <trkpt lat="46.66218" lon="0.46713">
        <ele>160.2</ele>
        <time>2018-02-25T08:42:47.999Z</time>
      </trkpt>
      <trkpt lat="46.66207" lon="0.46709">
        <ele>160.08</ele>
        <time>2018-02-25T08:42:50.999Z</time>
      </trkpt>
      <trkpt lat="46.66197" lon="0.46705">
        <ele>160</ele>
        <time>2018-02-25T08:42:52.999Z</time>
      </trkpt>
      <trkpt lat="46.66188" lon="0.46701">
        <ele>159.97</ele>
        <time>2018-02-25T08:42:55.999Z</time>
      </trkpt>
      <trkpt lat="46.66178" lon="0.46696">
        <ele>160.04</ele>
        <time>2018-02-25T08:42:58.999Z</time>
      </trkpt>
      <trkpt lat="46.66167" lon="0.46691">
        <ele>160.17</ele>
        <time>2018-02-25T08:43:02.999Z</time>
      </trkpt>
      <trkpt lat="46.66157" lon="0.46689">
        <ele>160.24</ele>
        <time>2018-02-25T08:43:04.999Z</time>
      </trkpt>
      <trkpt lat="46.66147" lon="0.46688">
        <ele>160.4</ele>
        <time>2018-02-25T08:43:07.999Z</time>
      </trkpt>
      <trkpt lat="46.66135" lon="0.46686">
        <ele>160.48</ele>
        <time>2018-02-25T08:43:10.999Z</time>
      </trkpt>
      <trkpt lat="46.66126" lon="0.46685">
        <ele>160.51</ele>
        <time>2018-02-25T08:43:13.999Z</time>
      </trkpt>
      <trkpt lat="46.66116" lon="0.46684">
        <ele>160.59</ele>
        <time>2018-02-25T08:43:16.999Z</time>
      </trkpt>
      <trkpt lat="46.66107" lon="0.46683">
        <ele>160.69</ele>
        <time>2018-02-25T08:43:19.999Z</time>
      </trkpt>
      <trkpt lat="46.66097" lon="0.46681">
        <ele>160.84</ele>
        <time>2018-02-25T08:43:24.999Z</time>
      </trkpt>
      <trkpt lat="46.66088" lon="0.46681">
        <ele>160.86</ele>
        <time>2018-02-25T08:43:28.999Z</time>
      </trkpt>
      <trkpt lat="46.66076" lon="0.4668">
        <ele>161.28</ele>
        <time>2018-02-25T08:43:33.999Z</time>
      </trkpt>
      <trkpt lat="46.66067" lon="0.46679">
        <ele>162.46</ele>
        <time>2018-02-25T08:43:39.999Z</time>
      </trkpt>
      <trkpt lat="46.66057" lon="0.46677">
        <ele>164.19</ele>
        <time>2018-02-25T08:43:45.999Z</time>
      </trkpt>
      <trkpt lat="46.66047" lon="0.46677">
        <ele>165.23</ele>
        <time>2018-02-25T08:43:49.999Z</time>
      </trkpt>
      <trkpt lat="46.66036" lon="0.46674">
        <ele>166.12</ele>
        <time>2018-02-25T08:43:54.999Z</time>
      </trkpt>
      <trkpt lat="46.66027" lon="0.4667">
        <ele>166.37</ele>
        <time>2018-02-25T08:43:57.999Z</time>
      </trkpt>
      <trkpt lat="46.66015" lon="0.46665">
        <ele>166.29</ele>
        <time>2018-02-25T08:43:59.999Z</time>
      </trkpt>
      <trkpt lat="46.6601" lon="0.46654">
        <ele>165.34</ele>
        <time>2018-02-25T08:44:03.999Z</time>
      </trkpt>
      <trkpt lat="46.66008" lon="0.46641">
        <ele>164.47</ele>
        <time>2018-02-25T08:44:06.999Z</time>
      </trkpt>
      <trkpt lat="46.66003" lon="0.46629">
        <ele>163.24</ele>
        <time>2018-02-25T08:44:10.999Z</time>
      </trkpt>
      <trkpt lat="46.65999" lon="0.46614">
        <ele>162.41</ele>
        <time>2018-02-25T08:44:13.999Z</time>
      </trkpt>
      <trkpt lat="46.65995" lon="0.466">
        <ele>161.95</ele>
        <time>2018-02-25T08:44:15.999Z</time>
      </trkpt>
      <trkpt lat="46.65988" lon="0.46587">
        <ele>161.54</ele>
        <time>2018-02-25T08:44:17.999Z</time>
      </trkpt>
      <trkpt lat="46.65979" lon="0.4658">
        <ele>161.01</ele>
        <time>2018-02-25T08:44:19.999Z</time>
      </trkpt>
      <trkpt lat="46.65971" lon="0.4657">
        <ele>159.9</ele>
        <time>2018-02-25T08:44:23.999Z</time>
      </trkpt>
      <trkpt lat="46.65968" lon="0.46556">
        <ele>158.08</ele>
        <time>2018-02-25T08:44:28.999Z</time>
      </trkpt>
      <trkpt lat="46.65959" lon="0.46547">
        <ele>156.92</ele>
        <time>2018-02-25T08:44:32.999Z</time>
      </trkpt>
      <trkpt lat="46.6595" lon="0.46538">
        <ele>156.14</ele>
        <time>2018-02-25T08:44:35.999Z</time>
      </trkpt>
      <trkpt lat="46.65942" lon="0.46531">
        <ele>154.85</ele>
        <time>2018-02-25T08:44:40.999Z</time>
      </trkpt>
      <trkpt lat="46.65933" lon="0.46524">
        <ele>154.4</ele>
        <time>2018-02-25T08:44:43.999Z</time>
      </trkpt>
      <trkpt lat="46.65926" lon="0.46511">
        <ele>154.03</ele>
        <time>2018-02-25T08:44:47.999Z</time>
      </trkpt>
      <trkpt lat="46.65921" lon="0.465">
        <ele>153.48</ele>
        <time>2018-02-25T08:44:51.999Z</time>
      </trkpt>
      <trkpt lat="46.6592" lon="0.46485">
        <ele>152.64</ele>
        <time>2018-02-25T08:44:57.999Z</time>
      </trkpt>
      <trkpt lat="46.65921" lon="0.46468">
        <ele>151.77</ele>
        <time>2018-02-25T08:45:02.999Z</time>
      </trkpt>
      <trkpt lat="46.65922" lon="0.46451">
        <ele>151.57</ele>
        <time>2018-02-25T08:45:05.999Z</time>
      </trkpt>
      <trkpt lat="46.65923" lon="0.46435">
        <ele>151.63</ele>
        <time>2018-02-25T08:45:09.999Z</time>
      </trkpt>
      <trkpt lat="46.65926" lon="0.46421">
        <ele>151.71</ele>
        <time>2018-02-25T08:45:11.999Z</time>
      </trkpt>
      <trkpt lat="46.65929" lon="0.46408">
        <ele>151.79</ele>
        <time>2018-02-25T08:45:13.999Z</time>
      </trkpt>
      <trkpt lat="46.65932" lon="0.46393">
        <ele>151.83</ele>
        <time>2018-02-25T08:45:16.999Z</time>
      </trkpt>
      <trkpt lat="46.65936" lon="0.46374">
        <ele>151.77</ele>
        <time>2018-02-25T08:45:19.999Z</time>
      </trkpt>
      <trkpt lat="46.65936" lon="0.4636">
        <ele>151.78</ele>
        <time>2018-02-25T08:45:22.999Z</time>
      </trkpt>
      <trkpt lat="46.65937" lon="0.46343">
        <ele>151.94</ele>
        <time>2018-02-25T08:45:26.999Z</time>
      </trkpt>
      <trkpt lat="46.65943" lon="0.46326">
        <ele>152.22</ele>
        <time>2018-02-25T08:45:29.999Z</time>
      </trkpt>
      <trkpt lat="46.65949" lon="0.46313">
        <ele>152.46</ele>
        <time>2018-02-25T08:45:31.999Z</time>
      </trkpt>
      <trkpt lat="46.65953" lon="0.46302">
        <ele>152.71</ele>
        <time>2018-02-25T08:45:34.999Z</time>
      </trkpt>
      <trkpt lat="46.65958" lon="0.46287">
        <ele>152.89</ele>
        <time>2018-02-25T08:45:38.999Z</time>
      </trkpt>
      <trkpt lat="46.6596" lon="0.46272">
        <ele>152.86</ele>
        <time>2018-02-25T08:45:42.999Z</time>
      </trkpt>
      <trkpt lat="46.65961" lon="0.46254">
        <ele>152.96</ele>
        <time>2018-02-25T08:45:46.999Z</time>
      </trkpt>
      <trkpt lat="46.65968" lon="0.4624">
        <ele>153.18</ele>
        <time>2018-02-25T08:45:48.999Z</time>
      </trkpt>
      <trkpt lat="46.65973" lon="0.4623">
        <ele>153.44</ele>
        <time>2018-02-25T08:45:50.999Z</time>
      </trkpt>
      <trkpt lat="46.65976" lon="0.46214">
        <ele>153.95</ele>
        <time>2018-02-25T08:45:54.999Z</time>
      </trkpt>
      <trkpt lat="46.6598" lon="0.46202">
        <ele>154.32</ele>
        <time>2018-02-25T08:45:58.999Z</time>
      </trkpt>
      <trkpt lat="46.65986" lon="0.46186">
        <ele>154.54</ele>
        <time>2018-02-25T08:46:02.999Z</time>
      </trkpt>
      <trkpt lat="46.65989" lon="0.46174">
        <ele>154.85</ele>
        <time>2018-02-25T08:46:05.999Z</time>
      </trkpt>
      <trkpt lat="46.65993" lon="0.46159">
        <ele>155.1</ele>
        <time>2018-02-25T08:46:08.999Z</time>
      </trkpt>
      <trkpt lat="46.65997" lon="0.46146">
        <ele>155.23</ele>
        <time>2018-02-25T08:46:11.999Z</time>
      </trkpt>
      <trkpt lat="46.66001" lon="0.46129">
        <ele>155.59</ele>
        <time>2018-02-25T08:46:14.999Z</time>
      </trkpt>
      <trkpt lat="46.66005" lon="0.46114">
        <ele>156.22</ele>
        <time>2018-02-25T08:46:17.999Z</time>
      </trkpt>
      <trkpt lat="46.66009" lon="0.46098">
        <ele>156.96</ele>
        <time>2018-02-25T08:46:20.999Z</time>
      </trkpt>
      <trkpt lat="46.66014" lon="0.46081">
        <ele>157.47</ele>
        <time>2018-02-25T08:46:23.999Z</time>
      </trkpt>
      <trkpt lat="46.66014" lon="0.46066">
        <ele>157.82</ele>
        <time>2018-02-25T08:46:25.999Z</time>
      </trkpt>
      <trkpt lat="46.66016" lon="0.46048">
        <ele>158.4</ele>
        <time>2018-02-25T08:46:28.999Z</time>
      </trkpt>
      <trkpt lat="46.6602" lon="0.46029">
        <ele>159.1</ele>
        <time>2018-02-25T08:46:32.999Z</time>
      </trkpt>
      <trkpt lat="46.66023" lon="0.46009">
        <ele>159.37</ele>
        <time>2018-02-25T08:46:34.999Z</time>
      </trkpt>
      <trkpt lat="46.66029" lon="0.45992">
        <ele>159.63</ele>
        <time>2018-02-25T08:46:36.999Z</time>
      </trkpt>
      <trkpt lat="46.66036" lon="0.45973">
        <ele>159.96</ele>
        <time>2018-02-25T08:46:38.999Z</time>
      </trkpt>
      <trkpt lat="46.6604" lon="0.45958">
        <ele>160.27</ele>
        <time>2018-02-25T08:46:40.999Z</time>
      </trkpt>
      <trkpt lat="46.66046" lon="0.45941">
        <ele>160.7</ele>
        <time>2018-02-25T08:46:43.999Z</time>
      </trkpt>
      <trkpt lat="46.66051" lon="0.45919">
        <ele>160.82</ele>
        <time>2018-02-25T08:46:46.999Z</time>
      </trkpt>
      <trkpt lat="46.66053" lon="0.45902">
        <ele>160.88</ele>
        <time>2018-02-25T08:46:48.999Z</time>
      </trkpt>
      <trkpt lat="46.66056" lon="0.45886">
        <ele>160.91</ele>
        <time>2018-02-25T08:46:50.999Z</time>
      </trkpt>
      <trkpt lat="46.6606" lon="0.45868">
        <ele>161.72</ele>
        <time>2018-02-25T08:46:52.999Z</time>
      </trkpt>
      <trkpt lat="46.66063" lon="0.45852">
        <ele>162.01</ele>
        <time>2018-02-25T08:46:54.999Z</time>
      </trkpt>
      <trkpt lat="46.66066" lon="0.45836">
        <ele>162.07</ele>
        <time>2018-02-25T08:46:56.999Z</time>
      </trkpt>
      <trkpt lat="46.66069" lon="0.45822">
        <ele>162.93</ele>
        <time>2018-02-25T08:46:58.999Z</time>
      </trkpt>
      <trkpt lat="46.66071" lon="0.45808">
        <ele>163.45</ele>
        <time>2018-02-25T08:47:00.999Z</time>
      </trkpt>
      <trkpt lat="46.66071" lon="0.45794">
        <ele>164.02</ele>
        <time>2018-02-25T08:47:02.999Z</time>
      </trkpt>
      <trkpt lat="46.66073" lon="0.45778">
        <ele>163.46</ele>
        <time>2018-02-25T08:47:04.999Z</time>
      </trkpt>
      <trkpt lat="46.66074" lon="0.45762">
        <ele>163.07</ele>
        <time>2018-02-25T08:47:07.999Z</time>
      </trkpt>
      <trkpt lat="46.66065" lon="0.45756">
        <ele>162.67</ele>
        <time>2018-02-25T08:47:10.999Z</time>
      </trkpt>
      <trkpt lat="46.66056" lon="0.4576">
        <ele>162.24</ele>
        <time>2018-02-25T08:47:13.999Z</time>
      </trkpt>
      <trkpt lat="46.66046" lon="0.45765">
        <ele>161.26</ele>
        <time>2018-02-25T08:47:19.999Z</time>
      </trkpt>
      <trkpt lat="46.66037" lon="0.45771">
        <ele>160.81</ele>
        <time>2018-02-25T08:47:22.999Z</time>
      </trkpt>
      <trkpt lat="46.66028" lon="0.45776">
        <ele>160.55</ele>
        <time>2018-02-25T08:47:25.999Z</time>
      </trkpt>
      <trkpt lat="46.66015" lon="0.45781">
        <ele>160.44</ele>
        <time>2018-02-25T08:47:28.999Z</time>
      </trkpt>
      <trkpt lat="46.66001" lon="0.45787">
        <ele>160.48</ele>
        <time>2018-02-25T08:47:31.999Z</time>
      </trkpt>
      <trkpt lat="46.65989" lon="0.45792">
        <ele>160.73</ele>
        <time>2018-02-25T08:47:34.999Z</time>
      </trkpt>
      <trkpt lat="46.65978" lon="0.45797">
        <ele>161.07</ele>
        <time>2018-02-25T08:47:37.999Z</time>
      </trkpt>
      <trkpt lat="46.65966" lon="0.45803">
        <ele>161.48</ele>
        <time>2018-02-25T08:47:40.999Z</time>
      </trkpt>
      <trkpt lat="46.65956" lon="0.45808">
        <ele>162.12</ele>
        <time>2018-02-25T08:47:44.999Z</time>
      </trkpt>
      <trkpt lat="46.65946" lon="0.4581">
        <ele>162.6</ele>
        <time>2018-02-25T08:47:47.999Z</time>
      </trkpt>
      <trkpt lat="46.65933" lon="0.45808">
        <ele>163.12</ele>
        <time>2018-02-25T08:47:50.999Z</time>
      </trkpt>
      <trkpt lat="46.65923" lon="0.45807">
        <ele>163.47</ele>
        <time>2018-02-25T08:47:52.999Z</time>
      </trkpt>
      <trkpt lat="46.65914" lon="0.45804">
        <ele>164.12</ele>
        <time>2018-02-25T08:47:55.999Z</time>
      </trkpt>
      <trkpt lat="46.65905" lon="0.458">
        <ele>164.83</ele>
        <time>2018-02-25T08:47:58.999Z</time>
      </trkpt>
      <trkpt lat="46.65895" lon="0.45793">
        <ele>165.84</ele>
        <time>2018-02-25T08:48:02.999Z</time>
      </trkpt>
      <trkpt lat="46.65886" lon="0.45788">
        <ele>166.31</ele>
        <time>2018-02-25T08:48:04.999Z</time>
      </trkpt>
      <trkpt lat="46.65877" lon="0.45784">
        <ele>166.96</ele>
        <time>2018-02-25T08:48:07.999Z</time>
      </trkpt>
      <trkpt lat="46.65863" lon="0.45779">
        <ele>167.49</ele>
        <time>2018-02-25T08:48:10.999Z</time>
      </trkpt>
      <trkpt lat="46.65854" lon="0.45775">
        <ele>167.72</ele>
        <time>2018-02-25T08:48:12.999Z</time>
      </trkpt>
      <trkpt lat="46.65844" lon="0.4577">
        <ele>167.85</ele>
        <time>2018-02-25T08:48:15.999Z</time>
      </trkpt>
      <trkpt lat="46.65833" lon="0.45768">
        <ele>167.8</ele>
        <time>2018-02-25T08:48:18.999Z</time>
      </trkpt>
      <trkpt lat="46.65821" lon="0.45764">
        <ele>167.62</ele>
        <time>2018-02-25T08:48:21.999Z</time>
      </trkpt>
      <trkpt lat="46.6581" lon="0.45763">
        <ele>167.44</ele>
        <time>2018-02-25T08:48:23.999Z</time>
      </trkpt>
      <trkpt lat="46.65798" lon="0.45762">
        <ele>167.23</ele>
        <time>2018-02-25T08:48:26.999Z</time>
      </trkpt>
      <trkpt lat="46.65788" lon="0.45762">
        <ele>166.95</ele>
        <time>2018-02-25T08:48:29.999Z</time>
      </trkpt>
      <trkpt lat="46.65778" lon="0.4576">
        <ele>166.74</ele>
        <time>2018-02-25T08:48:32.999Z</time>
      </trkpt>
      <trkpt lat="46.65767" lon="0.4576">
        <ele>166.55</ele>
        <time>2018-02-25T08:48:35.999Z</time>
      </trkpt>
      <trkpt lat="46.65756" lon="0.4576">
        <ele>166.48</ele>
        <time>2018-02-25T08:48:38.999Z</time>
      </trkpt>
      <trkpt lat="46.65742" lon="0.45762">
        <ele>167.02</ele>
        <time>2018-02-25T08:48:41.999Z</time>
      </trkpt>
      <trkpt lat="46.65731" lon="0.45764">
        <ele>167.38</ele>
        <time>2018-02-25T08:48:43.999Z</time>
      </trkpt>
      <trkpt lat="46.65721" lon="0.45766">
        <ele>167.08</ele>
        <time>2018-02-25T08:48:45.999Z</time>
      </trkpt>
      <trkpt lat="46.65707" lon="0.4577">
        <ele>166.54</ele>
        <time>2018-02-25T08:48:48.999Z</time>
      </trkpt>
      <trkpt lat="46.65698" lon="0.45774">
        <ele>166.26</ele>
        <time>2018-02-25T08:48:50.999Z</time>
      </trkpt>
      <trkpt lat="46.65687" lon="0.45778">
        <ele>166.14</ele>
        <time>2018-02-25T08:48:52.999Z</time>
      </trkpt>
      <trkpt lat="46.65677" lon="0.45782">
        <ele>165.86</ele>
        <time>2018-02-25T08:48:56.999Z</time>
      </trkpt>
      <trkpt lat="46.65667" lon="0.45787">
        <ele>165.63</ele>
        <time>2018-02-25T08:48:59.999Z</time>
      </trkpt>
      <trkpt lat="46.65656" lon="0.45792">
        <ele>165.36</ele>
        <time>2018-02-25T08:49:02.999Z</time>
      </trkpt>
      <trkpt lat="46.65644" lon="0.45798">
        <ele>165.17</ele>
        <time>2018-02-25T08:49:05.999Z</time>
      </trkpt>
      <trkpt lat="46.65634" lon="0.45802">
        <ele>164.24</ele>
        <time>2018-02-25T08:49:07.999Z</time>
      </trkpt>
      <trkpt lat="46.65624" lon="0.45808">
        <ele>163.7</ele>
        <time>2018-02-25T08:49:09.999Z</time>
      </trkpt>
      <trkpt lat="46.65616" lon="0.45813">
        <ele>163.25</ele>
        <time>2018-02-25T08:49:11.999Z</time>
      </trkpt>
      <trkpt lat="46.65605" lon="0.45821">
        <ele>163.29</ele>
        <time>2018-02-25T08:49:14.999Z</time>
      </trkpt>
      <trkpt lat="46.65593" lon="0.45829">
        <ele>163.58</ele>
        <time>2018-02-25T08:49:17.999Z</time>
      </trkpt>
      <trkpt lat="46.65583" lon="0.45836">
        <ele>163.95</ele>
        <time>2018-02-25T08:49:20.999Z</time>
      </trkpt>
      <trkpt lat="46.65573" lon="0.45847">
        <ele>164.63</ele>
        <time>2018-02-25T08:49:23.999Z</time>
      </trkpt>
      <trkpt lat="46.65565" lon="0.45856">
        <ele>165.52</ele>
        <time>2018-02-25T08:49:26.999Z</time>
      </trkpt>
      <trkpt lat="46.65555" lon="0.45863">
        <ele>166.63</ele>
        <time>2018-02-25T08:49:29.999Z</time>
      </trkpt>
      <trkpt lat="46.65542" lon="0.45865">
        <ele>167.64</ele>
        <time>2018-02-25T08:49:31.999Z</time>
      </trkpt>
      <trkpt lat="46.65527" lon="0.4586">
        <ele>168.66</ele>
        <time>2018-02-25T08:49:33.999Z</time>
      </trkpt>
      <trkpt lat="46.65514" lon="0.45853">
        <ele>174.23</ele>
        <time>2018-02-25T08:49:36.999Z</time>
      </trkpt>
      <trkpt lat="46.65501" lon="0.45846">
        <ele>174.95</ele>
        <time>2018-02-25T08:49:38.999Z</time>
      </trkpt>
      <trkpt lat="46.65491" lon="0.45837">
        <ele>175.62</ele>
        <time>2018-02-25T08:49:41.999Z</time>
      </trkpt>
      <trkpt lat="46.6548" lon="0.45827">
        <ele>175.94</ele>
        <time>2018-02-25T08:49:44.999Z</time>
      </trkpt>
      <trkpt lat="46.65472" lon="0.45818">
        <ele>176.28</ele>
        <time>2018-02-25T08:49:46.999Z</time>
      </trkpt>
      <trkpt lat="46.65461" lon="0.45806">
        <ele>175.35</ele>
        <time>2018-02-25T08:49:49.999Z</time>
      </trkpt>
      <trkpt lat="46.65451" lon="0.45792">
        <ele>174.34</ele>
        <time>2018-02-25T08:49:52.999Z</time>
      </trkpt>
      <trkpt lat="46.65443" lon="0.45778">
        <ele>174.07</ele>
        <time>2018-02-25T08:49:55.999Z</time>
      </trkpt>
      <trkpt lat="46.65435" lon="0.45763">
        <ele>173.78</ele>
        <time>2018-02-25T08:49:58.999Z</time>
      </trkpt>
      <trkpt lat="46.65427" lon="0.45752">
        <ele>173.38</ele>
        <time>2018-02-25T08:50:01.999Z</time>
      </trkpt>
      <trkpt lat="46.65415" lon="0.45742">
        <ele>172.91</ele>
        <time>2018-02-25T08:50:04.999Z</time>
      </trkpt>
      <trkpt lat="46.65408" lon="0.45733">
        <ele>172.65</ele>
        <time>2018-02-25T08:50:06.999Z</time>
      </trkpt>
      <trkpt lat="46.65394" lon="0.45721">
        <ele>172.43</ele>
        <time>2018-02-25T08:50:09.999Z</time>
      </trkpt>
      <trkpt lat="46.65386" lon="0.45713">
        <ele>172.68</ele>
        <time>2018-02-25T08:50:11.999Z</time>
      </trkpt>
      <trkpt lat="46.65375" lon="0.45703">
        <ele>172.74</ele>
        <time>2018-02-25T08:50:14.999Z</time>
      </trkpt>
      <trkpt lat="46.65368" lon="0.45695">
        <ele>172.76</ele>
        <time>2018-02-25T08:50:17.999Z</time>
      </trkpt>
      <trkpt lat="46.65358" lon="0.45688">
        <ele>172.67</ele>
        <time>2018-02-25T08:50:20.999Z</time>
      </trkpt>
      <trkpt lat="46.65346" lon="0.45679">
        <ele>172.42</ele>
        <time>2018-02-25T08:50:23.999Z</time>
      </trkpt>
      <trkpt lat="46.65335" lon="0.45672">
        <ele>172.1</ele>
        <time>2018-02-25T08:50:26.999Z</time>
      </trkpt>
      <trkpt lat="46.65326" lon="0.45666">
        <ele>170.92</ele>
        <time>2018-02-25T08:50:28.999Z</time>
      </trkpt>
      <trkpt lat="46.65318" lon="0.45659">
        <ele>169.44</ele>
        <time>2018-02-25T08:50:30.999Z</time>
      </trkpt>
      <trkpt lat="46.65305" lon="0.45649">
        <ele>167.58</ele>
        <time>2018-02-25T08:50:33.999Z</time>
      </trkpt>
      <trkpt lat="46.65292" lon="0.4564">
        <ele>165.98</ele>
        <time>2018-02-25T08:50:36.999Z</time>
      </trkpt>
      <trkpt lat="46.65284" lon="0.45635">
        <ele>165.23</ele>
        <time>2018-02-25T08:50:38.999Z</time>
      </trkpt>
      <trkpt lat="46.65273" lon="0.45625">
        <ele>164.19</ele>
        <time>2018-02-25T08:50:41.999Z</time>
      </trkpt>
      <trkpt lat="46.65262" lon="0.45615">
        <ele>163.34</ele>
        <time>2018-02-25T08:50:44.999Z</time>
      </trkpt>
      <trkpt lat="46.65254" lon="0.45608">
        <ele>162.96</ele>
        <time>2018-02-25T08:50:46.999Z</time>
      </trkpt>
      <trkpt lat="46.65245" lon="0.45601">
        <ele>162.66</ele>
        <time>2018-02-25T08:50:48.999Z</time>
      </trkpt>
      <trkpt lat="46.65234" lon="0.45591">
        <ele>162.17</ele>
        <time>2018-02-25T08:50:51.999Z</time>
      </trkpt>
      <trkpt lat="46.65222" lon="0.45581">
        <ele>162.17</ele>
        <time>2018-02-25T08:50:54.999Z</time>
      </trkpt>
      <trkpt lat="46.65211" lon="0.45571">
        <ele>163.06</ele>
        <time>2018-02-25T08:50:57.999Z</time>
      </trkpt>
      <trkpt lat="46.65199" lon="0.45561">
        <ele>164.17</ele>
        <time>2018-02-25T08:51:00.999Z</time>
      </trkpt>
      <trkpt lat="46.65189" lon="0.45551">
        <ele>165.28</ele>
        <time>2018-02-25T08:51:03.999Z</time>
      </trkpt>
      <trkpt lat="46.65181" lon="0.45544">
        <ele>165.9</ele>
        <time>2018-02-25T08:51:05.999Z</time>
      </trkpt>
      <trkpt lat="46.65173" lon="0.45536">
        <ele>166.34</ele>
        <time>2018-02-25T08:51:07.999Z</time>
      </trkpt>
      <trkpt lat="46.65162" lon="0.45526">
        <ele>166.44</ele>
        <time>2018-02-25T08:51:10.999Z</time>
      </trkpt>
      <trkpt lat="46.65152" lon="0.45515">
        <ele>166</ele>
        <time>2018-02-25T08:51:13.999Z</time>
      </trkpt>
      <trkpt lat="46.65142" lon="0.45505">
        <ele>165.66</ele>
        <time>2018-02-25T08:51:16.999Z</time>
      </trkpt>
      <trkpt lat="46.65135" lon="0.45497">
        <ele>165.39</ele>
        <time>2018-02-25T08:51:18.999Z</time>
      </trkpt>
      <trkpt lat="46.65125" lon="0.45488">
        <ele>164.83</ele>
        <time>2018-02-25T08:51:21.999Z</time>
      </trkpt>
      <trkpt lat="46.65116" lon="0.4548">
        <ele>164.73</ele>
        <time>2018-02-25T08:51:24.999Z</time>
      </trkpt>
      <trkpt lat="46.65108" lon="0.45471">
        <ele>164.78</ele>
        <time>2018-02-25T08:51:27.999Z</time>
      </trkpt>
      <trkpt lat="46.65101" lon="0.45461">
        <ele>164.93</ele>
        <time>2018-02-25T08:51:32.999Z</time>
      </trkpt>
      <trkpt lat="46.65094" lon="0.45454">
        <ele>166.33</ele>
        <time>2018-02-25T08:51:45.999Z</time>
      </trkpt>
      <trkpt lat="46.65086" lon="0.45468">
        <ele>167.19</ele>
        <time>2018-02-25T08:51:51.999Z</time>
      </trkpt>
      <trkpt lat="46.65081" lon="0.45483">
        <ele>167.75</ele>
        <time>2018-02-25T08:51:55.999Z</time>
      </trkpt>
      <trkpt lat="46.65075" lon="0.45499">
        <ele>168.2</ele>
        <time>2018-02-25T08:51:58.999Z</time>
      </trkpt>
      <trkpt lat="46.65072" lon="0.45512">
        <ele>168.65</ele>
        <time>2018-02-25T08:52:01.999Z</time>
      </trkpt>
      <trkpt lat="46.65066" lon="0.45526">
        <ele>169.03</ele>
        <time>2018-02-25T08:52:04.999Z</time>
      </trkpt>
      <trkpt lat="46.65063" lon="0.45539">
        <ele>169.36</ele>
        <time>2018-02-25T08:52:07.999Z</time>
      </trkpt>
      <trkpt lat="46.6506" lon="0.45553">
        <ele>169.64</ele>
        <time>2018-02-25T08:52:10.999Z</time>
      </trkpt>
      <trkpt lat="46.65056" lon="0.45566">
        <ele>169.93</ele>
        <time>2018-02-25T08:52:13.999Z</time>
      </trkpt>
      <trkpt lat="46.65052" lon="0.4558">
        <ele>170.15</ele>
        <time>2018-02-25T08:52:16.999Z</time>
      </trkpt>
      <trkpt lat="46.65048" lon="0.45595">
        <ele>170.3</ele>
        <time>2018-02-25T08:52:19.999Z</time>
      </trkpt>
      <trkpt lat="46.65044" lon="0.45607">
        <ele>170.32</ele>
        <time>2018-02-25T08:52:22.999Z</time>
      </trkpt>
      <trkpt lat="46.65036" lon="0.45601">
        <ele>170.45</ele>
        <time>2018-02-25T08:52:25.999Z</time>
      </trkpt>
      <trkpt lat="46.65028" lon="0.45589">
        <ele>170.61</ele>
        <time>2018-02-25T08:52:28.999Z</time>
      </trkpt>
      <trkpt lat="46.65023" lon="0.45576">
        <ele>170.92</ele>
        <time>2018-02-25T08:52:32.999Z</time>
      </trkpt>
      <trkpt lat="46.65016" lon="0.45562">
        <ele>171.2</ele>
        <time>2018-02-25T08:52:36.999Z</time>
      </trkpt>
      <trkpt lat="46.65009" lon="0.45551">
        <ele>171.42</ele>
        <time>2018-02-25T08:52:40.999Z</time>
      </trkpt>
      <trkpt lat="46.65004" lon="0.45539">
        <ele>171.6</ele>
        <time>2018-02-25T08:52:44.999Z</time>
      </trkpt>
      <trkpt lat="46.64999" lon="0.45526">
        <ele>171.87</ele>
        <time>2018-02-25T08:52:51.999Z</time>
      </trkpt>
      <trkpt lat="46.64993" lon="0.45515">
        <ele>172.13</ele>
        <time>2018-02-25T08:52:57.999Z</time>
      </trkpt>
      <trkpt lat="46.64985" lon="0.45503">
        <ele>172.42</ele>
        <time>2018-02-25T08:53:04.999Z</time>
      </trkpt>
      <trkpt lat="46.64979" lon="0.45493">
        <ele>172.53</ele>
        <time>2018-02-25T08:53:08.999Z</time>
      </trkpt>
      <trkpt lat="46.64971" lon="0.45483">
        <ele>172.49</ele>
        <time>2018-02-25T08:53:12.999Z</time>
      </trkpt>
      <trkpt lat="46.64965" lon="0.45473">
        <ele>172.46</ele>
        <time>2018-02-25T08:53:17.999Z</time>
      </trkpt>
      <trkpt lat="46.64959" lon="0.45461">
        <ele>172.5</ele>
        <time>2018-02-25T08:53:22.999Z</time>
      </trkpt>
      <trkpt lat="46.64955" lon="0.45448">
        <ele>172.54</ele>
        <time>2018-02-25T08:53:26.999Z</time>
      </trkpt>
      <trkpt lat="46.64951" lon="0.45435">
        <ele>172.51</ele>
        <time>2018-02-25T08:53:31.999Z</time>
      </trkpt>
      <trkpt lat="46.64946" lon="0.45423">
        <ele>172.66</ele>
        <time>2018-02-25T08:53:36.999Z</time>
      </trkpt>
      <trkpt lat="46.64938" lon="0.4541">
        <ele>173.11</ele>
        <time>2018-02-25T08:53:42.999Z</time>
      </trkpt>
      <trkpt lat="46.64931" lon="0.454">
        <ele>173.36</ele>
        <time>2018-02-25T08:53:47.999Z</time>
      </trkpt>
      <trkpt lat="46.64928" lon="0.45386">
        <ele>174.11</ele>
        <time>2018-02-25T08:53:53.999Z</time>
      </trkpt>
      <trkpt lat="46.64924" lon="0.45373">
        <ele>174.94</ele>
        <time>2018-02-25T08:53:58.999Z</time>
      </trkpt>
      <trkpt lat="46.64918" lon="0.45359">
        <ele>175.58</ele>
        <time>2018-02-25T08:54:02.999Z</time>
      </trkpt>
      <trkpt lat="46.64912" lon="0.45347">
        <ele>176.02</ele>
        <time>2018-02-25T08:54:06.999Z</time>
      </trkpt>
      <trkpt lat="46.64908" lon="0.45334">
        <ele>176.26</ele>
        <time>2018-02-25T08:54:10.999Z</time>
      </trkpt>
      <trkpt lat="46.64906" lon="0.45318">
        <ele>176.5</ele>
        <time>2018-02-25T08:54:14.999Z</time>
      </trkpt>
      <trkpt lat="46.64904" lon="0.45302">
        <ele>176.57</ele>
        <time>2018-02-25T08:54:19.999Z</time>
      </trkpt>
      <trkpt lat="46.64901" lon="0.45285">
        <ele>176.67</ele>
        <time>2018-02-25T08:54:23.999Z</time>
      </trkpt>
      <trkpt lat="46.64899" lon="0.45267">
        <ele>177.12</ele>
        <time>2018-02-25T08:54:27.999Z</time>
      </trkpt>
      <trkpt lat="46.64895" lon="0.45253">
        <ele>177.56</ele>
        <time>2018-02-25T08:54:30.999Z</time>
      </trkpt>
      <trkpt lat="46.64892" lon="0.4524">
        <ele>178.04</ele>
        <time>2018-02-25T08:54:34.999Z</time>
      </trkpt>
      <trkpt lat="46.64888" lon="0.45227">
        <ele>178.52</ele>
        <time>2018-02-25T08:54:38.999Z</time>
      </trkpt>
      <trkpt lat="46.64885" lon="0.45212">
        <ele>178.72</ele>
        <time>2018-02-25T08:54:41.999Z</time>
      </trkpt>
      <trkpt lat="46.64883" lon="0.45199">
        <ele>178.66</ele>
        <time>2018-02-25T08:54:45.999Z</time>
      </trkpt>
      <trkpt lat="46.64882" lon="0.45184">
        <ele>178.32</ele>
        <time>2018-02-25T08:54:48.999Z</time>
      </trkpt>
      <trkpt lat="46.64878" lon="0.45171">
        <ele>177.99</ele>
        <time>2018-02-25T08:54:51.999Z</time>
      </trkpt>
      <trkpt lat="46.64872" lon="0.45155">
        <ele>177.41</ele>
        <time>2018-02-25T08:54:56.999Z</time>
      </trkpt>
      <trkpt lat="46.6487" lon="0.45142">
        <ele>176.97</ele>
        <time>2018-02-25T08:54:59.999Z</time>
      </trkpt>
      <trkpt lat="46.6487" lon="0.45124">
        <ele>176.39</ele>
        <time>2018-02-25T08:55:02.999Z</time>
      </trkpt>
      <trkpt lat="46.64872" lon="0.45106">
        <ele>176.01</ele>
        <time>2018-02-25T08:55:04.999Z</time>
      </trkpt>
      <trkpt lat="46.64869" lon="0.4509">
        <ele>175.76</ele>
        <time>2018-02-25T08:55:06.999Z</time>
      </trkpt>
      <trkpt lat="46.64865" lon="0.45073">
        <ele>175.33</ele>
        <time>2018-02-25T08:55:09.999Z</time>
      </trkpt>
      <trkpt lat="46.64862" lon="0.4506">
        <ele>175.23</ele>
        <time>2018-02-25T08:55:10.999Z</time>
      </trkpt>
      <trkpt lat="46.64857" lon="0.45046">
        <ele>175.1</ele>
        <time>2018-02-25T08:55:12.999Z</time>
      </trkpt>
      <trkpt lat="46.64857" lon="0.45031">
        <ele>175.08</ele>
        <time>2018-02-25T08:55:15.999Z</time>
      </trkpt>
      <trkpt lat="46.64862" lon="0.45016">
        <ele>175.06</ele>
        <time>2018-02-25T08:55:18.999Z</time>
      </trkpt>
      <trkpt lat="46.64866" lon="0.45003">
        <ele>175.02</ele>
        <time>2018-02-25T08:55:21.999Z</time>
      </trkpt>
      <trkpt lat="46.64868" lon="0.4499">
        <ele>174.9</ele>
        <time>2018-02-25T08:55:24.999Z</time>
      </trkpt>
      <trkpt lat="46.64871" lon="0.44975">
        <ele>174.55</ele>
        <time>2018-02-25T08:55:28.999Z</time>
      </trkpt>
      <trkpt lat="46.64872" lon="0.44959">
        <ele>174.06</ele>
        <time>2018-02-25T08:55:34.999Z</time>
      </trkpt>
      <trkpt lat="46.64877" lon="0.4494">
        <ele>174.07</ele>
        <time>2018-02-25T08:55:36.999Z</time>
      </trkpt>
      <trkpt lat="46.6488" lon="0.44927">
        <ele>174.27</ele>
        <time>2018-02-25T08:55:40.999Z</time>
      </trkpt>
      <trkpt lat="46.64883" lon="0.44912">
        <ele>174.39</ele>
        <time>2018-02-25T08:55:43.999Z</time>
      </trkpt>
      <trkpt lat="46.64884" lon="0.44897">
        <ele>174.6</ele>
        <time>2018-02-25T08:55:47.999Z</time>
      </trkpt>
      <trkpt lat="46.64886" lon="0.44883">
        <ele>174.84</ele>
        <time>2018-02-25T08:55:52.999Z</time>
      </trkpt>
      <trkpt lat="46.64891" lon="0.44871">
        <ele>175.08</ele>
        <time>2018-02-25T08:55:56.999Z</time>
      </trkpt>
      <trkpt lat="46.64892" lon="0.44855">
        <ele>175.46</ele>
        <time>2018-02-25T08:56:01.999Z</time>
      </trkpt>
      <trkpt lat="46.64893" lon="0.4484">
        <ele>175.77</ele>
        <time>2018-02-25T08:56:05.999Z</time>
      </trkpt>
      <trkpt lat="46.64895" lon="0.44825">
        <ele>176.03</ele>
        <time>2018-02-25T08:56:09.999Z</time>
      </trkpt>
      <trkpt lat="46.64899" lon="0.44808">
        <ele>176.19</ele>
        <time>2018-02-25T08:56:13.999Z</time>
      </trkpt>
      <trkpt lat="46.64903" lon="0.44791">
        <ele>176.28</ele>
        <time>2018-02-25T08:56:17.999Z</time>
      </trkpt>
      <trkpt lat="46.64906" lon="0.44776">
        <ele>176.15</ele>
        <time>2018-02-25T08:56:21.999Z</time>
      </trkpt>
      <trkpt lat="46.64911" lon="0.44761">
        <ele>176.03</ele>
        <time>2018-02-25T08:56:24.999Z</time>
      </trkpt>
      <trkpt lat="46.64916" lon="0.44748">
        <ele>176</ele>
        <time>2018-02-25T08:56:27.999Z</time>
      </trkpt>
      <trkpt lat="46.64919" lon="0.44734">
        <ele>176.07</ele>
        <time>2018-02-25T08:56:31.999Z</time>
      </trkpt>
      <trkpt lat="46.64925" lon="0.44722">
        <ele>176.3</ele>
        <time>2018-02-25T08:56:34.999Z</time>
      </trkpt>
      <trkpt lat="46.64927" lon="0.44709">
        <ele>176.61</ele>
        <time>2018-02-25T08:56:37.999Z</time>
      </trkpt>
      <trkpt lat="46.64928" lon="0.44695">
        <ele>176.84</ele>
        <time>2018-02-25T08:56:44.999Z</time>
      </trkpt>
      <trkpt lat="46.64929" lon="0.44682">
        <ele>177.02</ele>
        <time>2018-02-25T08:56:50.999Z</time>
      </trkpt>
      <trkpt lat="46.64927" lon="0.44668">
        <ele>176.79</ele>
        <time>2018-02-25T08:56:57.999Z</time>
      </trkpt>
      <trkpt lat="46.64925" lon="0.44651">
        <ele>176.31</ele>
        <time>2018-02-25T08:57:05.999Z</time>
      </trkpt>
      <trkpt lat="46.64922" lon="0.44637">
        <ele>175.73</ele>
        <time>2018-02-25T08:57:10.999Z</time>
      </trkpt>
      <trkpt lat="46.64926" lon="0.44624">
        <ele>174.97</ele>
        <time>2018-02-25T08:57:15.999Z</time>
      </trkpt>
      <trkpt lat="46.64926" lon="0.44609">
        <ele>174.7</ele>
        <time>2018-02-25T08:57:18.999Z</time>
      </trkpt>
      <trkpt lat="46.64922" lon="0.44597">
        <ele>174.84</ele>
        <time>2018-02-25T08:57:21.999Z</time>
      </trkpt>
      <trkpt lat="46.64917" lon="0.44584">
        <ele>175.8</ele>
        <time>2018-02-25T08:57:26.999Z</time>
      </trkpt>
      <trkpt lat="46.64916" lon="0.44571">
        <ele>176.78</ele>
        <time>2018-02-25T08:57:30.999Z</time>
      </trkpt>
      <trkpt lat="46.64915" lon="0.44555">
        <ele>177.67</ele>
        <time>2018-02-25T08:57:34.999Z</time>
      </trkpt>
      <trkpt lat="46.64915" lon="0.44541">
        <ele>178.16</ele>
        <time>2018-02-25T08:57:37.999Z</time>
      </trkpt>
      <trkpt lat="46.64916" lon="0.44528">
        <ele>178.49</ele>
        <time>2018-02-25T08:57:40.999Z</time>
      </trkpt>
      <trkpt lat="46.64915" lon="0.4451">
        <ele>178.6</ele>
        <time>2018-02-25T08:57:44.999Z</time>
      </trkpt>
      <trkpt lat="46.64912" lon="0.44496">
        <ele>178.8</ele>
        <time>2018-02-25T08:57:47.999Z</time>
      </trkpt>
      <trkpt lat="46.64908" lon="0.44481">
        <ele>179.24</ele>
        <time>2018-02-25T08:57:51.999Z</time>
      </trkpt>
      <trkpt lat="46.64906" lon="0.44465">
        <ele>179.74</ele>
        <time>2018-02-25T08:57:56.999Z</time>
      </trkpt>
      <trkpt lat="46.64905" lon="0.44448">
        <ele>180.18</ele>
        <time>2018-02-25T08:57:58.999Z</time>
      </trkpt>
      <trkpt lat="46.64905" lon="0.44434">
        <ele>180.73</ele>
        <time>2018-02-25T08:58:00.999Z</time>
      </trkpt>
      <trkpt lat="46.64905" lon="0.44418">
        <ele>181.56</ele>
        <time>2018-02-25T08:58:03.999Z</time>
      </trkpt>
      <trkpt lat="46.64905" lon="0.44403">
        <ele>182.19</ele>
        <time>2018-02-25T08:58:06.999Z</time>
      </trkpt>
      <trkpt lat="46.64899" lon="0.44388">
        <ele>182.62</ele>
        <time>2018-02-25T08:58:09.999Z</time>
      </trkpt>
      <trkpt lat="46.64897" lon="0.4437">
        <ele>183.25</ele>
        <time>2018-02-25T08:58:13.999Z</time>
      </trkpt>
      <trkpt lat="46.64895" lon="0.44347">
        <ele>183.96</ele>
        <time>2018-02-25T08:58:17.999Z</time>
      </trkpt>
      <trkpt lat="46.64894" lon="0.44334">
        <ele>184.09</ele>
        <time>2018-02-25T08:58:18.999Z</time>
      </trkpt>
      <trkpt lat="46.64896" lon="0.44315">
        <ele>184.33</ele>
        <time>2018-02-25T08:58:20.999Z</time>
      </trkpt>
      <trkpt lat="46.64896" lon="0.443">
        <ele>184.55</ele>
        <time>2018-02-25T08:58:22.999Z</time>
      </trkpt>
      <trkpt lat="46.64895" lon="0.44285">
        <ele>184.75</ele>
        <time>2018-02-25T08:58:24.999Z</time>
      </trkpt>
      <trkpt lat="46.64895" lon="0.44272">
        <ele>184.85</ele>
        <time>2018-02-25T08:58:26.999Z</time>
      </trkpt>
      <trkpt lat="46.64892" lon="0.44257">
        <ele>185.02</ele>
        <time>2018-02-25T08:58:29.999Z</time>
      </trkpt>
      <trkpt lat="46.6489" lon="0.44242">
        <ele>185.08</ele>
        <time>2018-02-25T08:58:32.999Z</time>
      </trkpt>
      <trkpt lat="46.64889" lon="0.44227">
        <ele>185.07</ele>
        <time>2018-02-25T08:58:35.999Z</time>
      </trkpt>
      <trkpt lat="46.64887" lon="0.44213">
        <ele>184.79</ele>
        <time>2018-02-25T08:58:39.999Z</time>
      </trkpt>
      <trkpt lat="46.64886" lon="0.442">
        <ele>184.51</ele>
        <time>2018-02-25T08:58:42.999Z</time>
      </trkpt>
      <trkpt lat="46.64886" lon="0.44186">
        <ele>184.4</ele>
        <time>2018-02-25T08:58:45.999Z</time>
      </trkpt>
      <trkpt lat="46.64885" lon="0.44169">
        <ele>184.24</ele>
        <time>2018-02-25T08:58:49.999Z</time>
      </trkpt>
      <trkpt lat="46.64887" lon="0.44155">
        <ele>184.29</ele>
        <time>2018-02-25T08:58:52.999Z</time>
      </trkpt>
      <trkpt lat="46.64887" lon="0.44138">
        <ele>184.74</ele>
        <time>2018-02-25T08:58:56.999Z</time>
      </trkpt>
      <trkpt lat="46.64886" lon="0.44125">
        <ele>184.98</ele>
        <time>2018-02-25T08:58:58.999Z</time>
      </trkpt>
      <trkpt lat="46.64882" lon="0.44112">
        <ele>185.15</ele>
        <time>2018-02-25T08:59:00.999Z</time>
      </trkpt>
      <trkpt lat="46.6488" lon="0.44099">
        <ele>185.26</ele>
        <time>2018-02-25T08:59:03.999Z</time>
      </trkpt>
      <trkpt lat="46.64878" lon="0.44082">
        <ele>185.24</ele>
        <time>2018-02-25T08:59:07.999Z</time>
      </trkpt>
      <trkpt lat="46.64878" lon="0.44065">
        <ele>185.12</ele>
        <time>2018-02-25T08:59:10.999Z</time>
      </trkpt>
      <trkpt lat="46.64877" lon="0.44049">
        <ele>184.92</ele>
        <time>2018-02-25T08:59:13.999Z</time>
      </trkpt>
      <trkpt lat="46.64876" lon="0.44033">
        <ele>184.76</ele>
        <time>2018-02-25T08:59:16.999Z</time>
      </trkpt>
      <trkpt lat="46.64872" lon="0.44019">
        <ele>184.55</ele>
        <time>2018-02-25T08:59:18.999Z</time>
      </trkpt>
      <trkpt lat="46.6487" lon="0.44002">
        <ele>184.1</ele>
        <time>2018-02-25T08:59:21.999Z</time>
      </trkpt>
      <trkpt lat="46.6487" lon="0.43981">
        <ele>183.63</ele>
        <time>2018-02-25T08:59:24.999Z</time>
      </trkpt>
      <trkpt lat="46.64871" lon="0.43965">
        <ele>183.38</ele>
        <time>2018-02-25T08:59:26.999Z</time>
      </trkpt>
      <trkpt lat="46.64872" lon="0.43946">
        <ele>183.18</ele>
        <time>2018-02-25T08:59:29.999Z</time>
      </trkpt>
      <trkpt lat="46.64872" lon="0.43932">
        <ele>183.02</ele>
        <time>2018-02-25T08:59:32.999Z</time>
      </trkpt>
      <trkpt lat="46.64871" lon="0.43915">
        <ele>182.64</ele>
        <time>2018-02-25T08:59:35.999Z</time>
      </trkpt>
      <trkpt lat="46.64867" lon="0.43901">
        <ele>182.62</ele>
        <time>2018-02-25T08:59:38.999Z</time>
      </trkpt>
      <trkpt lat="46.64865" lon="0.43884">
        <ele>181.89</ele>
        <time>2018-02-25T08:59:41.999Z</time>
      </trkpt>
      <trkpt lat="46.64862" lon="0.43867">
        <ele>182.02</ele>
        <time>2018-02-25T08:59:44.999Z</time>
      </trkpt>
      <trkpt lat="46.64861" lon="0.43852">
        <ele>182.2</ele>
        <time>2018-02-25T08:59:48.999Z</time>
      </trkpt>
      <trkpt lat="46.64863" lon="0.43837">
        <ele>182.34</ele>
        <time>2018-02-25T08:59:52.999Z</time>
      </trkpt>
      <trkpt lat="46.64865" lon="0.43822">
        <ele>182.38</ele>
        <time>2018-02-25T08:59:55.999Z</time>
      </trkpt>
      <trkpt lat="46.64864" lon="0.43809">
        <ele>182.51</ele>
        <time>2018-02-25T08:59:58.999Z</time>
      </trkpt>
      <trkpt lat="46.64862" lon="0.43796">
        <ele>182.71</ele>
        <time>2018-02-25T09:00:01.999Z</time>
      </trkpt>
      <trkpt lat="46.64861" lon="0.43782">
        <ele>182.67</ele>
        <time>2018-02-25T09:00:04.999Z</time>
      </trkpt>
      <trkpt lat="46.6486" lon="0.43768">
        <ele>182.66</ele>
        <time>2018-02-25T09:00:08.999Z</time>
      </trkpt>
      <trkpt lat="46.64859" lon="0.43753">
        <ele>182.68</ele>
        <time>2018-02-25T09:00:12.999Z</time>
      </trkpt>
      <trkpt lat="46.64856" lon="0.43738">
        <ele>182.58</ele>
        <time>2018-02-25T09:00:17.999Z</time>
      </trkpt>
      <trkpt lat="46.64855" lon="0.43725">
        <ele>182.22</ele>
        <time>2018-02-25T09:00:20.999Z</time>
      </trkpt>
      <trkpt lat="46.64854" lon="0.43705">
        <ele>181.99</ele>
        <time>2018-02-25T09:00:24.999Z</time>
      </trkpt>
      <trkpt lat="46.64854" lon="0.43692">
        <ele>181.99</ele>
        <time>2018-02-25T09:00:26.999Z</time>
      </trkpt>
      <trkpt lat="46.64857" lon="0.43678">
        <ele>182.11</ele>
        <time>2018-02-25T09:00:30.999Z</time>
      </trkpt>
      <trkpt lat="46.64859" lon="0.43664">
        <ele>182.31</ele>
        <time>2018-02-25T09:00:33.999Z</time>
      </trkpt>
      <trkpt lat="46.64861" lon="0.43648">
        <ele>182.7</ele>
        <time>2018-02-25T09:00:38.999Z</time>
      </trkpt>
      <trkpt lat="46.64866" lon="0.43637">
        <ele>182.94</ele>
        <time>2018-02-25T09:00:41.999Z</time>
      </trkpt>
      <trkpt lat="46.64871" lon="0.43621">
        <ele>183.27</ele>
        <time>2018-02-25T09:00:44.999Z</time>
      </trkpt>
      <trkpt lat="46.64874" lon="0.43607">
        <ele>183.6</ele>
        <time>2018-02-25T09:00:47.999Z</time>
      </trkpt>
      <trkpt lat="46.64877" lon="0.43593">
        <ele>184.46</ele>
        <time>2018-02-25T09:00:54.999Z</time>
      </trkpt>
      <trkpt lat="46.64863" lon="0.43589">
        <ele>189.14</ele>
        <time>2018-02-25T09:02:24.999Z</time>
      </trkpt>
      <trkpt lat="46.64868" lon="0.43603">
        <ele>191.44</ele>
        <time>2018-02-25T09:02:27.999Z</time>
      </trkpt>
      <trkpt lat="46.6486" lon="0.43593">
        <ele>194.5</ele>
        <time>2018-02-25T09:02:31.999Z</time>
      </trkpt>
      <trkpt lat="46.64851" lon="0.43586">
        <ele>198.68</ele>
        <time>2018-02-25T09:02:36.999Z</time>
      </trkpt>
      <trkpt lat="46.64842" lon="0.43578">
        <ele>201.23</ele>
        <time>2018-02-25T09:02:40.999Z</time>
      </trkpt>
      <trkpt lat="46.64829" lon="0.43571">
        <ele>202.34</ele>
        <time>2018-02-25T09:02:43.999Z</time>
      </trkpt>
      <trkpt lat="46.64819" lon="0.43567">
        <ele>202.91</ele>
        <time>2018-02-25T09:02:46.999Z</time>
      </trkpt>
      <trkpt lat="46.64806" lon="0.43564">
        <ele>203.12</ele>
        <time>2018-02-25T09:02:49.999Z</time>
      </trkpt>
      <trkpt lat="46.64796" lon="0.43561">
        <ele>203.06</ele>
        <time>2018-02-25T09:02:51.999Z</time>
      </trkpt>
      <trkpt lat="46.64786" lon="0.43559">
        <ele>202.68</ele>
        <time>2018-02-25T09:02:54.999Z</time>
      </trkpt>
      <trkpt lat="46.64776" lon="0.43556">
        <ele>202.16</ele>
        <time>2018-02-25T09:02:57.999Z</time>
      </trkpt>
      <trkpt lat="46.64767" lon="0.43553">
        <ele>201.48</ele>
        <time>2018-02-25T09:03:00.999Z</time>
      </trkpt>
      <trkpt lat="46.64754" lon="0.4355">
        <ele>200.76</ele>
        <time>2018-02-25T09:03:03.999Z</time>
      </trkpt>
      <trkpt lat="46.64743" lon="0.43548">
        <ele>200.14</ele>
        <time>2018-02-25T09:03:06.999Z</time>
      </trkpt>
      <trkpt lat="46.64732" lon="0.43546">
        <ele>199.59</ele>
        <time>2018-02-25T09:03:09.999Z</time>
      </trkpt>
      <trkpt lat="46.64722" lon="0.43545">
        <ele>199.12</ele>
        <time>2018-02-25T09:03:12.999Z</time>
      </trkpt>
      <trkpt lat="46.64712" lon="0.43542">
        <ele>198.71</ele>
        <time>2018-02-25T09:03:15.999Z</time>
      </trkpt>
      <trkpt lat="46.64702" lon="0.4354">
        <ele>198.43</ele>
        <time>2018-02-25T09:03:18.999Z</time>
      </trkpt>
      <trkpt lat="46.64692" lon="0.43538">
        <ele>198.29</ele>
        <time>2018-02-25T09:03:21.999Z</time>
      </trkpt>
      <trkpt lat="46.64682" lon="0.43536">
        <ele>198.31</ele>
        <time>2018-02-25T09:03:24.999Z</time>
      </trkpt>
      <trkpt lat="46.64672" lon="0.43535">
        <ele>198.3</ele>
        <time>2018-02-25T09:03:27.999Z</time>
      </trkpt>
      <trkpt lat="46.64663" lon="0.43533">
        <ele>198.29</ele>
        <time>2018-02-25T09:03:30.999Z</time>
      </trkpt>
      <trkpt lat="46.64652" lon="0.43532">
        <ele>198.32</ele>
        <time>2018-02-25T09:03:33.999Z</time>
      </trkpt>
      <trkpt lat="46.64642" lon="0.43529">
        <ele>198.38</ele>
        <time>2018-02-25T09:03:36.999Z</time>
      </trkpt>
      <trkpt lat="46.64632" lon="0.43527">
        <ele>198.51</ele>
        <time>2018-02-25T09:03:39.999Z</time>
      </trkpt>
      <trkpt lat="46.6462" lon="0.43525">
        <ele>198.58</ele>
        <time>2018-02-25T09:03:43.999Z</time>
      </trkpt>
      <trkpt lat="46.6461" lon="0.43523">
        <ele>198.59</ele>
        <time>2018-02-25T09:03:46.999Z</time>
      </trkpt>
      <trkpt lat="46.64601" lon="0.4352">
        <ele>198.56</ele>
        <time>2018-02-25T09:03:49.999Z</time>
      </trkpt>
      <trkpt lat="46.6459" lon="0.43519">
        <ele>198.47</ele>
        <time>2018-02-25T09:03:52.999Z</time>
      </trkpt>
      <trkpt lat="46.6458" lon="0.43517">
        <ele>198.41</ele>
        <time>2018-02-25T09:03:55.999Z</time>
      </trkpt>
      <trkpt lat="46.6457" lon="0.43515">
        <ele>198.34</ele>
        <time>2018-02-25T09:03:58.999Z</time>
      </trkpt>
      <trkpt lat="46.6456" lon="0.43512">
        <ele>198.31</ele>
        <time>2018-02-25T09:04:00.999Z</time>
      </trkpt>
      <trkpt lat="46.64548" lon="0.43509">
        <ele>198.29</ele>
        <time>2018-02-25T09:04:03.999Z</time>
      </trkpt>
      <trkpt lat="46.64536" lon="0.43506">
        <ele>198.2</ele>
        <time>2018-02-25T09:04:06.999Z</time>
      </trkpt>
      <trkpt lat="46.64523" lon="0.43503">
        <ele>197.93</ele>
        <time>2018-02-25T09:04:09.999Z</time>
      </trkpt>
      <trkpt lat="46.64511" lon="0.43501">
        <ele>196.35</ele>
        <time>2018-02-25T09:04:12.999Z</time>
      </trkpt>
      <trkpt lat="46.64502" lon="0.435">
        <ele>196.23</ele>
        <time>2018-02-25T09:04:14.999Z</time>
      </trkpt>
      <trkpt lat="46.64489" lon="0.43498">
        <ele>196.2</ele>
        <time>2018-02-25T09:04:17.999Z</time>
      </trkpt>
      <trkpt lat="46.64478" lon="0.43495">
        <ele>196.3</ele>
        <time>2018-02-25T09:04:20.999Z</time>
      </trkpt>
      <trkpt lat="46.64468" lon="0.43492">
        <ele>196.39</ele>
        <time>2018-02-25T09:04:23.999Z</time>
      </trkpt>
      <trkpt lat="46.64457" lon="0.4349">
        <ele>196.48</ele>
        <time>2018-02-25T09:04:26.999Z</time>
      </trkpt>
      <trkpt lat="46.64447" lon="0.43488">
        <ele>196.61</ele>
        <time>2018-02-25T09:04:29.999Z</time>
      </trkpt>
      <trkpt lat="46.64435" lon="0.43488">
        <ele>196.88</ele>
        <time>2018-02-25T09:04:33.999Z</time>
      </trkpt>
      <trkpt lat="46.64425" lon="0.43486">
        <ele>197</ele>
        <time>2018-02-25T09:04:37.999Z</time>
      </trkpt>
      <trkpt lat="46.64415" lon="0.43485">
        <ele>196.9</ele>
        <time>2018-02-25T09:04:41.999Z</time>
      </trkpt>
      <trkpt lat="46.64405" lon="0.43495">
        <ele>196.61</ele>
        <time>2018-02-25T09:04:48.999Z</time>
      </trkpt>
      <trkpt lat="46.64398" lon="0.43503">
        <ele>196.57</ele>
        <time>2018-02-25T09:04:50.999Z</time>
      </trkpt>
      <trkpt lat="46.64388" lon="0.43514">
        <ele>196.6</ele>
        <time>2018-02-25T09:04:53.999Z</time>
      </trkpt>
      <trkpt lat="46.6438" lon="0.43528">
        <ele>196.71</ele>
        <time>2018-02-25T09:04:56.999Z</time>
      </trkpt>
      <trkpt lat="46.64374" lon="0.43538">
        <ele>197</ele>
        <time>2018-02-25T09:04:59.999Z</time>
      </trkpt>
      <trkpt lat="46.64365" lon="0.43549">
        <ele>197.46</ele>
        <time>2018-02-25T09:05:02.999Z</time>
      </trkpt>
      <trkpt lat="46.64355" lon="0.43562">
        <ele>198.06</ele>
        <time>2018-02-25T09:05:05.999Z</time>
      </trkpt>
      <trkpt lat="46.64347" lon="0.43574">
        <ele>199.28</ele>
        <time>2018-02-25T09:05:09.999Z</time>
      </trkpt>
      <trkpt lat="46.64342" lon="0.43588">
        <ele>199.96</ele>
        <time>2018-02-25T09:05:11.999Z</time>
      </trkpt>
      <trkpt lat="46.64335" lon="0.43601">
        <ele>201.03</ele>
        <time>2018-02-25T09:05:14.999Z</time>
      </trkpt>
      <trkpt lat="46.64328" lon="0.43615">
        <ele>201.68</ele>
        <time>2018-02-25T09:05:16.999Z</time>
      </trkpt>
      <trkpt lat="46.64322" lon="0.43631">
        <ele>202.21</ele>
        <time>2018-02-25T09:05:19.999Z</time>
      </trkpt>
      <trkpt lat="46.64317" lon="0.43645">
        <ele>202.21</ele>
        <time>2018-02-25T09:05:21.999Z</time>
      </trkpt>
      <trkpt lat="46.64313" lon="0.43658">
        <ele>201.99</ele>
        <time>2018-02-25T09:05:23.999Z</time>
      </trkpt>
      <trkpt lat="46.64308" lon="0.4367">
        <ele>201.71</ele>
        <time>2018-02-25T09:05:25.999Z</time>
      </trkpt>
      <trkpt lat="46.64304" lon="0.43682">
        <ele>201.33</ele>
        <time>2018-02-25T09:05:27.999Z</time>
      </trkpt>
      <trkpt lat="46.64302" lon="0.43698">
        <ele>200.69</ele>
        <time>2018-02-25T09:05:30.999Z</time>
      </trkpt>
      <trkpt lat="46.64296" lon="0.43711">
        <ele>200.06</ele>
        <time>2018-02-25T09:05:33.999Z</time>
      </trkpt>
      <trkpt lat="46.64289" lon="0.43722">
        <ele>199.59</ele>
        <time>2018-02-25T09:05:35.999Z</time>
      </trkpt>
      <trkpt lat="46.64278" lon="0.43733">
        <ele>195.65</ele>
        <time>2018-02-25T09:05:37.999Z</time>
      </trkpt>
      <trkpt lat="46.6427" lon="0.43746">
        <ele>189.32</ele>
        <time>2018-02-25T09:05:39.999Z</time>
      </trkpt>
      <trkpt lat="46.64265" lon="0.43758">
        <ele>188.83</ele>
        <time>2018-02-25T09:05:41.999Z</time>
      </trkpt>
      <trkpt lat="46.64259" lon="0.43772">
        <ele>187.98</ele>
        <time>2018-02-25T09:05:44.999Z</time>
      </trkpt>
      <trkpt lat="46.64254" lon="0.43787">
        <ele>187.3</ele>
        <time>2018-02-25T09:05:47.999Z</time>
      </trkpt>
      <trkpt lat="46.64245" lon="0.43802">
        <ele>186.88</ele>
        <time>2018-02-25T09:05:49.999Z</time>
      </trkpt>
      <trkpt lat="46.64234" lon="0.43814">
        <ele>186.54</ele>
        <time>2018-02-25T09:05:51.999Z</time>
      </trkpt>
      <trkpt lat="46.64222" lon="0.43823">
        <ele>186.33</ele>
        <time>2018-02-25T09:05:54.999Z</time>
      </trkpt>
      <trkpt lat="46.64216" lon="0.43832">
        <ele>186.28</ele>
        <time>2018-02-25T09:05:56.999Z</time>
      </trkpt>
      <trkpt lat="46.6421" lon="0.43844">
        <ele>186.14</ele>
        <time>2018-02-25T09:05:58.999Z</time>
      </trkpt>
      <trkpt lat="46.64202" lon="0.43859">
        <ele>185.31</ele>
        <time>2018-02-25T09:06:00.999Z</time>
      </trkpt>
      <trkpt lat="46.64196" lon="0.43871">
        <ele>185.15</ele>
        <time>2018-02-25T09:06:03.999Z</time>
      </trkpt>
      <trkpt lat="46.6419" lon="0.43881">
        <ele>184.99</ele>
        <time>2018-02-25T09:06:06.999Z</time>
      </trkpt>
      <trkpt lat="46.64183" lon="0.43892">
        <ele>184.73</ele>
        <time>2018-02-25T09:06:09.999Z</time>
      </trkpt>
      <trkpt lat="46.64176" lon="0.43907">
        <ele>184.47</ele>
        <time>2018-02-25T09:06:12.999Z</time>
      </trkpt>
      <trkpt lat="46.6417" lon="0.43921">
        <ele>184.16</ele>
        <time>2018-02-25T09:06:15.999Z</time>
      </trkpt>
      <trkpt lat="46.64165" lon="0.43934">
        <ele>183.83</ele>
        <time>2018-02-25T09:06:18.999Z</time>
      </trkpt>
      <trkpt lat="46.64158" lon="0.43946">
        <ele>183.44</ele>
        <time>2018-02-25T09:06:21.999Z</time>
      </trkpt>
      <trkpt lat="46.64149" lon="0.43956">
        <ele>183.25</ele>
        <time>2018-02-25T09:06:23.999Z</time>
      </trkpt>
      <trkpt lat="46.6414" lon="0.4396">
        <ele>183.14</ele>
        <time>2018-02-25T09:06:25.999Z</time>
      </trkpt>
      <trkpt lat="46.64132" lon="0.43973">
        <ele>183.18</ele>
        <time>2018-02-25T09:06:28.999Z</time>
      </trkpt>
      <trkpt lat="46.64119" lon="0.43982">
        <ele>183.33</ele>
        <time>2018-02-25T09:06:31.999Z</time>
      </trkpt>
      <trkpt lat="46.64112" lon="0.43999">
        <ele>187.24</ele>
        <time>2018-02-25T09:06:34.999Z</time>
      </trkpt>
      <trkpt lat="46.64109" lon="0.44012">
        <ele>187.57</ele>
        <time>2018-02-25T09:06:36.999Z</time>
      </trkpt>
      <trkpt lat="46.64104" lon="0.44024">
        <ele>188.1</ele>
        <time>2018-02-25T09:06:39.999Z</time>
      </trkpt>
      <trkpt lat="46.64101" lon="0.44038">
        <ele>188.77</ele>
        <time>2018-02-25T09:06:42.999Z</time>
      </trkpt>
      <trkpt lat="46.64097" lon="0.44053">
        <ele>189.57</ele>
        <time>2018-02-25T09:06:46.999Z</time>
      </trkpt>
      <trkpt lat="46.64095" lon="0.44067">
        <ele>190.07</ele>
        <time>2018-02-25T09:06:49.999Z</time>
      </trkpt>
      <trkpt lat="46.64093" lon="0.44084">
        <ele>190.5</ele>
        <time>2018-02-25T09:06:52.999Z</time>
      </trkpt>
      <trkpt lat="46.64091" lon="0.44097">
        <ele>190.8</ele>
        <time>2018-02-25T09:06:54.999Z</time>
      </trkpt>
      <trkpt lat="46.6409" lon="0.44114">
        <ele>191.01</ele>
        <time>2018-02-25T09:06:56.999Z</time>
      </trkpt>
      <trkpt lat="46.64089" lon="0.44133">
        <ele>190.97</ele>
        <time>2018-02-25T09:06:59.999Z</time>
      </trkpt>
      <trkpt lat="46.64087" lon="0.4415">
        <ele>190.74</ele>
        <time>2018-02-25T09:07:02.999Z</time>
      </trkpt>
      <trkpt lat="46.64082" lon="0.44162">
        <ele>190.3</ele>
        <time>2018-02-25T09:07:05.999Z</time>
      </trkpt>
      <trkpt lat="46.64079" lon="0.44178">
        <ele>189.88</ele>
        <time>2018-02-25T09:07:09.999Z</time>
      </trkpt>
      <trkpt lat="46.64076" lon="0.44194">
        <ele>189.43</ele>
        <time>2018-02-25T09:07:12.999Z</time>
      </trkpt>
      <trkpt lat="46.64073" lon="0.44207">
        <ele>189.1</ele>
        <time>2018-02-25T09:07:15.999Z</time>
      </trkpt>
      <trkpt lat="46.6407" lon="0.44221">
        <ele>189.15</ele>
        <time>2018-02-25T09:07:19.999Z</time>
      </trkpt>
      <trkpt lat="46.64071" lon="0.44239">
        <ele>190.11</ele>
        <time>2018-02-25T09:07:24.999Z</time>
      </trkpt>
      <trkpt lat="46.64069" lon="0.44257">
        <ele>190.92</ele>
        <time>2018-02-25T09:07:27.999Z</time>
      </trkpt>
      <trkpt lat="46.6407" lon="0.44276">
        <ele>191.27</ele>
        <time>2018-02-25T09:07:29.999Z</time>
      </trkpt>
      <trkpt lat="46.64075" lon="0.44289">
        <ele>191.36</ele>
        <time>2018-02-25T09:07:30.999Z</time>
      </trkpt>
      <trkpt lat="46.64065" lon="0.44294">
        <ele>191.64</ele>
        <time>2018-02-25T09:07:36.999Z</time>
      </trkpt>
      <trkpt lat="46.64052" lon="0.44291">
        <ele>191.8</ele>
        <time>2018-02-25T09:07:38.999Z</time>
      </trkpt>
      <trkpt lat="46.64043" lon="0.44289">
        <ele>191.91</ele>
        <time>2018-02-25T09:07:39.999Z</time>
      </trkpt>
      <trkpt lat="46.64031" lon="0.44288">
        <ele>192.17</ele>
        <time>2018-02-25T09:07:41.999Z</time>
      </trkpt>
      <trkpt lat="46.64021" lon="0.44284">
        <ele>192.38</ele>
        <time>2018-02-25T09:07:43.999Z</time>
      </trkpt>
      <trkpt lat="46.64012" lon="0.44281">
        <ele>192.49</ele>
        <time>2018-02-25T09:07:45.999Z</time>
      </trkpt>
      <trkpt lat="46.64001" lon="0.44278">
        <ele>192.6</ele>
        <time>2018-02-25T09:07:48.999Z</time>
      </trkpt>
      <trkpt lat="46.63992" lon="0.44276">
        <ele>192.59</ele>
        <time>2018-02-25T09:07:50.999Z</time>
      </trkpt>
      <trkpt lat="46.6398" lon="0.44273">
        <ele>192.35</ele>
        <time>2018-02-25T09:07:53.999Z</time>
      </trkpt>
      <trkpt lat="46.6397" lon="0.4427">
        <ele>192.1</ele>
        <time>2018-02-25T09:07:55.999Z</time>
      </trkpt>
      <trkpt lat="46.6396" lon="0.44264">
        <ele>191.82</ele>
        <time>2018-02-25T09:07:58.999Z</time>
      </trkpt>
      <trkpt lat="46.6395" lon="0.44258">
        <ele>191.57</ele>
        <time>2018-02-25T09:08:01.999Z</time>
      </trkpt>
      <trkpt lat="46.63941" lon="0.44251">
        <ele>191.35</ele>
        <time>2018-02-25T09:08:04.999Z</time>
      </trkpt>
      <trkpt lat="46.63932" lon="0.44241">
        <ele>191.14</ele>
        <time>2018-02-25T09:08:07.999Z</time>
      </trkpt>
      <trkpt lat="46.63922" lon="0.44233">
        <ele>191</ele>
        <time>2018-02-25T09:08:10.999Z</time>
      </trkpt>
      <trkpt lat="46.63914" lon="0.44226">
        <ele>190.85</ele>
        <time>2018-02-25T09:08:12.999Z</time>
      </trkpt>
      <trkpt lat="46.63902" lon="0.44218">
        <ele>190.55</ele>
        <time>2018-02-25T09:08:15.999Z</time>
      </trkpt>
      <trkpt lat="46.63891" lon="0.4421">
        <ele>190.21</ele>
        <time>2018-02-25T09:08:19.999Z</time>
      </trkpt>
      <trkpt lat="46.63883" lon="0.44199">
        <ele>190.02</ele>
        <time>2018-02-25T09:08:22.999Z</time>
      </trkpt>
      <trkpt lat="46.63876" lon="0.44188">
        <ele>189.81</ele>
        <time>2018-02-25T09:08:25.999Z</time>
      </trkpt>
      <trkpt lat="46.63868" lon="0.44174">
        <ele>189.67</ele>
        <time>2018-02-25T09:08:28.999Z</time>
      </trkpt>
      <trkpt lat="46.63861" lon="0.44161">
        <ele>189.81</ele>
        <time>2018-02-25T09:08:31.999Z</time>
      </trkpt>
      <trkpt lat="46.63853" lon="0.44152">
        <ele>189.9</ele>
        <time>2018-02-25T09:08:33.999Z</time>
      </trkpt>
      <trkpt lat="46.63844" lon="0.4414">
        <ele>190.13</ele>
        <time>2018-02-25T09:08:36.999Z</time>
      </trkpt>
      <trkpt lat="46.63837" lon="0.4413">
        <ele>190.28</ele>
        <time>2018-02-25T09:08:38.999Z</time>
      </trkpt>
      <trkpt lat="46.63829" lon="0.44116">
        <ele>190.42</ele>
        <time>2018-02-25T09:08:41.999Z</time>
      </trkpt>
      <trkpt lat="46.63822" lon="0.44105">
        <ele>190.43</ele>
        <time>2018-02-25T09:08:43.999Z</time>
      </trkpt>
      <trkpt lat="46.63815" lon="0.44096">
        <ele>190.38</ele>
        <time>2018-02-25T09:08:45.999Z</time>
      </trkpt>
      <trkpt lat="46.63809" lon="0.4408">
        <ele>190.35</ele>
        <time>2018-02-25T09:08:48.999Z</time>
      </trkpt>
      <trkpt lat="46.63804" lon="0.44068">
        <ele>190.73</ele>
        <time>2018-02-25T09:08:50.999Z</time>
      </trkpt>
      <trkpt lat="46.63797" lon="0.44054">
        <ele>190.75</ele>
        <time>2018-02-25T09:08:52.999Z</time>
      </trkpt>
      <trkpt lat="46.6379" lon="0.44045">
        <ele>189.76</ele>
        <time>2018-02-25T09:08:54.999Z</time>
      </trkpt>
      <trkpt lat="46.63783" lon="0.44036">
        <ele>189.65</ele>
        <time>2018-02-25T09:08:56.999Z</time>
      </trkpt>
      <trkpt lat="46.63773" lon="0.44022">
        <ele>188.86</ele>
        <time>2018-02-25T09:08:59.999Z</time>
      </trkpt>
      <trkpt lat="46.63763" lon="0.44014">
        <ele>188.68</ele>
        <time>2018-02-25T09:09:01.999Z</time>
      </trkpt>
      <trkpt lat="46.63755" lon="0.44005">
        <ele>187.5</ele>
        <time>2018-02-25T09:09:03.999Z</time>
      </trkpt>
      <trkpt lat="46.63746" lon="0.43997">
        <ele>186.34</ele>
        <time>2018-02-25T09:09:05.999Z</time>
      </trkpt>
      <trkpt lat="46.63737" lon="0.43989">
        <ele>184.19</ele>
        <time>2018-02-25T09:09:07.999Z</time>
      </trkpt>
      <trkpt lat="46.63728" lon="0.43982">
        <ele>182.7</ele>
        <time>2018-02-25T09:09:09.999Z</time>
      </trkpt>
      <trkpt lat="46.63719" lon="0.43974">
        <ele>181.07</ele>
        <time>2018-02-25T09:09:11.999Z</time>
      </trkpt>
      <trkpt lat="46.6371" lon="0.43966">
        <ele>180.01</ele>
        <time>2018-02-25T09:09:13.999Z</time>
      </trkpt>
      <trkpt lat="46.63698" lon="0.43958">
        <ele>179.35</ele>
        <time>2018-02-25T09:09:15.999Z</time>
      </trkpt>
      <trkpt lat="46.63686" lon="0.4395">
        <ele>177.85</ele>
        <time>2018-02-25T09:09:17.999Z</time>
      </trkpt>
      <trkpt lat="46.63676" lon="0.43943">
        <ele>177.74</ele>
        <time>2018-02-25T09:09:19.999Z</time>
      </trkpt>
      <trkpt lat="46.63667" lon="0.43936">
        <ele>177.6</ele>
        <time>2018-02-25T09:09:21.999Z</time>
      </trkpt>
      <trkpt lat="46.63658" lon="0.43929">
        <ele>177.48</ele>
        <time>2018-02-25T09:09:23.999Z</time>
      </trkpt>
      <trkpt lat="46.63646" lon="0.43919">
        <ele>177.28</ele>
        <time>2018-02-25T09:09:26.999Z</time>
      </trkpt>
      <trkpt lat="46.63638" lon="0.43911">
        <ele>177.08</ele>
        <time>2018-02-25T09:09:29.999Z</time>
      </trkpt>
      <trkpt lat="46.63628" lon="0.43903">
        <ele>176.88</ele>
        <time>2018-02-25T09:09:32.999Z</time>
      </trkpt>
      <trkpt lat="46.63618" lon="0.43894">
        <ele>176.62</ele>
        <time>2018-02-25T09:09:35.999Z</time>
      </trkpt>
      <trkpt lat="46.6361" lon="0.43887">
        <ele>176.5</ele>
        <time>2018-02-25T09:09:37.999Z</time>
      </trkpt>
      <trkpt lat="46.63599" lon="0.43879">
        <ele>176.35</ele>
        <time>2018-02-25T09:09:40.999Z</time>
      </trkpt>
      <trkpt lat="46.63589" lon="0.43874">
        <ele>176.29</ele>
        <time>2018-02-25T09:09:42.999Z</time>
      </trkpt>
      <trkpt lat="46.6358" lon="0.43868">
        <ele>176.27</ele>
        <time>2018-02-25T09:09:44.999Z</time>
      </trkpt>
      <trkpt lat="46.63567" lon="0.43862">
        <ele>176.26</ele>
        <time>2018-02-25T09:09:46.999Z</time>
      </trkpt>
      <trkpt lat="46.63559" lon="0.43859">
        <ele>176.27</ele>
        <time>2018-02-25T09:09:47.999Z</time>
      </trkpt>
      <trkpt lat="46.63548" lon="0.43855">
        <ele>176.3</ele>
        <time>2018-02-25T09:09:49.999Z</time>
      </trkpt>
      <trkpt lat="46.63538" lon="0.43852">
        <ele>176.26</ele>
        <time>2018-02-25T09:09:51.999Z</time>
      </trkpt>
      <trkpt lat="46.63528" lon="0.43848">
        <ele>176.06</ele>
        <time>2018-02-25T09:09:53.999Z</time>
      </trkpt>
      <trkpt lat="46.63517" lon="0.43844">
        <ele>175.98</ele>
        <time>2018-02-25T09:09:55.999Z</time>
      </trkpt>
      <trkpt lat="46.63506" lon="0.4384">
        <ele>176.05</ele>
        <time>2018-02-25T09:09:57.999Z</time>
      </trkpt>
      <trkpt lat="46.63496" lon="0.43837">
        <ele>176.1</ele>
        <time>2018-02-25T09:09:59.999Z</time>
      </trkpt>
      <trkpt lat="46.63487" lon="0.43836">
        <ele>176.17</ele>
        <time>2018-02-25T09:10:01.999Z</time>
      </trkpt>
      <trkpt lat="46.63477" lon="0.43834">
        <ele>176.44</ele>
        <time>2018-02-25T09:10:03.999Z</time>
      </trkpt>
      <trkpt lat="46.63466" lon="0.43831">
        <ele>176.9</ele>
        <time>2018-02-25T09:10:05.999Z</time>
      </trkpt>
      <trkpt lat="46.63456" lon="0.43829">
        <ele>177.69</ele>
        <time>2018-02-25T09:10:07.999Z</time>
      </trkpt>
      <trkpt lat="46.63445" lon="0.43828">
        <ele>178.45</ele>
        <time>2018-02-25T09:10:09.999Z</time>
      </trkpt>
      <trkpt lat="46.63432" lon="0.43826">
        <ele>178.94</ele>
        <time>2018-02-25T09:10:12.999Z</time>
      </trkpt>
      <trkpt lat="46.63421" lon="0.43823">
        <ele>179.01</ele>
        <time>2018-02-25T09:10:15.999Z</time>
      </trkpt>
      <trkpt lat="46.63411" lon="0.43822">
        <ele>179.11</ele>
        <time>2018-02-25T09:10:18.999Z</time>
      </trkpt>
      <trkpt lat="46.634" lon="0.43818">
        <ele>179.39</ele>
        <time>2018-02-25T09:10:22.999Z</time>
      </trkpt>
      <trkpt lat="46.6339" lon="0.43816">
        <ele>179.86</ele>
        <time>2018-02-25T09:10:27.999Z</time>
      </trkpt>
      <trkpt lat="46.63381" lon="0.4382">
        <ele>181.72</ele>
        <time>2018-02-25T09:11:08.999Z</time>
      </trkpt>
      <trkpt lat="46.63373" lon="0.43815">
        <ele>184.99</ele>
        <time>2018-02-25T09:11:23.999Z</time>
      </trkpt>
      <trkpt lat="46.63368" lon="0.43803">
        <ele>185.31</ele>
        <time>2018-02-25T09:11:33.999Z</time>
      </trkpt>
      <trkpt lat="46.63375" lon="0.43793">
        <ele>183.65</ele>
        <time>2018-02-25T09:21:40.999Z</time>
      </trkpt>
      <trkpt lat="46.63371" lon="0.43779">
        <ele>183.67</ele>
        <time>2018-02-25T09:21:45.999Z</time>
      </trkpt>
      <trkpt lat="46.63366" lon="0.43765">
        <ele>183.84</ele>
        <time>2018-02-25T09:21:49.999Z</time>
      </trkpt>
      <trkpt lat="46.63362" lon="0.43752">
        <ele>183.98</ele>
        <time>2018-02-25T09:21:52.999Z</time>
      </trkpt>
      <trkpt lat="46.63357" lon="0.43738">
        <ele>184.22</ele>
        <time>2018-02-25T09:21:56.999Z</time>
      </trkpt>
      <trkpt lat="46.6335" lon="0.43725">
        <ele>184.75</ele>
        <time>2018-02-25T09:22:00.999Z</time>
      </trkpt>
      <trkpt lat="46.6334" lon="0.43718">
        <ele>185.11</ele>
        <time>2018-02-25T09:22:03.999Z</time>
      </trkpt>
      <trkpt lat="46.6333" lon="0.43711">
        <ele>185.54</ele>
        <time>2018-02-25T09:22:07.999Z</time>
      </trkpt>
      <trkpt lat="46.6332" lon="0.43707">
        <ele>185.99</ele>
        <time>2018-02-25T09:22:11.999Z</time>
      </trkpt>
      <trkpt lat="46.63311" lon="0.43702">
        <ele>186.29</ele>
        <time>2018-02-25T09:22:14.999Z</time>
      </trkpt>
      <trkpt lat="46.63301" lon="0.43699">
        <ele>186.67</ele>
        <time>2018-02-25T09:22:17.999Z</time>
      </trkpt>
      <trkpt lat="46.63291" lon="0.43693">
        <ele>187.84</ele>
        <time>2018-02-25T09:22:20.999Z</time>
      </trkpt>
      <trkpt lat="46.63281" lon="0.43689">
        <ele>188.11</ele>
        <time>2018-02-25T09:22:23.999Z</time>
      </trkpt>
      <trkpt lat="46.63269" lon="0.43684">
        <ele>188.37</ele>
        <time>2018-02-25T09:22:26.999Z</time>
      </trkpt>
      <trkpt lat="46.63258" lon="0.43679">
        <ele>188.61</ele>
        <time>2018-02-25T09:22:29.999Z</time>
      </trkpt>
      <trkpt lat="46.63249" lon="0.43674">
        <ele>188.71</ele>
        <time>2018-02-25T09:22:31.999Z</time>
      </trkpt>
      <trkpt lat="46.63238" lon="0.43669">
        <ele>188.78</ele>
        <time>2018-02-25T09:22:33.999Z</time>
      </trkpt>
      <trkpt lat="46.63229" lon="0.43666">
        <ele>188.79</ele>
        <time>2018-02-25T09:22:35.999Z</time>
      </trkpt>
      <trkpt lat="46.63216" lon="0.43657">
        <ele>188.67</ele>
        <time>2018-02-25T09:22:38.999Z</time>
      </trkpt>
      <trkpt lat="46.63207" lon="0.43652">
        <ele>188.59</ele>
        <time>2018-02-25T09:22:40.999Z</time>
      </trkpt>
      <trkpt lat="46.63198" lon="0.43646">
        <ele>188.06</ele>
        <time>2018-02-25T09:22:42.999Z</time>
      </trkpt>
      <trkpt lat="46.63184" lon="0.43639">
        <ele>188.03</ele>
        <time>2018-02-25T09:22:44.999Z</time>
      </trkpt>
      <trkpt lat="46.63171" lon="0.43631">
        <ele>187.93</ele>
        <time>2018-02-25T09:22:46.999Z</time>
      </trkpt>
      <trkpt lat="46.63161" lon="0.43623">
        <ele>186.9</ele>
        <time>2018-02-25T09:22:48.999Z</time>
      </trkpt>
      <trkpt lat="46.63152" lon="0.43617">
        <ele>185.97</ele>
        <time>2018-02-25T09:22:50.999Z</time>
      </trkpt>
      <trkpt lat="46.6314" lon="0.43608">
        <ele>185.45</ele>
        <time>2018-02-25T09:22:53.999Z</time>
      </trkpt>
      <trkpt lat="46.63133" lon="0.436">
        <ele>185.23</ele>
        <time>2018-02-25T09:22:55.999Z</time>
      </trkpt>
      <trkpt lat="46.63124" lon="0.43592">
        <ele>185.91</ele>
        <time>2018-02-25T09:22:57.999Z</time>
      </trkpt>
      <trkpt lat="46.63116" lon="0.43582">
        <ele>186.48</ele>
        <time>2018-02-25T09:22:59.999Z</time>
      </trkpt>
      <trkpt lat="46.63108" lon="0.43572">
        <ele>186.73</ele>
        <time>2018-02-25T09:23:01.999Z</time>
      </trkpt>
      <trkpt lat="46.631" lon="0.43561">
        <ele>187</ele>
        <time>2018-02-25T09:23:03.999Z</time>
      </trkpt>
      <trkpt lat="46.63093" lon="0.43549">
        <ele>186.95</ele>
        <time>2018-02-25T09:23:05.999Z</time>
      </trkpt>
      <trkpt lat="46.63086" lon="0.4354">
        <ele>187.06</ele>
        <time>2018-02-25T09:23:07.999Z</time>
      </trkpt>
      <trkpt lat="46.63079" lon="0.43529">
        <ele>187.1</ele>
        <time>2018-02-25T09:23:09.999Z</time>
      </trkpt>
      <trkpt lat="46.63071" lon="0.43515">
        <ele>187.26</ele>
        <time>2018-02-25T09:23:11.999Z</time>
      </trkpt>
      <trkpt lat="46.63066" lon="0.43503">
        <ele>187.37</ele>
        <time>2018-02-25T09:23:13.999Z</time>
      </trkpt>
      <trkpt lat="46.6306" lon="0.43492">
        <ele>189.28</ele>
        <time>2018-02-25T09:23:15.999Z</time>
      </trkpt>
      <trkpt lat="46.63054" lon="0.4348">
        <ele>190.47</ele>
        <time>2018-02-25T09:23:17.999Z</time>
      </trkpt>
      <trkpt lat="46.63047" lon="0.43468">
        <ele>191.46</ele>
        <time>2018-02-25T09:23:19.999Z</time>
      </trkpt>
      <trkpt lat="46.63042" lon="0.43455">
        <ele>192.33</ele>
        <time>2018-02-25T09:23:21.999Z</time>
      </trkpt>
      <trkpt lat="46.63035" lon="0.43443">
        <ele>193.4</ele>
        <time>2018-02-25T09:23:23.999Z</time>
      </trkpt>
      <trkpt lat="46.63023" lon="0.43433">
        <ele>193.37</ele>
        <time>2018-02-25T09:23:25.999Z</time>
      </trkpt>
      <trkpt lat="46.63011" lon="0.43422">
        <ele>193.23</ele>
        <time>2018-02-25T09:23:27.999Z</time>
      </trkpt>
      <trkpt lat="46.63005" lon="0.43411">
        <ele>192.01</ele>
        <time>2018-02-25T09:23:29.999Z</time>
      </trkpt>
      <trkpt lat="46.62998" lon="0.43399">
        <ele>190.93</ele>
        <time>2018-02-25T09:23:31.999Z</time>
      </trkpt>
      <trkpt lat="46.6299" lon="0.43387">
        <ele>190.32</ele>
        <time>2018-02-25T09:23:33.999Z</time>
      </trkpt>
      <trkpt lat="46.62983" lon="0.43372">
        <ele>190.22</ele>
        <time>2018-02-25T09:23:35.999Z</time>
      </trkpt>
      <trkpt lat="46.62976" lon="0.43361">
        <ele>189.33</ele>
        <time>2018-02-25T09:23:37.999Z</time>
      </trkpt>
      <trkpt lat="46.62968" lon="0.43344">
        <ele>188.68</ele>
        <time>2018-02-25T09:23:39.999Z</time>
      </trkpt>
      <trkpt lat="46.6296" lon="0.43332">
        <ele>188.73</ele>
        <time>2018-02-25T09:23:41.999Z</time>
      </trkpt>
      <trkpt lat="46.62954" lon="0.4332">
        <ele>189.48</ele>
        <time>2018-02-25T09:23:43.999Z</time>
      </trkpt>
      <trkpt lat="46.62946" lon="0.4331">
        <ele>190.41</ele>
        <time>2018-02-25T09:23:45.999Z</time>
      </trkpt>
      <trkpt lat="46.62936" lon="0.43293">
        <ele>190.67</ele>
        <time>2018-02-25T09:23:47.999Z</time>
      </trkpt>
      <trkpt lat="46.62926" lon="0.43276">
        <ele>190.84</ele>
        <time>2018-02-25T09:23:49.999Z</time>
      </trkpt>
      <trkpt lat="46.62916" lon="0.43265">
        <ele>190.84</ele>
        <time>2018-02-25T09:23:51.999Z</time>
      </trkpt>
      <trkpt lat="46.62911" lon="0.43253">
        <ele>190.85</ele>
        <time>2018-02-25T09:23:53.999Z</time>
      </trkpt>
      <trkpt lat="46.62903" lon="0.4324">
        <ele>190.94</ele>
        <time>2018-02-25T09:23:55.999Z</time>
      </trkpt>
      <trkpt lat="46.62894" lon="0.43224">
        <ele>191.21</ele>
        <time>2018-02-25T09:23:57.999Z</time>
      </trkpt>
      <trkpt lat="46.6289" lon="0.43207">
        <ele>191.64</ele>
        <time>2018-02-25T09:23:59.999Z</time>
      </trkpt>
      <trkpt lat="46.62885" lon="0.43195">
        <ele>191.89</ele>
        <time>2018-02-25T09:24:01.999Z</time>
      </trkpt>
      <trkpt lat="46.62882" lon="0.43181">
        <ele>192.28</ele>
        <time>2018-02-25T09:24:03.999Z</time>
      </trkpt>
      <trkpt lat="46.62877" lon="0.43164">
        <ele>192.59</ele>
        <time>2018-02-25T09:24:05.999Z</time>
      </trkpt>
      <trkpt lat="46.62872" lon="0.43153">
        <ele>192.57</ele>
        <time>2018-02-25T09:24:07.999Z</time>
      </trkpt>
      <trkpt lat="46.62867" lon="0.43142">
        <ele>192.49</ele>
        <time>2018-02-25T09:24:09.999Z</time>
      </trkpt>
      <trkpt lat="46.62859" lon="0.43126">
        <ele>191.97</ele>
        <time>2018-02-25T09:24:11.999Z</time>
      </trkpt>
      <trkpt lat="46.62853" lon="0.43113">
        <ele>191.93</ele>
        <time>2018-02-25T09:24:13.999Z</time>
      </trkpt>
      <trkpt lat="46.62848" lon="0.43098">
        <ele>191.83</ele>
        <time>2018-02-25T09:24:15.999Z</time>
      </trkpt>
      <trkpt lat="46.6284" lon="0.43082">
        <ele>190.99</ele>
        <time>2018-02-25T09:24:17.999Z</time>
      </trkpt>
      <trkpt lat="46.62835" lon="0.43068">
        <ele>191</ele>
        <time>2018-02-25T09:24:19.999Z</time>
      </trkpt>
      <trkpt lat="46.6283" lon="0.43054">
        <ele>191.2</ele>
        <time>2018-02-25T09:24:21.999Z</time>
      </trkpt>
      <trkpt lat="46.62827" lon="0.43042">
        <ele>191.13</ele>
        <time>2018-02-25T09:24:23.999Z</time>
      </trkpt>
      <trkpt lat="46.62829" lon="0.43025">
        <ele>189.87</ele>
        <time>2018-02-25T09:24:25.999Z</time>
      </trkpt>
      <trkpt lat="46.62835" lon="0.43009">
        <ele>188.16</ele>
        <time>2018-02-25T09:24:27.999Z</time>
      </trkpt>
      <trkpt lat="46.6284" lon="0.42991">
        <ele>186.33</ele>
        <time>2018-02-25T09:24:29.999Z</time>
      </trkpt>
      <trkpt lat="46.62843" lon="0.42975">
        <ele>184.75</ele>
        <time>2018-02-25T09:24:31.999Z</time>
      </trkpt>
      <trkpt lat="46.62847" lon="0.4296">
        <ele>183.3</ele>
        <time>2018-02-25T09:24:33.999Z</time>
      </trkpt>
      <trkpt lat="46.62851" lon="0.42946">
        <ele>181.99</ele>
        <time>2018-02-25T09:24:35.999Z</time>
      </trkpt>
      <trkpt lat="46.62854" lon="0.42933">
        <ele>181.82</ele>
        <time>2018-02-25T09:24:39.999Z</time>
      </trkpt>
      <trkpt lat="46.62846" lon="0.42926">
        <ele>181.58</ele>
        <time>2018-02-25T09:24:42.999Z</time>
      </trkpt>
      <trkpt lat="46.62834" lon="0.42922">
        <ele>179.5</ele>
        <time>2018-02-25T09:24:45.999Z</time>
      </trkpt>
      <trkpt lat="46.62824" lon="0.42918">
        <ele>178.43</ele>
        <time>2018-02-25T09:24:47.999Z</time>
      </trkpt>
      <trkpt lat="46.62812" lon="0.42915">
        <ele>177.23</ele>
        <time>2018-02-25T09:24:49.999Z</time>
      </trkpt>
      <trkpt lat="46.62803" lon="0.42911">
        <ele>176.32</ele>
        <time>2018-02-25T09:24:51.999Z</time>
      </trkpt>
      <trkpt lat="46.62794" lon="0.42908">
        <ele>176.13</ele>
        <time>2018-02-25T09:24:54.999Z</time>
      </trkpt>
      <trkpt lat="46.62784" lon="0.42905">
        <ele>176.81</ele>
        <time>2018-02-25T09:24:56.999Z</time>
      </trkpt>
      <trkpt lat="46.62772" lon="0.42902">
        <ele>177.01</ele>
        <time>2018-02-25T09:24:59.999Z</time>
      </trkpt>
      <trkpt lat="46.62761" lon="0.42898">
        <ele>177.23</ele>
        <time>2018-02-25T09:25:02.999Z</time>
      </trkpt>
      <trkpt lat="46.62754" lon="0.42885">
        <ele>177.51</ele>
        <time>2018-02-25T09:25:06.999Z</time>
      </trkpt>
      <trkpt lat="46.62752" lon="0.42871">
        <ele>178.62</ele>
        <time>2018-02-25T09:25:08.999Z</time>
      </trkpt>
      <trkpt lat="46.62751" lon="0.42857">
        <ele>179.41</ele>
        <time>2018-02-25T09:25:11.999Z</time>
      </trkpt>
      <trkpt lat="46.62752" lon="0.42844">
        <ele>179.66</ele>
        <time>2018-02-25T09:25:13.999Z</time>
      </trkpt>
      <trkpt lat="46.62754" lon="0.4283">
        <ele>179.45</ele>
        <time>2018-02-25T09:25:15.999Z</time>
      </trkpt>
      <trkpt lat="46.62756" lon="0.42817">
        <ele>178.9</ele>
        <time>2018-02-25T09:25:17.999Z</time>
      </trkpt>
      <trkpt lat="46.62757" lon="0.42803">
        <ele>178.32</ele>
        <time>2018-02-25T09:25:19.999Z</time>
      </trkpt>
      <trkpt lat="46.62759" lon="0.42789">
        <ele>177.92</ele>
        <time>2018-02-25T09:25:21.999Z</time>
      </trkpt>
      <trkpt lat="46.62761" lon="0.42774">
        <ele>177.71</ele>
        <time>2018-02-25T09:25:23.999Z</time>
      </trkpt>
      <trkpt lat="46.62763" lon="0.42757">
        <ele>177.38</ele>
        <time>2018-02-25T09:25:25.999Z</time>
      </trkpt>
      <trkpt lat="46.62764" lon="0.4274">
        <ele>176.63</ele>
        <time>2018-02-25T09:25:27.999Z</time>
      </trkpt>
      <trkpt lat="46.62766" lon="0.42722">
        <ele>175.69</ele>
        <time>2018-02-25T09:25:29.999Z</time>
      </trkpt>
      <trkpt lat="46.62767" lon="0.42704">
        <ele>175.25</ele>
        <time>2018-02-25T09:25:31.999Z</time>
      </trkpt>
      <trkpt lat="46.6277" lon="0.42685">
        <ele>174.7</ele>
        <time>2018-02-25T09:25:33.999Z</time>
      </trkpt>
      <trkpt lat="46.62772" lon="0.42664">
        <ele>174</ele>
        <time>2018-02-25T09:25:35.999Z</time>
      </trkpt>
      <trkpt lat="46.62774" lon="0.42643">
        <ele>173.15</ele>
        <time>2018-02-25T09:25:37.999Z</time>
      </trkpt>
      <trkpt lat="46.62774" lon="0.42622">
        <ele>172.55</ele>
        <time>2018-02-25T09:25:39.999Z</time>
      </trkpt>
      <trkpt lat="46.62772" lon="0.426">
        <ele>172.31</ele>
        <time>2018-02-25T09:25:41.999Z</time>
      </trkpt>
      <trkpt lat="46.62771" lon="0.42576">
        <ele>172.03</ele>
        <time>2018-02-25T09:25:43.999Z</time>
      </trkpt>
      <trkpt lat="46.62768" lon="0.42551">
        <ele>171.7</ele>
        <time>2018-02-25T09:25:45.999Z</time>
      </trkpt>
      <trkpt lat="46.62766" lon="0.42526">
        <ele>171.59</ele>
        <time>2018-02-25T09:25:47.999Z</time>
      </trkpt>
      <trkpt lat="46.62763" lon="0.425">
        <ele>171.48</ele>
        <time>2018-02-25T09:25:49.999Z</time>
      </trkpt>
      <trkpt lat="46.62761" lon="0.42487">
        <ele>171.43</ele>
        <time>2018-02-25T09:25:50.999Z</time>
      </trkpt>
      <trkpt lat="46.62758" lon="0.42474">
        <ele>171.35</ele>
        <time>2018-02-25T09:25:51.999Z</time>
      </trkpt>
      <trkpt lat="46.62754" lon="0.42462">
        <ele>171.26</ele>
        <time>2018-02-25T09:25:52.999Z</time>
      </trkpt>
      <trkpt lat="46.62751" lon="0.4245">
        <ele>171.11</ele>
        <time>2018-02-25T09:25:53.999Z</time>
      </trkpt>
      <trkpt lat="46.62743" lon="0.42427">
        <ele>170.91</ele>
        <time>2018-02-25T09:25:55.999Z</time>
      </trkpt>
      <trkpt lat="46.62735" lon="0.42405">
        <ele>170.67</ele>
        <time>2018-02-25T09:25:57.999Z</time>
      </trkpt>
      <trkpt lat="46.62727" lon="0.42384">
        <ele>170.42</ele>
        <time>2018-02-25T09:25:59.999Z</time>
      </trkpt>
      <trkpt lat="46.62717" lon="0.42364">
        <ele>170.16</ele>
        <time>2018-02-25T09:26:01.999Z</time>
      </trkpt>
      <trkpt lat="46.62709" lon="0.42343">
        <ele>169.92</ele>
        <time>2018-02-25T09:26:03.999Z</time>
      </trkpt>
      <trkpt lat="46.62705" lon="0.42322">
        <ele>169.7</ele>
        <time>2018-02-25T09:26:05.999Z</time>
      </trkpt>
      <trkpt lat="46.62701" lon="0.423">
        <ele>169.43</ele>
        <time>2018-02-25T09:26:07.999Z</time>
      </trkpt>
      <trkpt lat="46.62699" lon="0.42278">
        <ele>169.23</ele>
        <time>2018-02-25T09:26:09.999Z</time>
      </trkpt>
      <trkpt lat="46.62698" lon="0.42257">
        <ele>169</ele>
        <time>2018-02-25T09:26:11.999Z</time>
      </trkpt>
      <trkpt lat="46.62699" lon="0.42237">
        <ele>168.63</ele>
        <time>2018-02-25T09:26:13.999Z</time>
      </trkpt>
      <trkpt lat="46.627" lon="0.42219">
        <ele>168.33</ele>
        <time>2018-02-25T09:26:15.999Z</time>
      </trkpt>
      <trkpt lat="46.62703" lon="0.42203">
        <ele>168.2</ele>
        <time>2018-02-25T09:26:17.999Z</time>
      </trkpt>
      <trkpt lat="46.6271" lon="0.4219">
        <ele>168.12</ele>
        <time>2018-02-25T09:26:19.999Z</time>
      </trkpt>
      <trkpt lat="46.62717" lon="0.42176">
        <ele>168.02</ele>
        <time>2018-02-25T09:26:21.999Z</time>
      </trkpt>
      <trkpt lat="46.62715" lon="0.4216">
        <ele>167.77</ele>
        <time>2018-02-25T09:26:23.999Z</time>
      </trkpt>
      <trkpt lat="46.6271" lon="0.42143">
        <ele>167.4</ele>
        <time>2018-02-25T09:26:25.999Z</time>
      </trkpt>
      <trkpt lat="46.62707" lon="0.42126">
        <ele>167</ele>
        <time>2018-02-25T09:26:27.999Z</time>
      </trkpt>
      <trkpt lat="46.62703" lon="0.42107">
        <ele>166.66</ele>
        <time>2018-02-25T09:26:29.999Z</time>
      </trkpt>
      <trkpt lat="46.627" lon="0.42089">
        <ele>166.42</ele>
        <time>2018-02-25T09:26:31.999Z</time>
      </trkpt>
      <trkpt lat="46.62697" lon="0.4207">
        <ele>166.1</ele>
        <time>2018-02-25T09:26:33.999Z</time>
      </trkpt>
      <trkpt lat="46.62694" lon="0.42051">
        <ele>165.65</ele>
        <time>2018-02-25T09:26:35.999Z</time>
      </trkpt>
      <trkpt lat="46.62691" lon="0.42032">
        <ele>165.17</ele>
        <time>2018-02-25T09:26:37.999Z</time>
      </trkpt>
      <trkpt lat="46.62688" lon="0.42013">
        <ele>164.59</ele>
        <time>2018-02-25T09:26:39.999Z</time>
      </trkpt>
      <trkpt lat="46.62687" lon="0.4199">
        <ele>163.98</ele>
        <time>2018-02-25T09:26:41.999Z</time>
      </trkpt>
      <trkpt lat="46.62686" lon="0.41968">
        <ele>163.4</ele>
        <time>2018-02-25T09:26:43.999Z</time>
      </trkpt>
      <trkpt lat="46.62685" lon="0.41945">
        <ele>162.94</ele>
        <time>2018-02-25T09:26:45.999Z</time>
      </trkpt>
      <trkpt lat="46.62683" lon="0.41923">
        <ele>162.47</ele>
        <time>2018-02-25T09:26:47.999Z</time>
      </trkpt>
      <trkpt lat="46.62678" lon="0.41901">
        <ele>162.08</ele>
        <time>2018-02-25T09:26:49.999Z</time>
      </trkpt>
      <trkpt lat="46.62666" lon="0.41884">
        <ele>161.75</ele>
        <time>2018-02-25T09:26:51.999Z</time>
      </trkpt>
      <trkpt lat="46.62658" lon="0.41877">
        <ele>161.55</ele>
        <time>2018-02-25T09:26:52.999Z</time>
      </trkpt>
      <trkpt lat="46.6265" lon="0.41869">
        <ele>161.26</ele>
        <time>2018-02-25T09:26:53.999Z</time>
      </trkpt>
      <trkpt lat="46.62642" lon="0.4186">
        <ele>160.91</ele>
        <time>2018-02-25T09:26:54.999Z</time>
      </trkpt>
      <trkpt lat="46.62635" lon="0.41851">
        <ele>160.55</ele>
        <time>2018-02-25T09:26:55.999Z</time>
      </trkpt>
      <trkpt lat="46.62627" lon="0.41842">
        <ele>160.16</ele>
        <time>2018-02-25T09:26:56.999Z</time>
      </trkpt>
      <trkpt lat="46.62619" lon="0.41832">
        <ele>159.83</ele>
        <time>2018-02-25T09:26:57.999Z</time>
      </trkpt>
      <trkpt lat="46.62611" lon="0.41822">
        <ele>159.52</ele>
        <time>2018-02-25T09:26:58.999Z</time>
      </trkpt>
      <trkpt lat="46.62603" lon="0.41812">
        <ele>159.19</ele>
        <time>2018-02-25T09:26:59.999Z</time>
      </trkpt>
      <trkpt lat="46.62595" lon="0.41803">
        <ele>158.87</ele>
        <time>2018-02-25T09:27:00.999Z</time>
      </trkpt>
      <trkpt lat="46.62587" lon="0.41794">
        <ele>158.6</ele>
        <time>2018-02-25T09:27:01.999Z</time>
      </trkpt>
      <trkpt lat="46.62579" lon="0.41786">
        <ele>158.34</ele>
        <time>2018-02-25T09:27:02.999Z</time>
      </trkpt>
      <trkpt lat="46.62571" lon="0.41779">
        <ele>158.09</ele>
        <time>2018-02-25T09:27:03.999Z</time>
      </trkpt>
      <trkpt lat="46.62563" lon="0.41773">
        <ele>157.82</ele>
        <time>2018-02-25T09:27:04.999Z</time>
      </trkpt>
      <trkpt lat="46.62554" lon="0.41768">
        <ele>157.54</ele>
        <time>2018-02-25T09:27:05.999Z</time>
      </trkpt>
      <trkpt lat="46.62545" lon="0.41763">
        <ele>157.2</ele>
        <time>2018-02-25T09:27:06.999Z</time>
      </trkpt>
      <trkpt lat="46.62537" lon="0.41758">
        <ele>156.84</ele>
        <time>2018-02-25T09:27:07.999Z</time>
      </trkpt>
      <trkpt lat="46.62524" lon="0.41748">
        <ele>156.2</ele>
        <time>2018-02-25T09:27:09.999Z</time>
      </trkpt>
      <trkpt lat="46.62516" lon="0.4174">
        <ele>155.05</ele>
        <time>2018-02-25T09:27:11.999Z</time>
      </trkpt>
      <trkpt lat="46.62513" lon="0.41725">
        <ele>152.99</ele>
        <time>2018-02-25T09:27:14.999Z</time>
      </trkpt>
      <trkpt lat="46.62521" lon="0.41717">
        <ele>150.57</ele>
        <time>2018-02-25T09:27:16.999Z</time>
      </trkpt>
      <trkpt lat="46.6253" lon="0.41707">
        <ele>148.96</ele>
        <time>2018-02-25T09:27:18.999Z</time>
      </trkpt>
      <trkpt lat="46.62539" lon="0.41697">
        <ele>147.35</ele>
        <time>2018-02-25T09:27:20.999Z</time>
      </trkpt>
      <trkpt lat="46.6255" lon="0.41686">
        <ele>146.54</ele>
        <time>2018-02-25T09:27:23.999Z</time>
      </trkpt>
      <trkpt lat="46.62556" lon="0.41667">
        <ele>144.03</ele>
        <time>2018-02-25T09:27:26.999Z</time>
      </trkpt>
      <trkpt lat="46.62555" lon="0.41652">
        <ele>142.86</ele>
        <time>2018-02-25T09:27:28.999Z</time>
      </trkpt>
      <trkpt lat="46.62551" lon="0.41638">
        <ele>142.76</ele>
        <time>2018-02-25T09:27:30.999Z</time>
      </trkpt>
      <trkpt lat="46.62546" lon="0.41624">
        <ele>142.73</ele>
        <time>2018-02-25T09:27:32.999Z</time>
      </trkpt>
      <trkpt lat="46.62539" lon="0.41608">
        <ele>143.53</ele>
        <time>2018-02-25T09:27:34.999Z</time>
      </trkpt>
      <trkpt lat="46.62533" lon="0.41593">
        <ele>144.33</ele>
        <time>2018-02-25T09:27:36.999Z</time>
      </trkpt>
      <trkpt lat="46.62528" lon="0.41579">
        <ele>145.1</ele>
        <time>2018-02-25T09:27:38.999Z</time>
      </trkpt>
      <trkpt lat="46.62519" lon="0.41565">
        <ele>146.85</ele>
        <time>2018-02-25T09:27:41.999Z</time>
      </trkpt>
      <trkpt lat="46.62513" lon="0.41553">
        <ele>148.26</ele>
        <time>2018-02-25T09:27:43.999Z</time>
      </trkpt>
      <trkpt lat="46.62505" lon="0.41537">
        <ele>148.98</ele>
        <time>2018-02-25T09:27:45.999Z</time>
      </trkpt>
      <trkpt lat="46.62499" lon="0.41521">
        <ele>148.98</ele>
        <time>2018-02-25T09:27:47.999Z</time>
      </trkpt>
      <trkpt lat="46.62494" lon="0.41506">
        <ele>149.02</ele>
        <time>2018-02-25T09:27:50.999Z</time>
      </trkpt>
      <trkpt lat="46.62487" lon="0.41494">
        <ele>149.01</ele>
        <time>2018-02-25T09:27:52.999Z</time>
      </trkpt>
      <trkpt lat="46.62483" lon="0.4148">
        <ele>149.36</ele>
        <time>2018-02-25T09:27:54.999Z</time>
      </trkpt>
      <trkpt lat="46.62477" lon="0.41466">
        <ele>149.92</ele>
        <time>2018-02-25T09:27:56.999Z</time>
      </trkpt>
      <trkpt lat="46.62472" lon="0.4145">
        <ele>149.57</ele>
        <time>2018-02-25T09:27:58.999Z</time>
      </trkpt>
      <trkpt lat="46.62461" lon="0.41436">
        <ele>149.47</ele>
        <time>2018-02-25T09:28:00.999Z</time>
      </trkpt>
      <trkpt lat="46.62454" lon="0.41423">
        <ele>148.49</ele>
        <time>2018-02-25T09:28:02.999Z</time>
      </trkpt>
      <trkpt lat="46.62448" lon="0.41404">
        <ele>148.73</ele>
        <time>2018-02-25T09:28:05.999Z</time>
      </trkpt>
      <trkpt lat="46.62448" lon="0.41386">
        <ele>148.76</ele>
        <time>2018-02-25T09:28:07.999Z</time>
      </trkpt>
      <trkpt lat="46.62439" lon="0.41373">
        <ele>148.67</ele>
        <time>2018-02-25T09:28:09.999Z</time>
      </trkpt>
      <trkpt lat="46.62432" lon="0.41361">
        <ele>148.54</ele>
        <time>2018-02-25T09:28:11.999Z</time>
      </trkpt>
      <trkpt lat="46.62424" lon="0.41352">
        <ele>147.56</ele>
        <time>2018-02-25T09:28:13.999Z</time>
      </trkpt>
      <trkpt lat="46.62418" lon="0.41341">
        <ele>147.42</ele>
        <time>2018-02-25T09:28:15.999Z</time>
      </trkpt>
      <trkpt lat="46.62413" lon="0.4133">
        <ele>147.22</ele>
        <time>2018-02-25T09:28:18.999Z</time>
      </trkpt>
      <trkpt lat="46.62405" lon="0.41316">
        <ele>147.06</ele>
        <time>2018-02-25T09:28:21.999Z</time>
      </trkpt>
      <trkpt lat="46.62399" lon="0.41299">
        <ele>147.13</ele>
        <time>2018-02-25T09:28:23.999Z</time>
      </trkpt>
      <trkpt lat="46.62393" lon="0.41288">
        <ele>147.22</ele>
        <time>2018-02-25T09:28:26.999Z</time>
      </trkpt>
      <trkpt lat="46.62387" lon="0.41277">
        <ele>147.2</ele>
        <time>2018-02-25T09:28:29.999Z</time>
      </trkpt>
      <trkpt lat="46.62382" lon="0.41266">
        <ele>147.14</ele>
        <time>2018-02-25T09:28:31.999Z</time>
      </trkpt>
      <trkpt lat="46.62376" lon="0.41254">
        <ele>147.05</ele>
        <time>2018-02-25T09:28:34.999Z</time>
      </trkpt>
      <trkpt lat="46.62371" lon="0.41244">
        <ele>147.04</ele>
        <time>2018-02-25T09:28:36.999Z</time>
      </trkpt>
      <trkpt lat="46.62367" lon="0.41231">
        <ele>147.07</ele>
        <time>2018-02-25T09:28:39.999Z</time>
      </trkpt>
      <trkpt lat="46.62362" lon="0.41219">
        <ele>147.1</ele>
        <time>2018-02-25T09:28:42.999Z</time>
      </trkpt>
      <trkpt lat="46.62357" lon="0.41205">
        <ele>147.2</ele>
        <time>2018-02-25T09:28:45.999Z</time>
      </trkpt>
      <trkpt lat="46.62353" lon="0.41192">
        <ele>147.47</ele>
        <time>2018-02-25T09:28:49.999Z</time>
      </trkpt>
      <trkpt lat="46.62351" lon="0.41179">
        <ele>147.82</ele>
        <time>2018-02-25T09:28:54.999Z</time>
      </trkpt>
      <trkpt lat="46.62343" lon="0.41192">
        <ele>147.37</ele>
        <time>2018-02-25T09:29:05.999Z</time>
      </trkpt>
      <trkpt lat="46.62336" lon="0.41207">
        <ele>146.99</ele>
        <time>2018-02-25T09:29:08.999Z</time>
      </trkpt>
      <trkpt lat="46.62331" lon="0.41218">
        <ele>146.74</ele>
        <time>2018-02-25T09:29:10.999Z</time>
      </trkpt>
      <trkpt lat="46.62325" lon="0.41235">
        <ele>144.24</ele>
        <time>2018-02-25T09:29:13.999Z</time>
      </trkpt>
      <trkpt lat="46.6232" lon="0.41249">
        <ele>143.92</ele>
        <time>2018-02-25T09:29:16.999Z</time>
      </trkpt>
      <trkpt lat="46.62315" lon="0.41262">
        <ele>143.65</ele>
        <time>2018-02-25T09:29:19.999Z</time>
      </trkpt>
      <trkpt lat="46.62311" lon="0.41276">
        <ele>143.41</ele>
        <time>2018-02-25T09:29:22.999Z</time>
      </trkpt>
      <trkpt lat="46.62308" lon="0.41289">
        <ele>143.3</ele>
        <time>2018-02-25T09:29:25.999Z</time>
      </trkpt>
      <trkpt lat="46.62305" lon="0.41302">
        <ele>143.23</ele>
        <time>2018-02-25T09:29:29.999Z</time>
      </trkpt>
      <trkpt lat="46.62302" lon="0.41316">
        <ele>143.37</ele>
        <time>2018-02-25T09:29:34.999Z</time>
      </trkpt>
      <trkpt lat="46.62299" lon="0.41331">
        <ele>143.77</ele>
        <time>2018-02-25T09:29:39.999Z</time>
      </trkpt>
      <trkpt lat="46.62297" lon="0.41344">
        <ele>144.26</ele>
        <time>2018-02-25T09:29:43.999Z</time>
      </trkpt>
      <trkpt lat="46.62294" lon="0.4136">
        <ele>144.96</ele>
        <time>2018-02-25T09:29:48.999Z</time>
      </trkpt>
      <trkpt lat="46.62293" lon="0.41374">
        <ele>145.56</ele>
        <time>2018-02-25T09:29:52.999Z</time>
      </trkpt>
      <trkpt lat="46.62291" lon="0.41389">
        <ele>146.19</ele>
        <time>2018-02-25T09:29:56.999Z</time>
      </trkpt>
      <trkpt lat="46.62288" lon="0.41404">
        <ele>147.02</ele>
        <time>2018-02-25T09:30:01.999Z</time>
      </trkpt>
      <trkpt lat="46.62286" lon="0.41418">
        <ele>147.66</ele>
        <time>2018-02-25T09:30:05.999Z</time>
      </trkpt>
      <trkpt lat="46.62285" lon="0.41436">
        <ele>148.2</ele>
        <time>2018-02-25T09:30:09.999Z</time>
      </trkpt>
      <trkpt lat="46.62284" lon="0.41453">
        <ele>148.58</ele>
        <time>2018-02-25T09:30:13.999Z</time>
      </trkpt>
      <trkpt lat="46.62282" lon="0.41467">
        <ele>148.93</ele>
        <time>2018-02-25T09:30:16.999Z</time>
      </trkpt>
      <trkpt lat="46.62283" lon="0.41481">
        <ele>149.44</ele>
        <time>2018-02-25T09:30:19.999Z</time>
      </trkpt>
      <trkpt lat="46.62283" lon="0.41497">
        <ele>153.07</ele>
        <time>2018-02-25T09:30:22.999Z</time>
      </trkpt>
      <trkpt lat="46.62283" lon="0.41513">
        <ele>155.09</ele>
        <time>2018-02-25T09:30:25.999Z</time>
      </trkpt>
      <trkpt lat="46.62282" lon="0.4153">
        <ele>156.04</ele>
        <time>2018-02-25T09:30:28.999Z</time>
      </trkpt>
      <trkpt lat="46.62281" lon="0.41544">
        <ele>155.22</ele>
        <time>2018-02-25T09:30:30.999Z</time>
      </trkpt>
      <trkpt lat="46.6228" lon="0.41561">
        <ele>153.21</ele>
        <time>2018-02-25T09:30:33.999Z</time>
      </trkpt>
      <trkpt lat="46.62279" lon="0.4158">
        <ele>152.01</ele>
        <time>2018-02-25T09:30:36.999Z</time>
      </trkpt>
      <trkpt lat="46.62277" lon="0.41595">
        <ele>151.56</ele>
        <time>2018-02-25T09:30:38.999Z</time>
      </trkpt>
      <trkpt lat="46.62275" lon="0.41609">
        <ele>151.25</ele>
        <time>2018-02-25T09:30:40.999Z</time>
      </trkpt>
      <trkpt lat="46.62277" lon="0.41625">
        <ele>150.84</ele>
        <time>2018-02-25T09:30:42.999Z</time>
      </trkpt>
      <trkpt lat="46.62275" lon="0.41638">
        <ele>150.05</ele>
        <time>2018-02-25T09:30:44.999Z</time>
      </trkpt>
      <trkpt lat="46.6227" lon="0.41655">
        <ele>146.29</ele>
        <time>2018-02-25T09:30:46.999Z</time>
      </trkpt>
      <trkpt lat="46.62265" lon="0.41667">
        <ele>144.07</ele>
        <time>2018-02-25T09:30:47.999Z</time>
      </trkpt>
      <trkpt lat="46.62263" lon="0.41683">
        <ele>141.99</ele>
        <time>2018-02-25T09:30:48.999Z</time>
      </trkpt>
      <trkpt lat="46.6226" lon="0.41697">
        <ele>140.4</ele>
        <time>2018-02-25T09:30:49.999Z</time>
      </trkpt>
      <trkpt lat="46.62256" lon="0.41709">
        <ele>139.31</ele>
        <time>2018-02-25T09:30:50.999Z</time>
      </trkpt>
      <trkpt lat="46.62249" lon="0.41728">
        <ele>137.65</ele>
        <time>2018-02-25T09:30:52.999Z</time>
      </trkpt>
      <trkpt lat="46.62243" lon="0.41739">
        <ele>137.45</ele>
        <time>2018-02-25T09:30:55.999Z</time>
      </trkpt>
      <trkpt lat="46.62238" lon="0.4175">
        <ele>137.72</ele>
        <time>2018-02-25T09:31:03.999Z</time>
      </trkpt>
      <trkpt lat="46.62232" lon="0.41761">
        <ele>139.9</ele>
        <time>2018-02-25T09:31:14.999Z</time>
      </trkpt>
      <trkpt lat="46.62227" lon="0.41775">
        <ele>141.93</ele>
        <time>2018-02-25T09:31:22.999Z</time>
      </trkpt>
      <trkpt lat="46.62223" lon="0.41787">
        <ele>142.62</ele>
        <time>2018-02-25T09:31:25.999Z</time>
      </trkpt>
      <trkpt lat="46.62218" lon="0.41801">
        <ele>143.27</ele>
        <time>2018-02-25T09:31:30.999Z</time>
      </trkpt>
      <trkpt lat="46.62214" lon="0.41814">
        <ele>143.98</ele>
        <time>2018-02-25T09:31:40.999Z</time>
      </trkpt>
      <trkpt lat="46.62212" lon="0.41827">
        <ele>145.24</ele>
        <time>2018-02-25T09:31:48.999Z</time>
      </trkpt>
      <trkpt lat="46.6221" lon="0.41841">
        <ele>146.64</ele>
        <time>2018-02-25T09:31:56.999Z</time>
      </trkpt>
      <trkpt lat="46.62207" lon="0.41854">
        <ele>147.77</ele>
        <time>2018-02-25T09:32:02.999Z</time>
      </trkpt>
      <trkpt lat="46.62205" lon="0.41868">
        <ele>149.1</ele>
        <time>2018-02-25T09:32:09.999Z</time>
      </trkpt>
      <trkpt lat="46.62199" lon="0.41878">
        <ele>149.95</ele>
        <time>2018-02-25T09:32:14.999Z</time>
      </trkpt>
      <trkpt lat="46.62196" lon="0.41893">
        <ele>150.65</ele>
        <time>2018-02-25T09:32:19.999Z</time>
      </trkpt>
      <trkpt lat="46.62192" lon="0.41907">
        <ele>151.06</ele>
        <time>2018-02-25T09:32:23.999Z</time>
      </trkpt>
      <trkpt lat="46.62188" lon="0.41919">
        <ele>151.6</ele>
        <time>2018-02-25T09:32:28.999Z</time>
      </trkpt>
      <trkpt lat="46.62185" lon="0.41932">
        <ele>152.01</ele>
        <time>2018-02-25T09:32:33.999Z</time>
      </trkpt>
      <trkpt lat="46.6218" lon="0.41947">
        <ele>152.61</ele>
        <time>2018-02-25T09:32:38.999Z</time>
      </trkpt>
      <trkpt lat="46.62175" lon="0.4196">
        <ele>153.35</ele>
        <time>2018-02-25T09:32:42.999Z</time>
      </trkpt>
      <trkpt lat="46.62169" lon="0.41975">
        <ele>154.08</ele>
        <time>2018-02-25T09:32:46.999Z</time>
      </trkpt>
      <trkpt lat="46.62167" lon="0.4199">
        <ele>154.74</ele>
        <time>2018-02-25T09:32:50.999Z</time>
      </trkpt>
      <trkpt lat="46.62165" lon="0.42006">
        <ele>155.4</ele>
        <time>2018-02-25T09:32:54.999Z</time>
      </trkpt>
      <trkpt lat="46.62163" lon="0.4202">
        <ele>155.81</ele>
        <time>2018-02-25T09:32:57.999Z</time>
      </trkpt>
      <trkpt lat="46.62161" lon="0.42032">
        <ele>156.2</ele>
        <time>2018-02-25T09:33:00.999Z</time>
      </trkpt>
      <trkpt lat="46.62155" lon="0.42048">
        <ele>157.69</ele>
        <time>2018-02-25T09:33:03.999Z</time>
      </trkpt>
      <trkpt lat="46.6215" lon="0.42061">
        <ele>158.13</ele>
        <time>2018-02-25T09:33:06.999Z</time>
      </trkpt>
      <trkpt lat="46.62145" lon="0.42077">
        <ele>159.28</ele>
        <time>2018-02-25T09:33:11.999Z</time>
      </trkpt>
      <trkpt lat="46.6214" lon="0.42093">
        <ele>159.8</ele>
        <time>2018-02-25T09:33:14.999Z</time>
      </trkpt>
      <trkpt lat="46.62137" lon="0.42106">
        <ele>160.29</ele>
        <time>2018-02-25T09:33:18.999Z</time>
      </trkpt>
      <trkpt lat="46.62132" lon="0.42118">
        <ele>160.63</ele>
        <time>2018-02-25T09:33:21.999Z</time>
      </trkpt>
      <trkpt lat="46.62125" lon="0.42131">
        <ele>160.78</ele>
        <time>2018-02-25T09:33:24.999Z</time>
      </trkpt>
      <trkpt lat="46.6212" lon="0.42147">
        <ele>160.82</ele>
        <time>2018-02-25T09:33:28.999Z</time>
      </trkpt>
      <trkpt lat="46.62112" lon="0.42157">
        <ele>160.93</ele>
        <time>2018-02-25T09:33:32.999Z</time>
      </trkpt>
      <trkpt lat="46.62104" lon="0.4216">
        <ele>161.54</ele>
        <time>2018-02-25T09:33:38.999Z</time>
      </trkpt>
      <trkpt lat="46.62098" lon="0.42144">
        <ele>162.99</ele>
        <time>2018-02-25T09:33:42.999Z</time>
      </trkpt>
      <trkpt lat="46.62093" lon="0.4213">
        <ele>164.42</ele>
        <time>2018-02-25T09:33:44.999Z</time>
      </trkpt>
      <trkpt lat="46.62088" lon="0.42115">
        <ele>164.12</ele>
        <time>2018-02-25T09:33:46.999Z</time>
      </trkpt>
      <trkpt lat="46.62081" lon="0.42099">
        <ele>163.38</ele>
        <time>2018-02-25T09:33:48.999Z</time>
      </trkpt>
      <trkpt lat="46.62071" lon="0.42082">
        <ele>162.72</ele>
        <time>2018-02-25T09:33:50.999Z</time>
      </trkpt>
      <trkpt lat="46.62061" lon="0.42062">
        <ele>161.56</ele>
        <time>2018-02-25T09:33:52.999Z</time>
      </trkpt>
      <trkpt lat="46.6205" lon="0.42044">
        <ele>160.27</ele>
        <time>2018-02-25T09:33:54.999Z</time>
      </trkpt>
      <trkpt lat="46.6204" lon="0.42025">
        <ele>158.62</ele>
        <time>2018-02-25T09:33:56.999Z</time>
      </trkpt>
      <trkpt lat="46.62029" lon="0.42009">
        <ele>157.2</ele>
        <time>2018-02-25T09:33:58.999Z</time>
      </trkpt>
      <trkpt lat="46.6202" lon="0.41994">
        <ele>156.05</ele>
        <time>2018-02-25T09:34:00.999Z</time>
      </trkpt>
      <trkpt lat="46.62011" lon="0.41982">
        <ele>155.35</ele>
        <time>2018-02-25T09:34:02.999Z</time>
      </trkpt>
      <trkpt lat="46.62" lon="0.4197">
        <ele>154.29</ele>
        <time>2018-02-25T09:34:04.999Z</time>
      </trkpt>
      <trkpt lat="46.61989" lon="0.41954">
        <ele>154.49</ele>
        <time>2018-02-25T09:34:06.999Z</time>
      </trkpt>
      <trkpt lat="46.61979" lon="0.41938">
        <ele>154.63</ele>
        <time>2018-02-25T09:34:08.999Z</time>
      </trkpt>
      <trkpt lat="46.61968" lon="0.41923">
        <ele>154.9</ele>
        <time>2018-02-25T09:34:10.999Z</time>
      </trkpt>
      <trkpt lat="46.6196" lon="0.41907">
        <ele>155.17</ele>
        <time>2018-02-25T09:34:12.999Z</time>
      </trkpt>
      <trkpt lat="46.61954" lon="0.41889">
        <ele>155.22</ele>
        <time>2018-02-25T09:34:14.999Z</time>
      </trkpt>
      <trkpt lat="46.61955" lon="0.41871">
        <ele>155.19</ele>
        <time>2018-02-25T09:34:16.999Z</time>
      </trkpt>
      <trkpt lat="46.61958" lon="0.41851">
        <ele>154.92</ele>
        <time>2018-02-25T09:34:18.999Z</time>
      </trkpt>
      <trkpt lat="46.61961" lon="0.4183">
        <ele>154.45</ele>
        <time>2018-02-25T09:34:20.999Z</time>
      </trkpt>
      <trkpt lat="46.61964" lon="0.41807">
        <ele>153.84</ele>
        <time>2018-02-25T09:34:22.999Z</time>
      </trkpt>
      <trkpt lat="46.61968" lon="0.41784">
        <ele>153.05</ele>
        <time>2018-02-25T09:34:24.999Z</time>
      </trkpt>
      <trkpt lat="46.61971" lon="0.41762">
        <ele>152.18</ele>
        <time>2018-02-25T09:34:26.999Z</time>
      </trkpt>
      <trkpt lat="46.61972" lon="0.41742">
        <ele>151.31</ele>
        <time>2018-02-25T09:34:28.999Z</time>
      </trkpt>
      <trkpt lat="46.61969" lon="0.41723">
        <ele>150.27</ele>
        <time>2018-02-25T09:34:30.999Z</time>
      </trkpt>
      <trkpt lat="46.61964" lon="0.41705">
        <ele>149.17</ele>
        <time>2018-02-25T09:34:32.999Z</time>
      </trkpt>
      <trkpt lat="46.61958" lon="0.41685">
        <ele>148.06</ele>
        <time>2018-02-25T09:34:34.999Z</time>
      </trkpt>
      <trkpt lat="46.61952" lon="0.41664">
        <ele>147.03</ele>
        <time>2018-02-25T09:34:36.999Z</time>
      </trkpt>
      <trkpt lat="46.61945" lon="0.41642">
        <ele>146.07</ele>
        <time>2018-02-25T09:34:38.999Z</time>
      </trkpt>
      <trkpt lat="46.61941" lon="0.41629">
        <ele>145.66</ele>
        <time>2018-02-25T09:34:39.999Z</time>
      </trkpt>
      <trkpt lat="46.61938" lon="0.41617">
        <ele>145.27</ele>
        <time>2018-02-25T09:34:40.999Z</time>
      </trkpt>
      <trkpt lat="46.61935" lon="0.41604">
        <ele>144.94</ele>
        <time>2018-02-25T09:34:41.999Z</time>
      </trkpt>
      <trkpt lat="46.61933" lon="0.41591">
        <ele>144.58</ele>
        <time>2018-02-25T09:34:42.999Z</time>
      </trkpt>
      <trkpt lat="46.61927" lon="0.41568">
        <ele>143.7</ele>
        <time>2018-02-25T09:34:45.000Z</time>
      </trkpt>
      <trkpt lat="46.61922" lon="0.41548">
        <ele>142.84</ele>
        <time>2018-02-25T09:34:47.000Z</time>
      </trkpt>
      <trkpt lat="46.61917" lon="0.41535">
        <ele>142.16</ele>
        <time>2018-02-25T09:34:49.000Z</time>
      </trkpt>
      <trkpt lat="46.61912" lon="0.41519">
        <ele>141.72</ele>
        <time>2018-02-25T09:34:52.000Z</time>
      </trkpt>
      <trkpt lat="46.61907" lon="0.41507">
        <ele>141.58</ele>
        <time>2018-02-25T09:34:56.000Z</time>
      </trkpt>
      <trkpt lat="46.61904" lon="0.41495">
        <ele>141.47</ele>
        <time>2018-02-25T09:35:03.000Z</time>
      </trkpt>
      <trkpt lat="46.619" lon="0.4148">
        <ele>143.19</ele>
        <time>2018-02-25T09:35:15.000Z</time>
      </trkpt>
      <trkpt lat="46.61896" lon="0.41465">
        <ele>145.56</ele>
        <time>2018-02-25T09:35:24.000Z</time>
      </trkpt>
      <trkpt lat="46.61892" lon="0.41452">
        <ele>147.09</ele>
        <time>2018-02-25T09:35:30.000Z</time>
      </trkpt>
      <trkpt lat="46.61889" lon="0.41439">
        <ele>148.79</ele>
        <time>2018-02-25T09:35:37.000Z</time>
      </trkpt>
      <trkpt lat="46.61885" lon="0.41426">
        <ele>149.84</ele>
        <time>2018-02-25T09:35:43.000Z</time>
      </trkpt>
      <trkpt lat="46.6188" lon="0.41414">
        <ele>150.76</ele>
        <time>2018-02-25T09:35:51.000Z</time>
      </trkpt>
      <trkpt lat="46.61872" lon="0.41405">
        <ele>151.43</ele>
        <time>2018-02-25T09:35:58.000Z</time>
      </trkpt>
      <trkpt lat="46.61865" lon="0.41396">
        <ele>152.15</ele>
        <time>2018-02-25T09:36:06.000Z</time>
      </trkpt>
      <trkpt lat="46.61856" lon="0.41404">
        <ele>152.75</ele>
        <time>2018-02-25T09:36:12.000Z</time>
      </trkpt>
      <trkpt lat="46.61851" lon="0.41418">
        <ele>153.37</ele>
        <time>2018-02-25T09:36:17.000Z</time>
      </trkpt>
      <trkpt lat="46.61846" lon="0.41431">
        <ele>154.02</ele>
        <time>2018-02-25T09:36:22.000Z</time>
      </trkpt>
      <trkpt lat="46.6184" lon="0.41444">
        <ele>154.54</ele>
        <time>2018-02-25T09:36:27.000Z</time>
      </trkpt>
      <trkpt lat="46.61836" lon="0.41458">
        <ele>154.79</ele>
        <time>2018-02-25T09:36:30.000Z</time>
      </trkpt>
      <trkpt lat="46.61831" lon="0.41475">
        <ele>156.53</ele>
        <time>2018-02-25T09:36:33.000Z</time>
      </trkpt>
      <trkpt lat="46.61828" lon="0.4149">
        <ele>156.87</ele>
        <time>2018-02-25T09:36:35.000Z</time>
      </trkpt>
      <trkpt lat="46.61824" lon="0.41504">
        <ele>156.72</ele>
        <time>2018-02-25T09:36:37.000Z</time>
      </trkpt>
      <trkpt lat="46.61821" lon="0.4152">
        <ele>155.92</ele>
        <time>2018-02-25T09:36:39.000Z</time>
      </trkpt>
      <trkpt lat="46.61817" lon="0.41536">
        <ele>154.96</ele>
        <time>2018-02-25T09:36:41.000Z</time>
      </trkpt>
      <trkpt lat="46.61813" lon="0.41552">
        <ele>153.84</ele>
        <time>2018-02-25T09:36:43.000Z</time>
      </trkpt>
      <trkpt lat="46.61807" lon="0.41569">
        <ele>152.7</ele>
        <time>2018-02-25T09:36:45.000Z</time>
      </trkpt>
      <trkpt lat="46.61802" lon="0.41585">
        <ele>151.49</ele>
        <time>2018-02-25T09:36:47.000Z</time>
      </trkpt>
      <trkpt lat="46.61796" lon="0.41602">
        <ele>150.25</ele>
        <time>2018-02-25T09:36:49.000Z</time>
      </trkpt>
      <trkpt lat="46.61791" lon="0.41618">
        <ele>149.33</ele>
        <time>2018-02-25T09:36:51.000Z</time>
      </trkpt>
      <trkpt lat="46.61787" lon="0.41634">
        <ele>148.43</ele>
        <time>2018-02-25T09:36:53.000Z</time>
      </trkpt>
      <trkpt lat="46.61783" lon="0.41648">
        <ele>148.05</ele>
        <time>2018-02-25T09:36:55.000Z</time>
      </trkpt>
      <trkpt lat="46.61777" lon="0.41665">
        <ele>147.72</ele>
        <time>2018-02-25T09:36:57.000Z</time>
      </trkpt>
      <trkpt lat="46.61773" lon="0.4168">
        <ele>147.25</ele>
        <time>2018-02-25T09:36:59.000Z</time>
      </trkpt>
      <trkpt lat="46.61768" lon="0.41695">
        <ele>146.91</ele>
        <time>2018-02-25T09:37:01.000Z</time>
      </trkpt>
      <trkpt lat="46.61762" lon="0.41708">
        <ele>146.57</ele>
        <time>2018-02-25T09:37:03.000Z</time>
      </trkpt>
      <trkpt lat="46.61755" lon="0.41724">
        <ele>147.8</ele>
        <time>2018-02-25T09:37:06.000Z</time>
      </trkpt>
      <trkpt lat="46.61744" lon="0.41733">
        <ele>147.98</ele>
        <time>2018-02-25T09:37:09.000Z</time>
      </trkpt>
      <trkpt lat="46.61735" lon="0.41732">
        <ele>148.13</ele>
        <time>2018-02-25T09:37:14.000Z</time>
      </trkpt>
      <trkpt lat="46.61727" lon="0.41725">
        <ele>148.3</ele>
        <time>2018-02-25T09:37:17.000Z</time>
      </trkpt>
      <trkpt lat="46.61719" lon="0.41717">
        <ele>148.49</ele>
        <time>2018-02-25T09:37:20.000Z</time>
      </trkpt>
      <trkpt lat="46.6171" lon="0.41708">
        <ele>149.32</ele>
        <time>2018-02-25T09:37:23.000Z</time>
      </trkpt>
      <trkpt lat="46.61701" lon="0.417">
        <ele>149.52</ele>
        <time>2018-02-25T09:37:26.000Z</time>
      </trkpt>
      <trkpt lat="46.61692" lon="0.41693">
        <ele>149.74</ele>
        <time>2018-02-25T09:37:29.000Z</time>
      </trkpt>
      <trkpt lat="46.61683" lon="0.41684">
        <ele>150.07</ele>
        <time>2018-02-25T09:37:33.000Z</time>
      </trkpt>
      <trkpt lat="46.61675" lon="0.41678">
        <ele>150.34</ele>
        <time>2018-02-25T09:37:36.000Z</time>
      </trkpt>
      <trkpt lat="46.61666" lon="0.41673">
        <ele>150.65</ele>
        <time>2018-02-25T09:37:39.000Z</time>
      </trkpt>
      <trkpt lat="46.61657" lon="0.41665">
        <ele>150.96</ele>
        <time>2018-02-25T09:37:42.000Z</time>
      </trkpt>
      <trkpt lat="46.61648" lon="0.41658">
        <ele>151.29</ele>
        <time>2018-02-25T09:37:45.000Z</time>
      </trkpt>
      <trkpt lat="46.61639" lon="0.41652">
        <ele>151.56</ele>
        <time>2018-02-25T09:37:48.000Z</time>
      </trkpt>
      <trkpt lat="46.6163" lon="0.41644">
        <ele>152.74</ele>
        <time>2018-02-25T09:37:51.000Z</time>
      </trkpt>
      <trkpt lat="46.61621" lon="0.41636">
        <ele>153.02</ele>
        <time>2018-02-25T09:37:54.000Z</time>
      </trkpt>
      <trkpt lat="46.6161" lon="0.41634">
        <ele>154.33</ele>
        <time>2018-02-25T09:37:57.000Z</time>
      </trkpt>
      <trkpt lat="46.616" lon="0.41624">
        <ele>157</ele>
        <time>2018-02-25T09:38:00.000Z</time>
      </trkpt>
      <trkpt lat="46.6159" lon="0.41615">
        <ele>157.58</ele>
        <time>2018-02-25T09:38:03.000Z</time>
      </trkpt>
      <trkpt lat="46.6158" lon="0.41607">
        <ele>158.28</ele>
        <time>2018-02-25T09:38:06.000Z</time>
      </trkpt>
      <trkpt lat="46.61569" lon="0.41599">
        <ele>158.37</ele>
        <time>2018-02-25T09:38:09.000Z</time>
      </trkpt>
      <trkpt lat="46.61559" lon="0.41591">
        <ele>158.66</ele>
        <time>2018-02-25T09:38:12.000Z</time>
      </trkpt>
      <trkpt lat="46.61549" lon="0.41583">
        <ele>158.91</ele>
        <time>2018-02-25T09:38:15.000Z</time>
      </trkpt>
      <trkpt lat="46.61538" lon="0.41577">
        <ele>159.54</ele>
        <time>2018-02-25T09:38:18.000Z</time>
      </trkpt>
      <trkpt lat="46.61527" lon="0.4157">
        <ele>159.88</ele>
        <time>2018-02-25T09:38:21.000Z</time>
      </trkpt>
      <trkpt lat="46.61515" lon="0.41562">
        <ele>160.1</ele>
        <time>2018-02-25T09:38:24.000Z</time>
      </trkpt>
      <trkpt lat="46.61504" lon="0.41553">
        <ele>160.14</ele>
        <time>2018-02-25T09:38:27.000Z</time>
      </trkpt>
      <trkpt lat="46.61493" lon="0.41544">
        <ele>160.51</ele>
        <time>2018-02-25T09:38:30.000Z</time>
      </trkpt>
      <trkpt lat="46.61482" lon="0.41532">
        <ele>160.76</ele>
        <time>2018-02-25T09:38:33.000Z</time>
      </trkpt>
      <trkpt lat="46.61471" lon="0.41521">
        <ele>160.98</ele>
        <time>2018-02-25T09:38:36.000Z</time>
      </trkpt>
      <trkpt lat="46.61462" lon="0.41513">
        <ele>161.23</ele>
        <time>2018-02-25T09:38:39.000Z</time>
      </trkpt>
      <trkpt lat="46.61452" lon="0.41509">
        <ele>161.27</ele>
        <time>2018-02-25T09:38:42.000Z</time>
      </trkpt>
      <trkpt lat="46.61442" lon="0.41519">
        <ele>161.34</ele>
        <time>2018-02-25T09:38:45.000Z</time>
      </trkpt>
      <trkpt lat="46.61437" lon="0.4153">
        <ele>161.41</ele>
        <time>2018-02-25T09:38:48.000Z</time>
      </trkpt>
      <trkpt lat="46.6143" lon="0.41543">
        <ele>161.49</ele>
        <time>2018-02-25T09:38:51.000Z</time>
      </trkpt>
      <trkpt lat="46.61424" lon="0.41553">
        <ele>161.64</ele>
        <time>2018-02-25T09:38:54.000Z</time>
      </trkpt>
      <trkpt lat="46.61417" lon="0.41565">
        <ele>161.87</ele>
        <time>2018-02-25T09:38:57.000Z</time>
      </trkpt>
      <trkpt lat="46.6141" lon="0.41578">
        <ele>162.83</ele>
        <time>2018-02-25T09:39:00.000Z</time>
      </trkpt>
      <trkpt lat="46.61402" lon="0.4159">
        <ele>163.81</ele>
        <time>2018-02-25T09:39:03.000Z</time>
      </trkpt>
      <trkpt lat="46.61393" lon="0.41603">
        <ele>164.9</ele>
        <time>2018-02-25T09:39:06.000Z</time>
      </trkpt>
      <trkpt lat="46.61385" lon="0.41617">
        <ele>165.88</ele>
        <time>2018-02-25T09:39:09.000Z</time>
      </trkpt>
      <trkpt lat="46.61377" lon="0.41631">
        <ele>166.64</ele>
        <time>2018-02-25T09:39:12.000Z</time>
      </trkpt>
      <trkpt lat="46.61369" lon="0.41644">
        <ele>166.7</ele>
        <time>2018-02-25T09:39:15.000Z</time>
      </trkpt>
      <trkpt lat="46.61363" lon="0.41657">
        <ele>166.22</ele>
        <time>2018-02-25T09:39:18.000Z</time>
      </trkpt>
      <trkpt lat="46.61356" lon="0.41669">
        <ele>166.15</ele>
        <time>2018-02-25T09:39:21.000Z</time>
      </trkpt>
      <trkpt lat="46.61353" lon="0.41681">
        <ele>166.11</ele>
        <time>2018-02-25T09:39:24.000Z</time>
      </trkpt>
      <trkpt lat="46.61347" lon="0.41696">
        <ele>166.06</ele>
        <time>2018-02-25T09:39:27.000Z</time>
      </trkpt>
      <trkpt lat="46.61342" lon="0.41709">
        <ele>166.01</ele>
        <time>2018-02-25T09:39:30.000Z</time>
      </trkpt>
      <trkpt lat="46.61336" lon="0.41725">
        <ele>165.88</ele>
        <time>2018-02-25T09:39:33.000Z</time>
      </trkpt>
      <trkpt lat="46.61327" lon="0.41741">
        <ele>165.73</ele>
        <time>2018-02-25T09:39:36.000Z</time>
      </trkpt>
      <trkpt lat="46.61321" lon="0.41754">
        <ele>165.65</ele>
        <time>2018-02-25T09:39:39.000Z</time>
      </trkpt>
      <trkpt lat="46.61316" lon="0.41766">
        <ele>165.55</ele>
        <time>2018-02-25T09:39:43.000Z</time>
      </trkpt>
      <trkpt lat="46.61311" lon="0.41779">
        <ele>165.3</ele>
        <time>2018-02-25T09:39:46.000Z</time>
      </trkpt>
      <trkpt lat="46.61307" lon="0.41793">
        <ele>165.3</ele>
        <time>2018-02-25T09:39:48.000Z</time>
      </trkpt>
      <trkpt lat="46.61305" lon="0.41809">
        <ele>165.34</ele>
        <time>2018-02-25T09:39:51.000Z</time>
      </trkpt>
      <trkpt lat="46.61303" lon="0.41827">
        <ele>165.21</ele>
        <time>2018-02-25T09:39:54.000Z</time>
      </trkpt>
      <trkpt lat="46.613" lon="0.41841">
        <ele>165.28</ele>
        <time>2018-02-25T09:39:56.000Z</time>
      </trkpt>
      <trkpt lat="46.61297" lon="0.41854">
        <ele>165.01</ele>
        <time>2018-02-25T09:39:58.000Z</time>
      </trkpt>
      <trkpt lat="46.61295" lon="0.41868">
        <ele>164.44</ele>
        <time>2018-02-25T09:40:00.000Z</time>
      </trkpt>
      <trkpt lat="46.61292" lon="0.41883">
        <ele>163.69</ele>
        <time>2018-02-25T09:40:02.000Z</time>
      </trkpt>
      <trkpt lat="46.61289" lon="0.419">
        <ele>163.37</ele>
        <time>2018-02-25T09:40:05.000Z</time>
      </trkpt>
      <trkpt lat="46.61287" lon="0.41916">
        <ele>163.33</ele>
        <time>2018-02-25T09:40:08.000Z</time>
      </trkpt>
      <trkpt lat="46.61284" lon="0.41933">
        <ele>162.86</ele>
        <time>2018-02-25T09:40:11.000Z</time>
      </trkpt>
      <trkpt lat="46.6128" lon="0.41949">
        <ele>162.84</ele>
        <time>2018-02-25T09:40:14.000Z</time>
      </trkpt>
      <trkpt lat="46.61275" lon="0.41965">
        <ele>162.51</ele>
        <time>2018-02-25T09:40:17.000Z</time>
      </trkpt>
      <trkpt lat="46.61271" lon="0.41979">
        <ele>162.53</ele>
        <time>2018-02-25T09:40:20.000Z</time>
      </trkpt>
      <trkpt lat="46.61267" lon="0.41996">
        <ele>162.59</ele>
        <time>2018-02-25T09:40:23.000Z</time>
      </trkpt>
      <trkpt lat="46.61263" lon="0.42011">
        <ele>162.53</ele>
        <time>2018-02-25T09:40:26.000Z</time>
      </trkpt>
      <trkpt lat="46.61259" lon="0.42029">
        <ele>162.2</ele>
        <time>2018-02-25T09:40:29.000Z</time>
      </trkpt>
      <trkpt lat="46.61255" lon="0.42044">
        <ele>161.68</ele>
        <time>2018-02-25T09:40:32.000Z</time>
      </trkpt>
      <trkpt lat="46.61253" lon="0.42058">
        <ele>161.64</ele>
        <time>2018-02-25T09:40:35.000Z</time>
      </trkpt>
      <trkpt lat="46.61251" lon="0.42071">
        <ele>161.68</ele>
        <time>2018-02-25T09:40:38.000Z</time>
      </trkpt>
      <trkpt lat="46.61248" lon="0.42086">
        <ele>161.79</ele>
        <time>2018-02-25T09:40:41.000Z</time>
      </trkpt>
      <trkpt lat="46.61247" lon="0.42101">
        <ele>161.85</ele>
        <time>2018-02-25T09:40:44.000Z</time>
      </trkpt>
      <trkpt lat="46.61245" lon="0.42114">
        <ele>161.91</ele>
        <time>2018-02-25T09:40:47.000Z</time>
      </trkpt>
      <trkpt lat="46.61243" lon="0.4213">
        <ele>162.04</ele>
        <time>2018-02-25T09:40:50.000Z</time>
      </trkpt>
      <trkpt lat="46.61242" lon="0.42145">
        <ele>162.17</ele>
        <time>2018-02-25T09:40:53.000Z</time>
      </trkpt>
      <trkpt lat="46.61241" lon="0.42162">
        <ele>162.51</ele>
        <time>2018-02-25T09:40:57.000Z</time>
      </trkpt>
      <trkpt lat="46.61239" lon="0.42177">
        <ele>162.83</ele>
        <time>2018-02-25T09:41:00.000Z</time>
      </trkpt>
      <trkpt lat="46.61237" lon="0.4219">
        <ele>163.08</ele>
        <time>2018-02-25T09:41:03.000Z</time>
      </trkpt>
      <trkpt lat="46.61236" lon="0.42206">
        <ele>163.28</ele>
        <time>2018-02-25T09:41:06.000Z</time>
      </trkpt>
      <trkpt lat="46.61234" lon="0.42225">
        <ele>163.38</ele>
        <time>2018-02-25T09:41:09.000Z</time>
      </trkpt>
      <trkpt lat="46.61232" lon="0.42239">
        <ele>163.51</ele>
        <time>2018-02-25T09:41:12.000Z</time>
      </trkpt>
      <trkpt lat="46.61226" lon="0.42254">
        <ele>164.24</ele>
        <time>2018-02-25T09:41:17.000Z</time>
      </trkpt>
      <trkpt lat="46.61214" lon="0.42258">
        <ele>164.84</ele>
        <time>2018-02-25T09:41:20.000Z</time>
      </trkpt>
      <trkpt lat="46.61205" lon="0.42262">
        <ele>165.03</ele>
        <time>2018-02-25T09:41:22.000Z</time>
      </trkpt>
      <trkpt lat="46.61196" lon="0.42266">
        <ele>165.46</ele>
        <time>2018-02-25T09:41:24.000Z</time>
      </trkpt>
      <trkpt lat="46.61184" lon="0.42271">
        <ele>165.76</ele>
        <time>2018-02-25T09:41:27.000Z</time>
      </trkpt>
      <trkpt lat="46.61171" lon="0.42278">
        <ele>166.12</ele>
        <time>2018-02-25T09:41:30.000Z</time>
      </trkpt>
      <trkpt lat="46.61163" lon="0.42284">
        <ele>166.2</ele>
        <time>2018-02-25T09:41:32.000Z</time>
      </trkpt>
      <trkpt lat="46.61155" lon="0.42291">
        <ele>166.3</ele>
        <time>2018-02-25T09:41:34.000Z</time>
      </trkpt>
      <trkpt lat="46.61145" lon="0.42296">
        <ele>166.41</ele>
        <time>2018-02-25T09:41:36.000Z</time>
      </trkpt>
      <trkpt lat="46.61136" lon="0.42302">
        <ele>166.44</ele>
        <time>2018-02-25T09:41:38.000Z</time>
      </trkpt>
      <trkpt lat="46.61127" lon="0.42309">
        <ele>166.27</ele>
        <time>2018-02-25T09:41:40.000Z</time>
      </trkpt>
      <trkpt lat="46.61118" lon="0.42315">
        <ele>166.07</ele>
        <time>2018-02-25T09:41:42.000Z</time>
      </trkpt>
      <trkpt lat="46.6111" lon="0.42322">
        <ele>165.65</ele>
        <time>2018-02-25T09:41:44.000Z</time>
      </trkpt>
      <trkpt lat="46.61102" lon="0.42329">
        <ele>165.57</ele>
        <time>2018-02-25T09:41:46.000Z</time>
      </trkpt>
      <trkpt lat="46.61092" lon="0.42334">
        <ele>165.73</ele>
        <time>2018-02-25T09:41:48.000Z</time>
      </trkpt>
      <trkpt lat="46.61084" lon="0.4234">
        <ele>165.82</ele>
        <time>2018-02-25T09:41:50.000Z</time>
      </trkpt>
      <trkpt lat="46.61075" lon="0.42347">
        <ele>165.96</ele>
        <time>2018-02-25T09:41:52.000Z</time>
      </trkpt>
      <trkpt lat="46.61067" lon="0.42353">
        <ele>165.97</ele>
        <time>2018-02-25T09:41:54.000Z</time>
      </trkpt>
      <trkpt lat="46.61055" lon="0.42362">
        <ele>165.79</ele>
        <time>2018-02-25T09:41:57.000Z</time>
      </trkpt>
      <trkpt lat="46.61043" lon="0.4237">
        <ele>165.83</ele>
        <time>2018-02-25T09:42:00.000Z</time>
      </trkpt>
      <trkpt lat="46.61031" lon="0.4238">
        <ele>165.82</ele>
        <time>2018-02-25T09:42:03.000Z</time>
      </trkpt>
      <trkpt lat="46.6102" lon="0.42388">
        <ele>165.66</ele>
        <time>2018-02-25T09:42:06.000Z</time>
      </trkpt>
      <trkpt lat="46.61011" lon="0.42394">
        <ele>165.52</ele>
        <time>2018-02-25T09:42:08.000Z</time>
      </trkpt>
      <trkpt lat="46.61003" lon="0.42401">
        <ele>165.67</ele>
        <time>2018-02-25T09:42:10.000Z</time>
      </trkpt>
      <trkpt lat="46.60991" lon="0.42409">
        <ele>166.05</ele>
        <time>2018-02-25T09:42:13.000Z</time>
      </trkpt>
      <trkpt lat="46.6098" lon="0.42416">
        <ele>166.24</ele>
        <time>2018-02-25T09:42:16.000Z</time>
      </trkpt>
      <trkpt lat="46.6097" lon="0.42424">
        <ele>166.42</ele>
        <time>2018-02-25T09:42:19.000Z</time>
      </trkpt>
      <trkpt lat="46.60958" lon="0.42432">
        <ele>166.76</ele>
        <time>2018-02-25T09:42:22.000Z</time>
      </trkpt>
      <trkpt lat="46.60947" lon="0.4244">
        <ele>167.15</ele>
        <time>2018-02-25T09:42:25.000Z</time>
      </trkpt>
      <trkpt lat="46.60936" lon="0.42449">
        <ele>167.4</ele>
        <time>2018-02-25T09:42:28.000Z</time>
      </trkpt>
      <trkpt lat="46.60925" lon="0.42457">
        <ele>167.68</ele>
        <time>2018-02-25T09:42:31.000Z</time>
      </trkpt>
      <trkpt lat="46.60914" lon="0.42466">
        <ele>168.23</ele>
        <time>2018-02-25T09:42:34.000Z</time>
      </trkpt>
      <trkpt lat="46.60902" lon="0.42473">
        <ele>168.5</ele>
        <time>2018-02-25T09:42:37.000Z</time>
      </trkpt>
      <trkpt lat="46.60893" lon="0.42481">
        <ele>168.5</ele>
        <time>2018-02-25T09:42:40.000Z</time>
      </trkpt>
      <trkpt lat="46.60882" lon="0.42489">
        <ele>168.24</ele>
        <time>2018-02-25T09:42:43.000Z</time>
      </trkpt>
      <trkpt lat="46.60873" lon="0.42495">
        <ele>167.91</ele>
        <time>2018-02-25T09:42:45.000Z</time>
      </trkpt>
      <trkpt lat="46.60865" lon="0.42501">
        <ele>167.68</ele>
        <time>2018-02-25T09:42:47.000Z</time>
      </trkpt>
      <trkpt lat="46.60857" lon="0.42508">
        <ele>167.49</ele>
        <time>2018-02-25T09:42:49.000Z</time>
      </trkpt>
      <trkpt lat="46.60848" lon="0.42515">
        <ele>167.79</ele>
        <time>2018-02-25T09:42:51.000Z</time>
      </trkpt>
      <trkpt lat="46.6084" lon="0.42522">
        <ele>168.18</ele>
        <time>2018-02-25T09:42:53.000Z</time>
      </trkpt>
      <trkpt lat="46.60832" lon="0.42531">
        <ele>168.72</ele>
        <time>2018-02-25T09:42:55.000Z</time>
      </trkpt>
      <trkpt lat="46.60827" lon="0.42544">
        <ele>168.58</ele>
        <time>2018-02-25T09:42:57.000Z</time>
      </trkpt>
      <trkpt lat="46.60825" lon="0.42561">
        <ele>168.15</ele>
        <time>2018-02-25T09:42:59.000Z</time>
      </trkpt>
      <trkpt lat="46.60823" lon="0.42577">
        <ele>167.4</ele>
        <time>2018-02-25T09:43:01.000Z</time>
      </trkpt>
      <trkpt lat="46.60821" lon="0.42594">
        <ele>166.61</ele>
        <time>2018-02-25T09:43:03.000Z</time>
      </trkpt>
      <trkpt lat="46.6082" lon="0.4261">
        <ele>165.86</ele>
        <time>2018-02-25T09:43:05.000Z</time>
      </trkpt>
      <trkpt lat="46.60817" lon="0.42624">
        <ele>165.76</ele>
        <time>2018-02-25T09:43:08.000Z</time>
      </trkpt>
      <trkpt lat="46.60815" lon="0.42637">
        <ele>165.7</ele>
        <time>2018-02-25T09:43:11.000Z</time>
      </trkpt>
      <trkpt lat="46.6081" lon="0.4265">
        <ele>165.78</ele>
        <time>2018-02-25T09:43:14.000Z</time>
      </trkpt>
      <trkpt lat="46.60809" lon="0.42665">
        <ele>165.94</ele>
        <time>2018-02-25T09:43:18.000Z</time>
      </trkpt>
      <trkpt lat="46.60807" lon="0.42679">
        <ele>166</ele>
        <time>2018-02-25T09:43:21.000Z</time>
      </trkpt>
      <trkpt lat="46.60807" lon="0.42694">
        <ele>165.93</ele>
        <time>2018-02-25T09:43:25.000Z</time>
      </trkpt>
      <trkpt lat="46.60806" lon="0.42708">
        <ele>165.63</ele>
        <time>2018-02-25T09:43:29.000Z</time>
      </trkpt>
      <trkpt lat="46.60808" lon="0.42721">
        <ele>165.4</ele>
        <time>2018-02-25T09:43:33.000Z</time>
      </trkpt>
      <trkpt lat="46.60809" lon="0.42735">
        <ele>165.07</ele>
        <time>2018-02-25T09:43:37.000Z</time>
      </trkpt>
      <trkpt lat="46.60812" lon="0.42749">
        <ele>164.64</ele>
        <time>2018-02-25T09:43:40.000Z</time>
      </trkpt>
      <trkpt lat="46.60813" lon="0.42766">
        <ele>163.97</ele>
        <time>2018-02-25T09:43:44.000Z</time>
      </trkpt>
      <trkpt lat="46.60806" lon="0.42778">
        <ele>163.55</ele>
        <time>2018-02-25T09:43:48.000Z</time>
      </trkpt>
      <trkpt lat="46.60799" lon="0.42787">
        <ele>163.63</ele>
        <time>2018-02-25T09:43:50.000Z</time>
      </trkpt>
      <trkpt lat="46.60791" lon="0.42795">
        <ele>163.93</ele>
        <time>2018-02-25T09:43:52.000Z</time>
      </trkpt>
      <trkpt lat="46.60787" lon="0.42808">
        <ele>165.14</ele>
        <time>2018-02-25T09:43:56.000Z</time>
      </trkpt>
      <trkpt lat="46.6078" lon="0.42824">
        <ele>167.03</ele>
        <time>2018-02-25T09:44:01.000Z</time>
      </trkpt>
      <trkpt lat="46.60774" lon="0.42837">
        <ele>168.83</ele>
        <time>2018-02-25T09:44:05.000Z</time>
      </trkpt>
      <trkpt lat="46.60774" lon="0.42855">
        <ele>170.02</ele>
        <time>2018-02-25T09:44:08.000Z</time>
      </trkpt>
      <trkpt lat="46.60775" lon="0.42868">
        <ele>171.29</ele>
        <time>2018-02-25T09:44:13.000Z</time>
      </trkpt>
      <trkpt lat="46.60775" lon="0.42884">
        <ele>171.65</ele>
        <time>2018-02-25T09:44:16.000Z</time>
      </trkpt>
      <trkpt lat="46.60777" lon="0.42902">
        <ele>171.79</ele>
        <time>2018-02-25T09:44:19.000Z</time>
      </trkpt>
      <trkpt lat="46.60773" lon="0.42918">
        <ele>171.84</ele>
        <time>2018-02-25T09:44:24.000Z</time>
      </trkpt>
      <trkpt lat="46.6077" lon="0.42931">
        <ele>171.76</ele>
        <time>2018-02-25T09:44:27.000Z</time>
      </trkpt>
      <trkpt lat="46.60772" lon="0.42948">
        <ele>171.62</ele>
        <time>2018-02-25T09:44:30.000Z</time>
      </trkpt>
      <trkpt lat="46.60765" lon="0.42967">
        <ele>171.51</ele>
        <time>2018-02-25T09:44:33.000Z</time>
      </trkpt>
      <trkpt lat="46.60761" lon="0.42985">
        <ele>171.24</ele>
        <time>2018-02-25T09:44:37.000Z</time>
      </trkpt>
      <trkpt lat="46.6076" lon="0.43004">
        <ele>170.86</ele>
        <time>2018-02-25T09:44:41.000Z</time>
      </trkpt>
      <trkpt lat="46.60757" lon="0.43019">
        <ele>170.43</ele>
        <time>2018-02-25T09:44:45.000Z</time>
      </trkpt>
      <trkpt lat="46.60754" lon="0.43034">
        <ele>170.06</ele>
        <time>2018-02-25T09:44:48.000Z</time>
      </trkpt>
      <trkpt lat="46.60748" lon="0.43051">
        <ele>169.93</ele>
        <time>2018-02-25T09:44:51.000Z</time>
      </trkpt>
      <trkpt lat="46.60743" lon="0.43062">
        <ele>169.9</ele>
        <time>2018-02-25T09:44:53.000Z</time>
      </trkpt>
      <trkpt lat="46.60738" lon="0.43073">
        <ele>169.9</ele>
        <time>2018-02-25T09:44:55.000Z</time>
      </trkpt>
      <trkpt lat="46.60729" lon="0.43087">
        <ele>171.8</ele>
        <time>2018-02-25T09:44:58.000Z</time>
      </trkpt>
      <trkpt lat="46.60717" lon="0.43097">
        <ele>172.23</ele>
        <time>2018-02-25T09:45:00.000Z</time>
      </trkpt>
      <trkpt lat="46.60707" lon="0.43108">
        <ele>172.74</ele>
        <time>2018-02-25T09:45:02.000Z</time>
      </trkpt>
      <trkpt lat="46.60697" lon="0.43118">
        <ele>173.26</ele>
        <time>2018-02-25T09:45:04.000Z</time>
      </trkpt>
      <trkpt lat="46.6069" lon="0.43127">
        <ele>173.77</ele>
        <time>2018-02-25T09:45:06.000Z</time>
      </trkpt>
      <trkpt lat="46.60683" lon="0.43137">
        <ele>174.23</ele>
        <time>2018-02-25T09:45:08.000Z</time>
      </trkpt>
      <trkpt lat="46.60675" lon="0.43148">
        <ele>174.88</ele>
        <time>2018-02-25T09:45:11.000Z</time>
      </trkpt>
      <trkpt lat="46.60669" lon="0.43161">
        <ele>175.53</ele>
        <time>2018-02-25T09:45:14.000Z</time>
      </trkpt>
      <trkpt lat="46.60665" lon="0.43177">
        <ele>176.19</ele>
        <time>2018-02-25T09:45:18.000Z</time>
      </trkpt>
      <trkpt lat="46.60656" lon="0.43189">
        <ele>176.64</ele>
        <time>2018-02-25T09:45:21.000Z</time>
      </trkpt>
      <trkpt lat="46.60649" lon="0.43203">
        <ele>177.04</ele>
        <time>2018-02-25T09:45:24.000Z</time>
      </trkpt>
      <trkpt lat="46.60644" lon="0.43215">
        <ele>177.49</ele>
        <time>2018-02-25T09:45:27.000Z</time>
      </trkpt>
      <trkpt lat="46.6064" lon="0.43228">
        <ele>177.77</ele>
        <time>2018-02-25T09:45:30.000Z</time>
      </trkpt>
      <trkpt lat="46.60634" lon="0.43243">
        <ele>178.24</ele>
        <time>2018-02-25T09:45:34.000Z</time>
      </trkpt>
      <trkpt lat="46.6063" lon="0.43258">
        <ele>178.6</ele>
        <time>2018-02-25T09:45:37.000Z</time>
      </trkpt>
      <trkpt lat="46.60624" lon="0.43272">
        <ele>178.84</ele>
        <time>2018-02-25T09:45:40.000Z</time>
      </trkpt>
      <trkpt lat="46.60617" lon="0.43287">
        <ele>178.91</ele>
        <time>2018-02-25T09:45:43.000Z</time>
      </trkpt>
      <trkpt lat="46.60611" lon="0.43299">
        <ele>178.81</ele>
        <time>2018-02-25T09:45:46.000Z</time>
      </trkpt>
      <trkpt lat="46.60605" lon="0.43311">
        <ele>178.72</ele>
        <time>2018-02-25T09:45:49.000Z</time>
      </trkpt>
      <trkpt lat="46.60598" lon="0.43322">
        <ele>178.76</ele>
        <time>2018-02-25T09:45:52.000Z</time>
      </trkpt>
      <trkpt lat="46.6059" lon="0.43333">
        <ele>178.74</ele>
        <time>2018-02-25T09:45:54.000Z</time>
      </trkpt>
      <trkpt lat="46.60583" lon="0.43344">
        <ele>178.67</ele>
        <time>2018-02-25T09:45:57.000Z</time>
      </trkpt>
      <trkpt lat="46.60576" lon="0.43355">
        <ele>178.72</ele>
        <time>2018-02-25T09:46:00.000Z</time>
      </trkpt>
      <trkpt lat="46.60566" lon="0.43367">
        <ele>179.03</ele>
        <time>2018-02-25T09:46:03.000Z</time>
      </trkpt>
      <trkpt lat="46.60561" lon="0.43378">
        <ele>179.53</ele>
        <time>2018-02-25T09:46:06.000Z</time>
      </trkpt>
      <trkpt lat="46.60555" lon="0.43391">
        <ele>180.23</ele>
        <time>2018-02-25T09:46:09.000Z</time>
      </trkpt>
      <trkpt lat="46.60549" lon="0.43405">
        <ele>181.25</ele>
        <time>2018-02-25T09:46:13.000Z</time>
      </trkpt>
      <trkpt lat="46.60542" lon="0.43417">
        <ele>182.15</ele>
        <time>2018-02-25T09:46:17.000Z</time>
      </trkpt>
      <trkpt lat="46.60534" lon="0.43429">
        <ele>183.11</ele>
        <time>2018-02-25T09:46:22.000Z</time>
      </trkpt>
      <trkpt lat="46.60531" lon="0.43442">
        <ele>184</ele>
        <time>2018-02-25T09:46:27.000Z</time>
      </trkpt>
      <trkpt lat="46.60525" lon="0.43458">
        <ele>184.68</ele>
        <time>2018-02-25T09:46:32.000Z</time>
      </trkpt>
      <trkpt lat="46.60521" lon="0.43471">
        <ele>184.94</ele>
        <time>2018-02-25T09:46:34.000Z</time>
      </trkpt>
      <trkpt lat="46.60519" lon="0.43488">
        <ele>185.12</ele>
        <time>2018-02-25T09:46:37.000Z</time>
      </trkpt>
      <trkpt lat="46.6052" lon="0.43507">
        <ele>185.07</ele>
        <time>2018-02-25T09:46:40.000Z</time>
      </trkpt>
      <trkpt lat="46.60519" lon="0.43521">
        <ele>184.93</ele>
        <time>2018-02-25T09:46:42.000Z</time>
      </trkpt>
      <trkpt lat="46.60522" lon="0.43538">
        <ele>184.71</ele>
        <time>2018-02-25T09:46:45.000Z</time>
      </trkpt>
      <trkpt lat="46.6052" lon="0.43557">
        <ele>184.63</ele>
        <time>2018-02-25T09:46:47.000Z</time>
      </trkpt>
      <trkpt lat="46.60521" lon="0.43575">
        <ele>184.6</ele>
        <time>2018-02-25T09:46:50.000Z</time>
      </trkpt>
      <trkpt lat="46.60519" lon="0.43588">
        <ele>184.58</ele>
        <time>2018-02-25T09:46:52.000Z</time>
      </trkpt>
      <trkpt lat="46.60514" lon="0.436">
        <ele>184.7</ele>
        <time>2018-02-25T09:46:54.000Z</time>
      </trkpt>
      <trkpt lat="46.6051" lon="0.43617">
        <ele>184.72</ele>
        <time>2018-02-25T09:46:56.000Z</time>
      </trkpt>
      <trkpt lat="46.60506" lon="0.43631">
        <ele>184.41</ele>
        <time>2018-02-25T09:46:58.000Z</time>
      </trkpt>
      <trkpt lat="46.60497" lon="0.43645">
        <ele>184.49</ele>
        <time>2018-02-25T09:47:00.000Z</time>
      </trkpt>
      <trkpt lat="46.60492" lon="0.43657">
        <ele>184.7</ele>
        <time>2018-02-25T09:47:02.000Z</time>
      </trkpt>
      <trkpt lat="46.6049" lon="0.43676">
        <ele>184.98</ele>
        <time>2018-02-25T09:47:05.000Z</time>
      </trkpt>
      <trkpt lat="46.60487" lon="0.43694">
        <ele>185.36</ele>
        <time>2018-02-25T09:47:07.000Z</time>
      </trkpt>
      <trkpt lat="46.60488" lon="0.43713">
        <ele>186.01</ele>
        <time>2018-02-25T09:47:10.000Z</time>
      </trkpt>
      <trkpt lat="46.60492" lon="0.43727">
        <ele>186.45</ele>
        <time>2018-02-25T09:47:13.000Z</time>
      </trkpt>
      <trkpt lat="46.6049" lon="0.43744">
        <ele>186.76</ele>
        <time>2018-02-25T09:47:17.000Z</time>
      </trkpt>
      <trkpt lat="46.60488" lon="0.43758">
        <ele>186.96</ele>
        <time>2018-02-25T09:47:19.000Z</time>
      </trkpt>
      <trkpt lat="46.60488" lon="0.43772">
        <ele>187.06</ele>
        <time>2018-02-25T09:47:21.000Z</time>
      </trkpt>
      <trkpt lat="46.60491" lon="0.43788">
        <ele>187.03</ele>
        <time>2018-02-25T09:47:23.000Z</time>
      </trkpt>
      <trkpt lat="46.60494" lon="0.43807">
        <ele>186.79</ele>
        <time>2018-02-25T09:47:26.000Z</time>
      </trkpt>
      <trkpt lat="46.60498" lon="0.43824">
        <ele>186.42</ele>
        <time>2018-02-25T09:47:29.000Z</time>
      </trkpt>
      <trkpt lat="46.605" lon="0.43839">
        <ele>186.17</ele>
        <time>2018-02-25T09:47:32.000Z</time>
      </trkpt>
      <trkpt lat="46.60494" lon="0.43858">
        <ele>186.25</ele>
        <time>2018-02-25T09:47:35.000Z</time>
      </trkpt>
      <trkpt lat="46.60487" lon="0.43875">
        <ele>186.54</ele>
        <time>2018-02-25T09:47:38.000Z</time>
      </trkpt>
      <trkpt lat="46.60484" lon="0.43894">
        <ele>186.87</ele>
        <time>2018-02-25T09:47:41.000Z</time>
      </trkpt>
      <trkpt lat="46.60484" lon="0.4391">
        <ele>187.33</ele>
        <time>2018-02-25T09:47:47.000Z</time>
      </trkpt>
      <trkpt lat="46.60486" lon="0.43924">
        <ele>187.41</ele>
        <time>2018-02-25T09:47:51.000Z</time>
      </trkpt>
      <trkpt lat="46.60488" lon="0.43942">
        <ele>187.43</ele>
        <time>2018-02-25T09:47:55.000Z</time>
      </trkpt>
      <trkpt lat="46.60491" lon="0.43956">
        <ele>187.54</ele>
        <time>2018-02-25T09:47:57.000Z</time>
      </trkpt>
      <trkpt lat="46.60496" lon="0.43969">
        <ele>187.7</ele>
        <time>2018-02-25T09:47:59.000Z</time>
      </trkpt>
      <trkpt lat="46.60495" lon="0.43983">
        <ele>188.37</ele>
        <time>2018-02-25T09:48:05.000Z</time>
      </trkpt>
      <trkpt lat="46.60493" lon="0.43999">
        <ele>188.99</ele>
        <time>2018-02-25T09:48:09.000Z</time>
      </trkpt>
      <trkpt lat="46.6049" lon="0.44016">
        <ele>189.85</ele>
        <time>2018-02-25T09:48:15.000Z</time>
      </trkpt>
      <trkpt lat="46.60489" lon="0.44031">
        <ele>190.22</ele>
        <time>2018-02-25T09:48:18.000Z</time>
      </trkpt>
      <trkpt lat="46.60494" lon="0.44045">
        <ele>190.22</ele>
        <time>2018-02-25T09:48:24.000Z</time>
      </trkpt>
      <trkpt lat="46.60497" lon="0.44059">
        <ele>189.98</ele>
        <time>2018-02-25T09:48:27.000Z</time>
      </trkpt>
      <trkpt lat="46.60503" lon="0.44072">
        <ele>189.69</ele>
        <time>2018-02-25T09:48:29.000Z</time>
      </trkpt>
      <trkpt lat="46.6051" lon="0.4408">
        <ele>189.37</ele>
        <time>2018-02-25T09:48:31.000Z</time>
      </trkpt>
      <trkpt lat="46.60513" lon="0.44096">
        <ele>188.84</ele>
        <time>2018-02-25T09:48:35.000Z</time>
      </trkpt>
      <trkpt lat="46.60515" lon="0.44109">
        <ele>188.76</ele>
        <time>2018-02-25T09:48:37.000Z</time>
      </trkpt>
      <trkpt lat="46.60518" lon="0.44124">
        <ele>188.85</ele>
        <time>2018-02-25T09:48:40.000Z</time>
      </trkpt>
      <trkpt lat="46.60522" lon="0.4414">
        <ele>189.01</ele>
        <time>2018-02-25T09:48:43.000Z</time>
      </trkpt>
      <trkpt lat="46.60521" lon="0.44154">
        <ele>189.32</ele>
        <time>2018-02-25T09:48:47.000Z</time>
      </trkpt>
      <trkpt lat="46.60523" lon="0.44174">
        <ele>189.67</ele>
        <time>2018-02-25T09:48:50.000Z</time>
      </trkpt>
      <trkpt lat="46.60526" lon="0.44192">
        <ele>190.07</ele>
        <time>2018-02-25T09:48:53.000Z</time>
      </trkpt>
      <trkpt lat="46.60528" lon="0.44206">
        <ele>190.17</ele>
        <time>2018-02-25T09:48:54.000Z</time>
      </trkpt>
      <trkpt lat="46.60528" lon="0.44221">
        <ele>190.36</ele>
        <time>2018-02-25T09:48:57.000Z</time>
      </trkpt>
      <trkpt lat="46.60529" lon="0.44238">
        <ele>190.36</ele>
        <time>2018-02-25T09:49:00.000Z</time>
      </trkpt>
      <trkpt lat="46.60529" lon="0.44254">
        <ele>190.17</ele>
        <time>2018-02-25T09:49:03.000Z</time>
      </trkpt>
      <trkpt lat="46.60527" lon="0.44271">
        <ele>189.61</ele>
        <time>2018-02-25T09:49:07.000Z</time>
      </trkpt>
      <trkpt lat="46.60527" lon="0.44285">
        <ele>189.25</ele>
        <time>2018-02-25T09:49:09.000Z</time>
      </trkpt>
      <trkpt lat="46.60527" lon="0.44303">
        <ele>186.86</ele>
        <time>2018-02-25T09:49:12.000Z</time>
      </trkpt>
      <trkpt lat="46.60526" lon="0.4432">
        <ele>186.31</ele>
        <time>2018-02-25T09:49:15.000Z</time>
      </trkpt>
      <trkpt lat="46.60524" lon="0.44338">
        <ele>185.7</ele>
        <time>2018-02-25T09:49:18.000Z</time>
      </trkpt>
      <trkpt lat="46.60523" lon="0.44352">
        <ele>185.13</ele>
        <time>2018-02-25T09:49:21.000Z</time>
      </trkpt>
      <trkpt lat="46.60522" lon="0.44366">
        <ele>181.6</ele>
        <time>2018-02-25T09:49:23.000Z</time>
      </trkpt>
      <trkpt lat="46.6052" lon="0.4438">
        <ele>181.21</ele>
        <time>2018-02-25T09:49:26.000Z</time>
      </trkpt>
      <trkpt lat="46.60519" lon="0.44394">
        <ele>180.72</ele>
        <time>2018-02-25T09:49:29.000Z</time>
      </trkpt>
      <trkpt lat="46.60517" lon="0.44408">
        <ele>180.34</ele>
        <time>2018-02-25T09:49:31.000Z</time>
      </trkpt>
      <trkpt lat="46.60517" lon="0.44424">
        <ele>179.99</ele>
        <time>2018-02-25T09:49:33.000Z</time>
      </trkpt>
      <trkpt lat="46.60516" lon="0.4444">
        <ele>179.61</ele>
        <time>2018-02-25T09:49:35.000Z</time>
      </trkpt>
      <trkpt lat="46.60515" lon="0.44456">
        <ele>178.9</ele>
        <time>2018-02-25T09:49:39.000Z</time>
      </trkpt>
      <trkpt lat="46.60512" lon="0.44474">
        <ele>178.35</ele>
        <time>2018-02-25T09:49:43.000Z</time>
      </trkpt>
      <trkpt lat="46.60508" lon="0.4449">
        <ele>178.38</ele>
        <time>2018-02-25T09:49:47.000Z</time>
      </trkpt>
      <trkpt lat="46.60506" lon="0.44503">
        <ele>178.54</ele>
        <time>2018-02-25T09:49:49.000Z</time>
      </trkpt>
      <trkpt lat="46.60503" lon="0.44521">
        <ele>180.11</ele>
        <time>2018-02-25T09:49:52.000Z</time>
      </trkpt>
      <trkpt lat="46.60502" lon="0.44534">
        <ele>181.53</ele>
        <time>2018-02-25T09:49:54.000Z</time>
      </trkpt>
      <trkpt lat="46.605" lon="0.44549">
        <ele>182</ele>
        <time>2018-02-25T09:49:57.000Z</time>
      </trkpt>
      <trkpt lat="46.60498" lon="0.44567">
        <ele>182.42</ele>
        <time>2018-02-25T09:50:00.000Z</time>
      </trkpt>
      <trkpt lat="46.60497" lon="0.44581">
        <ele>182.81</ele>
        <time>2018-02-25T09:50:03.000Z</time>
      </trkpt>
      <trkpt lat="46.60494" lon="0.44597">
        <ele>183.17</ele>
        <time>2018-02-25T09:50:06.000Z</time>
      </trkpt>
      <trkpt lat="46.60492" lon="0.44614">
        <ele>183.36</ele>
        <time>2018-02-25T09:50:09.000Z</time>
      </trkpt>
      <trkpt lat="46.6049" lon="0.4463">
        <ele>183.32</ele>
        <time>2018-02-25T09:50:12.000Z</time>
      </trkpt>
      <trkpt lat="46.60488" lon="0.44648">
        <ele>183.2</ele>
        <time>2018-02-25T09:50:15.000Z</time>
      </trkpt>
      <trkpt lat="46.60484" lon="0.44664">
        <ele>183.06</ele>
        <time>2018-02-25T09:50:18.000Z</time>
      </trkpt>
      <trkpt lat="46.60481" lon="0.4468">
        <ele>182.92</ele>
        <time>2018-02-25T09:50:21.000Z</time>
      </trkpt>
      <trkpt lat="46.60477" lon="0.44696">
        <ele>182.91</ele>
        <time>2018-02-25T09:50:24.000Z</time>
      </trkpt>
      <trkpt lat="46.60473" lon="0.44711">
        <ele>183.09</ele>
        <time>2018-02-25T09:50:27.000Z</time>
      </trkpt>
      <trkpt lat="46.60469" lon="0.44727">
        <ele>183.29</ele>
        <time>2018-02-25T09:50:30.000Z</time>
      </trkpt>
      <trkpt lat="46.60465" lon="0.44742">
        <ele>183.56</ele>
        <time>2018-02-25T09:50:32.000Z</time>
      </trkpt>
      <trkpt lat="46.60461" lon="0.44756">
        <ele>185.47</ele>
        <time>2018-02-25T09:50:35.000Z</time>
      </trkpt>
      <trkpt lat="46.60456" lon="0.44773">
        <ele>186.63</ele>
        <time>2018-02-25T09:50:38.000Z</time>
      </trkpt>
      <trkpt lat="46.60453" lon="0.44788">
        <ele>186.73</ele>
        <time>2018-02-25T09:50:41.000Z</time>
      </trkpt>
      <trkpt lat="46.60449" lon="0.44801">
        <ele>186.76</ele>
        <time>2018-02-25T09:50:44.000Z</time>
      </trkpt>
      <trkpt lat="46.60446" lon="0.44813">
        <ele>186.63</ele>
        <time>2018-02-25T09:50:47.000Z</time>
      </trkpt>
      <trkpt lat="46.60443" lon="0.44829">
        <ele>186.33</ele>
        <time>2018-02-25T09:50:51.000Z</time>
      </trkpt>
      <trkpt lat="46.60439" lon="0.44841">
        <ele>186.11</ele>
        <time>2018-02-25T09:50:55.000Z</time>
      </trkpt>
      <trkpt lat="46.60433" lon="0.44855">
        <ele>186.3</ele>
        <time>2018-02-25T09:51:00.000Z</time>
      </trkpt>
      <trkpt lat="46.60429" lon="0.44867">
        <ele>186.45</ele>
        <time>2018-02-25T09:51:03.000Z</time>
      </trkpt>
      <trkpt lat="46.60433" lon="0.4488">
        <ele>186.45</ele>
        <time>2018-02-25T09:51:07.000Z</time>
      </trkpt>
      <trkpt lat="46.60442" lon="0.44885">
        <ele>186.08</ele>
        <time>2018-02-25T09:51:11.000Z</time>
      </trkpt>
      <trkpt lat="46.60451" lon="0.44898">
        <ele>185.84</ele>
        <time>2018-02-25T09:51:15.000Z</time>
      </trkpt>
      <trkpt lat="46.60457" lon="0.44909">
        <ele>185.75</ele>
        <time>2018-02-25T09:51:17.000Z</time>
      </trkpt>
      <trkpt lat="46.60464" lon="0.44918">
        <ele>185.66</ele>
        <time>2018-02-25T09:51:20.000Z</time>
      </trkpt>
      <trkpt lat="46.60471" lon="0.44932">
        <ele>185.66</ele>
        <time>2018-02-25T09:51:24.000Z</time>
      </trkpt>
      <trkpt lat="46.60477" lon="0.44942">
        <ele>185.67</ele>
        <time>2018-02-25T09:51:26.000Z</time>
      </trkpt>
      <trkpt lat="46.60483" lon="0.44952">
        <ele>185.65</ele>
        <time>2018-02-25T09:51:29.000Z</time>
      </trkpt>
      <trkpt lat="46.60491" lon="0.44966">
        <ele>185.69</ele>
        <time>2018-02-25T09:51:33.000Z</time>
      </trkpt>
      <trkpt lat="46.60498" lon="0.44977">
        <ele>184.87</ele>
        <time>2018-02-25T09:51:35.000Z</time>
      </trkpt>
      <trkpt lat="46.60506" lon="0.44989">
        <ele>183.94</ele>
        <time>2018-02-25T09:51:37.000Z</time>
      </trkpt>
      <trkpt lat="46.60515" lon="0.45003">
        <ele>183.45</ele>
        <time>2018-02-25T09:51:40.000Z</time>
      </trkpt>
      <trkpt lat="46.60521" lon="0.45014">
        <ele>183.5</ele>
        <time>2018-02-25T09:51:43.000Z</time>
      </trkpt>
      <trkpt lat="46.60529" lon="0.45026">
        <ele>183.59</ele>
        <time>2018-02-25T09:51:46.000Z</time>
      </trkpt>
      <trkpt lat="46.60539" lon="0.45036">
        <ele>183.66</ele>
        <time>2018-02-25T09:51:49.000Z</time>
      </trkpt>
      <trkpt lat="46.60553" lon="0.45036">
        <ele>184.1</ele>
        <time>2018-02-25T09:51:52.000Z</time>
      </trkpt>
      <trkpt lat="46.60564" lon="0.45036">
        <ele>184.22</ele>
        <time>2018-02-25T09:51:54.000Z</time>
      </trkpt>
      <trkpt lat="46.60573" lon="0.45041">
        <ele>184.17</ele>
        <time>2018-02-25T09:51:56.000Z</time>
      </trkpt>
      <trkpt lat="46.60587" lon="0.45043">
        <ele>184.17</ele>
        <time>2018-02-25T09:51:59.000Z</time>
      </trkpt>
      <trkpt lat="46.60598" lon="0.45044">
        <ele>184.46</ele>
        <time>2018-02-25T09:52:01.000Z</time>
      </trkpt>
      <trkpt lat="46.60609" lon="0.45044">
        <ele>184.72</ele>
        <time>2018-02-25T09:52:03.000Z</time>
      </trkpt>
      <trkpt lat="46.60618" lon="0.45046">
        <ele>185.24</ele>
        <time>2018-02-25T09:52:05.000Z</time>
      </trkpt>
      <trkpt lat="46.60627" lon="0.45049">
        <ele>185.67</ele>
        <time>2018-02-25T09:52:07.000Z</time>
      </trkpt>
      <trkpt lat="46.60638" lon="0.45054">
        <ele>186.13</ele>
        <time>2018-02-25T09:52:10.000Z</time>
      </trkpt>
      <trkpt lat="46.60646" lon="0.45061">
        <ele>185.74</ele>
        <time>2018-02-25T09:52:12.000Z</time>
      </trkpt>
      <trkpt lat="46.60655" lon="0.45071">
        <ele>185.26</ele>
        <time>2018-02-25T09:52:15.000Z</time>
      </trkpt>
      <trkpt lat="46.60659" lon="0.45083">
        <ele>185.28</ele>
        <time>2018-02-25T09:52:18.000Z</time>
      </trkpt>
      <trkpt lat="46.60663" lon="0.45095">
        <ele>185.44</ele>
        <time>2018-02-25T09:52:21.000Z</time>
      </trkpt>
      <trkpt lat="46.60667" lon="0.45108">
        <ele>185.54</ele>
        <time>2018-02-25T09:52:23.000Z</time>
      </trkpt>
      <trkpt lat="46.6067" lon="0.4512">
        <ele>185.69</ele>
        <time>2018-02-25T09:52:25.000Z</time>
      </trkpt>
      <trkpt lat="46.60676" lon="0.45139">
        <ele>186.47</ele>
        <time>2018-02-25T09:52:28.000Z</time>
      </trkpt>
      <trkpt lat="46.6068" lon="0.45154">
        <ele>186.99</ele>
        <time>2018-02-25T09:52:30.000Z</time>
      </trkpt>
      <trkpt lat="46.60686" lon="0.45171">
        <ele>188.13</ele>
        <time>2018-02-25T09:52:33.000Z</time>
      </trkpt>
      <trkpt lat="46.60689" lon="0.45184">
        <ele>188.19</ele>
        <time>2018-02-25T09:52:36.000Z</time>
      </trkpt>
      <trkpt lat="46.60693" lon="0.45198">
        <ele>188.16</ele>
        <time>2018-02-25T09:52:40.000Z</time>
      </trkpt>
      <trkpt lat="46.607" lon="0.45213">
        <ele>188.02</ele>
        <time>2018-02-25T09:52:43.000Z</time>
      </trkpt>
      <trkpt lat="46.6071" lon="0.45225">
        <ele>187.75</ele>
        <time>2018-02-25T09:52:46.000Z</time>
      </trkpt>
      <trkpt lat="46.60721" lon="0.45235">
        <ele>187.58</ele>
        <time>2018-02-25T09:52:49.000Z</time>
      </trkpt>
      <trkpt lat="46.60731" lon="0.45242">
        <ele>187.52</ele>
        <time>2018-02-25T09:52:52.000Z</time>
      </trkpt>
      <trkpt lat="46.6074" lon="0.4525">
        <ele>187.5</ele>
        <time>2018-02-25T09:52:55.000Z</time>
      </trkpt>
      <trkpt lat="46.6075" lon="0.45258">
        <ele>187.14</ele>
        <time>2018-02-25T09:52:58.000Z</time>
      </trkpt>
      <trkpt lat="46.60762" lon="0.45267">
        <ele>186.6</ele>
        <time>2018-02-25T09:53:01.000Z</time>
      </trkpt>
      <trkpt lat="46.60773" lon="0.45274">
        <ele>184.95</ele>
        <time>2018-02-25T09:53:04.000Z</time>
      </trkpt>
      <trkpt lat="46.60781" lon="0.4528">
        <ele>183.48</ele>
        <time>2018-02-25T09:53:06.000Z</time>
      </trkpt>
      <trkpt lat="46.60791" lon="0.45285">
        <ele>183.34</ele>
        <time>2018-02-25T09:53:09.000Z</time>
      </trkpt>
      <trkpt lat="46.608" lon="0.45293">
        <ele>183.25</ele>
        <time>2018-02-25T09:53:12.000Z</time>
      </trkpt>
      <trkpt lat="46.60811" lon="0.453">
        <ele>183.19</ele>
        <time>2018-02-25T09:53:15.000Z</time>
      </trkpt>
      <trkpt lat="46.60817" lon="0.45311">
        <ele>183.8</ele>
        <time>2018-02-25T09:53:18.000Z</time>
      </trkpt>
      <trkpt lat="46.60815" lon="0.45325">
        <ele>184.53</ele>
        <time>2018-02-25T09:53:20.000Z</time>
      </trkpt>
      <trkpt lat="46.60812" lon="0.45345">
        <ele>186.05</ele>
        <time>2018-02-25T09:53:23.000Z</time>
      </trkpt>
      <trkpt lat="46.60809" lon="0.45362">
        <ele>186.44</ele>
        <time>2018-02-25T09:53:26.000Z</time>
      </trkpt>
      <trkpt lat="46.60804" lon="0.45379">
        <ele>186.85</ele>
        <time>2018-02-25T09:53:29.000Z</time>
      </trkpt>
      <trkpt lat="46.608" lon="0.45394">
        <ele>186.93</ele>
        <time>2018-02-25T09:53:32.000Z</time>
      </trkpt>
      <trkpt lat="46.60797" lon="0.45409">
        <ele>186.79</ele>
        <time>2018-02-25T09:53:35.000Z</time>
      </trkpt>
      <trkpt lat="46.60793" lon="0.45427">
        <ele>186.58</ele>
        <time>2018-02-25T09:53:38.000Z</time>
      </trkpt>
      <trkpt lat="46.60788" lon="0.45445">
        <ele>185.91</ele>
        <time>2018-02-25T09:53:41.000Z</time>
      </trkpt>
      <trkpt lat="46.60785" lon="0.45457">
        <ele>185.72</ele>
        <time>2018-02-25T09:53:43.000Z</time>
      </trkpt>
      <trkpt lat="46.60782" lon="0.4547">
        <ele>185.54</ele>
        <time>2018-02-25T09:53:45.000Z</time>
      </trkpt>
      <trkpt lat="46.60778" lon="0.45485">
        <ele>185.49</ele>
        <time>2018-02-25T09:53:48.000Z</time>
      </trkpt>
      <trkpt lat="46.60774" lon="0.45503">
        <ele>186.41</ele>
        <time>2018-02-25T09:53:51.000Z</time>
      </trkpt>
      <trkpt lat="46.60771" lon="0.45516">
        <ele>186.73</ele>
        <time>2018-02-25T09:53:53.000Z</time>
      </trkpt>
      <trkpt lat="46.60769" lon="0.45532">
        <ele>185.95</ele>
        <time>2018-02-25T09:53:56.000Z</time>
      </trkpt>
      <trkpt lat="46.60766" lon="0.45549">
        <ele>185.37</ele>
        <time>2018-02-25T09:53:59.000Z</time>
      </trkpt>
      <trkpt lat="46.60762" lon="0.45563">
        <ele>185.56</ele>
        <time>2018-02-25T09:54:02.000Z</time>
      </trkpt>
      <trkpt lat="46.6076" lon="0.45581">
        <ele>186.36</ele>
        <time>2018-02-25T09:54:05.000Z</time>
      </trkpt>
      <trkpt lat="46.60758" lon="0.45597">
        <ele>187.71</ele>
        <time>2018-02-25T09:54:08.000Z</time>
      </trkpt>
      <trkpt lat="46.60756" lon="0.45615">
        <ele>189.2</ele>
        <time>2018-02-25T09:54:11.000Z</time>
      </trkpt>
      <trkpt lat="46.60753" lon="0.45632">
        <ele>190.29</ele>
        <time>2018-02-25T09:54:14.000Z</time>
      </trkpt>
      <trkpt lat="46.60751" lon="0.45645">
        <ele>190.56</ele>
        <time>2018-02-25T09:54:16.000Z</time>
      </trkpt>
      <trkpt lat="46.60747" lon="0.45661">
        <ele>190.58</ele>
        <time>2018-02-25T09:54:19.000Z</time>
      </trkpt>
      <trkpt lat="46.60742" lon="0.45672">
        <ele>190.92</ele>
        <time>2018-02-25T09:54:22.000Z</time>
      </trkpt>
      <trkpt lat="46.60734" lon="0.45684">
        <ele>190.61</ele>
        <time>2018-02-25T09:54:25.000Z</time>
      </trkpt>
      <trkpt lat="46.60728" lon="0.45698">
        <ele>190.08</ele>
        <time>2018-02-25T09:54:28.000Z</time>
      </trkpt>
      <trkpt lat="46.60721" lon="0.45711">
        <ele>189.23</ele>
        <time>2018-02-25T09:54:32.000Z</time>
      </trkpt>
      <trkpt lat="46.60714" lon="0.45722">
        <ele>188.63</ele>
        <time>2018-02-25T09:54:35.000Z</time>
      </trkpt>
      <trkpt lat="46.60708" lon="0.45735">
        <ele>187.99</ele>
        <time>2018-02-25T09:54:39.000Z</time>
      </trkpt>
      <trkpt lat="46.607" lon="0.45746">
        <ele>187.46</ele>
        <time>2018-02-25T09:54:43.000Z</time>
      </trkpt>
      <trkpt lat="46.60693" lon="0.45759">
        <ele>186.89</ele>
        <time>2018-02-25T09:54:47.000Z</time>
      </trkpt>
      <trkpt lat="46.60686" lon="0.45773">
        <ele>186.43</ele>
        <time>2018-02-25T09:54:51.000Z</time>
      </trkpt>
      <trkpt lat="46.6068" lon="0.45784">
        <ele>186.12</ele>
        <time>2018-02-25T09:54:54.000Z</time>
      </trkpt>
      <trkpt lat="46.60674" lon="0.45798">
        <ele>185.78</ele>
        <time>2018-02-25T09:54:58.000Z</time>
      </trkpt>
      <trkpt lat="46.60667" lon="0.45813">
        <ele>185.42</ele>
        <time>2018-02-25T09:55:02.000Z</time>
      </trkpt>
      <trkpt lat="46.60659" lon="0.45826">
        <ele>185.12</ele>
        <time>2018-02-25T09:55:05.000Z</time>
      </trkpt>
      <trkpt lat="46.60651" lon="0.45837">
        <ele>185.01</ele>
        <time>2018-02-25T09:55:08.000Z</time>
      </trkpt>
      <trkpt lat="46.60645" lon="0.45849">
        <ele>185.08</ele>
        <time>2018-02-25T09:55:11.000Z</time>
      </trkpt>
      <trkpt lat="46.60638" lon="0.45861">
        <ele>185.5</ele>
        <time>2018-02-25T09:55:16.000Z</time>
      </trkpt>
      <trkpt lat="46.60627" lon="0.45868">
        <ele>186.18</ele>
        <time>2018-02-25T09:55:20.000Z</time>
      </trkpt>
      <trkpt lat="46.60617" lon="0.45872">
        <ele>186.56</ele>
        <time>2018-02-25T09:55:23.000Z</time>
      </trkpt>
      <trkpt lat="46.60608" lon="0.45879">
        <ele>186.82</ele>
        <time>2018-02-25T09:55:26.000Z</time>
      </trkpt>
      <trkpt lat="46.60597" lon="0.45886">
        <ele>187.06</ele>
        <time>2018-02-25T09:55:29.000Z</time>
      </trkpt>
      <trkpt lat="46.60586" lon="0.45894">
        <ele>187.37</ele>
        <time>2018-02-25T09:55:33.000Z</time>
      </trkpt>
      <trkpt lat="46.60578" lon="0.459">
        <ele>187.74</ele>
        <time>2018-02-25T09:55:36.000Z</time>
      </trkpt>
      <trkpt lat="46.60567" lon="0.45907">
        <ele>188.15</ele>
        <time>2018-02-25T09:55:39.000Z</time>
      </trkpt>
      <trkpt lat="46.60558" lon="0.45915">
        <ele>188.34</ele>
        <time>2018-02-25T09:55:42.000Z</time>
      </trkpt>
      <trkpt lat="46.60548" lon="0.45926">
        <ele>188.43</ele>
        <time>2018-02-25T09:55:46.000Z</time>
      </trkpt>
      <trkpt lat="46.6054" lon="0.45936">
        <ele>188.42</ele>
        <time>2018-02-25T09:55:49.000Z</time>
      </trkpt>
      <trkpt lat="46.60532" lon="0.45947">
        <ele>188.32</ele>
        <time>2018-02-25T09:55:52.000Z</time>
      </trkpt>
      <trkpt lat="46.60525" lon="0.45963">
        <ele>188.1</ele>
        <time>2018-02-25T09:55:55.000Z</time>
      </trkpt>
      <trkpt lat="46.60519" lon="0.45973">
        <ele>187.88</ele>
        <time>2018-02-25T09:55:57.000Z</time>
      </trkpt>
      <trkpt lat="46.6051" lon="0.4599">
        <ele>186.74</ele>
        <time>2018-02-25T09:56:00.000Z</time>
      </trkpt>
      <trkpt lat="46.60503" lon="0.46002">
        <ele>186.42</ele>
        <time>2018-02-25T09:56:03.000Z</time>
      </trkpt>
      <trkpt lat="46.60497" lon="0.46015">
        <ele>185.53</ele>
        <time>2018-02-25T09:56:05.000Z</time>
      </trkpt>
      <trkpt lat="46.60491" lon="0.46025">
        <ele>185.43</ele>
        <time>2018-02-25T09:56:07.000Z</time>
      </trkpt>
      <trkpt lat="46.60483" lon="0.4604">
        <ele>185.56</ele>
        <time>2018-02-25T09:56:10.000Z</time>
      </trkpt>
      <trkpt lat="46.60476" lon="0.46056">
        <ele>185.88</ele>
        <time>2018-02-25T09:56:13.000Z</time>
      </trkpt>
      <trkpt lat="46.60471" lon="0.4607">
        <ele>185.74</ele>
        <time>2018-02-25T09:56:15.000Z</time>
      </trkpt>
      <trkpt lat="46.60466" lon="0.46088">
        <ele>184.91</ele>
        <time>2018-02-25T09:56:17.000Z</time>
      </trkpt>
      <trkpt lat="46.60462" lon="0.46103">
        <ele>183.57</ele>
        <time>2018-02-25T09:56:19.000Z</time>
      </trkpt>
      <trkpt lat="46.60459" lon="0.46119">
        <ele>182.34</ele>
        <time>2018-02-25T09:56:21.000Z</time>
      </trkpt>
      <trkpt lat="46.60454" lon="0.46134">
        <ele>180.41</ele>
        <time>2018-02-25T09:56:24.000Z</time>
      </trkpt>
      <trkpt lat="46.60449" lon="0.46151">
        <ele>179.68</ele>
        <time>2018-02-25T09:56:26.000Z</time>
      </trkpt>
      <trkpt lat="46.60444" lon="0.46169">
        <ele>179.75</ele>
        <time>2018-02-25T09:56:28.000Z</time>
      </trkpt>
      <trkpt lat="46.60439" lon="0.46185">
        <ele>180.2</ele>
        <time>2018-02-25T09:56:31.000Z</time>
      </trkpt>
      <trkpt lat="46.60435" lon="0.46205">
        <ele>181.17</ele>
        <time>2018-02-25T09:56:33.000Z</time>
      </trkpt>
      <trkpt lat="46.6043" lon="0.46224">
        <ele>181.92</ele>
        <time>2018-02-25T09:56:35.000Z</time>
      </trkpt>
      <trkpt lat="46.60427" lon="0.4624">
        <ele>182.13</ele>
        <time>2018-02-25T09:56:37.000Z</time>
      </trkpt>
      <trkpt lat="46.60424" lon="0.46255">
        <ele>182.12</ele>
        <time>2018-02-25T09:56:39.000Z</time>
      </trkpt>
      <trkpt lat="46.6042" lon="0.46269">
        <ele>182.21</ele>
        <time>2018-02-25T09:56:42.000Z</time>
      </trkpt>
      <trkpt lat="46.60416" lon="0.46281">
        <ele>182.82</ele>
        <time>2018-02-25T09:56:44.000Z</time>
      </trkpt>
      <trkpt lat="46.60413" lon="0.46295">
        <ele>183</ele>
        <time>2018-02-25T09:56:45.000Z</time>
      </trkpt>
      <trkpt lat="46.6041" lon="0.46312">
        <ele>183.36</ele>
        <time>2018-02-25T09:56:46.000Z</time>
      </trkpt>
      <trkpt lat="46.60407" lon="0.46331">
        <ele>184.17</ele>
        <time>2018-02-25T09:56:47.000Z</time>
      </trkpt>
      <trkpt lat="46.60405" lon="0.46349">
        <ele>185.19</ele>
        <time>2018-02-25T09:56:49.000Z</time>
      </trkpt>
      <trkpt lat="46.60403" lon="0.46365">
        <ele>185.47</ele>
        <time>2018-02-25T09:56:51.000Z</time>
      </trkpt>
      <trkpt lat="46.604" lon="0.46381">
        <ele>185.16</ele>
        <time>2018-02-25T09:56:53.000Z</time>
      </trkpt>
      <trkpt lat="46.60397" lon="0.46398">
        <ele>185.12</ele>
        <time>2018-02-25T09:56:55.000Z</time>
      </trkpt>
      <trkpt lat="46.60396" lon="0.46413">
        <ele>186.01</ele>
        <time>2018-02-25T09:56:57.000Z</time>
      </trkpt>
      <trkpt lat="46.60394" lon="0.46428">
        <ele>186.36</ele>
        <time>2018-02-25T09:56:59.000Z</time>
      </trkpt>
      <trkpt lat="46.60392" lon="0.46445">
        <ele>186.33</ele>
        <time>2018-02-25T09:57:01.000Z</time>
      </trkpt>
      <trkpt lat="46.60391" lon="0.46459">
        <ele>186.28</ele>
        <time>2018-02-25T09:57:03.000Z</time>
      </trkpt>
      <trkpt lat="46.60391" lon="0.46477">
        <ele>185.47</ele>
        <time>2018-02-25T09:57:05.000Z</time>
      </trkpt>
      <trkpt lat="46.60391" lon="0.46495">
        <ele>185.7</ele>
        <time>2018-02-25T09:57:07.000Z</time>
      </trkpt>
      <trkpt lat="46.60389" lon="0.46511">
        <ele>186.06</ele>
        <time>2018-02-25T09:57:09.000Z</time>
      </trkpt>
      <trkpt lat="46.60388" lon="0.46527">
        <ele>186.93</ele>
        <time>2018-02-25T09:57:11.000Z</time>
      </trkpt>
      <trkpt lat="46.60388" lon="0.46546">
        <ele>186.27</ele>
        <time>2018-02-25T09:57:13.000Z</time>
      </trkpt>
      <trkpt lat="46.60386" lon="0.46564">
        <ele>184.9</ele>
        <time>2018-02-25T09:57:15.000Z</time>
      </trkpt>
      <trkpt lat="46.60385" lon="0.46584">
        <ele>183.14</ele>
        <time>2018-02-25T09:57:17.000Z</time>
      </trkpt>
      <trkpt lat="46.60384" lon="0.466">
        <ele>181.65</ele>
        <time>2018-02-25T09:57:19.000Z</time>
      </trkpt>
      <trkpt lat="46.60382" lon="0.46614">
        <ele>180.92</ele>
        <time>2018-02-25T09:57:21.000Z</time>
      </trkpt>
      <trkpt lat="46.60381" lon="0.4663">
        <ele>180.89</ele>
        <time>2018-02-25T09:57:23.000Z</time>
      </trkpt>
      <trkpt lat="46.60379" lon="0.46643">
        <ele>180.92</ele>
        <time>2018-02-25T09:57:25.000Z</time>
      </trkpt>
      <trkpt lat="46.60379" lon="0.4666">
        <ele>180.94</ele>
        <time>2018-02-25T09:57:27.000Z</time>
      </trkpt>
      <trkpt lat="46.60378" lon="0.46674">
        <ele>180.93</ele>
        <time>2018-02-25T09:57:29.000Z</time>
      </trkpt>
      <trkpt lat="46.60378" lon="0.4669">
        <ele>180.91</ele>
        <time>2018-02-25T09:57:31.000Z</time>
      </trkpt>
      <trkpt lat="46.60378" lon="0.46709">
        <ele>180.9</ele>
        <time>2018-02-25T09:57:33.000Z</time>
      </trkpt>
      <trkpt lat="46.60378" lon="0.46724">
        <ele>180.94</ele>
        <time>2018-02-25T09:57:35.000Z</time>
      </trkpt>
      <trkpt lat="46.6038" lon="0.46741">
        <ele>181.04</ele>
        <time>2018-02-25T09:57:37.000Z</time>
      </trkpt>
      <trkpt lat="46.60383" lon="0.46756">
        <ele>180.84</ele>
        <time>2018-02-25T09:57:39.000Z</time>
      </trkpt>
      <trkpt lat="46.60384" lon="0.46772">
        <ele>180.36</ele>
        <time>2018-02-25T09:57:41.000Z</time>
      </trkpt>
      <trkpt lat="46.60387" lon="0.46789">
        <ele>180.3</ele>
        <time>2018-02-25T09:57:44.000Z</time>
      </trkpt>
      <trkpt lat="46.6039" lon="0.46802">
        <ele>180.26</ele>
        <time>2018-02-25T09:57:46.000Z</time>
      </trkpt>
      <trkpt lat="46.60394" lon="0.46818">
        <ele>180.17</ele>
        <time>2018-02-25T09:57:49.000Z</time>
      </trkpt>
      <trkpt lat="46.60397" lon="0.46832">
        <ele>180.08</ele>
        <time>2018-02-25T09:57:51.000Z</time>
      </trkpt>
      <trkpt lat="46.604" lon="0.46846">
        <ele>179.95</ele>
        <time>2018-02-25T09:57:53.000Z</time>
      </trkpt>
      <trkpt lat="46.60402" lon="0.46859">
        <ele>177.35</ele>
        <time>2018-02-25T09:57:55.000Z</time>
      </trkpt>
      <trkpt lat="46.60405" lon="0.46873">
        <ele>174.26</ele>
        <time>2018-02-25T09:57:57.000Z</time>
      </trkpt>
      <trkpt lat="46.60405" lon="0.46886">
        <ele>173.7</ele>
        <time>2018-02-25T09:58:00.000Z</time>
      </trkpt>
      <trkpt lat="46.60408" lon="0.46902">
        <ele>173.2</ele>
        <time>2018-02-25T09:58:04.000Z</time>
      </trkpt>
      <trkpt lat="46.60409" lon="0.4692">
        <ele>173.62</ele>
        <time>2018-02-25T09:58:08.000Z</time>
      </trkpt>
      <trkpt lat="46.60409" lon="0.46934">
        <ele>174.6</ele>
        <time>2018-02-25T09:58:12.000Z</time>
      </trkpt>
      <trkpt lat="46.60409" lon="0.46951">
        <ele>175.81</ele>
        <time>2018-02-25T09:58:16.000Z</time>
      </trkpt>
      <trkpt lat="46.60413" lon="0.46966">
        <ele>176.79</ele>
        <time>2018-02-25T09:58:19.000Z</time>
      </trkpt>
      <trkpt lat="46.60417" lon="0.46979">
        <ele>177.93</ele>
        <time>2018-02-25T09:58:23.000Z</time>
      </trkpt>
      <trkpt lat="46.60423" lon="0.46995">
        <ele>178.55</ele>
        <time>2018-02-25T09:58:26.000Z</time>
      </trkpt>
      <trkpt lat="46.60426" lon="0.47008">
        <ele>178.9</ele>
        <time>2018-02-25T09:58:28.000Z</time>
      </trkpt>
      <trkpt lat="46.60429" lon="0.47022">
        <ele>179.23</ele>
        <time>2018-02-25T09:58:32.000Z</time>
      </trkpt>
      <trkpt lat="46.60439" lon="0.47029">
        <ele>179.44</ele>
        <time>2018-02-25T09:58:36.000Z</time>
      </trkpt>
      <trkpt lat="46.60448" lon="0.47032">
        <ele>179.66</ele>
        <time>2018-02-25T09:58:38.000Z</time>
      </trkpt>
      <trkpt lat="46.6046" lon="0.47033">
        <ele>180</ele>
        <time>2018-02-25T09:58:41.000Z</time>
      </trkpt>
      <trkpt lat="46.60471" lon="0.47035">
        <ele>180.53</ele>
        <time>2018-02-25T09:58:45.000Z</time>
      </trkpt>
      <trkpt lat="46.60482" lon="0.47042">
        <ele>181.17</ele>
        <time>2018-02-25T09:58:49.000Z</time>
      </trkpt>
      <trkpt lat="46.60487" lon="0.47058">
        <ele>181.55</ele>
        <time>2018-02-25T09:58:51.000Z</time>
      </trkpt>
      <trkpt lat="46.60491" lon="0.47071">
        <ele>182</ele>
        <time>2018-02-25T09:58:53.000Z</time>
      </trkpt>
      <trkpt lat="46.6049" lon="0.4709">
        <ele>182.37</ele>
        <time>2018-02-25T09:58:56.000Z</time>
      </trkpt>
      <trkpt lat="46.60489" lon="0.47104">
        <ele>182.48</ele>
        <time>2018-02-25T09:58:58.000Z</time>
      </trkpt>
      <trkpt lat="46.60487" lon="0.47121">
        <ele>182.65</ele>
        <time>2018-02-25T09:59:01.000Z</time>
      </trkpt>
      <trkpt lat="46.60484" lon="0.47136">
        <ele>182.89</ele>
        <time>2018-02-25T09:59:05.000Z</time>
      </trkpt>
      <trkpt lat="46.6049" lon="0.47155">
        <ele>182.98</ele>
        <time>2018-02-25T09:59:09.000Z</time>
      </trkpt>
      <trkpt lat="46.60494" lon="0.47168">
        <ele>183.11</ele>
        <time>2018-02-25T09:59:12.000Z</time>
      </trkpt>
      <trkpt lat="46.605" lon="0.47181">
        <ele>183.27</ele>
        <time>2018-02-25T09:59:15.000Z</time>
      </trkpt>
      <trkpt lat="46.60508" lon="0.47194">
        <ele>183.42</ele>
        <time>2018-02-25T09:59:18.000Z</time>
      </trkpt>
      <trkpt lat="46.60515" lon="0.47208">
        <ele>183.71</ele>
        <time>2018-02-25T09:59:21.000Z</time>
      </trkpt>
      <trkpt lat="46.60521" lon="0.47221">
        <ele>184.24</ele>
        <time>2018-02-25T09:59:25.000Z</time>
      </trkpt>
      <trkpt lat="46.60525" lon="0.47232">
        <ele>184.78</ele>
        <time>2018-02-25T09:59:28.000Z</time>
      </trkpt>
      <trkpt lat="46.60533" lon="0.47246">
        <ele>185.35</ele>
        <time>2018-02-25T09:59:31.000Z</time>
      </trkpt>
      <trkpt lat="46.60539" lon="0.47258">
        <ele>185.78</ele>
        <time>2018-02-25T09:59:33.000Z</time>
      </trkpt>
      <trkpt lat="46.60544" lon="0.47272">
        <ele>186.28</ele>
        <time>2018-02-25T09:59:36.000Z</time>
      </trkpt>
      <trkpt lat="46.60548" lon="0.47285">
        <ele>186.52</ele>
        <time>2018-02-25T09:59:39.000Z</time>
      </trkpt>
      <trkpt lat="46.6055" lon="0.47299">
        <ele>186.67</ele>
        <time>2018-02-25T09:59:41.000Z</time>
      </trkpt>
      <trkpt lat="46.60555" lon="0.47311">
        <ele>186.86</ele>
        <time>2018-02-25T09:59:43.000Z</time>
      </trkpt>
      <trkpt lat="46.6056" lon="0.47324">
        <ele>187.15</ele>
        <time>2018-02-25T09:59:46.000Z</time>
      </trkpt>
      <trkpt lat="46.60564" lon="0.47336">
        <ele>187.37</ele>
        <time>2018-02-25T09:59:49.000Z</time>
      </trkpt>
      <trkpt lat="46.60569" lon="0.47354">
        <ele>187.33</ele>
        <time>2018-02-25T09:59:53.000Z</time>
      </trkpt>
      <trkpt lat="46.60572" lon="0.47367">
        <ele>187.07</ele>
        <time>2018-02-25T09:59:57.000Z</time>
      </trkpt>
      <trkpt lat="46.60576" lon="0.47383">
        <ele>187.01</ele>
        <time>2018-02-25T10:00:00.000Z</time>
      </trkpt>
      <trkpt lat="46.60582" lon="0.47394">
        <ele>186.98</ele>
        <time>2018-02-25T10:00:02.000Z</time>
      </trkpt>
      <trkpt lat="46.6059" lon="0.47403">
        <ele>186.87</ele>
        <time>2018-02-25T10:00:04.000Z</time>
      </trkpt>
      <trkpt lat="46.60604" lon="0.47411">
        <ele>186.71</ele>
        <time>2018-02-25T10:00:07.000Z</time>
      </trkpt>
      <trkpt lat="46.60613" lon="0.47423">
        <ele>186.66</ele>
        <time>2018-02-25T10:00:09.000Z</time>
      </trkpt>
      <trkpt lat="46.6062" lon="0.47435">
        <ele>186.58</ele>
        <time>2018-02-25T10:00:11.000Z</time>
      </trkpt>
      <trkpt lat="46.60626" lon="0.47448">
        <ele>186.46</ele>
        <time>2018-02-25T10:00:14.000Z</time>
      </trkpt>
      <trkpt lat="46.60635" lon="0.47458">
        <ele>186.37</ele>
        <time>2018-02-25T10:00:17.000Z</time>
      </trkpt>
      <trkpt lat="46.6064" lon="0.47471">
        <ele>186.38</ele>
        <time>2018-02-25T10:00:19.000Z</time>
      </trkpt>
      <trkpt lat="46.60646" lon="0.47484">
        <ele>186.39</ele>
        <time>2018-02-25T10:00:21.000Z</time>
      </trkpt>
      <trkpt lat="46.60655" lon="0.47498">
        <ele>186.31</ele>
        <time>2018-02-25T10:00:24.000Z</time>
      </trkpt>
      <trkpt lat="46.6066" lon="0.47517">
        <ele>186.23</ele>
        <time>2018-02-25T10:00:27.000Z</time>
      </trkpt>
      <trkpt lat="46.60665" lon="0.47531">
        <ele>186.25</ele>
        <time>2018-02-25T10:00:29.000Z</time>
      </trkpt>
      <trkpt lat="46.6067" lon="0.47544">
        <ele>186.37</ele>
        <time>2018-02-25T10:00:31.000Z</time>
      </trkpt>
      <trkpt lat="46.60673" lon="0.47557">
        <ele>186.31</ele>
        <time>2018-02-25T10:00:34.000Z</time>
      </trkpt>
      <trkpt lat="46.60681" lon="0.47572">
        <ele>186.12</ele>
        <time>2018-02-25T10:00:37.000Z</time>
      </trkpt>
      <trkpt lat="46.60684" lon="0.47584">
        <ele>186.08</ele>
        <time>2018-02-25T10:00:39.000Z</time>
      </trkpt>
      <trkpt lat="46.6069" lon="0.47597">
        <ele>186.24</ele>
        <time>2018-02-25T10:00:42.000Z</time>
      </trkpt>
      <trkpt lat="46.60697" lon="0.47607">
        <ele>186.52</ele>
        <time>2018-02-25T10:00:45.000Z</time>
      </trkpt>
      <trkpt lat="46.60702" lon="0.47621">
        <ele>186.58</ele>
        <time>2018-02-25T10:00:49.000Z</time>
      </trkpt>
      <trkpt lat="46.60707" lon="0.47641">
        <ele>186.79</ele>
        <time>2018-02-25T10:00:51.000Z</time>
      </trkpt>
      <trkpt lat="46.60711" lon="0.47659">
        <ele>187.04</ele>
        <time>2018-02-25T10:00:53.000Z</time>
      </trkpt>
      <trkpt lat="46.60716" lon="0.47669">
        <ele>187.15</ele>
        <time>2018-02-25T10:00:55.000Z</time>
      </trkpt>
      <trkpt lat="46.60722" lon="0.47681">
        <ele>187.11</ele>
        <time>2018-02-25T10:00:58.000Z</time>
      </trkpt>
      <trkpt lat="46.60728" lon="0.47692">
        <ele>187.02</ele>
        <time>2018-02-25T10:01:00.000Z</time>
      </trkpt>
      <trkpt lat="46.60736" lon="0.47708">
        <ele>186.98</ele>
        <time>2018-02-25T10:01:02.000Z</time>
      </trkpt>
      <trkpt lat="46.60743" lon="0.47722">
        <ele>186.94</ele>
        <time>2018-02-25T10:01:05.000Z</time>
      </trkpt>
      <trkpt lat="46.60751" lon="0.47733">
        <ele>186.72</ele>
        <time>2018-02-25T10:01:08.000Z</time>
      </trkpt>
      <trkpt lat="46.60761" lon="0.4775">
        <ele>186.37</ele>
        <time>2018-02-25T10:01:11.000Z</time>
      </trkpt>
      <trkpt lat="46.60773" lon="0.47765">
        <ele>185.91</ele>
        <time>2018-02-25T10:01:14.000Z</time>
      </trkpt>
      <trkpt lat="46.60781" lon="0.47775">
        <ele>185.4</ele>
        <time>2018-02-25T10:01:17.000Z</time>
      </trkpt>
      <trkpt lat="46.6079" lon="0.47781">
        <ele>185.02</ele>
        <time>2018-02-25T10:01:20.000Z</time>
      </trkpt>
      <trkpt lat="46.60801" lon="0.47794">
        <ele>184.9</ele>
        <time>2018-02-25T10:01:23.000Z</time>
      </trkpt>
      <trkpt lat="46.60808" lon="0.47803">
        <ele>184.91</ele>
        <time>2018-02-25T10:01:25.000Z</time>
      </trkpt>
      <trkpt lat="46.60816" lon="0.47811">
        <ele>184.93</ele>
        <time>2018-02-25T10:01:27.000Z</time>
      </trkpt>
      <trkpt lat="46.60825" lon="0.47819">
        <ele>185</ele>
        <time>2018-02-25T10:01:30.000Z</time>
      </trkpt>
      <trkpt lat="46.60833" lon="0.47825">
        <ele>185</ele>
        <time>2018-02-25T10:01:32.000Z</time>
      </trkpt>
      <trkpt lat="46.60846" lon="0.47836">
        <ele>184.9</ele>
        <time>2018-02-25T10:01:35.000Z</time>
      </trkpt>
      <trkpt lat="46.60855" lon="0.47839">
        <ele>184.75</ele>
        <time>2018-02-25T10:01:37.000Z</time>
      </trkpt>
      <trkpt lat="46.60865" lon="0.47844">
        <ele>184.54</ele>
        <time>2018-02-25T10:01:40.000Z</time>
      </trkpt>
      <trkpt lat="46.60874" lon="0.4785">
        <ele>184.45</ele>
        <time>2018-02-25T10:01:44.000Z</time>
      </trkpt>
      <trkpt lat="46.60883" lon="0.4786">
        <ele>184.46</ele>
        <time>2018-02-25T10:01:47.000Z</time>
      </trkpt>
      <trkpt lat="46.60893" lon="0.47874">
        <ele>184.58</ele>
        <time>2018-02-25T10:01:51.000Z</time>
      </trkpt>
      <trkpt lat="46.609" lon="0.47884">
        <ele>184.61</ele>
        <time>2018-02-25T10:01:54.000Z</time>
      </trkpt>
      <trkpt lat="46.60907" lon="0.47892">
        <ele>184.58</ele>
        <time>2018-02-25T10:01:58.000Z</time>
      </trkpt>
      <trkpt lat="46.60914" lon="0.47904">
        <ele>184.55</ele>
        <time>2018-02-25T10:02:01.000Z</time>
      </trkpt>
      <trkpt lat="46.60918" lon="0.47917">
        <ele>184.61</ele>
        <time>2018-02-25T10:02:05.000Z</time>
      </trkpt>
      <trkpt lat="46.60929" lon="0.47933">
        <ele>184.8</ele>
        <time>2018-02-25T10:02:09.000Z</time>
      </trkpt>
      <trkpt lat="46.60935" lon="0.47944">
        <ele>184.55</ele>
        <time>2018-02-25T10:02:12.000Z</time>
      </trkpt>
      <trkpt lat="46.60937" lon="0.47958">
        <ele>184.17</ele>
        <time>2018-02-25T10:02:15.000Z</time>
      </trkpt>
      <trkpt lat="46.60941" lon="0.47972">
        <ele>183.93</ele>
        <time>2018-02-25T10:02:19.000Z</time>
      </trkpt>
      <trkpt lat="46.60943" lon="0.47987">
        <ele>183.67</ele>
        <time>2018-02-25T10:02:22.000Z</time>
      </trkpt>
      <trkpt lat="46.60947" lon="0.48">
        <ele>183.53</ele>
        <time>2018-02-25T10:02:24.000Z</time>
      </trkpt>
      <trkpt lat="46.60955" lon="0.4801">
        <ele>183.15</ele>
        <time>2018-02-25T10:02:27.000Z</time>
      </trkpt>
      <trkpt lat="46.60959" lon="0.48027">
        <ele>182.74</ele>
        <time>2018-02-25T10:02:32.000Z</time>
      </trkpt>
      <trkpt lat="46.60962" lon="0.4804">
        <ele>182.64</ele>
        <time>2018-02-25T10:02:35.000Z</time>
      </trkpt>
      <trkpt lat="46.60967" lon="0.48057">
        <ele>182.53</ele>
        <time>2018-02-25T10:02:38.000Z</time>
      </trkpt>
      <trkpt lat="46.60974" lon="0.48068">
        <ele>182.54</ele>
        <time>2018-02-25T10:02:39.000Z</time>
      </trkpt>
      <trkpt lat="46.60977" lon="0.48083">
        <ele>182.54</ele>
        <time>2018-02-25T10:02:41.000Z</time>
      </trkpt>
      <trkpt lat="46.60974" lon="0.48097">
        <ele>182.7</ele>
        <time>2018-02-25T10:02:45.000Z</time>
      </trkpt>
      <trkpt lat="46.60981" lon="0.4811">
        <ele>182.58</ele>
        <time>2018-02-25T10:02:49.000Z</time>
      </trkpt>
      <trkpt lat="46.60986" lon="0.48121">
        <ele>182.36</ele>
        <time>2018-02-25T10:02:52.000Z</time>
      </trkpt>
      <trkpt lat="46.60992" lon="0.48132">
        <ele>182.07</ele>
        <time>2018-02-25T10:02:55.000Z</time>
      </trkpt>
      <trkpt lat="46.60996" lon="0.48145">
        <ele>181.55</ele>
        <time>2018-02-25T10:02:59.000Z</time>
      </trkpt>
      <trkpt lat="46.61001" lon="0.4816">
        <ele>181.25</ele>
        <time>2018-02-25T10:03:03.000Z</time>
      </trkpt>
      <trkpt lat="46.61006" lon="0.48181">
        <ele>181.29</ele>
        <time>2018-02-25T10:03:07.000Z</time>
      </trkpt>
      <trkpt lat="46.61016" lon="0.48201">
        <ele>181.37</ele>
        <time>2018-02-25T10:03:09.000Z</time>
      </trkpt>
      <trkpt lat="46.61021" lon="0.48212">
        <ele>181.49</ele>
        <time>2018-02-25T10:03:11.000Z</time>
      </trkpt>
      <trkpt lat="46.61029" lon="0.48225">
        <ele>181.52</ele>
        <time>2018-02-25T10:03:13.000Z</time>
      </trkpt>
      <trkpt lat="46.61035" lon="0.48236">
        <ele>181.54</ele>
        <time>2018-02-25T10:03:16.000Z</time>
      </trkpt>
      <trkpt lat="46.61038" lon="0.48249">
        <ele>181.65</ele>
        <time>2018-02-25T10:03:19.000Z</time>
      </trkpt>
      <trkpt lat="46.61041" lon="0.48264">
        <ele>181.78</ele>
        <time>2018-02-25T10:03:22.000Z</time>
      </trkpt>
      <trkpt lat="46.61046" lon="0.48279">
        <ele>181.88</ele>
        <time>2018-02-25T10:03:25.000Z</time>
      </trkpt>
      <trkpt lat="46.61049" lon="0.48293">
        <ele>182.13</ele>
        <time>2018-02-25T10:03:28.000Z</time>
      </trkpt>
      <trkpt lat="46.61052" lon="0.48307">
        <ele>182.57</ele>
        <time>2018-02-25T10:03:32.000Z</time>
      </trkpt>
      <trkpt lat="46.61055" lon="0.48321">
        <ele>182.93</ele>
        <time>2018-02-25T10:03:35.000Z</time>
      </trkpt>
      <trkpt lat="46.61061" lon="0.48333">
        <ele>183.13</ele>
        <time>2018-02-25T10:03:37.000Z</time>
      </trkpt>
      <trkpt lat="46.61069" lon="0.48345">
        <ele>183.24</ele>
        <time>2018-02-25T10:03:39.000Z</time>
      </trkpt>
      <trkpt lat="46.61076" lon="0.48353">
        <ele>183.12</ele>
        <time>2018-02-25T10:03:41.000Z</time>
      </trkpt>
      <trkpt lat="46.61083" lon="0.48365">
        <ele>182.77</ele>
        <time>2018-02-25T10:03:44.000Z</time>
      </trkpt>
      <trkpt lat="46.61088" lon="0.48377">
        <ele>182.3</ele>
        <time>2018-02-25T10:03:48.000Z</time>
      </trkpt>
      <trkpt lat="46.61092" lon="0.48394">
        <ele>182.15</ele>
        <time>2018-02-25T10:03:51.000Z</time>
      </trkpt>
      <trkpt lat="46.61098" lon="0.48407">
        <ele>182.23</ele>
        <time>2018-02-25T10:03:54.000Z</time>
      </trkpt>
      <trkpt lat="46.61104" lon="0.48418">
        <ele>182.26</ele>
        <time>2018-02-25T10:03:57.000Z</time>
      </trkpt>
      <trkpt lat="46.61112" lon="0.48429">
        <ele>182.02</ele>
        <time>2018-02-25T10:04:00.000Z</time>
      </trkpt>
      <trkpt lat="46.61114" lon="0.48443">
        <ele>181.52</ele>
        <time>2018-02-25T10:04:04.000Z</time>
      </trkpt>
      <trkpt lat="46.61116" lon="0.48459">
        <ele>181.24</ele>
        <time>2018-02-25T10:04:07.000Z</time>
      </trkpt>
      <trkpt lat="46.61126" lon="0.48472">
        <ele>181.09</ele>
        <time>2018-02-25T10:04:09.000Z</time>
      </trkpt>
      <trkpt lat="46.61137" lon="0.48481">
        <ele>180.88</ele>
        <time>2018-02-25T10:04:12.000Z</time>
      </trkpt>
      <trkpt lat="46.61144" lon="0.48493">
        <ele>180.45</ele>
        <time>2018-02-25T10:04:15.000Z</time>
      </trkpt>
      <trkpt lat="46.61152" lon="0.48507">
        <ele>179.86</ele>
        <time>2018-02-25T10:04:19.000Z</time>
      </trkpt>
      <trkpt lat="46.61157" lon="0.48522">
        <ele>179.59</ele>
        <time>2018-02-25T10:04:22.000Z</time>
      </trkpt>
      <trkpt lat="46.61164" lon="0.48532">
        <ele>179.39</ele>
        <time>2018-02-25T10:04:25.000Z</time>
      </trkpt>
      <trkpt lat="46.6117" lon="0.48544">
        <ele>179.26</ele>
        <time>2018-02-25T10:04:28.000Z</time>
      </trkpt>
      <trkpt lat="46.61176" lon="0.48554">
        <ele>179.18</ele>
        <time>2018-02-25T10:04:30.000Z</time>
      </trkpt>
      <trkpt lat="46.61184" lon="0.48568">
        <ele>179.06</ele>
        <time>2018-02-25T10:04:33.000Z</time>
      </trkpt>
      <trkpt lat="46.61192" lon="0.48577">
        <ele>178.97</ele>
        <time>2018-02-25T10:04:36.000Z</time>
      </trkpt>
      <trkpt lat="46.61203" lon="0.48588">
        <ele>178.7</ele>
        <time>2018-02-25T10:04:41.000Z</time>
      </trkpt>
      <trkpt lat="46.6121" lon="0.48598">
        <ele>178.39</ele>
        <time>2018-02-25T10:04:45.000Z</time>
      </trkpt>
      <trkpt lat="46.61213" lon="0.48611">
        <ele>177.91</ele>
        <time>2018-02-25T10:04:49.000Z</time>
      </trkpt>
      <trkpt lat="46.61217" lon="0.48624">
        <ele>177.43</ele>
        <time>2018-02-25T10:04:52.000Z</time>
      </trkpt>
      <trkpt lat="46.6122" lon="0.48639">
        <ele>176.37</ele>
        <time>2018-02-25T10:04:58.000Z</time>
      </trkpt>
      <trkpt lat="46.61221" lon="0.48654">
        <ele>175.64</ele>
        <time>2018-02-25T10:05:01.000Z</time>
      </trkpt>
      <trkpt lat="46.61222" lon="0.48668">
        <ele>174.43</ele>
        <time>2018-02-25T10:05:05.000Z</time>
      </trkpt>
      <trkpt lat="46.61221" lon="0.48684">
        <ele>173.31</ele>
        <time>2018-02-25T10:05:09.000Z</time>
      </trkpt>
      <trkpt lat="46.6123" lon="0.48703">
        <ele>172.86</ele>
        <time>2018-02-25T10:05:12.000Z</time>
      </trkpt>
      <trkpt lat="46.61236" lon="0.48716">
        <ele>172.63</ele>
        <time>2018-02-25T10:05:15.000Z</time>
      </trkpt>
      <trkpt lat="46.61242" lon="0.48726">
        <ele>172.65</ele>
        <time>2018-02-25T10:05:20.000Z</time>
      </trkpt>
      <trkpt lat="46.6125" lon="0.48741">
        <ele>172.61</ele>
        <time>2018-02-25T10:05:25.000Z</time>
      </trkpt>
      <trkpt lat="46.61257" lon="0.48749">
        <ele>172.39</ele>
        <time>2018-02-25T10:05:28.000Z</time>
      </trkpt>
      <trkpt lat="46.61267" lon="0.48758">
        <ele>172.15</ele>
        <time>2018-02-25T10:05:31.000Z</time>
      </trkpt>
      <trkpt lat="46.61275" lon="0.48767">
        <ele>172.08</ele>
        <time>2018-02-25T10:05:33.000Z</time>
      </trkpt>
      <trkpt lat="46.61281" lon="0.48778">
        <ele>171.98</ele>
        <time>2018-02-25T10:05:36.000Z</time>
      </trkpt>
      <trkpt lat="46.61287" lon="0.48789">
        <ele>171.87</ele>
        <time>2018-02-25T10:05:38.000Z</time>
      </trkpt>
      <trkpt lat="46.61295" lon="0.48799">
        <ele>171.78</ele>
        <time>2018-02-25T10:05:40.000Z</time>
      </trkpt>
      <trkpt lat="46.61303" lon="0.4881">
        <ele>171.78</ele>
        <time>2018-02-25T10:05:43.000Z</time>
      </trkpt>
      <trkpt lat="46.61314" lon="0.48813">
        <ele>171.8</ele>
        <time>2018-02-25T10:05:46.000Z</time>
      </trkpt>
      <trkpt lat="46.61324" lon="0.48821">
        <ele>171.86</ele>
        <time>2018-02-25T10:05:48.000Z</time>
      </trkpt>
      <trkpt lat="46.61333" lon="0.48828">
        <ele>171.89</ele>
        <time>2018-02-25T10:05:49.000Z</time>
      </trkpt>
      <trkpt lat="46.61349" lon="0.48836">
        <ele>171.99</ele>
        <time>2018-02-25T10:05:51.000Z</time>
      </trkpt>
      <trkpt lat="46.61363" lon="0.48846">
        <ele>172.18</ele>
        <time>2018-02-25T10:05:53.000Z</time>
      </trkpt>
      <trkpt lat="46.6137" lon="0.48858">
        <ele>172.38</ele>
        <time>2018-02-25T10:05:55.000Z</time>
      </trkpt>
      <trkpt lat="46.61379" lon="0.48871">
        <ele>172.84</ele>
        <time>2018-02-25T10:05:58.000Z</time>
      </trkpt>
      <trkpt lat="46.61383" lon="0.48883">
        <ele>173.56</ele>
        <time>2018-02-25T10:06:02.000Z</time>
      </trkpt>
      <trkpt lat="46.61387" lon="0.48897">
        <ele>174.48</ele>
        <time>2018-02-25T10:06:07.000Z</time>
      </trkpt>
      <trkpt lat="46.61394" lon="0.48914">
        <ele>175.13</ele>
        <time>2018-02-25T10:06:10.000Z</time>
      </trkpt>
      <trkpt lat="46.61399" lon="0.48926">
        <ele>175.64</ele>
        <time>2018-02-25T10:06:12.000Z</time>
      </trkpt>
      <trkpt lat="46.61407" lon="0.48938">
        <ele>176.32</ele>
        <time>2018-02-25T10:06:15.000Z</time>
      </trkpt>
      <trkpt lat="46.61415" lon="0.48955">
        <ele>176.85</ele>
        <time>2018-02-25T10:06:18.000Z</time>
      </trkpt>
      <trkpt lat="46.61421" lon="0.48967">
        <ele>177.05</ele>
        <time>2018-02-25T10:06:19.000Z</time>
      </trkpt>
      <trkpt lat="46.61426" lon="0.48986">
        <ele>177.56</ele>
        <time>2018-02-25T10:06:21.000Z</time>
      </trkpt>
      <trkpt lat="46.61433" lon="0.48997">
        <ele>178.07</ele>
        <time>2018-02-25T10:06:23.000Z</time>
      </trkpt>
      <trkpt lat="46.61443" lon="0.49008">
        <ele>178.45</ele>
        <time>2018-02-25T10:06:25.000Z</time>
      </trkpt>
      <trkpt lat="46.61451" lon="0.4902">
        <ele>178.86</ele>
        <time>2018-02-25T10:06:28.000Z</time>
      </trkpt>
      <trkpt lat="46.61459" lon="0.49038">
        <ele>179.25</ele>
        <time>2018-02-25T10:06:31.000Z</time>
      </trkpt>
      <trkpt lat="46.61465" lon="0.4905">
        <ele>179.47</ele>
        <time>2018-02-25T10:06:33.000Z</time>
      </trkpt>
      <trkpt lat="46.61469" lon="0.49065">
        <ele>179.73</ele>
        <time>2018-02-25T10:06:36.000Z</time>
      </trkpt>
      <trkpt lat="46.61475" lon="0.49079">
        <ele>179.89</ele>
        <time>2018-02-25T10:06:39.000Z</time>
      </trkpt>
      <trkpt lat="46.61478" lon="0.49093">
        <ele>179.85</ele>
        <time>2018-02-25T10:06:42.000Z</time>
      </trkpt>
      <trkpt lat="46.6148" lon="0.49109">
        <ele>179.68</ele>
        <time>2018-02-25T10:06:46.000Z</time>
      </trkpt>
      <trkpt lat="46.61482" lon="0.49123">
        <ele>179.72</ele>
        <time>2018-02-25T10:06:52.000Z</time>
      </trkpt>
      <trkpt lat="46.61487" lon="0.49136">
        <ele>180.11</ele>
        <time>2018-02-25T10:06:58.000Z</time>
      </trkpt>
      <trkpt lat="46.61493" lon="0.49146">
        <ele>180.22</ele>
        <time>2018-02-25T10:07:00.000Z</time>
      </trkpt>
      <trkpt lat="46.61502" lon="0.49158">
        <ele>180.21</ele>
        <time>2018-02-25T10:07:02.000Z</time>
      </trkpt>
      <trkpt lat="46.61511" lon="0.49172">
        <ele>180.14</ele>
        <time>2018-02-25T10:07:04.000Z</time>
      </trkpt>
      <trkpt lat="46.61518" lon="0.49181">
        <ele>179.89</ele>
        <time>2018-02-25T10:07:07.000Z</time>
      </trkpt>
      <trkpt lat="46.61525" lon="0.49191">
        <ele>179.62</ele>
        <time>2018-02-25T10:07:10.000Z</time>
      </trkpt>
      <trkpt lat="46.61535" lon="0.49196">
        <ele>179.55</ele>
        <time>2018-02-25T10:07:13.000Z</time>
      </trkpt>
      <trkpt lat="46.61543" lon="0.49202">
        <ele>179.61</ele>
        <time>2018-02-25T10:07:15.000Z</time>
      </trkpt>
      <trkpt lat="46.61552" lon="0.49206">
        <ele>179.69</ele>
        <time>2018-02-25T10:07:18.000Z</time>
      </trkpt>
      <trkpt lat="46.61561" lon="0.4921">
        <ele>179.73</ele>
        <time>2018-02-25T10:07:20.000Z</time>
      </trkpt>
      <trkpt lat="46.6157" lon="0.49216">
        <ele>179.74</ele>
        <time>2018-02-25T10:07:23.000Z</time>
      </trkpt>
      <trkpt lat="46.61578" lon="0.49223">
        <ele>179.67</ele>
        <time>2018-02-25T10:07:26.000Z</time>
      </trkpt>
      <trkpt lat="46.61587" lon="0.49227">
        <ele>179.54</ele>
        <time>2018-02-25T10:07:29.000Z</time>
      </trkpt>
      <trkpt lat="46.61599" lon="0.49233">
        <ele>179.33</ele>
        <time>2018-02-25T10:07:32.000Z</time>
      </trkpt>
      <trkpt lat="46.61609" lon="0.49237">
        <ele>179.1</ele>
        <time>2018-02-25T10:07:35.000Z</time>
      </trkpt>
      <trkpt lat="46.61615" lon="0.49248">
        <ele>178.99</ele>
        <time>2018-02-25T10:07:37.000Z</time>
      </trkpt>
      <trkpt lat="46.6162" lon="0.49263">
        <ele>178.96</ele>
        <time>2018-02-25T10:07:39.000Z</time>
      </trkpt>
      <trkpt lat="46.61625" lon="0.49278">
        <ele>178.92</ele>
        <time>2018-02-25T10:07:42.000Z</time>
      </trkpt>
      <trkpt lat="46.61626" lon="0.49293">
        <ele>179.06</ele>
        <time>2018-02-25T10:07:46.000Z</time>
      </trkpt>
      <trkpt lat="46.6162" lon="0.49304">
        <ele>179.18</ele>
        <time>2018-02-25T10:07:48.000Z</time>
      </trkpt>
      <trkpt lat="46.61612" lon="0.49319">
        <ele>179.14</ele>
        <time>2018-02-25T10:07:51.000Z</time>
      </trkpt>
      <trkpt lat="46.61609" lon="0.49333">
        <ele>179.21</ele>
        <time>2018-02-25T10:07:52.000Z</time>
      </trkpt>
      <trkpt lat="46.61604" lon="0.49344">
        <ele>180.66</ele>
        <time>2018-02-25T10:07:53.000Z</time>
      </trkpt>
      <trkpt lat="46.61601" lon="0.49356">
        <ele>180.76</ele>
        <time>2018-02-25T10:07:55.000Z</time>
      </trkpt>
      <trkpt lat="46.61601" lon="0.49372">
        <ele>180.41</ele>
        <time>2018-02-25T10:07:57.000Z</time>
      </trkpt>
      <trkpt lat="46.61611" lon="0.4938">
        <ele>179.74</ele>
        <time>2018-02-25T10:07:59.000Z</time>
      </trkpt>
      <trkpt lat="46.6162" lon="0.49384">
        <ele>179.04</ele>
        <time>2018-02-25T10:08:01.000Z</time>
      </trkpt>
      <trkpt lat="46.6163" lon="0.49398">
        <ele>177.76</ele>
        <time>2018-02-25T10:08:04.000Z</time>
      </trkpt>
      <trkpt lat="46.61635" lon="0.49416">
        <ele>175.3</ele>
        <time>2018-02-25T10:08:06.000Z</time>
      </trkpt>
      <trkpt lat="46.61637" lon="0.49429">
        <ele>174.04</ele>
        <time>2018-02-25T10:08:08.000Z</time>
      </trkpt>
      <trkpt lat="46.61639" lon="0.49448">
        <ele>173.79</ele>
        <time>2018-02-25T10:08:10.000Z</time>
      </trkpt>
      <trkpt lat="46.61643" lon="0.49461">
        <ele>173.24</ele>
        <time>2018-02-25T10:08:13.000Z</time>
      </trkpt>
      <trkpt lat="46.61646" lon="0.49475">
        <ele>172.12</ele>
        <time>2018-02-25T10:08:17.000Z</time>
      </trkpt>
      <trkpt lat="46.61647" lon="0.49488">
        <ele>171.48</ele>
        <time>2018-02-25T10:08:19.000Z</time>
      </trkpt>
      <trkpt lat="46.6165" lon="0.49503">
        <ele>170.63</ele>
        <time>2018-02-25T10:08:22.000Z</time>
      </trkpt>
      <trkpt lat="46.61655" lon="0.49513">
        <ele>169.98</ele>
        <time>2018-02-25T10:08:25.000Z</time>
      </trkpt>
      <trkpt lat="46.61666" lon="0.49518">
        <ele>169.41</ele>
        <time>2018-02-25T10:08:29.000Z</time>
      </trkpt>
      <trkpt lat="46.61678" lon="0.4952">
        <ele>169.15</ele>
        <time>2018-02-25T10:08:32.000Z</time>
      </trkpt>
      <trkpt lat="46.61694" lon="0.49523">
        <ele>168.93</ele>
        <time>2018-02-25T10:08:35.000Z</time>
      </trkpt>
      <trkpt lat="46.61708" lon="0.4952">
        <ele>168.76</ele>
        <time>2018-02-25T10:08:38.000Z</time>
      </trkpt>
      <trkpt lat="46.6172" lon="0.49518">
        <ele>168.73</ele>
        <time>2018-02-25T10:08:40.000Z</time>
      </trkpt>
      <trkpt lat="46.61731" lon="0.49516">
        <ele>168.76</ele>
        <time>2018-02-25T10:08:42.000Z</time>
      </trkpt>
      <trkpt lat="46.61741" lon="0.49515">
        <ele>168.74</ele>
        <time>2018-02-25T10:08:44.000Z</time>
      </trkpt>
      <trkpt lat="46.61754" lon="0.49516">
        <ele>168.94</ele>
        <time>2018-02-25T10:08:46.000Z</time>
      </trkpt>
      <trkpt lat="46.61763" lon="0.49515">
        <ele>169</ele>
        <time>2018-02-25T10:08:48.000Z</time>
      </trkpt>
      <trkpt lat="46.61773" lon="0.49514">
        <ele>169.09</ele>
        <time>2018-02-25T10:08:51.000Z</time>
      </trkpt>
      <trkpt lat="46.61784" lon="0.49512">
        <ele>169.22</ele>
        <time>2018-02-25T10:08:54.000Z</time>
      </trkpt>
      <trkpt lat="46.61797" lon="0.49512">
        <ele>169.3</ele>
        <time>2018-02-25T10:08:58.000Z</time>
      </trkpt>
      <trkpt lat="46.61807" lon="0.49512">
        <ele>169.25</ele>
        <time>2018-02-25T10:09:01.000Z</time>
      </trkpt>
      <trkpt lat="46.61821" lon="0.4951">
        <ele>169.05</ele>
        <time>2018-02-25T10:09:04.000Z</time>
      </trkpt>
      <trkpt lat="46.61831" lon="0.49509">
        <ele>168.89</ele>
        <time>2018-02-25T10:09:06.000Z</time>
      </trkpt>
      <trkpt lat="46.61845" lon="0.49509">
        <ele>167.86</ele>
        <time>2018-02-25T10:09:09.000Z</time>
      </trkpt>
      <trkpt lat="46.61858" lon="0.49508">
        <ele>166.54</ele>
        <time>2018-02-25T10:09:12.000Z</time>
      </trkpt>
      <trkpt lat="46.61868" lon="0.49508">
        <ele>164.74</ele>
        <time>2018-02-25T10:09:14.000Z</time>
      </trkpt>
      <trkpt lat="46.61878" lon="0.49506">
        <ele>163.22</ele>
        <time>2018-02-25T10:09:16.000Z</time>
      </trkpt>
      <trkpt lat="46.6189" lon="0.49503">
        <ele>163.14</ele>
        <time>2018-02-25T10:09:19.000Z</time>
      </trkpt>
      <trkpt lat="46.619" lon="0.49501">
        <ele>163.13</ele>
        <time>2018-02-25T10:09:22.000Z</time>
      </trkpt>
      <trkpt lat="46.61911" lon="0.49499">
        <ele>163.12</ele>
        <time>2018-02-25T10:09:25.000Z</time>
      </trkpt>
      <trkpt lat="46.61922" lon="0.49498">
        <ele>163.14</ele>
        <time>2018-02-25T10:09:29.000Z</time>
      </trkpt>
      <trkpt lat="46.61932" lon="0.49497">
        <ele>163.23</ele>
        <time>2018-02-25T10:09:33.000Z</time>
      </trkpt>
      <trkpt lat="46.61942" lon="0.49495">
        <ele>163.37</ele>
        <time>2018-02-25T10:09:38.000Z</time>
      </trkpt>
      <trkpt lat="46.61953" lon="0.49493">
        <ele>163.46</ele>
        <time>2018-02-25T10:09:41.000Z</time>
      </trkpt>
      <trkpt lat="46.61963" lon="0.49491">
        <ele>163.56</ele>
        <time>2018-02-25T10:09:45.000Z</time>
      </trkpt>
      <trkpt lat="46.61972" lon="0.49488">
        <ele>163.57</ele>
        <time>2018-02-25T10:09:48.000Z</time>
      </trkpt>
      <trkpt lat="46.61983" lon="0.49484">
        <ele>163.59</ele>
        <time>2018-02-25T10:09:52.000Z</time>
      </trkpt>
      <trkpt lat="46.61993" lon="0.49478">
        <ele>163.63</ele>
        <time>2018-02-25T10:09:55.000Z</time>
      </trkpt>
      <trkpt lat="46.62002" lon="0.49479">
        <ele>163.83</ele>
        <time>2018-02-25T10:10:00.000Z</time>
      </trkpt>
      <trkpt lat="46.62007" lon="0.4949">
        <ele>164.43</ele>
        <time>2018-02-25T10:10:10.000Z</time>
      </trkpt>
      <trkpt lat="46.62015" lon="0.49498">
        <ele>164.48</ele>
        <time>2018-02-25T10:10:16.000Z</time>
      </trkpt>
      <trkpt lat="46.62025" lon="0.49509">
        <ele>164.54</ele>
        <time>2018-02-25T10:10:19.000Z</time>
      </trkpt>
      <trkpt lat="46.62034" lon="0.49518">
        <ele>164.83</ele>
        <time>2018-02-25T10:10:24.000Z</time>
      </trkpt>
      <trkpt lat="46.62041" lon="0.49526">
        <ele>165.68</ele>
        <time>2018-02-25T10:10:31.000Z</time>
      </trkpt>
      <trkpt lat="46.62052" lon="0.49535">
        <ele>166.14</ele>
        <time>2018-02-25T10:10:38.000Z</time>
      </trkpt>
      <trkpt lat="46.6206" lon="0.49543">
        <ele>166.36</ele>
        <time>2018-02-25T10:10:42.000Z</time>
      </trkpt>
      <trkpt lat="46.6207" lon="0.49552">
        <ele>166.59</ele>
        <time>2018-02-25T10:10:52.000Z</time>
      </trkpt>
      <trkpt lat="46.62081" lon="0.49561">
        <ele>166.68</ele>
        <time>2018-02-25T10:10:56.000Z</time>
      </trkpt>
      <trkpt lat="46.62091" lon="0.49572">
        <ele>167.18</ele>
        <time>2018-02-25T10:11:01.000Z</time>
      </trkpt>
      <trkpt lat="46.62099" lon="0.49582">
        <ele>167.72</ele>
        <time>2018-02-25T10:11:11.000Z</time>
      </trkpt>
      <trkpt lat="46.621" lon="0.49598">
        <ele>168.59</ele>
        <time>2018-02-25T10:11:19.000Z</time>
      </trkpt>
      <trkpt lat="46.62102" lon="0.49611">
        <ele>169.08</ele>
        <time>2018-02-25T10:11:24.000Z</time>
      </trkpt>
      <trkpt lat="46.62103" lon="0.49625">
        <ele>169.38</ele>
        <time>2018-02-25T10:11:33.000Z</time>
      </trkpt>
      <trkpt lat="46.62105" lon="0.49639">
        <ele>169.28</ele>
        <time>2018-02-25T10:11:39.000Z</time>
      </trkpt>
      <trkpt lat="46.62103" lon="0.49653">
        <ele>169.81</ele>
        <time>2018-02-25T10:11:44.000Z</time>
      </trkpt>
      <trkpt lat="46.62111" lon="0.49658">
        <ele>170.51</ele>
        <time>2018-02-25T10:11:47.000Z</time>
      </trkpt>
      <trkpt lat="46.62114" lon="0.49682">
        <ele>171.78</ele>
        <time>2018-02-25T10:11:51.000Z</time>
      </trkpt>
      <trkpt lat="46.62123" lon="0.49696">
        <ele>172.44</ele>
        <time>2018-02-25T10:11:53.000Z</time>
      </trkpt>
      <trkpt lat="46.62132" lon="0.49706">
        <ele>173.18</ele>
        <time>2018-02-25T10:11:57.000Z</time>
      </trkpt>
      <trkpt lat="46.6214" lon="0.49712">
        <ele>173.17</ele>
        <time>2018-02-25T10:11:59.000Z</time>
      </trkpt>
      <trkpt lat="46.62148" lon="0.49719">
        <ele>172.86</ele>
        <time>2018-02-25T10:12:02.000Z</time>
      </trkpt>
      <trkpt lat="46.62149" lon="0.49733">
        <ele>171.09</ele>
        <time>2018-02-25T10:12:07.000Z</time>
      </trkpt>
      <trkpt lat="46.62156" lon="0.49747">
        <ele>169.55</ele>
        <time>2018-02-25T10:12:11.000Z</time>
      </trkpt>
      <trkpt lat="46.62161" lon="0.49758">
        <ele>168.86</ele>
        <time>2018-02-25T10:12:13.000Z</time>
      </trkpt>
      <trkpt lat="46.62161" lon="0.49774">
        <ele>167.79</ele>
        <time>2018-02-25T10:12:16.000Z</time>
      </trkpt>
      <trkpt lat="46.62168" lon="0.49783">
        <ele>164.82</ele>
        <time>2018-02-25T10:12:30.000Z</time>
      </trkpt>
      <trkpt lat="46.62171" lon="0.49796">
        <ele>164.65</ele>
        <time>2018-02-25T10:12:34.000Z</time>
      </trkpt>
      <trkpt lat="46.62174" lon="0.49808">
        <ele>164.56</ele>
        <time>2018-02-25T10:12:39.000Z</time>
      </trkpt>
      <trkpt lat="46.62182" lon="0.49818">
        <ele>164.89</ele>
        <time>2018-02-25T10:12:44.000Z</time>
      </trkpt>
      <trkpt lat="46.6219" lon="0.49826">
        <ele>165.07</ele>
        <time>2018-02-25T10:12:47.000Z</time>
      </trkpt>
      <trkpt lat="46.62199" lon="0.49834">
        <ele>164.95</ele>
        <time>2018-02-25T10:12:51.000Z</time>
      </trkpt>
      <trkpt lat="46.62205" lon="0.49844">
        <ele>164.82</ele>
        <time>2018-02-25T10:12:55.000Z</time>
      </trkpt>
      <trkpt lat="46.62214" lon="0.49857">
        <ele>165.1</ele>
        <time>2018-02-25T10:13:01.000Z</time>
      </trkpt>
      <trkpt lat="46.62223" lon="0.49867">
        <ele>165.43</ele>
        <time>2018-02-25T10:13:05.000Z</time>
      </trkpt>
      <trkpt lat="46.6223" lon="0.49877">
        <ele>166.15</ele>
        <time>2018-02-25T10:13:11.000Z</time>
      </trkpt>
      <trkpt lat="46.62238" lon="0.49892">
        <ele>166.75</ele>
        <time>2018-02-25T10:13:18.000Z</time>
      </trkpt>
      <trkpt lat="46.62246" lon="0.49902">
        <ele>167.07</ele>
        <time>2018-02-25T10:13:22.000Z</time>
      </trkpt>
      <trkpt lat="46.62254" lon="0.49912">
        <ele>167.42</ele>
        <time>2018-02-25T10:13:25.000Z</time>
      </trkpt>
      <trkpt lat="46.62264" lon="0.49922">
        <ele>168.05</ele>
        <time>2018-02-25T10:13:28.000Z</time>
      </trkpt>
      <trkpt lat="46.62274" lon="0.49934">
        <ele>169.57</ele>
        <time>2018-02-25T10:13:34.000Z</time>
      </trkpt>
      <trkpt lat="46.62283" lon="0.49942">
        <ele>170.58</ele>
        <time>2018-02-25T10:13:38.000Z</time>
      </trkpt>
      <trkpt lat="46.62288" lon="0.49956">
        <ele>173.16</ele>
        <time>2018-02-25T10:13:49.000Z</time>
      </trkpt>
      <trkpt lat="46.62297" lon="0.49967">
        <ele>173.71</ele>
        <time>2018-02-25T10:13:51.000Z</time>
      </trkpt>
      <trkpt lat="46.62308" lon="0.49975">
        <ele>173.93</ele>
        <time>2018-02-25T10:13:52.000Z</time>
      </trkpt>
      <trkpt lat="46.6232" lon="0.49978">
        <ele>174.23</ele>
        <time>2018-02-25T10:13:54.000Z</time>
      </trkpt>
      <trkpt lat="46.62329" lon="0.49976">
        <ele>174.72</ele>
        <time>2018-02-25T10:13:58.000Z</time>
      </trkpt>
      <trkpt lat="46.62338" lon="0.49975">
        <ele>175.8</ele>
        <time>2018-02-25T10:14:04.000Z</time>
      </trkpt>
      <trkpt lat="46.62346" lon="0.49968">
        <ele>178.24</ele>
        <time>2018-02-25T10:14:11.000Z</time>
      </trkpt>
      <trkpt lat="46.62354" lon="0.49957">
        <ele>180.06</ele>
        <time>2018-02-25T10:14:16.000Z</time>
      </trkpt>
      <trkpt lat="46.62356" lon="0.49944">
        <ele>180.51</ele>
        <time>2018-02-25T10:14:19.000Z</time>
      </trkpt>
      <trkpt lat="46.62366" lon="0.49941">
        <ele>181.08</ele>
        <time>2018-02-25T10:14:24.000Z</time>
      </trkpt>
      <trkpt lat="46.62384" lon="0.49941">
        <ele>181.46</ele>
        <time>2018-02-25T10:14:26.000Z</time>
      </trkpt>
      <trkpt lat="46.62396" lon="0.49939">
        <ele>181.79</ele>
        <time>2018-02-25T10:14:28.000Z</time>
      </trkpt>
      <trkpt lat="46.62405" lon="0.49945">
        <ele>182.07</ele>
        <time>2018-02-25T10:14:32.000Z</time>
      </trkpt>
      <trkpt lat="46.62412" lon="0.49956">
        <ele>182.14</ele>
        <time>2018-02-25T10:14:35.000Z</time>
      </trkpt>
      <trkpt lat="46.6242" lon="0.49967">
        <ele>182.43</ele>
        <time>2018-02-25T10:14:39.000Z</time>
      </trkpt>
      <trkpt lat="46.62425" lon="0.49979">
        <ele>182.72</ele>
        <time>2018-02-25T10:14:41.000Z</time>
      </trkpt>
      <trkpt lat="46.62431" lon="0.4999">
        <ele>183.04</ele>
        <time>2018-02-25T10:14:43.000Z</time>
      </trkpt>
      <trkpt lat="46.62437" lon="0.50007">
        <ele>183.61</ele>
        <time>2018-02-25T10:14:47.000Z</time>
      </trkpt>
      <trkpt lat="46.62443" lon="0.50021">
        <ele>183.97</ele>
        <time>2018-02-25T10:14:50.000Z</time>
      </trkpt>
      <trkpt lat="46.62449" lon="0.50036">
        <ele>184.49</ele>
        <time>2018-02-25T10:14:54.000Z</time>
      </trkpt>
      <trkpt lat="46.62458" lon="0.5005">
        <ele>184.98</ele>
        <time>2018-02-25T10:14:59.000Z</time>
      </trkpt>
      <trkpt lat="46.62463" lon="0.50062">
        <ele>185.49</ele>
        <time>2018-02-25T10:15:02.000Z</time>
      </trkpt>
      <trkpt lat="46.62467" lon="0.50075">
        <ele>185.82</ele>
        <time>2018-02-25T10:15:04.000Z</time>
      </trkpt>
      <trkpt lat="46.62474" lon="0.50092">
        <ele>186.11</ele>
        <time>2018-02-25T10:15:06.000Z</time>
      </trkpt>
      <trkpt lat="46.62481" lon="0.50102">
        <ele>186.23</ele>
        <time>2018-02-25T10:15:07.000Z</time>
      </trkpt>
      <trkpt lat="46.62487" lon="0.50115">
        <ele>186.44</ele>
        <time>2018-02-25T10:15:09.000Z</time>
      </trkpt>
      <trkpt lat="46.62489" lon="0.50132">
        <ele>187.08</ele>
        <time>2018-02-25T10:15:14.000Z</time>
      </trkpt>
      <trkpt lat="46.62484" lon="0.50144">
        <ele>187.95</ele>
        <time>2018-02-25T10:15:18.000Z</time>
      </trkpt>
      <trkpt lat="46.62478" lon="0.50163">
        <ele>188.43</ele>
        <time>2018-02-25T10:15:20.000Z</time>
      </trkpt>
      <trkpt lat="46.62469" lon="0.50175">
        <ele>188.74</ele>
        <time>2018-02-25T10:15:22.000Z</time>
      </trkpt>
      <trkpt lat="46.62465" lon="0.5019">
        <ele>188.87</ele>
        <time>2018-02-25T10:15:25.000Z</time>
      </trkpt>
      <trkpt lat="46.62457" lon="0.50204">
        <ele>188.67</ele>
        <time>2018-02-25T10:15:28.000Z</time>
      </trkpt>
      <trkpt lat="46.62452" lon="0.50224">
        <ele>188.39</ele>
        <time>2018-02-25T10:15:31.000Z</time>
      </trkpt>
      <trkpt lat="46.62449" lon="0.50237">
        <ele>188.02</ele>
        <time>2018-02-25T10:15:33.000Z</time>
      </trkpt>
      <trkpt lat="46.62445" lon="0.50252">
        <ele>187.43</ele>
        <time>2018-02-25T10:15:36.000Z</time>
      </trkpt>
      <trkpt lat="46.62439" lon="0.50264">
        <ele>186.48</ele>
        <time>2018-02-25T10:15:40.000Z</time>
      </trkpt>
      <trkpt lat="46.62434" lon="0.5028">
        <ele>185.63</ele>
        <time>2018-02-25T10:15:44.000Z</time>
      </trkpt>
      <trkpt lat="46.62429" lon="0.50298">
        <ele>184.74</ele>
        <time>2018-02-25T10:15:49.000Z</time>
      </trkpt>
      <trkpt lat="46.62426" lon="0.50314">
        <ele>184.04</ele>
        <time>2018-02-25T10:15:53.000Z</time>
      </trkpt>
      <trkpt lat="46.62425" lon="0.50329">
        <ele>183.34</ele>
        <time>2018-02-25T10:15:57.000Z</time>
      </trkpt>
      <trkpt lat="46.62423" lon="0.50342">
        <ele>182.98</ele>
        <time>2018-02-25T10:16:00.000Z</time>
      </trkpt>
      <trkpt lat="46.62421" lon="0.50361">
        <ele>182.92</ele>
        <time>2018-02-25T10:16:05.000Z</time>
      </trkpt>
      <trkpt lat="46.62421" lon="0.50374">
        <ele>183.23</ele>
        <time>2018-02-25T10:16:09.000Z</time>
      </trkpt>
      <trkpt lat="46.62418" lon="0.50395">
        <ele>183.95</ele>
        <time>2018-02-25T10:16:14.000Z</time>
      </trkpt>
      <trkpt lat="46.62417" lon="0.50409">
        <ele>184.55</ele>
        <time>2018-02-25T10:16:18.000Z</time>
      </trkpt>
      <trkpt lat="46.62414" lon="0.50429">
        <ele>185.28</ele>
        <time>2018-02-25T10:16:23.000Z</time>
      </trkpt>
      <trkpt lat="46.62414" lon="0.50443">
        <ele>185.83</ele>
        <time>2018-02-25T10:16:27.000Z</time>
      </trkpt>
      <trkpt lat="46.62412" lon="0.50457">
        <ele>186.16</ele>
        <time>2018-02-25T10:16:30.000Z</time>
      </trkpt>
      <trkpt lat="46.62412" lon="0.5047">
        <ele>186.44</ele>
        <time>2018-02-25T10:16:33.000Z</time>
      </trkpt>
      <trkpt lat="46.62411" lon="0.50484">
        <ele>186.73</ele>
        <time>2018-02-25T10:16:36.000Z</time>
      </trkpt>
      <trkpt lat="46.62411" lon="0.50497">
        <ele>187.14</ele>
        <time>2018-02-25T10:16:39.000Z</time>
      </trkpt>
      <trkpt lat="46.62409" lon="0.50518">
        <ele>187.87</ele>
        <time>2018-02-25T10:16:44.000Z</time>
      </trkpt>
      <trkpt lat="46.62406" lon="0.50538">
        <ele>188.58</ele>
        <time>2018-02-25T10:16:49.000Z</time>
      </trkpt>
      <trkpt lat="46.62406" lon="0.50555">
        <ele>189.07</ele>
        <time>2018-02-25T10:16:53.000Z</time>
      </trkpt>
      <trkpt lat="46.62404" lon="0.50572">
        <ele>189.3</ele>
        <time>2018-02-25T10:16:56.000Z</time>
      </trkpt>
      <trkpt lat="46.62407" lon="0.50589">
        <ele>189.39</ele>
        <time>2018-02-25T10:16:58.000Z</time>
      </trkpt>
      <trkpt lat="46.62408" lon="0.50603">
        <ele>189.61</ele>
        <time>2018-02-25T10:17:00.000Z</time>
      </trkpt>
      <trkpt lat="46.62407" lon="0.50617">
        <ele>190.02</ele>
        <time>2018-02-25T10:17:03.000Z</time>
      </trkpt>
      <trkpt lat="46.62405" lon="0.5063">
        <ele>190.6</ele>
        <time>2018-02-25T10:17:07.000Z</time>
      </trkpt>
      <trkpt lat="46.62406" lon="0.50646">
        <ele>191.12</ele>
        <time>2018-02-25T10:17:10.000Z</time>
      </trkpt>
      <trkpt lat="46.62405" lon="0.5066">
        <ele>191.55</ele>
        <time>2018-02-25T10:17:13.000Z</time>
      </trkpt>
      <trkpt lat="46.62403" lon="0.50676">
        <ele>191.68</ele>
        <time>2018-02-25T10:17:17.000Z</time>
      </trkpt>
      <trkpt lat="46.62401" lon="0.50693">
        <ele>191.68</ele>
        <time>2018-02-25T10:17:21.000Z</time>
      </trkpt>
      <trkpt lat="46.62398" lon="0.50712">
        <ele>191.55</ele>
        <time>2018-02-25T10:17:24.000Z</time>
      </trkpt>
      <trkpt lat="46.62398" lon="0.50727">
        <ele>191.26</ele>
        <time>2018-02-25T10:17:28.000Z</time>
      </trkpt>
      <trkpt lat="46.62394" lon="0.50741">
        <ele>191.07</ele>
        <time>2018-02-25T10:17:30.000Z</time>
      </trkpt>
      <trkpt lat="46.62393" lon="0.50764">
        <ele>191.54</ele>
        <time>2018-02-25T10:17:34.000Z</time>
      </trkpt>
      <trkpt lat="46.62393" lon="0.50782">
        <ele>192.12</ele>
        <time>2018-02-25T10:17:37.000Z</time>
      </trkpt>
      <trkpt lat="46.62394" lon="0.50796">
        <ele>192.36</ele>
        <time>2018-02-25T10:17:39.000Z</time>
      </trkpt>
      <trkpt lat="46.62394" lon="0.50813">
        <ele>192.75</ele>
        <time>2018-02-25T10:17:42.000Z</time>
      </trkpt>
      <trkpt lat="46.62393" lon="0.50829">
        <ele>192.99</ele>
        <time>2018-02-25T10:17:45.000Z</time>
      </trkpt>
      <trkpt lat="46.62392" lon="0.50844">
        <ele>193.31</ele>
        <time>2018-02-25T10:17:48.000Z</time>
      </trkpt>
      <trkpt lat="46.62395" lon="0.5086">
        <ele>193.69</ele>
        <time>2018-02-25T10:17:50.000Z</time>
      </trkpt>
      <trkpt lat="46.62398" lon="0.50875">
        <ele>194.04</ele>
        <time>2018-02-25T10:17:52.000Z</time>
      </trkpt>
      <trkpt lat="46.62399" lon="0.5089">
        <ele>194.26</ele>
        <time>2018-02-25T10:17:54.000Z</time>
      </trkpt>
      <trkpt lat="46.624" lon="0.50906">
        <ele>194.53</ele>
        <time>2018-02-25T10:17:56.000Z</time>
      </trkpt>
      <trkpt lat="46.624" lon="0.50922">
        <ele>194.47</ele>
        <time>2018-02-25T10:17:59.000Z</time>
      </trkpt>
      <trkpt lat="46.624" lon="0.50938">
        <ele>194.47</ele>
        <time>2018-02-25T10:18:02.000Z</time>
      </trkpt>
      <trkpt lat="46.62399" lon="0.50955">
        <ele>194.29</ele>
        <time>2018-02-25T10:18:05.000Z</time>
      </trkpt>
      <trkpt lat="46.62396" lon="0.50971">
        <ele>194.23</ele>
        <time>2018-02-25T10:18:08.000Z</time>
      </trkpt>
      <trkpt lat="46.62393" lon="0.50992">
        <ele>194.24</ele>
        <time>2018-02-25T10:18:11.000Z</time>
      </trkpt>
      <trkpt lat="46.62392" lon="0.51011">
        <ele>194.05</ele>
        <time>2018-02-25T10:18:14.000Z</time>
      </trkpt>
      <trkpt lat="46.62391" lon="0.51027">
        <ele>193.86</ele>
        <time>2018-02-25T10:18:16.000Z</time>
      </trkpt>
      <trkpt lat="46.62392" lon="0.51046">
        <ele>193.66</ele>
        <time>2018-02-25T10:18:19.000Z</time>
      </trkpt>
      <trkpt lat="46.62394" lon="0.51063">
        <ele>193.55</ele>
        <time>2018-02-25T10:18:22.000Z</time>
      </trkpt>
      <trkpt lat="46.62394" lon="0.51079">
        <ele>193.43</ele>
        <time>2018-02-25T10:18:24.000Z</time>
      </trkpt>
      <trkpt lat="46.62391" lon="0.51093">
        <ele>193.32</ele>
        <time>2018-02-25T10:18:26.000Z</time>
      </trkpt>
      <trkpt lat="46.62386" lon="0.5111">
        <ele>193.06</ele>
        <time>2018-02-25T10:18:29.000Z</time>
      </trkpt>
      <trkpt lat="46.62381" lon="0.51126">
        <ele>192.77</ele>
        <time>2018-02-25T10:18:32.000Z</time>
      </trkpt>
      <trkpt lat="46.62377" lon="0.51138">
        <ele>192.41</ele>
        <time>2018-02-25T10:18:35.000Z</time>
      </trkpt>
      <trkpt lat="46.62372" lon="0.51151">
        <ele>192.22</ele>
        <time>2018-02-25T10:18:38.000Z</time>
      </trkpt>
      <trkpt lat="46.62366" lon="0.51166">
        <ele>192.14</ele>
        <time>2018-02-25T10:18:42.000Z</time>
      </trkpt>
      <trkpt lat="46.62358" lon="0.51178">
        <ele>192.07</ele>
        <time>2018-02-25T10:18:45.000Z</time>
      </trkpt>
      <trkpt lat="46.62351" lon="0.5119">
        <ele>192.06</ele>
        <time>2018-02-25T10:18:48.000Z</time>
      </trkpt>
      <trkpt lat="46.62341" lon="0.51206">
        <ele>192.08</ele>
        <time>2018-02-25T10:18:51.000Z</time>
      </trkpt>
      <trkpt lat="46.62337" lon="0.51219">
        <ele>192.22</ele>
        <time>2018-02-25T10:18:53.000Z</time>
      </trkpt>
      <trkpt lat="46.62333" lon="0.51232">
        <ele>192.55</ele>
        <time>2018-02-25T10:18:56.000Z</time>
      </trkpt>
      <trkpt lat="46.62332" lon="0.5125">
        <ele>192.83</ele>
        <time>2018-02-25T10:19:00.000Z</time>
      </trkpt>
      <trkpt lat="46.62333" lon="0.51265">
        <ele>192.94</ele>
        <time>2018-02-25T10:19:04.000Z</time>
      </trkpt>
      <trkpt lat="46.62331" lon="0.5128">
        <ele>193.03</ele>
        <time>2018-02-25T10:19:09.000Z</time>
      </trkpt>
      <trkpt lat="46.62332" lon="0.51294">
        <ele>193.27</ele>
        <time>2018-02-25T10:19:13.000Z</time>
      </trkpt>
      <trkpt lat="46.62334" lon="0.51308">
        <ele>193.42</ele>
        <time>2018-02-25T10:19:15.000Z</time>
      </trkpt>
      <trkpt lat="46.62336" lon="0.51324">
        <ele>193.94</ele>
        <time>2018-02-25T10:19:19.000Z</time>
      </trkpt>
      <trkpt lat="46.62335" lon="0.51338">
        <ele>194.24</ele>
        <time>2018-02-25T10:19:23.000Z</time>
      </trkpt>
      <trkpt lat="46.62334" lon="0.51357">
        <ele>194.55</ele>
        <time>2018-02-25T10:19:36.000Z</time>
      </trkpt>
      <trkpt lat="46.62335" lon="0.51371">
        <ele>193.61</ele>
        <time>2018-02-25T10:21:17.000Z</time>
      </trkpt>
      <trkpt lat="46.62333" lon="0.51385">
        <ele>193.32</ele>
        <time>2018-02-25T10:21:20.000Z</time>
      </trkpt>
      <trkpt lat="46.62331" lon="0.51401">
        <ele>193.01</ele>
        <time>2018-02-25T10:21:23.000Z</time>
      </trkpt>
      <trkpt lat="46.6233" lon="0.51418">
        <ele>192.69</ele>
        <time>2018-02-25T10:21:26.000Z</time>
      </trkpt>
      <trkpt lat="46.62329" lon="0.51435">
        <ele>192.32</ele>
        <time>2018-02-25T10:21:29.000Z</time>
      </trkpt>
      <trkpt lat="46.62328" lon="0.51452">
        <ele>191.88</ele>
        <time>2018-02-25T10:21:32.000Z</time>
      </trkpt>
      <trkpt lat="46.62326" lon="0.5147">
        <ele>191.38</ele>
        <time>2018-02-25T10:21:35.000Z</time>
      </trkpt>
      <trkpt lat="46.62324" lon="0.51483">
        <ele>191.01</ele>
        <time>2018-02-25T10:21:37.000Z</time>
      </trkpt>
      <trkpt lat="46.62322" lon="0.51497">
        <ele>190.61</ele>
        <time>2018-02-25T10:21:39.000Z</time>
      </trkpt>
      <trkpt lat="46.62321" lon="0.5151">
        <ele>190.17</ele>
        <time>2018-02-25T10:21:41.000Z</time>
      </trkpt>
      <trkpt lat="46.62319" lon="0.51524">
        <ele>189.65</ele>
        <time>2018-02-25T10:21:43.000Z</time>
      </trkpt>
      <trkpt lat="46.62315" lon="0.51541">
        <ele>188.78</ele>
        <time>2018-02-25T10:21:46.000Z</time>
      </trkpt>
      <trkpt lat="46.62312" lon="0.51557">
        <ele>187.91</ele>
        <time>2018-02-25T10:21:49.000Z</time>
      </trkpt>
      <trkpt lat="46.62309" lon="0.51575">
        <ele>187.15</ele>
        <time>2018-02-25T10:21:52.000Z</time>
      </trkpt>
      <trkpt lat="46.62306" lon="0.51588">
        <ele>186.75</ele>
        <time>2018-02-25T10:21:54.000Z</time>
      </trkpt>
      <trkpt lat="46.62302" lon="0.51604">
        <ele>186.22</ele>
        <time>2018-02-25T10:21:57.000Z</time>
      </trkpt>
      <trkpt lat="46.62296" lon="0.5162">
        <ele>185.76</ele>
        <time>2018-02-25T10:22:00.000Z</time>
      </trkpt>
      <trkpt lat="46.62292" lon="0.51632">
        <ele>185.48</ele>
        <time>2018-02-25T10:22:02.000Z</time>
      </trkpt>
      <trkpt lat="46.62287" lon="0.51645">
        <ele>185.03</ele>
        <time>2018-02-25T10:22:05.000Z</time>
      </trkpt>
      <trkpt lat="46.62282" lon="0.51664">
        <ele>184.77</ele>
        <time>2018-02-25T10:22:08.000Z</time>
      </trkpt>
      <trkpt lat="46.62278" lon="0.51677">
        <ele>184.59</ele>
        <time>2018-02-25T10:22:10.000Z</time>
      </trkpt>
      <trkpt lat="46.62274" lon="0.5169">
        <ele>184.49</ele>
        <time>2018-02-25T10:22:12.000Z</time>
      </trkpt>
      <trkpt lat="46.6227" lon="0.51706">
        <ele>184.41</ele>
        <time>2018-02-25T10:22:15.000Z</time>
      </trkpt>
      <trkpt lat="46.62267" lon="0.51719">
        <ele>184.34</ele>
        <time>2018-02-25T10:22:17.000Z</time>
      </trkpt>
      <trkpt lat="46.62266" lon="0.51736">
        <ele>184.2</ele>
        <time>2018-02-25T10:22:20.000Z</time>
      </trkpt>
      <trkpt lat="46.62263" lon="0.51751">
        <ele>183.97</ele>
        <time>2018-02-25T10:22:23.000Z</time>
      </trkpt>
      <trkpt lat="46.6226" lon="0.51768">
        <ele>183.78</ele>
        <time>2018-02-25T10:22:26.000Z</time>
      </trkpt>
      <trkpt lat="46.62256" lon="0.51786">
        <ele>183.6</ele>
        <time>2018-02-25T10:22:29.000Z</time>
      </trkpt>
      <trkpt lat="46.62252" lon="0.51799">
        <ele>183.43</ele>
        <time>2018-02-25T10:22:31.000Z</time>
      </trkpt>
      <trkpt lat="46.62246" lon="0.51813">
        <ele>183.13</ele>
        <time>2018-02-25T10:22:34.000Z</time>
      </trkpt>
      <trkpt lat="46.62239" lon="0.51826">
        <ele>182.96</ele>
        <time>2018-02-25T10:22:37.000Z</time>
      </trkpt>
      <trkpt lat="46.6223" lon="0.51838">
        <ele>182.88</ele>
        <time>2018-02-25T10:22:41.000Z</time>
      </trkpt>
      <trkpt lat="46.62222" lon="0.51848">
        <ele>183.08</ele>
        <time>2018-02-25T10:22:44.000Z</time>
      </trkpt>
      <trkpt lat="46.62216" lon="0.51859">
        <ele>183.26</ele>
        <time>2018-02-25T10:22:47.000Z</time>
      </trkpt>
      <trkpt lat="46.6221" lon="0.51875">
        <ele>183.57</ele>
        <time>2018-02-25T10:22:49.000Z</time>
      </trkpt>
      <trkpt lat="46.62205" lon="0.51889">
        <ele>184.32</ele>
        <time>2018-02-25T10:22:52.000Z</time>
      </trkpt>
      <trkpt lat="46.622" lon="0.51901">
        <ele>185.18</ele>
        <time>2018-02-25T10:22:55.000Z</time>
      </trkpt>
      <trkpt lat="46.62196" lon="0.51915">
        <ele>186.34</ele>
        <time>2018-02-25T10:22:59.000Z</time>
      </trkpt>
      <trkpt lat="46.62191" lon="0.51927">
        <ele>187.2</ele>
        <time>2018-02-25T10:23:02.000Z</time>
      </trkpt>
      <trkpt lat="46.62187" lon="0.5194">
        <ele>188.13</ele>
        <time>2018-02-25T10:23:05.000Z</time>
      </trkpt>
      <trkpt lat="46.62183" lon="0.51953">
        <ele>188.88</ele>
        <time>2018-02-25T10:23:08.000Z</time>
      </trkpt>
      <trkpt lat="46.62182" lon="0.51968">
        <ele>189.67</ele>
        <time>2018-02-25T10:23:13.000Z</time>
      </trkpt>
      <trkpt lat="46.62185" lon="0.51984">
        <ele>190.05</ele>
        <time>2018-02-25T10:23:17.000Z</time>
      </trkpt>
      <trkpt lat="46.62187" lon="0.52">
        <ele>190.17</ele>
        <time>2018-02-25T10:23:21.000Z</time>
      </trkpt>
      <trkpt lat="46.62191" lon="0.52016">
        <ele>190.29</ele>
        <time>2018-02-25T10:23:25.000Z</time>
      </trkpt>
      <trkpt lat="46.62196" lon="0.5203">
        <ele>190.59</ele>
        <time>2018-02-25T10:23:28.000Z</time>
      </trkpt>
      <trkpt lat="46.62203" lon="0.52039">
        <ele>191.45</ele>
        <time>2018-02-25T10:23:50.000Z</time>
      </trkpt>
      <trkpt lat="46.62206" lon="0.52054">
        <ele>189.06</ele>
        <time>2018-02-25T10:26:47.000Z</time>
      </trkpt>
      <trkpt lat="46.62212" lon="0.52067">
        <ele>188.54</ele>
        <time>2018-02-25T10:26:52.000Z</time>
      </trkpt>
      <trkpt lat="46.62219" lon="0.52076">
        <ele>188.35</ele>
        <time>2018-02-25T10:26:55.000Z</time>
      </trkpt>
      <trkpt lat="46.62223" lon="0.5209">
        <ele>188.27</ele>
        <time>2018-02-25T10:26:59.000Z</time>
      </trkpt>
      <trkpt lat="46.62228" lon="0.52101">
        <ele>188.19</ele>
        <time>2018-02-25T10:27:02.000Z</time>
      </trkpt>
      <trkpt lat="46.62238" lon="0.5211">
        <ele>188.18</ele>
        <time>2018-02-25T10:27:06.000Z</time>
      </trkpt>
      <trkpt lat="46.62248" lon="0.52116">
        <ele>188.17</ele>
        <time>2018-02-25T10:27:10.000Z</time>
      </trkpt>
      <trkpt lat="46.62258" lon="0.52121">
        <ele>188.22</ele>
        <time>2018-02-25T10:27:14.000Z</time>
      </trkpt>
      <trkpt lat="46.62267" lon="0.52125">
        <ele>188.27</ele>
        <time>2018-02-25T10:27:19.000Z</time>
      </trkpt>
      <trkpt lat="46.62273" lon="0.52135">
        <ele>188.31</ele>
        <time>2018-02-25T10:27:23.000Z</time>
      </trkpt>
      <trkpt lat="46.62278" lon="0.52148">
        <ele>188.69</ele>
        <time>2018-02-25T10:27:26.000Z</time>
      </trkpt>
      <trkpt lat="46.62285" lon="0.52163">
        <ele>189.31</ele>
        <time>2018-02-25T10:27:30.000Z</time>
      </trkpt>
      <trkpt lat="46.62292" lon="0.52176">
        <ele>190.07</ele>
        <time>2018-02-25T10:27:34.000Z</time>
      </trkpt>
      <trkpt lat="46.62298" lon="0.52187">
        <ele>190.68</ele>
        <time>2018-02-25T10:27:37.000Z</time>
      </trkpt>
      <trkpt lat="46.62306" lon="0.52201">
        <ele>191.47</ele>
        <time>2018-02-25T10:27:41.000Z</time>
      </trkpt>
      <trkpt lat="46.62311" lon="0.52213">
        <ele>192.17</ele>
        <time>2018-02-25T10:27:44.000Z</time>
      </trkpt>
      <trkpt lat="46.62318" lon="0.52227">
        <ele>192.89</ele>
        <time>2018-02-25T10:27:47.000Z</time>
      </trkpt>
      <trkpt lat="46.62324" lon="0.52239">
        <ele>193.65</ele>
        <time>2018-02-25T10:27:50.000Z</time>
      </trkpt>
      <trkpt lat="46.6233" lon="0.52251">
        <ele>194.33</ele>
        <time>2018-02-25T10:27:53.000Z</time>
      </trkpt>
      <trkpt lat="46.62336" lon="0.52263">
        <ele>194.93</ele>
        <time>2018-02-25T10:27:56.000Z</time>
      </trkpt>
      <trkpt lat="46.62343" lon="0.52272">
        <ele>195.49</ele>
        <time>2018-02-25T10:27:59.000Z</time>
      </trkpt>
      <trkpt lat="46.62351" lon="0.52287">
        <ele>196.15</ele>
        <time>2018-02-25T10:28:03.000Z</time>
      </trkpt>
      <trkpt lat="46.62357" lon="0.52298">
        <ele>196.65</ele>
        <time>2018-02-25T10:28:06.000Z</time>
      </trkpt>
      <trkpt lat="46.62364" lon="0.52314">
        <ele>197.07</ele>
        <time>2018-02-25T10:28:09.000Z</time>
      </trkpt>
      <trkpt lat="46.62371" lon="0.52328">
        <ele>197.46</ele>
        <time>2018-02-25T10:28:13.000Z</time>
      </trkpt>
      <trkpt lat="46.62378" lon="0.5234">
        <ele>197.78</ele>
        <time>2018-02-25T10:28:16.000Z</time>
      </trkpt>
      <trkpt lat="46.62383" lon="0.52353">
        <ele>198.02</ele>
        <time>2018-02-25T10:28:19.000Z</time>
      </trkpt>
      <trkpt lat="46.62394" lon="0.52362">
        <ele>198.33</ele>
        <time>2018-02-25T10:28:22.000Z</time>
      </trkpt>
      <trkpt lat="46.62405" lon="0.52368">
        <ele>198.63</ele>
        <time>2018-02-25T10:28:25.000Z</time>
      </trkpt>
      <trkpt lat="46.62415" lon="0.52372">
        <ele>198.84</ele>
        <time>2018-02-25T10:28:28.000Z</time>
      </trkpt>
      <trkpt lat="46.62424" lon="0.52376">
        <ele>198.94</ele>
        <time>2018-02-25T10:28:31.000Z</time>
      </trkpt>
      <trkpt lat="46.62433" lon="0.5238">
        <ele>198.93</ele>
        <time>2018-02-25T10:28:34.000Z</time>
      </trkpt>
      <trkpt lat="46.62443" lon="0.52386">
        <ele>198.87</ele>
        <time>2018-02-25T10:28:37.000Z</time>
      </trkpt>
      <trkpt lat="46.62451" lon="0.52394">
        <ele>198.89</ele>
        <time>2018-02-25T10:28:40.000Z</time>
      </trkpt>
      <trkpt lat="46.6246" lon="0.52402">
        <ele>199.02</ele>
        <time>2018-02-25T10:28:42.000Z</time>
      </trkpt>
      <trkpt lat="46.62468" lon="0.52411">
        <ele>199.15</ele>
        <time>2018-02-25T10:28:44.000Z</time>
      </trkpt>
      <trkpt lat="46.6248" lon="0.52418">
        <ele>199.25</ele>
        <time>2018-02-25T10:28:46.000Z</time>
      </trkpt>
      <trkpt lat="46.62493" lon="0.52423">
        <ele>199.26</ele>
        <time>2018-02-25T10:28:49.000Z</time>
      </trkpt>
      <trkpt lat="46.62503" lon="0.52425">
        <ele>199.15</ele>
        <time>2018-02-25T10:28:52.000Z</time>
      </trkpt>
      <trkpt lat="46.62516" lon="0.52422">
        <ele>199.15</ele>
        <time>2018-02-25T10:28:55.000Z</time>
      </trkpt>
      <trkpt lat="46.62525" lon="0.52417">
        <ele>199.3</ele>
        <time>2018-02-25T10:28:57.000Z</time>
      </trkpt>
      <trkpt lat="46.62536" lon="0.52413">
        <ele>199.55</ele>
        <time>2018-02-25T10:28:59.000Z</time>
      </trkpt>
      <trkpt lat="46.62549" lon="0.52405">
        <ele>199.88</ele>
        <time>2018-02-25T10:29:02.000Z</time>
      </trkpt>
      <trkpt lat="46.62558" lon="0.52395">
        <ele>200.22</ele>
        <time>2018-02-25T10:29:04.000Z</time>
      </trkpt>
      <trkpt lat="46.62568" lon="0.52383">
        <ele>200.91</ele>
        <time>2018-02-25T10:29:07.000Z</time>
      </trkpt>
      <trkpt lat="46.62577" lon="0.52376">
        <ele>201.72</ele>
        <time>2018-02-25T10:29:10.000Z</time>
      </trkpt>
      <trkpt lat="46.62585" lon="0.5237">
        <ele>202.51</ele>
        <time>2018-02-25T10:29:13.000Z</time>
      </trkpt>
      <trkpt lat="46.62594" lon="0.52362">
        <ele>203.08</ele>
        <time>2018-02-25T10:29:15.000Z</time>
      </trkpt>
      <trkpt lat="46.62603" lon="0.52352">
        <ele>203.7</ele>
        <time>2018-02-25T10:29:17.000Z</time>
      </trkpt>
      <trkpt lat="46.62611" lon="0.52343">
        <ele>204.28</ele>
        <time>2018-02-25T10:29:19.000Z</time>
      </trkpt>
      <trkpt lat="46.62621" lon="0.52333">
        <ele>204.88</ele>
        <time>2018-02-25T10:29:21.000Z</time>
      </trkpt>
      <trkpt lat="46.62631" lon="0.52322">
        <ele>205.46</ele>
        <time>2018-02-25T10:29:23.000Z</time>
      </trkpt>
      <trkpt lat="46.62639" lon="0.52312">
        <ele>206.02</ele>
        <time>2018-02-25T10:29:25.000Z</time>
      </trkpt>
      <trkpt lat="46.62648" lon="0.52303">
        <ele>206.45</ele>
        <time>2018-02-25T10:29:27.000Z</time>
      </trkpt>
      <trkpt lat="46.62657" lon="0.52293">
        <ele>206.89</ele>
        <time>2018-02-25T10:29:30.000Z</time>
      </trkpt>
      <trkpt lat="46.62665" lon="0.52279">
        <ele>207.27</ele>
        <time>2018-02-25T10:29:33.000Z</time>
      </trkpt>
      <trkpt lat="46.62672" lon="0.52269">
        <ele>207.49</ele>
        <time>2018-02-25T10:29:35.000Z</time>
      </trkpt>
      <trkpt lat="46.62679" lon="0.5226">
        <ele>207.59</ele>
        <time>2018-02-25T10:29:38.000Z</time>
      </trkpt>
      <trkpt lat="46.62686" lon="0.5225">
        <ele>207.47</ele>
        <time>2018-02-25T10:29:42.000Z</time>
      </trkpt>
      <trkpt lat="46.62695" lon="0.52239">
        <ele>207.24</ele>
        <time>2018-02-25T10:29:47.000Z</time>
      </trkpt>
      <trkpt lat="46.62703" lon="0.52228">
        <ele>207.07</ele>
        <time>2018-02-25T10:29:51.000Z</time>
      </trkpt>
      <trkpt lat="46.62711" lon="0.52219">
        <ele>206.73</ele>
        <time>2018-02-25T10:29:55.000Z</time>
      </trkpt>
      <trkpt lat="46.6272" lon="0.52211">
        <ele>206.32</ele>
        <time>2018-02-25T10:29:58.000Z</time>
      </trkpt>
      <trkpt lat="46.62729" lon="0.52204">
        <ele>205.82</ele>
        <time>2018-02-25T10:30:01.000Z</time>
      </trkpt>
      <trkpt lat="46.62738" lon="0.52195">
        <ele>205.03</ele>
        <time>2018-02-25T10:30:06.000Z</time>
      </trkpt>
      <trkpt lat="46.62748" lon="0.52185">
        <ele>204.53</ele>
        <time>2018-02-25T10:30:10.000Z</time>
      </trkpt>
      <trkpt lat="46.62756" lon="0.52179">
        <ele>204.38</ele>
        <time>2018-02-25T10:30:15.000Z</time>
      </trkpt>
      <trkpt lat="46.62764" lon="0.52172">
        <ele>204.58</ele>
        <time>2018-02-25T10:30:19.000Z</time>
      </trkpt>
      <trkpt lat="46.62772" lon="0.52163">
        <ele>205.11</ele>
        <time>2018-02-25T10:30:24.000Z</time>
      </trkpt>
      <trkpt lat="46.6278" lon="0.52152">
        <ele>205.57</ele>
        <time>2018-02-25T10:30:28.000Z</time>
      </trkpt>
      <trkpt lat="46.62789" lon="0.52145">
        <ele>205.96</ele>
        <time>2018-02-25T10:30:31.000Z</time>
      </trkpt>
      <trkpt lat="46.62797" lon="0.52139">
        <ele>206.29</ele>
        <time>2018-02-25T10:30:34.000Z</time>
      </trkpt>
      <trkpt lat="46.62806" lon="0.52131">
        <ele>206.85</ele>
        <time>2018-02-25T10:30:39.000Z</time>
      </trkpt>
      <trkpt lat="46.62814" lon="0.52122">
        <ele>207.26</ele>
        <time>2018-02-25T10:30:44.000Z</time>
      </trkpt>
      <trkpt lat="46.62821" lon="0.52114">
        <ele>207.49</ele>
        <time>2018-02-25T10:30:48.000Z</time>
      </trkpt>
      <trkpt lat="46.62829" lon="0.52107">
        <ele>207.67</ele>
        <time>2018-02-25T10:30:52.000Z</time>
      </trkpt>
      <trkpt lat="46.62838" lon="0.52099">
        <ele>207.8</ele>
        <time>2018-02-25T10:30:56.000Z</time>
      </trkpt>
      <trkpt lat="46.62848" lon="0.52091">
        <ele>207.93</ele>
        <time>2018-02-25T10:31:00.000Z</time>
      </trkpt>
      <trkpt lat="46.62858" lon="0.52093">
        <ele>206.99</ele>
        <time>2018-02-25T10:31:08.000Z</time>
      </trkpt>
      <trkpt lat="46.62865" lon="0.52106">
        <ele>204.7</ele>
        <time>2018-02-25T10:31:11.000Z</time>
      </trkpt>
      <trkpt lat="46.62873" lon="0.52119">
        <ele>203.02</ele>
        <time>2018-02-25T10:31:14.000Z</time>
      </trkpt>
      <trkpt lat="46.6288" lon="0.52131">
        <ele>200.6</ele>
        <time>2018-02-25T10:31:16.000Z</time>
      </trkpt>
      <trkpt lat="46.62888" lon="0.52144">
        <ele>199.25</ele>
        <time>2018-02-25T10:31:18.000Z</time>
      </trkpt>
      <trkpt lat="46.62893" lon="0.52156">
        <ele>198.67</ele>
        <time>2018-02-25T10:31:20.000Z</time>
      </trkpt>
      <trkpt lat="46.629" lon="0.52171">
        <ele>197.35</ele>
        <time>2018-02-25T10:31:22.000Z</time>
      </trkpt>
      <trkpt lat="46.62907" lon="0.52184">
        <ele>196.82</ele>
        <time>2018-02-25T10:31:24.000Z</time>
      </trkpt>
      <trkpt lat="46.62915" lon="0.52197">
        <ele>196.38</ele>
        <time>2018-02-25T10:31:26.000Z</time>
      </trkpt>
      <trkpt lat="46.62922" lon="0.52212">
        <ele>196.03</ele>
        <time>2018-02-25T10:31:28.000Z</time>
      </trkpt>
      <trkpt lat="46.62931" lon="0.52228">
        <ele>195.29</ele>
        <time>2018-02-25T10:31:30.000Z</time>
      </trkpt>
      <trkpt lat="46.62938" lon="0.52245">
        <ele>194.42</ele>
        <time>2018-02-25T10:31:32.000Z</time>
      </trkpt>
      <trkpt lat="46.62948" lon="0.52262">
        <ele>193.35</ele>
        <time>2018-02-25T10:31:34.000Z</time>
      </trkpt>
      <trkpt lat="46.62956" lon="0.52278">
        <ele>191.63</ele>
        <time>2018-02-25T10:31:36.000Z</time>
      </trkpt>
      <trkpt lat="46.62964" lon="0.52292">
        <ele>189.77</ele>
        <time>2018-02-25T10:31:38.000Z</time>
      </trkpt>
      <trkpt lat="46.62971" lon="0.52303">
        <ele>188.57</ele>
        <time>2018-02-25T10:31:40.000Z</time>
      </trkpt>
      <trkpt lat="46.62979" lon="0.52319">
        <ele>187.3</ele>
        <time>2018-02-25T10:31:42.000Z</time>
      </trkpt>
      <trkpt lat="46.62985" lon="0.52332">
        <ele>186.42</ele>
        <time>2018-02-25T10:31:44.000Z</time>
      </trkpt>
      <trkpt lat="46.62992" lon="0.52344">
        <ele>185.88</ele>
        <time>2018-02-25T10:31:46.000Z</time>
      </trkpt>
      <trkpt lat="46.62999" lon="0.52357">
        <ele>185.45</ele>
        <time>2018-02-25T10:31:48.000Z</time>
      </trkpt>
      <trkpt lat="46.63007" lon="0.52372">
        <ele>184.68</ele>
        <time>2018-02-25T10:31:50.000Z</time>
      </trkpt>
      <trkpt lat="46.63014" lon="0.52389">
        <ele>183.28</ele>
        <time>2018-02-25T10:31:52.000Z</time>
      </trkpt>
      <trkpt lat="46.63022" lon="0.52404">
        <ele>182.53</ele>
        <time>2018-02-25T10:31:54.000Z</time>
      </trkpt>
      <trkpt lat="46.6303" lon="0.52422">
        <ele>181.52</ele>
        <time>2018-02-25T10:31:56.000Z</time>
      </trkpt>
      <trkpt lat="46.63039" lon="0.52441">
        <ele>180.44</ele>
        <time>2018-02-25T10:31:58.000Z</time>
      </trkpt>
      <trkpt lat="46.63048" lon="0.52457">
        <ele>179.88</ele>
        <time>2018-02-25T10:32:00.000Z</time>
      </trkpt>
      <trkpt lat="46.63057" lon="0.52474">
        <ele>179.99</ele>
        <time>2018-02-25T10:32:02.000Z</time>
      </trkpt>
      <trkpt lat="46.63065" lon="0.52487">
        <ele>180.74</ele>
        <time>2018-02-25T10:32:04.000Z</time>
      </trkpt>
      <trkpt lat="46.63072" lon="0.525">
        <ele>181.58</ele>
        <time>2018-02-25T10:32:06.000Z</time>
      </trkpt>
      <trkpt lat="46.63079" lon="0.52515">
        <ele>182.24</ele>
        <time>2018-02-25T10:32:08.000Z</time>
      </trkpt>
      <trkpt lat="46.63086" lon="0.52529">
        <ele>182.59</ele>
        <time>2018-02-25T10:32:10.000Z</time>
      </trkpt>
      <trkpt lat="46.63091" lon="0.5254">
        <ele>182.69</ele>
        <time>2018-02-25T10:32:12.000Z</time>
      </trkpt>
      <trkpt lat="46.63097" lon="0.52552">
        <ele>183.38</ele>
        <time>2018-02-25T10:32:14.000Z</time>
      </trkpt>
      <trkpt lat="46.63106" lon="0.5257">
        <ele>183.92</ele>
        <time>2018-02-25T10:32:17.000Z</time>
      </trkpt>
      <trkpt lat="46.63113" lon="0.52582">
        <ele>185</ele>
        <time>2018-02-25T10:32:19.000Z</time>
      </trkpt>
      <trkpt lat="46.6312" lon="0.52595">
        <ele>185.22</ele>
        <time>2018-02-25T10:32:21.000Z</time>
      </trkpt>
      <trkpt lat="46.63127" lon="0.52611">
        <ele>185.23</ele>
        <time>2018-02-25T10:32:24.000Z</time>
      </trkpt>
      <trkpt lat="46.63135" lon="0.52627">
        <ele>185.37</ele>
        <time>2018-02-25T10:32:27.000Z</time>
      </trkpt>
      <trkpt lat="46.63141" lon="0.52639">
        <ele>185.48</ele>
        <time>2018-02-25T10:32:29.000Z</time>
      </trkpt>
      <trkpt lat="46.63147" lon="0.52652">
        <ele>185.51</ele>
        <time>2018-02-25T10:32:31.000Z</time>
      </trkpt>
      <trkpt lat="46.63155" lon="0.52668">
        <ele>185.6</ele>
        <time>2018-02-25T10:32:34.000Z</time>
      </trkpt>
      <trkpt lat="46.63161" lon="0.52681">
        <ele>185.58</ele>
        <time>2018-02-25T10:32:36.000Z</time>
      </trkpt>
      <trkpt lat="46.63167" lon="0.52694">
        <ele>185.42</ele>
        <time>2018-02-25T10:32:38.000Z</time>
      </trkpt>
      <trkpt lat="46.63173" lon="0.52706">
        <ele>185.38</ele>
        <time>2018-02-25T10:32:40.000Z</time>
      </trkpt>
      <trkpt lat="46.63179" lon="0.52718">
        <ele>185.46</ele>
        <time>2018-02-25T10:32:42.000Z</time>
      </trkpt>
      <trkpt lat="46.63184" lon="0.52731">
        <ele>185.5</ele>
        <time>2018-02-25T10:32:44.000Z</time>
      </trkpt>
      <trkpt lat="46.63192" lon="0.52747">
        <ele>184.84</ele>
        <time>2018-02-25T10:32:47.000Z</time>
      </trkpt>
      <trkpt lat="46.632" lon="0.52762">
        <ele>184.55</ele>
        <time>2018-02-25T10:32:50.000Z</time>
      </trkpt>
      <trkpt lat="46.63205" lon="0.52773">
        <ele>184.06</ele>
        <time>2018-02-25T10:32:52.000Z</time>
      </trkpt>
      <trkpt lat="46.63211" lon="0.52784">
        <ele>183.92</ele>
        <time>2018-02-25T10:32:54.000Z</time>
      </trkpt>
      <trkpt lat="46.63218" lon="0.52799">
        <ele>183.78</ele>
        <time>2018-02-25T10:32:57.000Z</time>
      </trkpt>
      <trkpt lat="46.63224" lon="0.5281">
        <ele>183.67</ele>
        <time>2018-02-25T10:32:59.000Z</time>
      </trkpt>
      <trkpt lat="46.63231" lon="0.52826">
        <ele>183.39</ele>
        <time>2018-02-25T10:33:02.000Z</time>
      </trkpt>
      <trkpt lat="46.63238" lon="0.52842">
        <ele>183.03</ele>
        <time>2018-02-25T10:33:05.000Z</time>
      </trkpt>
      <trkpt lat="46.63245" lon="0.52853">
        <ele>182.74</ele>
        <time>2018-02-25T10:33:08.000Z</time>
      </trkpt>
      <trkpt lat="46.6325" lon="0.52864">
        <ele>182.52</ele>
        <time>2018-02-25T10:33:10.000Z</time>
      </trkpt>
      <trkpt lat="46.63258" lon="0.52878">
        <ele>182.24</ele>
        <time>2018-02-25T10:33:13.000Z</time>
      </trkpt>
      <trkpt lat="46.63264" lon="0.52888">
        <ele>182.04</ele>
        <time>2018-02-25T10:33:15.000Z</time>
      </trkpt>
      <trkpt lat="46.63271" lon="0.52901">
        <ele>181.7</ele>
        <time>2018-02-25T10:33:18.000Z</time>
      </trkpt>
      <trkpt lat="46.63278" lon="0.52916">
        <ele>181.31</ele>
        <time>2018-02-25T10:33:21.000Z</time>
      </trkpt>
      <trkpt lat="46.63286" lon="0.52932">
        <ele>181</ele>
        <time>2018-02-25T10:33:24.000Z</time>
      </trkpt>
      <trkpt lat="46.63292" lon="0.52944">
        <ele>179.37</ele>
        <time>2018-02-25T10:33:26.000Z</time>
      </trkpt>
      <trkpt lat="46.63299" lon="0.52958">
        <ele>179.35</ele>
        <time>2018-02-25T10:33:29.000Z</time>
      </trkpt>
      <trkpt lat="46.63305" lon="0.5297">
        <ele>179.03</ele>
        <time>2018-02-25T10:33:32.000Z</time>
      </trkpt>
      <trkpt lat="46.63311" lon="0.52982">
        <ele>179.03</ele>
        <time>2018-02-25T10:33:34.000Z</time>
      </trkpt>
      <trkpt lat="46.63317" lon="0.52994">
        <ele>179.06</ele>
        <time>2018-02-25T10:33:37.000Z</time>
      </trkpt>
      <trkpt lat="46.63323" lon="0.53007">
        <ele>178.92</ele>
        <time>2018-02-25T10:33:39.000Z</time>
      </trkpt>
      <trkpt lat="46.63328" lon="0.53019">
        <ele>178.19</ele>
        <time>2018-02-25T10:33:41.000Z</time>
      </trkpt>
      <trkpt lat="46.63334" lon="0.53032">
        <ele>176.95</ele>
        <time>2018-02-25T10:33:43.000Z</time>
      </trkpt>
      <trkpt lat="46.63342" lon="0.53048">
        <ele>176.19</ele>
        <time>2018-02-25T10:33:45.000Z</time>
      </trkpt>
      <trkpt lat="46.63348" lon="0.53063">
        <ele>176.25</ele>
        <time>2018-02-25T10:33:47.000Z</time>
      </trkpt>
      <trkpt lat="46.63358" lon="0.5307">
        <ele>177.61</ele>
        <time>2018-02-25T10:33:49.000Z</time>
      </trkpt>
      <trkpt lat="46.63368" lon="0.53076">
        <ele>177.68</ele>
        <time>2018-02-25T10:33:51.000Z</time>
      </trkpt>
      <trkpt lat="46.6338" lon="0.53083">
        <ele>177.66</ele>
        <time>2018-02-25T10:33:54.000Z</time>
      </trkpt>
      <trkpt lat="46.63388" lon="0.53087">
        <ele>177.66</ele>
        <time>2018-02-25T10:33:57.000Z</time>
      </trkpt>
      <trkpt lat="46.63396" lon="0.53094">
        <ele>177.72</ele>
        <time>2018-02-25T10:33:59.000Z</time>
      </trkpt>
      <trkpt lat="46.63405" lon="0.53099">
        <ele>177.9</ele>
        <time>2018-02-25T10:34:02.000Z</time>
      </trkpt>
      <trkpt lat="46.63414" lon="0.53107">
        <ele>178.12</ele>
        <time>2018-02-25T10:34:04.000Z</time>
      </trkpt>
      <trkpt lat="46.63424" lon="0.5311">
        <ele>179</ele>
        <time>2018-02-25T10:34:09.000Z</time>
      </trkpt>
      <trkpt lat="46.63433" lon="0.5311">
        <ele>180.14</ele>
        <time>2018-02-25T10:34:16.000Z</time>
      </trkpt>
      <trkpt lat="46.63443" lon="0.53119">
        <ele>180.46</ele>
        <time>2018-02-25T10:34:19.000Z</time>
      </trkpt>
      <trkpt lat="46.63452" lon="0.53125">
        <ele>180.6</ele>
        <time>2018-02-25T10:34:22.000Z</time>
      </trkpt>
      <trkpt lat="46.63461" lon="0.53133">
        <ele>180.78</ele>
        <time>2018-02-25T10:34:26.000Z</time>
      </trkpt>
      <trkpt lat="46.6347" lon="0.53137">
        <ele>181.21</ele>
        <time>2018-02-25T10:34:31.000Z</time>
      </trkpt>
      <trkpt lat="46.63479" lon="0.53142">
        <ele>181.36</ele>
        <time>2018-02-25T10:34:35.000Z</time>
      </trkpt>
      <trkpt lat="46.63491" lon="0.53149">
        <ele>181.44</ele>
        <time>2018-02-25T10:34:39.000Z</time>
      </trkpt>
      <trkpt lat="46.635" lon="0.53155">
        <ele>181.62</ele>
        <time>2018-02-25T10:34:42.000Z</time>
      </trkpt>
      <trkpt lat="46.6351" lon="0.53159">
        <ele>181.81</ele>
        <time>2018-02-25T10:34:44.000Z</time>
      </trkpt>
      <trkpt lat="46.6352" lon="0.53168">
        <ele>182.07</ele>
        <time>2018-02-25T10:34:46.000Z</time>
      </trkpt>
      <trkpt lat="46.63531" lon="0.53175">
        <ele>182.51</ele>
        <time>2018-02-25T10:34:49.000Z</time>
      </trkpt>
      <trkpt lat="46.6354" lon="0.53182">
        <ele>183.15</ele>
        <time>2018-02-25T10:34:53.000Z</time>
      </trkpt>
      <trkpt lat="46.63549" lon="0.53187">
        <ele>183.6</ele>
        <time>2018-02-25T10:34:55.000Z</time>
      </trkpt>
      <trkpt lat="46.63557" lon="0.53194">
        <ele>184.05</ele>
        <time>2018-02-25T10:34:57.000Z</time>
      </trkpt>
      <trkpt lat="46.63567" lon="0.53201">
        <ele>184.62</ele>
        <time>2018-02-25T10:35:00.000Z</time>
      </trkpt>
      <trkpt lat="46.63578" lon="0.53207">
        <ele>185.1</ele>
        <time>2018-02-25T10:35:03.000Z</time>
      </trkpt>
      <trkpt lat="46.63589" lon="0.53216">
        <ele>185.47</ele>
        <time>2018-02-25T10:35:06.000Z</time>
      </trkpt>
      <trkpt lat="46.636" lon="0.53222">
        <ele>185.72</ele>
        <time>2018-02-25T10:35:09.000Z</time>
      </trkpt>
      <trkpt lat="46.63611" lon="0.53229">
        <ele>185.85</ele>
        <time>2018-02-25T10:35:12.000Z</time>
      </trkpt>
      <trkpt lat="46.63619" lon="0.53235">
        <ele>185.92</ele>
        <time>2018-02-25T10:35:15.000Z</time>
      </trkpt>
      <trkpt lat="46.63628" lon="0.5324">
        <ele>185.94</ele>
        <time>2018-02-25T10:35:17.000Z</time>
      </trkpt>
      <trkpt lat="46.63638" lon="0.53244">
        <ele>185.94</ele>
        <time>2018-02-25T10:35:19.000Z</time>
      </trkpt>
      <trkpt lat="46.63652" lon="0.53258">
        <ele>185.97</ele>
        <time>2018-02-25T10:35:21.000Z</time>
      </trkpt>
      <trkpt lat="46.63662" lon="0.53269">
        <ele>186.03</ele>
        <time>2018-02-25T10:35:23.000Z</time>
      </trkpt>
      <trkpt lat="46.6367" lon="0.53282">
        <ele>186.64</ele>
        <time>2018-02-25T10:35:26.000Z</time>
      </trkpt>
      <trkpt lat="46.63677" lon="0.53297">
        <ele>186.69</ele>
        <time>2018-02-25T10:35:28.000Z</time>
      </trkpt>
      <trkpt lat="46.63685" lon="0.53313">
        <ele>186.18</ele>
        <time>2018-02-25T10:35:30.000Z</time>
      </trkpt>
      <trkpt lat="46.63691" lon="0.53325">
        <ele>186.11</ele>
        <time>2018-02-25T10:35:32.000Z</time>
      </trkpt>
      <trkpt lat="46.63694" lon="0.53344">
        <ele>184.42</ele>
        <time>2018-02-25T10:35:35.000Z</time>
      </trkpt>
      <trkpt lat="46.63701" lon="0.53358">
        <ele>183.26</ele>
        <time>2018-02-25T10:35:37.000Z</time>
      </trkpt>
      <trkpt lat="46.63706" lon="0.5337">
        <ele>182.87</ele>
        <time>2018-02-25T10:35:40.000Z</time>
      </trkpt>
      <trkpt lat="46.63714" lon="0.53383">
        <ele>182.37</ele>
        <time>2018-02-25T10:35:43.000Z</time>
      </trkpt>
      <trkpt lat="46.63722" lon="0.53395">
        <ele>181.79</ele>
        <time>2018-02-25T10:35:46.000Z</time>
      </trkpt>
      <trkpt lat="46.63728" lon="0.53406">
        <ele>181.47</ele>
        <time>2018-02-25T10:35:48.000Z</time>
      </trkpt>
      <trkpt lat="46.63733" lon="0.53417">
        <ele>181.16</ele>
        <time>2018-02-25T10:35:50.000Z</time>
      </trkpt>
      <trkpt lat="46.63739" lon="0.53428">
        <ele>180.84</ele>
        <time>2018-02-25T10:35:52.000Z</time>
      </trkpt>
      <trkpt lat="46.63742" lon="0.53444">
        <ele>180.44</ele>
        <time>2018-02-25T10:35:55.000Z</time>
      </trkpt>
      <trkpt lat="46.63746" lon="0.53458">
        <ele>180.25</ele>
        <time>2018-02-25T10:35:57.000Z</time>
      </trkpt>
      <trkpt lat="46.63752" lon="0.53474">
        <ele>180.16</ele>
        <time>2018-02-25T10:35:59.000Z</time>
      </trkpt>
      <trkpt lat="46.63761" lon="0.53487">
        <ele>180.08</ele>
        <time>2018-02-25T10:36:02.000Z</time>
      </trkpt>
      <trkpt lat="46.6377" lon="0.53495">
        <ele>180.05</ele>
        <time>2018-02-25T10:36:04.000Z</time>
      </trkpt>
      <trkpt lat="46.63782" lon="0.53501">
        <ele>179.97</ele>
        <time>2018-02-25T10:36:06.000Z</time>
      </trkpt>
      <trkpt lat="46.6379" lon="0.53496">
        <ele>180.06</ele>
        <time>2018-02-25T10:36:09.000Z</time>
      </trkpt>
      <trkpt lat="46.638" lon="0.53488">
        <ele>180.66</ele>
        <time>2018-02-25T10:36:13.000Z</time>
      </trkpt>
      <trkpt lat="46.63811" lon="0.53477">
        <ele>181.72</ele>
        <time>2018-02-25T10:36:18.000Z</time>
      </trkpt>
      <trkpt lat="46.63819" lon="0.53467">
        <ele>182.56</ele>
        <time>2018-02-25T10:36:21.000Z</time>
      </trkpt>
      <trkpt lat="46.63827" lon="0.53459">
        <ele>183.56</ele>
        <time>2018-02-25T10:36:24.000Z</time>
      </trkpt>
      <trkpt lat="46.63834" lon="0.53451">
        <ele>184.64</ele>
        <time>2018-02-25T10:36:27.000Z</time>
      </trkpt>
      <trkpt lat="46.63842" lon="0.53443">
        <ele>185.72</ele>
        <time>2018-02-25T10:36:30.000Z</time>
      </trkpt>
      <trkpt lat="46.63852" lon="0.53431">
        <ele>186.92</ele>
        <time>2018-02-25T10:36:33.000Z</time>
      </trkpt>
      <trkpt lat="46.6386" lon="0.53424">
        <ele>188.3</ele>
        <time>2018-02-25T10:36:36.000Z</time>
      </trkpt>
      <trkpt lat="46.63868" lon="0.53414">
        <ele>189.58</ele>
        <time>2018-02-25T10:36:39.000Z</time>
      </trkpt>
      <trkpt lat="46.63876" lon="0.53406">
        <ele>190.63</ele>
        <time>2018-02-25T10:36:42.000Z</time>
      </trkpt>
      <trkpt lat="46.63886" lon="0.53396">
        <ele>191.44</ele>
        <time>2018-02-25T10:36:45.000Z</time>
      </trkpt>
      <trkpt lat="46.63894" lon="0.53387">
        <ele>191.9</ele>
        <time>2018-02-25T10:36:48.000Z</time>
      </trkpt>
      <trkpt lat="46.63903" lon="0.53377">
        <ele>192.41</ele>
        <time>2018-02-25T10:36:52.000Z</time>
      </trkpt>
      <trkpt lat="46.63913" lon="0.53366">
        <ele>192.78</ele>
        <time>2018-02-25T10:36:56.000Z</time>
      </trkpt>
      <trkpt lat="46.63922" lon="0.53357">
        <ele>193.01</ele>
        <time>2018-02-25T10:36:59.000Z</time>
      </trkpt>
      <trkpt lat="46.63932" lon="0.53347">
        <ele>193.06</ele>
        <time>2018-02-25T10:37:02.000Z</time>
      </trkpt>
      <trkpt lat="46.6394" lon="0.53338">
        <ele>193.05</ele>
        <time>2018-02-25T10:37:05.000Z</time>
      </trkpt>
      <trkpt lat="46.6395" lon="0.53328">
        <ele>193.06</ele>
        <time>2018-02-25T10:37:09.000Z</time>
      </trkpt>
      <trkpt lat="46.63957" lon="0.53318">
        <ele>192.98</ele>
        <time>2018-02-25T10:37:12.000Z</time>
      </trkpt>
      <trkpt lat="46.63965" lon="0.53307">
        <ele>192.83</ele>
        <time>2018-02-25T10:37:15.000Z</time>
      </trkpt>
      <trkpt lat="46.63973" lon="0.53302">
        <ele>192.64</ele>
        <time>2018-02-25T10:37:18.000Z</time>
      </trkpt>
      <trkpt lat="46.63982" lon="0.53294">
        <ele>192.45</ele>
        <time>2018-02-25T10:37:22.000Z</time>
      </trkpt>
      <trkpt lat="46.63993" lon="0.53283">
        <ele>192.26</ele>
        <time>2018-02-25T10:37:25.000Z</time>
      </trkpt>
      <trkpt lat="46.64002" lon="0.53271">
        <ele>191.91</ele>
        <time>2018-02-25T10:37:29.000Z</time>
      </trkpt>
      <trkpt lat="46.64009" lon="0.53262">
        <ele>191.7</ele>
        <time>2018-02-25T10:37:33.000Z</time>
      </trkpt>
      <trkpt lat="46.64018" lon="0.53252">
        <ele>191.61</ele>
        <time>2018-02-25T10:37:36.000Z</time>
      </trkpt>
      <trkpt lat="46.64025" lon="0.53242">
        <ele>191.52</ele>
        <time>2018-02-25T10:37:38.000Z</time>
      </trkpt>
      <trkpt lat="46.64032" lon="0.53234">
        <ele>191.29</ele>
        <time>2018-02-25T10:37:41.000Z</time>
      </trkpt>
      <trkpt lat="46.64043" lon="0.53225">
        <ele>190.92</ele>
        <time>2018-02-25T10:37:44.000Z</time>
      </trkpt>
      <trkpt lat="46.6405" lon="0.53212">
        <ele>190.04</ele>
        <time>2018-02-25T10:37:48.000Z</time>
      </trkpt>
      <trkpt lat="46.64055" lon="0.53197">
        <ele>189.71</ele>
        <time>2018-02-25T10:37:50.000Z</time>
      </trkpt>
      <trkpt lat="46.64053" lon="0.53182">
        <ele>189.02</ele>
        <time>2018-02-25T10:37:55.000Z</time>
      </trkpt>
      <trkpt lat="46.64048" lon="0.53171">
        <ele>188.36</ele>
        <time>2018-02-25T10:37:59.000Z</time>
      </trkpt>
      <trkpt lat="46.64042" lon="0.53156">
        <ele>187.82</ele>
        <time>2018-02-25T10:38:02.000Z</time>
      </trkpt>
      <trkpt lat="46.64037" lon="0.53145">
        <ele>187.13</ele>
        <time>2018-02-25T10:38:06.000Z</time>
      </trkpt>
      <trkpt lat="46.6403" lon="0.53135">
        <ele>186.75</ele>
        <time>2018-02-25T10:38:09.000Z</time>
      </trkpt>
      <trkpt lat="46.64023" lon="0.53121">
        <ele>186.41</ele>
        <time>2018-02-25T10:38:12.000Z</time>
      </trkpt>
      <trkpt lat="46.64017" lon="0.53105">
        <ele>186.01</ele>
        <time>2018-02-25T10:38:15.000Z</time>
      </trkpt>
      <trkpt lat="46.6401" lon="0.53091">
        <ele>185.83</ele>
        <time>2018-02-25T10:38:17.000Z</time>
      </trkpt>
      <trkpt lat="46.64004" lon="0.53079">
        <ele>185.75</ele>
        <time>2018-02-25T10:38:19.000Z</time>
      </trkpt>
      <trkpt lat="46.63996" lon="0.53073">
        <ele>185.95</ele>
        <time>2018-02-25T10:38:22.000Z</time>
      </trkpt>
      <trkpt lat="46.6399" lon="0.53057">
        <ele>186.54</ele>
        <time>2018-02-25T10:38:25.000Z</time>
      </trkpt>
      <trkpt lat="46.63984" lon="0.53042">
        <ele>187.04</ele>
        <time>2018-02-25T10:38:27.000Z</time>
      </trkpt>
      <trkpt lat="46.63977" lon="0.53028">
        <ele>189.37</ele>
        <time>2018-02-25T10:38:29.000Z</time>
      </trkpt>
      <trkpt lat="46.63972" lon="0.53015">
        <ele>189.49</ele>
        <time>2018-02-25T10:38:31.000Z</time>
      </trkpt>
      <trkpt lat="46.63966" lon="0.53004">
        <ele>189.37</ele>
        <time>2018-02-25T10:38:34.000Z</time>
      </trkpt>
      <trkpt lat="46.6396" lon="0.52992">
        <ele>189.22</ele>
        <time>2018-02-25T10:38:36.000Z</time>
      </trkpt>
      <trkpt lat="46.63952" lon="0.52971">
        <ele>187.5</ele>
        <time>2018-02-25T10:38:38.000Z</time>
      </trkpt>
      <trkpt lat="46.63947" lon="0.52956">
        <ele>183.77</ele>
        <time>2018-02-25T10:38:40.000Z</time>
      </trkpt>
      <trkpt lat="46.6394" lon="0.52943">
        <ele>180.56</ele>
        <time>2018-02-25T10:38:42.000Z</time>
      </trkpt>
      <trkpt lat="46.63934" lon="0.52931">
        <ele>179.3</ele>
        <time>2018-02-25T10:38:44.000Z</time>
      </trkpt>
      <trkpt lat="46.63927" lon="0.5292">
        <ele>178.2</ele>
        <time>2018-02-25T10:38:46.000Z</time>
      </trkpt>
      <trkpt lat="46.63921" lon="0.5291">
        <ele>177.89</ele>
        <time>2018-02-25T10:38:48.000Z</time>
      </trkpt>
      <trkpt lat="46.63912" lon="0.52896">
        <ele>177.8</ele>
        <time>2018-02-25T10:38:51.000Z</time>
      </trkpt>
      <trkpt lat="46.63905" lon="0.52879">
        <ele>177.9</ele>
        <time>2018-02-25T10:38:55.000Z</time>
      </trkpt>
      <trkpt lat="46.63898" lon="0.52864">
        <ele>178.26</ele>
        <time>2018-02-25T10:38:57.000Z</time>
      </trkpt>
      <trkpt lat="46.63891" lon="0.52853">
        <ele>178.75</ele>
        <time>2018-02-25T10:38:59.000Z</time>
      </trkpt>
      <trkpt lat="46.63883" lon="0.52839">
        <ele>179.71</ele>
        <time>2018-02-25T10:39:02.000Z</time>
      </trkpt>
      <trkpt lat="46.63876" lon="0.52827">
        <ele>180.69</ele>
        <time>2018-02-25T10:39:05.000Z</time>
      </trkpt>
      <trkpt lat="46.63872" lon="0.52814">
        <ele>181.56</ele>
        <time>2018-02-25T10:39:08.000Z</time>
      </trkpt>
      <trkpt lat="46.63866" lon="0.52801">
        <ele>182.6</ele>
        <time>2018-02-25T10:39:12.000Z</time>
      </trkpt>
      <trkpt lat="46.63858" lon="0.52789">
        <ele>183.55</ele>
        <time>2018-02-25T10:39:15.000Z</time>
      </trkpt>
      <trkpt lat="46.6385" lon="0.52776">
        <ele>184.69</ele>
        <time>2018-02-25T10:39:18.000Z</time>
      </trkpt>
      <trkpt lat="46.63843" lon="0.52764">
        <ele>186.25</ele>
        <time>2018-02-25T10:39:22.000Z</time>
      </trkpt>
      <trkpt lat="46.63839" lon="0.52752">
        <ele>187.91</ele>
        <time>2018-02-25T10:39:27.000Z</time>
      </trkpt>
      <trkpt lat="46.63832" lon="0.52741">
        <ele>188.86</ele>
        <time>2018-02-25T10:39:30.000Z</time>
      </trkpt>
      <trkpt lat="46.63825" lon="0.52729">
        <ele>189.89</ele>
        <time>2018-02-25T10:39:33.000Z</time>
      </trkpt>
      <trkpt lat="46.6382" lon="0.52718">
        <ele>191.22</ele>
        <time>2018-02-25T10:39:37.000Z</time>
      </trkpt>
      <trkpt lat="46.63813" lon="0.52706">
        <ele>192.46</ele>
        <time>2018-02-25T10:39:41.000Z</time>
      </trkpt>
      <trkpt lat="46.63809" lon="0.52694">
        <ele>193.64</ele>
        <time>2018-02-25T10:39:45.000Z</time>
      </trkpt>
      <trkpt lat="46.63804" lon="0.52681">
        <ele>194.36</ele>
        <time>2018-02-25T10:39:48.000Z</time>
      </trkpt>
      <trkpt lat="46.63797" lon="0.52671">
        <ele>194.96</ele>
        <time>2018-02-25T10:39:51.000Z</time>
      </trkpt>
      <trkpt lat="46.63791" lon="0.52658">
        <ele>195.58</ele>
        <time>2018-02-25T10:39:55.000Z</time>
      </trkpt>
      <trkpt lat="46.63783" lon="0.52648">
        <ele>196.1</ele>
        <time>2018-02-25T10:39:59.000Z</time>
      </trkpt>
      <trkpt lat="46.63777" lon="0.52636">
        <ele>196.48</ele>
        <time>2018-02-25T10:40:02.000Z</time>
      </trkpt>
      <trkpt lat="46.63771" lon="0.52624">
        <ele>196.85</ele>
        <time>2018-02-25T10:40:05.000Z</time>
      </trkpt>
      <trkpt lat="46.63764" lon="0.52613">
        <ele>197.26</ele>
        <time>2018-02-25T10:40:08.000Z</time>
      </trkpt>
      <trkpt lat="46.63757" lon="0.52601">
        <ele>197.89</ele>
        <time>2018-02-25T10:40:11.000Z</time>
      </trkpt>
      <trkpt lat="46.63751" lon="0.5259">
        <ele>198.25</ele>
        <time>2018-02-25T10:40:13.000Z</time>
      </trkpt>
      <trkpt lat="46.63745" lon="0.5258">
        <ele>198.41</ele>
        <time>2018-02-25T10:40:15.000Z</time>
      </trkpt>
      <trkpt lat="46.63739" lon="0.52567">
        <ele>198.5</ele>
        <time>2018-02-25T10:40:18.000Z</time>
      </trkpt>
      <trkpt lat="46.63734" lon="0.52553">
        <ele>198.39</ele>
        <time>2018-02-25T10:40:21.000Z</time>
      </trkpt>
      <trkpt lat="46.63727" lon="0.52537">
        <ele>198.05</ele>
        <time>2018-02-25T10:40:24.000Z</time>
      </trkpt>
      <trkpt lat="46.63721" lon="0.52525">
        <ele>197.88</ele>
        <time>2018-02-25T10:40:26.000Z</time>
      </trkpt>
      <trkpt lat="46.63713" lon="0.52509">
        <ele>197.95</ele>
        <time>2018-02-25T10:40:28.000Z</time>
      </trkpt>
      <trkpt lat="46.63705" lon="0.52495">
        <ele>198.13</ele>
        <time>2018-02-25T10:40:30.000Z</time>
      </trkpt>
      <trkpt lat="46.637" lon="0.52482">
        <ele>198.43</ele>
        <time>2018-02-25T10:40:32.000Z</time>
      </trkpt>
      <trkpt lat="46.63694" lon="0.5247">
        <ele>198.76</ele>
        <time>2018-02-25T10:40:34.000Z</time>
      </trkpt>
      <trkpt lat="46.63688" lon="0.52455">
        <ele>200.26</ele>
        <time>2018-02-25T10:40:36.000Z</time>
      </trkpt>
      <trkpt lat="46.63683" lon="0.52441">
        <ele>201.92</ele>
        <time>2018-02-25T10:40:38.000Z</time>
      </trkpt>
      <trkpt lat="46.63676" lon="0.52427">
        <ele>203.36</ele>
        <time>2018-02-25T10:40:40.000Z</time>
      </trkpt>
      <trkpt lat="46.6367" lon="0.52415">
        <ele>204.97</ele>
        <time>2018-02-25T10:40:42.000Z</time>
      </trkpt>
      <trkpt lat="46.63662" lon="0.52401">
        <ele>206.47</ele>
        <time>2018-02-25T10:40:44.000Z</time>
      </trkpt>
      <trkpt lat="46.63653" lon="0.52387">
        <ele>207.93</ele>
        <time>2018-02-25T10:40:46.000Z</time>
      </trkpt>
      <trkpt lat="46.63644" lon="0.52371">
        <ele>208.04</ele>
        <time>2018-02-25T10:40:48.000Z</time>
      </trkpt>
      <trkpt lat="46.63636" lon="0.52356">
        <ele>207.13</ele>
        <time>2018-02-25T10:40:50.000Z</time>
      </trkpt>
      <trkpt lat="46.63627" lon="0.52339">
        <ele>205.01</ele>
        <time>2018-02-25T10:40:52.000Z</time>
      </trkpt>
      <trkpt lat="46.63619" lon="0.52326">
        <ele>203.64</ele>
        <time>2018-02-25T10:40:54.000Z</time>
      </trkpt>
      <trkpt lat="46.63612" lon="0.52313">
        <ele>203.11</ele>
        <time>2018-02-25T10:40:56.000Z</time>
      </trkpt>
      <trkpt lat="46.63605" lon="0.523">
        <ele>203.16</ele>
        <time>2018-02-25T10:40:58.000Z</time>
      </trkpt>
      <trkpt lat="46.63599" lon="0.52289">
        <ele>203.42</ele>
        <time>2018-02-25T10:41:00.000Z</time>
      </trkpt>
      <trkpt lat="46.63594" lon="0.52276">
        <ele>203.53</ele>
        <time>2018-02-25T10:41:02.000Z</time>
      </trkpt>
      <trkpt lat="46.63589" lon="0.52263">
        <ele>203.63</ele>
        <time>2018-02-25T10:41:04.000Z</time>
      </trkpt>
      <trkpt lat="46.63584" lon="0.5225">
        <ele>203.68</ele>
        <time>2018-02-25T10:41:06.000Z</time>
      </trkpt>
      <trkpt lat="46.63579" lon="0.52238">
        <ele>203.64</ele>
        <time>2018-02-25T10:41:09.000Z</time>
      </trkpt>
      <trkpt lat="46.63571" lon="0.52223">
        <ele>203.12</ele>
        <time>2018-02-25T10:41:11.000Z</time>
      </trkpt>
      <trkpt lat="46.63561" lon="0.52212">
        <ele>203.05</ele>
        <time>2018-02-25T10:41:13.000Z</time>
      </trkpt>
      <trkpt lat="46.63554" lon="0.52201">
        <ele>202.66</ele>
        <time>2018-02-25T10:41:14.000Z</time>
      </trkpt>
      <trkpt lat="46.63548" lon="0.52186">
        <ele>202.56</ele>
        <time>2018-02-25T10:41:16.000Z</time>
      </trkpt>
      <trkpt lat="46.63541" lon="0.52174">
        <ele>201.79</ele>
        <time>2018-02-25T10:41:18.000Z</time>
      </trkpt>
      <trkpt lat="46.63535" lon="0.52163">
        <ele>201.84</ele>
        <time>2018-02-25T10:41:20.000Z</time>
      </trkpt>
      <trkpt lat="46.63528" lon="0.52153">
        <ele>201.88</ele>
        <time>2018-02-25T10:41:23.000Z</time>
      </trkpt>
      <trkpt lat="46.6352" lon="0.52138">
        <ele>202.35</ele>
        <time>2018-02-25T10:41:26.000Z</time>
      </trkpt>
      <trkpt lat="46.63511" lon="0.52119">
        <ele>202.75</ele>
        <time>2018-02-25T10:41:28.000Z</time>
      </trkpt>
      <trkpt lat="46.63504" lon="0.52105">
        <ele>203</ele>
        <time>2018-02-25T10:41:30.000Z</time>
      </trkpt>
      <trkpt lat="46.635" lon="0.52091">
        <ele>203.21</ele>
        <time>2018-02-25T10:41:32.000Z</time>
      </trkpt>
      <trkpt lat="46.63492" lon="0.5208">
        <ele>204.03</ele>
        <time>2018-02-25T10:41:34.000Z</time>
      </trkpt>
      <trkpt lat="46.63483" lon="0.52064">
        <ele>204</ele>
        <time>2018-02-25T10:41:37.000Z</time>
      </trkpt>
      <trkpt lat="46.63476" lon="0.52052">
        <ele>203.99</ele>
        <time>2018-02-25T10:41:39.000Z</time>
      </trkpt>
      <trkpt lat="46.6347" lon="0.52039">
        <ele>203.92</ele>
        <time>2018-02-25T10:41:41.000Z</time>
      </trkpt>
      <trkpt lat="46.63464" lon="0.5203">
        <ele>203.92</ele>
        <time>2018-02-25T10:41:43.000Z</time>
      </trkpt>
      <trkpt lat="46.63457" lon="0.52015">
        <ele>204.01</ele>
        <time>2018-02-25T10:41:46.000Z</time>
      </trkpt>
      <trkpt lat="46.63453" lon="0.52003">
        <ele>203.9</ele>
        <time>2018-02-25T10:41:49.000Z</time>
      </trkpt>
      <trkpt lat="46.63445" lon="0.51989">
        <ele>203.65</ele>
        <time>2018-02-25T10:41:52.000Z</time>
      </trkpt>
      <trkpt lat="46.63438" lon="0.51973">
        <ele>203.39</ele>
        <time>2018-02-25T10:41:55.000Z</time>
      </trkpt>
      <trkpt lat="46.6343" lon="0.51957">
        <ele>203.03</ele>
        <time>2018-02-25T10:41:58.000Z</time>
      </trkpt>
      <trkpt lat="46.63424" lon="0.51945">
        <ele>202.92</ele>
        <time>2018-02-25T10:42:00.000Z</time>
      </trkpt>
      <trkpt lat="46.63416" lon="0.51933">
        <ele>202.89</ele>
        <time>2018-02-25T10:42:03.000Z</time>
      </trkpt>
      <trkpt lat="46.6341" lon="0.5192">
        <ele>202.91</ele>
        <time>2018-02-25T10:42:06.000Z</time>
      </trkpt>
      <trkpt lat="46.63402" lon="0.5191">
        <ele>202.99</ele>
        <time>2018-02-25T10:42:09.000Z</time>
      </trkpt>
      <trkpt lat="46.63397" lon="0.51897">
        <ele>203.07</ele>
        <time>2018-02-25T10:42:12.000Z</time>
      </trkpt>
      <trkpt lat="46.6339" lon="0.51883">
        <ele>203.25</ele>
        <time>2018-02-25T10:42:15.000Z</time>
      </trkpt>
      <trkpt lat="46.63385" lon="0.51871">
        <ele>203.48</ele>
        <time>2018-02-25T10:42:17.000Z</time>
      </trkpt>
      <trkpt lat="46.63378" lon="0.51858">
        <ele>203.96</ele>
        <time>2018-02-25T10:42:20.000Z</time>
      </trkpt>
      <trkpt lat="46.63372" lon="0.51845">
        <ele>204.85</ele>
        <time>2018-02-25T10:42:24.000Z</time>
      </trkpt>
      <trkpt lat="46.63366" lon="0.5183">
        <ele>205.54</ele>
        <time>2018-02-25T10:42:27.000Z</time>
      </trkpt>
      <trkpt lat="46.63359" lon="0.51821">
        <ele>206.25</ele>
        <time>2018-02-25T10:42:30.000Z</time>
      </trkpt>
      <trkpt lat="46.63353" lon="0.51811">
        <ele>206.98</ele>
        <time>2018-02-25T10:42:34.000Z</time>
      </trkpt>
      <trkpt lat="46.63345" lon="0.51798">
        <ele>207.16</ele>
        <time>2018-02-25T10:42:37.000Z</time>
      </trkpt>
      <trkpt lat="46.63337" lon="0.51786">
        <ele>207.12</ele>
        <time>2018-02-25T10:42:39.000Z</time>
      </trkpt>
      <trkpt lat="46.63331" lon="0.51774">
        <ele>207.13</ele>
        <time>2018-02-25T10:42:41.000Z</time>
      </trkpt>
      <trkpt lat="46.63324" lon="0.51761">
        <ele>207.19</ele>
        <time>2018-02-25T10:42:44.000Z</time>
      </trkpt>
      <trkpt lat="46.6332" lon="0.51748">
        <ele>207.4</ele>
        <time>2018-02-25T10:42:47.000Z</time>
      </trkpt>
      <trkpt lat="46.63324" lon="0.51736">
        <ele>207.7</ele>
        <time>2018-02-25T10:42:51.000Z</time>
      </trkpt>
      <trkpt lat="46.63331" lon="0.51727">
        <ele>207.69</ele>
        <time>2018-02-25T10:42:53.000Z</time>
      </trkpt>
      <trkpt lat="46.63337" lon="0.51717">
        <ele>207.67</ele>
        <time>2018-02-25T10:43:01.000Z</time>
      </trkpt>
      <trkpt lat="46.63345" lon="0.51708">
        <ele>207.95</ele>
        <time>2018-02-25T10:43:05.000Z</time>
      </trkpt>
      <trkpt lat="46.63354" lon="0.517">
        <ele>208.38</ele>
        <time>2018-02-25T10:43:09.000Z</time>
      </trkpt>
      <trkpt lat="46.63362" lon="0.51688">
        <ele>208.65</ele>
        <time>2018-02-25T10:43:14.000Z</time>
      </trkpt>
      <trkpt lat="46.63371" lon="0.51678">
        <ele>208.68</ele>
        <time>2018-02-25T10:43:19.000Z</time>
      </trkpt>
      <trkpt lat="46.63381" lon="0.51667">
        <ele>208.78</ele>
        <time>2018-02-25T10:43:22.000Z</time>
      </trkpt>
      <trkpt lat="46.63393" lon="0.51659">
        <ele>208.87</ele>
        <time>2018-02-25T10:43:26.000Z</time>
      </trkpt>
      <trkpt lat="46.63401" lon="0.51649">
        <ele>209.39</ele>
        <time>2018-02-25T10:43:31.000Z</time>
      </trkpt>
      <trkpt lat="46.63408" lon="0.51641">
        <ele>209.54</ele>
        <time>2018-02-25T10:43:33.000Z</time>
      </trkpt>
      <trkpt lat="46.63415" lon="0.51632">
        <ele>209.64</ele>
        <time>2018-02-25T10:43:35.000Z</time>
      </trkpt>
      <trkpt lat="46.63423" lon="0.51624">
        <ele>209.76</ele>
        <time>2018-02-25T10:43:38.000Z</time>
      </trkpt>
      <trkpt lat="46.6343" lon="0.51615">
        <ele>209.43</ele>
        <time>2018-02-25T10:43:42.000Z</time>
      </trkpt>
      <trkpt lat="46.63441" lon="0.51596">
        <ele>208.04</ele>
        <time>2018-02-25T10:43:46.000Z</time>
      </trkpt>
      <trkpt lat="46.63448" lon="0.51587">
        <ele>207.39</ele>
        <time>2018-02-25T10:43:48.000Z</time>
      </trkpt>
      <trkpt lat="46.63456" lon="0.51577">
        <ele>206.91</ele>
        <time>2018-02-25T10:43:50.000Z</time>
      </trkpt>
      <trkpt lat="46.63464" lon="0.51569">
        <ele>206.53</ele>
        <time>2018-02-25T10:43:52.000Z</time>
      </trkpt>
      <trkpt lat="46.63473" lon="0.5156">
        <ele>205.95</ele>
        <time>2018-02-25T10:43:55.000Z</time>
      </trkpt>
      <trkpt lat="46.63482" lon="0.5155">
        <ele>205.16</ele>
        <time>2018-02-25T10:43:59.000Z</time>
      </trkpt>
      <trkpt lat="46.6349" lon="0.51542">
        <ele>204.68</ele>
        <time>2018-02-25T10:44:02.000Z</time>
      </trkpt>
      <trkpt lat="46.63498" lon="0.51535">
        <ele>204.25</ele>
        <time>2018-02-25T10:44:04.000Z</time>
      </trkpt>
      <trkpt lat="46.63505" lon="0.51527">
        <ele>201.78</ele>
        <time>2018-02-25T10:44:07.000Z</time>
      </trkpt>
      <trkpt lat="46.63516" lon="0.51519">
        <ele>201.2</ele>
        <time>2018-02-25T10:44:10.000Z</time>
      </trkpt>
      <trkpt lat="46.63525" lon="0.51515">
        <ele>200.77</ele>
        <time>2018-02-25T10:44:13.000Z</time>
      </trkpt>
      <trkpt lat="46.63533" lon="0.51507">
        <ele>200.63</ele>
        <time>2018-02-25T10:44:15.000Z</time>
      </trkpt>
      <trkpt lat="46.63541" lon="0.51501">
        <ele>200.55</ele>
        <time>2018-02-25T10:44:18.000Z</time>
      </trkpt>
      <trkpt lat="46.63551" lon="0.51494">
        <ele>200.39</ele>
        <time>2018-02-25T10:44:22.000Z</time>
      </trkpt>
      <trkpt lat="46.63561" lon="0.5148">
        <ele>200.21</ele>
        <time>2018-02-25T10:44:25.000Z</time>
      </trkpt>
      <trkpt lat="46.6357" lon="0.51468">
        <ele>200.34</ele>
        <time>2018-02-25T10:44:28.000Z</time>
      </trkpt>
      <trkpt lat="46.6358" lon="0.51456">
        <ele>200.55</ele>
        <time>2018-02-25T10:44:31.000Z</time>
      </trkpt>
      <trkpt lat="46.63588" lon="0.51447">
        <ele>200.74</ele>
        <time>2018-02-25T10:44:33.000Z</time>
      </trkpt>
      <trkpt lat="46.63597" lon="0.5144">
        <ele>200.99</ele>
        <time>2018-02-25T10:44:37.000Z</time>
      </trkpt>
      <trkpt lat="46.63606" lon="0.51432">
        <ele>201.16</ele>
        <time>2018-02-25T10:44:40.000Z</time>
      </trkpt>
      <trkpt lat="46.63614" lon="0.51422">
        <ele>201.42</ele>
        <time>2018-02-25T10:44:44.000Z</time>
      </trkpt>
      <trkpt lat="46.63625" lon="0.51413">
        <ele>201.43</ele>
        <time>2018-02-25T10:44:47.000Z</time>
      </trkpt>
      <trkpt lat="46.63631" lon="0.51403">
        <ele>201.34</ele>
        <time>2018-02-25T10:44:52.000Z</time>
      </trkpt>
      <trkpt lat="46.6364" lon="0.51393">
        <ele>201.03</ele>
        <time>2018-02-25T10:44:57.000Z</time>
      </trkpt>
      <trkpt lat="46.63647" lon="0.51385">
        <ele>200.74</ele>
        <time>2018-02-25T10:45:01.000Z</time>
      </trkpt>
      <trkpt lat="46.63656" lon="0.51373">
        <ele>200.65</ele>
        <time>2018-02-25T10:45:03.000Z</time>
      </trkpt>
      <trkpt lat="46.63665" lon="0.51364">
        <ele>200.55</ele>
        <time>2018-02-25T10:45:06.000Z</time>
      </trkpt>
      <trkpt lat="46.63675" lon="0.51354">
        <ele>200.58</ele>
        <time>2018-02-25T10:45:09.000Z</time>
      </trkpt>
      <trkpt lat="46.63683" lon="0.51347">
        <ele>200.66</ele>
        <time>2018-02-25T10:45:11.000Z</time>
      </trkpt>
      <trkpt lat="46.63692" lon="0.5134">
        <ele>200.88</ele>
        <time>2018-02-25T10:45:15.000Z</time>
      </trkpt>
      <trkpt lat="46.637" lon="0.51331">
        <ele>201.16</ele>
        <time>2018-02-25T10:45:18.000Z</time>
      </trkpt>
      <trkpt lat="46.63702" lon="0.51318">
        <ele>201.64</ele>
        <time>2018-02-25T10:45:22.000Z</time>
      </trkpt>
      <trkpt lat="46.63699" lon="0.51302">
        <ele>201.87</ele>
        <time>2018-02-25T10:45:26.000Z</time>
      </trkpt>
      <trkpt lat="46.63696" lon="0.51288">
        <ele>202.02</ele>
        <time>2018-02-25T10:45:30.000Z</time>
      </trkpt>
      <trkpt lat="46.6369" lon="0.51273">
        <ele>202.17</ele>
        <time>2018-02-25T10:45:33.000Z</time>
      </trkpt>
      <trkpt lat="46.63684" lon="0.51261">
        <ele>203.49</ele>
        <time>2018-02-25T10:45:35.000Z</time>
      </trkpt>
      <trkpt lat="46.63677" lon="0.51247">
        <ele>204.26</ele>
        <time>2018-02-25T10:45:37.000Z</time>
      </trkpt>
      <trkpt lat="46.63671" lon="0.51235">
        <ele>204.37</ele>
        <time>2018-02-25T10:45:39.000Z</time>
      </trkpt>
      <trkpt lat="46.63665" lon="0.51223">
        <ele>202.93</ele>
        <time>2018-02-25T10:45:42.000Z</time>
      </trkpt>
      <trkpt lat="46.63657" lon="0.51206">
        <ele>202.9</ele>
        <time>2018-02-25T10:45:45.000Z</time>
      </trkpt>
      <trkpt lat="46.6365" lon="0.51191">
        <ele>202</ele>
        <time>2018-02-25T10:45:47.000Z</time>
      </trkpt>
      <trkpt lat="46.63645" lon="0.5118">
        <ele>201.97</ele>
        <time>2018-02-25T10:45:49.000Z</time>
      </trkpt>
      <trkpt lat="46.63638" lon="0.51168">
        <ele>201.6</ele>
        <time>2018-02-25T10:45:51.000Z</time>
      </trkpt>
      <trkpt lat="46.63631" lon="0.51154">
        <ele>201.74</ele>
        <time>2018-02-25T10:45:53.000Z</time>
      </trkpt>
      <trkpt lat="46.63623" lon="0.51136">
        <ele>202.35</ele>
        <time>2018-02-25T10:45:55.000Z</time>
      </trkpt>
      <trkpt lat="46.63617" lon="0.51121">
        <ele>202.17</ele>
        <time>2018-02-25T10:45:57.000Z</time>
      </trkpt>
      <trkpt lat="46.63611" lon="0.51109">
        <ele>202.85</ele>
        <time>2018-02-25T10:45:59.000Z</time>
      </trkpt>
      <trkpt lat="46.63604" lon="0.51098">
        <ele>203.91</ele>
        <time>2018-02-25T10:46:01.000Z</time>
      </trkpt>
      <trkpt lat="46.63597" lon="0.51083">
        <ele>204.23</ele>
        <time>2018-02-25T10:46:04.000Z</time>
      </trkpt>
      <trkpt lat="46.63591" lon="0.51069">
        <ele>204.58</ele>
        <time>2018-02-25T10:46:07.000Z</time>
      </trkpt>
      <trkpt lat="46.63586" lon="0.51057">
        <ele>204.97</ele>
        <time>2018-02-25T10:46:10.000Z</time>
      </trkpt>
      <trkpt lat="46.6358" lon="0.51045">
        <ele>205.73</ele>
        <time>2018-02-25T10:46:14.000Z</time>
      </trkpt>
      <trkpt lat="46.63574" lon="0.51033">
        <ele>206.58</ele>
        <time>2018-02-25T10:46:18.000Z</time>
      </trkpt>
      <trkpt lat="46.63568" lon="0.51022">
        <ele>207.26</ele>
        <time>2018-02-25T10:46:21.000Z</time>
      </trkpt>
      <trkpt lat="46.63562" lon="0.5101">
        <ele>207.91</ele>
        <time>2018-02-25T10:46:24.000Z</time>
      </trkpt>
      <trkpt lat="46.63555" lon="0.50996">
        <ele>208.92</ele>
        <time>2018-02-25T10:46:28.000Z</time>
      </trkpt>
      <trkpt lat="46.63548" lon="0.50985">
        <ele>209.77</ele>
        <time>2018-02-25T10:46:31.000Z</time>
      </trkpt>
      <trkpt lat="46.63543" lon="0.50974">
        <ele>210.6</ele>
        <time>2018-02-25T10:46:34.000Z</time>
      </trkpt>
      <trkpt lat="46.63535" lon="0.50962">
        <ele>211.24</ele>
        <time>2018-02-25T10:46:37.000Z</time>
      </trkpt>
      <trkpt lat="46.63529" lon="0.50951">
        <ele>211.85</ele>
        <time>2018-02-25T10:46:40.000Z</time>
      </trkpt>
      <trkpt lat="46.63524" lon="0.50936">
        <ele>212.42</ele>
        <time>2018-02-25T10:46:43.000Z</time>
      </trkpt>
      <trkpt lat="46.63528" lon="0.50923">
        <ele>212.98</ele>
        <time>2018-02-25T10:46:47.000Z</time>
      </trkpt>
      <trkpt lat="46.63533" lon="0.50907">
        <ele>213.41</ele>
        <time>2018-02-25T10:46:51.000Z</time>
      </trkpt>
      <trkpt lat="46.63542" lon="0.50896">
        <ele>213.31</ele>
        <time>2018-02-25T10:46:54.000Z</time>
      </trkpt>
      <trkpt lat="46.63549" lon="0.50885">
        <ele>213.37</ele>
        <time>2018-02-25T10:46:58.000Z</time>
      </trkpt>
      <trkpt lat="46.63557" lon="0.50874">
        <ele>213.49</ele>
        <time>2018-02-25T10:47:01.000Z</time>
      </trkpt>
      <trkpt lat="46.63562" lon="0.50863">
        <ele>213.47</ele>
        <time>2018-02-25T10:47:04.000Z</time>
      </trkpt>
      <trkpt lat="46.63567" lon="0.5085">
        <ele>213.42</ele>
        <time>2018-02-25T10:47:07.000Z</time>
      </trkpt>
      <trkpt lat="46.63574" lon="0.50841">
        <ele>213.43</ele>
        <time>2018-02-25T10:47:09.000Z</time>
      </trkpt>
      <trkpt lat="46.63585" lon="0.5083">
        <ele>213.52</ele>
        <time>2018-02-25T10:47:11.000Z</time>
      </trkpt>
      <trkpt lat="46.63594" lon="0.50816">
        <ele>213.61</ele>
        <time>2018-02-25T10:47:13.000Z</time>
      </trkpt>
      <trkpt lat="46.63602" lon="0.50808">
        <ele>213.69</ele>
        <time>2018-02-25T10:47:15.000Z</time>
      </trkpt>
      <trkpt lat="46.63613" lon="0.50796">
        <ele>213.76</ele>
        <time>2018-02-25T10:47:17.000Z</time>
      </trkpt>
      <trkpt lat="46.63622" lon="0.5079">
        <ele>214.22</ele>
        <time>2018-02-25T10:47:19.000Z</time>
      </trkpt>
      <trkpt lat="46.63631" lon="0.5078">
        <ele>214.41</ele>
        <time>2018-02-25T10:47:22.000Z</time>
      </trkpt>
      <trkpt lat="46.63644" lon="0.50767">
        <ele>215.19</ele>
        <time>2018-02-25T10:47:24.000Z</time>
      </trkpt>
      <trkpt lat="46.63654" lon="0.50759">
        <ele>215.39</ele>
        <time>2018-02-25T10:47:26.000Z</time>
      </trkpt>
      <trkpt lat="46.63665" lon="0.50747">
        <ele>215.67</ele>
        <time>2018-02-25T10:47:28.000Z</time>
      </trkpt>
      <trkpt lat="46.63675" lon="0.50735">
        <ele>215.98</ele>
        <time>2018-02-25T10:47:30.000Z</time>
      </trkpt>
      <trkpt lat="46.63686" lon="0.50727">
        <ele>216.2</ele>
        <time>2018-02-25T10:47:32.000Z</time>
      </trkpt>
      <trkpt lat="46.63697" lon="0.50716">
        <ele>216.37</ele>
        <time>2018-02-25T10:47:34.000Z</time>
      </trkpt>
      <trkpt lat="46.63705" lon="0.50702">
        <ele>216.64</ele>
        <time>2018-02-25T10:47:37.000Z</time>
      </trkpt>
      <trkpt lat="46.63707" lon="0.50687">
        <ele>216.81</ele>
        <time>2018-02-25T10:47:40.000Z</time>
      </trkpt>
      <trkpt lat="46.63704" lon="0.5067">
        <ele>216.6</ele>
        <time>2018-02-25T10:47:43.000Z</time>
      </trkpt>
      <trkpt lat="46.63699" lon="0.50655">
        <ele>216.14</ele>
        <time>2018-02-25T10:47:46.000Z</time>
      </trkpt>
      <trkpt lat="46.63694" lon="0.5064">
        <ele>214.02</ele>
        <time>2018-02-25T10:47:48.000Z</time>
      </trkpt>
      <trkpt lat="46.63689" lon="0.50627">
        <ele>213.55</ele>
        <time>2018-02-25T10:47:50.000Z</time>
      </trkpt>
      <trkpt lat="46.63681" lon="0.50612">
        <ele>213.11</ele>
        <time>2018-02-25T10:47:52.000Z</time>
      </trkpt>
      <trkpt lat="46.63672" lon="0.50598">
        <ele>209.12</ele>
        <time>2018-02-25T10:47:54.000Z</time>
      </trkpt>
      <trkpt lat="46.63663" lon="0.50581">
        <ele>206.57</ele>
        <time>2018-02-25T10:47:56.000Z</time>
      </trkpt>
      <trkpt lat="46.63657" lon="0.50567">
        <ele>206.39</ele>
        <time>2018-02-25T10:47:58.000Z</time>
      </trkpt>
      <trkpt lat="46.63651" lon="0.50551">
        <ele>205.69</ele>
        <time>2018-02-25T10:48:00.000Z</time>
      </trkpt>
      <trkpt lat="46.63643" lon="0.50541">
        <ele>204.85</ele>
        <time>2018-02-25T10:48:01.000Z</time>
      </trkpt>
      <trkpt lat="46.63635" lon="0.50526">
        <ele>202.94</ele>
        <time>2018-02-25T10:48:03.000Z</time>
      </trkpt>
      <trkpt lat="46.63625" lon="0.50511">
        <ele>200.8</ele>
        <time>2018-02-25T10:48:05.000Z</time>
      </trkpt>
      <trkpt lat="46.63614" lon="0.50494">
        <ele>197.57</ele>
        <time>2018-02-25T10:48:07.000Z</time>
      </trkpt>
      <trkpt lat="46.63607" lon="0.50477">
        <ele>194.05</ele>
        <time>2018-02-25T10:48:09.000Z</time>
      </trkpt>
      <trkpt lat="46.63602" lon="0.50463">
        <ele>191.33</ele>
        <time>2018-02-25T10:48:11.000Z</time>
      </trkpt>
      <trkpt lat="46.63594" lon="0.50449">
        <ele>189.68</ele>
        <time>2018-02-25T10:48:13.000Z</time>
      </trkpt>
      <trkpt lat="46.63588" lon="0.50433">
        <ele>189.32</ele>
        <time>2018-02-25T10:48:15.000Z</time>
      </trkpt>
      <trkpt lat="46.63582" lon="0.50421">
        <ele>188.59</ele>
        <time>2018-02-25T10:48:17.000Z</time>
      </trkpt>
      <trkpt lat="46.63574" lon="0.50404">
        <ele>187.24</ele>
        <time>2018-02-25T10:48:19.000Z</time>
      </trkpt>
      <trkpt lat="46.63564" lon="0.50385">
        <ele>185.48</ele>
        <time>2018-02-25T10:48:21.000Z</time>
      </trkpt>
      <trkpt lat="46.63555" lon="0.50367">
        <ele>184.29</ele>
        <time>2018-02-25T10:48:23.000Z</time>
      </trkpt>
      <trkpt lat="46.63546" lon="0.50351">
        <ele>182.99</ele>
        <time>2018-02-25T10:48:25.000Z</time>
      </trkpt>
      <trkpt lat="46.63534" lon="0.50335">
        <ele>181.98</ele>
        <time>2018-02-25T10:48:27.000Z</time>
      </trkpt>
      <trkpt lat="46.63526" lon="0.50319">
        <ele>181.65</ele>
        <time>2018-02-25T10:48:29.000Z</time>
      </trkpt>
      <trkpt lat="46.63518" lon="0.50304">
        <ele>182.59</ele>
        <time>2018-02-25T10:48:31.999Z</time>
      </trkpt>
      <trkpt lat="46.63511" lon="0.50287">
        <ele>183.18</ele>
        <time>2018-02-25T10:48:33.999Z</time>
      </trkpt>
      <trkpt lat="46.63505" lon="0.50273">
        <ele>183.48</ele>
        <time>2018-02-25T10:48:34.999Z</time>
      </trkpt>
      <trkpt lat="46.63498" lon="0.50262">
        <ele>183.5</ele>
        <time>2018-02-25T10:48:35.999Z</time>
      </trkpt>
      <trkpt lat="46.63487" lon="0.50247">
        <ele>183.62</ele>
        <time>2018-02-25T10:48:37.999Z</time>
      </trkpt>
      <trkpt lat="46.63482" lon="0.50234">
        <ele>183.72</ele>
        <time>2018-02-25T10:48:39.999Z</time>
      </trkpt>
      <trkpt lat="46.63474" lon="0.50215">
        <ele>184.49</ele>
        <time>2018-02-25T10:48:41.999Z</time>
      </trkpt>
      <trkpt lat="46.63464" lon="0.50199">
        <ele>185.02</ele>
        <time>2018-02-25T10:48:43.999Z</time>
      </trkpt>
      <trkpt lat="46.63459" lon="0.50182">
        <ele>185.09</ele>
        <time>2018-02-25T10:48:46.999Z</time>
      </trkpt>
      <trkpt lat="46.63453" lon="0.50172">
        <ele>185.07</ele>
        <time>2018-02-25T10:48:48.999Z</time>
      </trkpt>
      <trkpt lat="46.63449" lon="0.50158">
        <ele>185.11</ele>
        <time>2018-02-25T10:48:50.999Z</time>
      </trkpt>
      <trkpt lat="46.63444" lon="0.50145">
        <ele>185.05</ele>
        <time>2018-02-25T10:48:52.999Z</time>
      </trkpt>
      <trkpt lat="46.63436" lon="0.50134">
        <ele>185.05</ele>
        <time>2018-02-25T10:48:54.999Z</time>
      </trkpt>
      <trkpt lat="46.6343" lon="0.50121">
        <ele>184.99</ele>
        <time>2018-02-25T10:48:56.999Z</time>
      </trkpt>
      <trkpt lat="46.63425" lon="0.50111">
        <ele>184.97</ele>
        <time>2018-02-25T10:48:58.999Z</time>
      </trkpt>
      <trkpt lat="46.6342" lon="0.50099">
        <ele>185.02</ele>
        <time>2018-02-25T10:49:01.999Z</time>
      </trkpt>
      <trkpt lat="46.63414" lon="0.50083">
        <ele>185.16</ele>
        <time>2018-02-25T10:49:04.999Z</time>
      </trkpt>
      <trkpt lat="46.63408" lon="0.50067">
        <ele>185.39</ele>
        <time>2018-02-25T10:49:07.999Z</time>
      </trkpt>
      <trkpt lat="46.634" lon="0.50053">
        <ele>185.75</ele>
        <time>2018-02-25T10:49:10.999Z</time>
      </trkpt>
      <trkpt lat="46.63395" lon="0.50039">
        <ele>185.9</ele>
        <time>2018-02-25T10:49:12.999Z</time>
      </trkpt>
      <trkpt lat="46.63389" lon="0.50027">
        <ele>186.07</ele>
        <time>2018-02-25T10:49:16.999Z</time>
      </trkpt>
      <trkpt lat="46.63385" lon="0.50011">
        <ele>185.96</ele>
        <time>2018-02-25T10:49:19.999Z</time>
      </trkpt>
      <trkpt lat="46.63379" lon="0.5">
        <ele>185.73</ele>
        <time>2018-02-25T10:49:23.999Z</time>
      </trkpt>
      <trkpt lat="46.63374" lon="0.49988">
        <ele>185.7</ele>
        <time>2018-02-25T10:49:25.999Z</time>
      </trkpt>
      <trkpt lat="46.63368" lon="0.49978">
        <ele>185.68</ele>
        <time>2018-02-25T10:49:27.999Z</time>
      </trkpt>
      <trkpt lat="46.63361" lon="0.49968">
        <ele>185.74</ele>
        <time>2018-02-25T10:49:29.999Z</time>
      </trkpt>
      <trkpt lat="46.63353" lon="0.49958">
        <ele>185.9</ele>
        <time>2018-02-25T10:49:31.999Z</time>
      </trkpt>
      <trkpt lat="46.63347" lon="0.49947">
        <ele>186.04</ele>
        <time>2018-02-25T10:49:33.999Z</time>
      </trkpt>
      <trkpt lat="46.6334" lon="0.49935">
        <ele>186.25</ele>
        <time>2018-02-25T10:49:35.999Z</time>
      </trkpt>
      <trkpt lat="46.63334" lon="0.49921">
        <ele>186.71</ele>
        <time>2018-02-25T10:49:38.999Z</time>
      </trkpt>
      <trkpt lat="46.63328" lon="0.4991">
        <ele>187.19</ele>
        <time>2018-02-25T10:49:41.999Z</time>
      </trkpt>
      <trkpt lat="46.63322" lon="0.49899">
        <ele>187.5</ele>
        <time>2018-02-25T10:49:44.999Z</time>
      </trkpt>
      <trkpt lat="46.63315" lon="0.49889">
        <ele>187.69</ele>
        <time>2018-02-25T10:49:47.999Z</time>
      </trkpt>
      <trkpt lat="46.6331" lon="0.49878">
        <ele>187.91</ele>
        <time>2018-02-25T10:49:51.999Z</time>
      </trkpt>
      <trkpt lat="46.63305" lon="0.49866">
        <ele>188.1</ele>
        <time>2018-02-25T10:49:54.999Z</time>
      </trkpt>
      <trkpt lat="46.63295" lon="0.49854">
        <ele>188.3</ele>
        <time>2018-02-25T10:49:56.999Z</time>
      </trkpt>
      <trkpt lat="46.63285" lon="0.49843">
        <ele>188.57</ele>
        <time>2018-02-25T10:49:58.999Z</time>
      </trkpt>
      <trkpt lat="46.63279" lon="0.4983">
        <ele>189.29</ele>
        <time>2018-02-25T10:50:02.999Z</time>
      </trkpt>
      <trkpt lat="46.63271" lon="0.49819">
        <ele>189.89</ele>
        <time>2018-02-25T10:50:06.999Z</time>
      </trkpt>
      <trkpt lat="46.63265" lon="0.49808">
        <ele>190.3</ele>
        <time>2018-02-25T10:50:09.999Z</time>
      </trkpt>
      <trkpt lat="46.63261" lon="0.49795">
        <ele>190.65</ele>
        <time>2018-02-25T10:50:12.999Z</time>
      </trkpt>
      <trkpt lat="46.63255" lon="0.49778">
        <ele>190.89</ele>
        <time>2018-02-25T10:50:15.999Z</time>
      </trkpt>
      <trkpt lat="46.6325" lon="0.49764">
        <ele>191.21</ele>
        <time>2018-02-25T10:50:17.999Z</time>
      </trkpt>
      <trkpt lat="46.63243" lon="0.49751">
        <ele>191.57</ele>
        <time>2018-02-25T10:50:19.999Z</time>
      </trkpt>
      <trkpt lat="46.63236" lon="0.49741">
        <ele>192.27</ele>
        <time>2018-02-25T10:50:22.999Z</time>
      </trkpt>
      <trkpt lat="46.63229" lon="0.49725">
        <ele>192.76</ele>
        <time>2018-02-25T10:50:25.999Z</time>
      </trkpt>
      <trkpt lat="46.63224" lon="0.4971">
        <ele>193.02</ele>
        <time>2018-02-25T10:50:28.999Z</time>
      </trkpt>
      <trkpt lat="46.63218" lon="0.49698">
        <ele>193.36</ele>
        <time>2018-02-25T10:50:32.999Z</time>
      </trkpt>
      <trkpt lat="46.63213" lon="0.49685">
        <ele>193.56</ele>
        <time>2018-02-25T10:50:36.999Z</time>
      </trkpt>
      <trkpt lat="46.63205" lon="0.49676">
        <ele>193.68</ele>
        <time>2018-02-25T10:50:39.999Z</time>
      </trkpt>
      <trkpt lat="46.63199" lon="0.49662">
        <ele>193.95</ele>
        <time>2018-02-25T10:50:43.999Z</time>
      </trkpt>
      <trkpt lat="46.63193" lon="0.4965">
        <ele>193.77</ele>
        <time>2018-02-25T10:50:47.999Z</time>
      </trkpt>
      <trkpt lat="46.63185" lon="0.49643">
        <ele>193.64</ele>
        <time>2018-02-25T10:50:49.999Z</time>
      </trkpt>
      <trkpt lat="46.63178" lon="0.49632">
        <ele>193.55</ele>
        <time>2018-02-25T10:50:53.999Z</time>
      </trkpt>
      <trkpt lat="46.63171" lon="0.49618">
        <ele>193.54</ele>
        <time>2018-02-25T10:50:57.999Z</time>
      </trkpt>
      <trkpt lat="46.63165" lon="0.49605">
        <ele>193.15</ele>
        <time>2018-02-25T10:51:01.999Z</time>
      </trkpt>
      <trkpt lat="46.63159" lon="0.49593">
        <ele>192.51</ele>
        <time>2018-02-25T10:51:05.999Z</time>
      </trkpt>
      <trkpt lat="46.63157" lon="0.4958">
        <ele>192.06</ele>
        <time>2018-02-25T10:51:09.999Z</time>
      </trkpt>
      <trkpt lat="46.63152" lon="0.49566">
        <ele>192.08</ele>
        <time>2018-02-25T10:51:15.999Z</time>
      </trkpt>
      <trkpt lat="46.63147" lon="0.49553">
        <ele>192.21</ele>
        <time>2018-02-25T10:51:20.999Z</time>
      </trkpt>
      <trkpt lat="46.63139" lon="0.4954">
        <ele>192.69</ele>
        <time>2018-02-25T10:51:25.999Z</time>
      </trkpt>
      <trkpt lat="46.63133" lon="0.49528">
        <ele>193.92</ele>
        <time>2018-02-25T10:51:30.999Z</time>
      </trkpt>
      <trkpt lat="46.63126" lon="0.49515">
        <ele>195</ele>
        <time>2018-02-25T10:51:34.999Z</time>
      </trkpt>
      <trkpt lat="46.63121" lon="0.495">
        <ele>195.6</ele>
        <time>2018-02-25T10:51:38.999Z</time>
      </trkpt>
      <trkpt lat="46.63116" lon="0.49489">
        <ele>195.93</ele>
        <time>2018-02-25T10:51:42.999Z</time>
      </trkpt>
      <trkpt lat="46.63109" lon="0.49476">
        <ele>195.82</ele>
        <time>2018-02-25T10:51:46.999Z</time>
      </trkpt>
      <trkpt lat="46.63102" lon="0.49464">
        <ele>195.69</ele>
        <time>2018-02-25T10:51:49.999Z</time>
      </trkpt>
      <trkpt lat="46.63095" lon="0.4945">
        <ele>195.67</ele>
        <time>2018-02-25T10:51:52.999Z</time>
      </trkpt>
      <trkpt lat="46.6309" lon="0.49438">
        <ele>195.58</ele>
        <time>2018-02-25T10:51:55.999Z</time>
      </trkpt>
      <trkpt lat="46.63082" lon="0.49428">
        <ele>195.34</ele>
        <time>2018-02-25T10:51:58.999Z</time>
      </trkpt>
      <trkpt lat="46.63073" lon="0.49419">
        <ele>195.08</ele>
        <time>2018-02-25T10:52:01.999Z</time>
      </trkpt>
      <trkpt lat="46.63068" lon="0.49408">
        <ele>195.23</ele>
        <time>2018-02-25T10:52:04.999Z</time>
      </trkpt>
      <trkpt lat="46.63069" lon="0.49393">
        <ele>195.48</ele>
        <time>2018-02-25T10:52:07.999Z</time>
      </trkpt>
      <trkpt lat="46.63076" lon="0.49384">
        <ele>195.83</ele>
        <time>2018-02-25T10:52:10.999Z</time>
      </trkpt>
      <trkpt lat="46.63089" lon="0.49373">
        <ele>196.49</ele>
        <time>2018-02-25T10:52:13.999Z</time>
      </trkpt>
      <trkpt lat="46.63096" lon="0.49364">
        <ele>197.1</ele>
        <time>2018-02-25T10:52:15.999Z</time>
      </trkpt>
      <trkpt lat="46.63105" lon="0.49355">
        <ele>197.71</ele>
        <time>2018-02-25T10:52:17.999Z</time>
      </trkpt>
      <trkpt lat="46.63114" lon="0.49339">
        <ele>198.11</ele>
        <time>2018-02-25T10:52:19.999Z</time>
      </trkpt>
      <trkpt lat="46.63123" lon="0.49327">
        <ele>198.34</ele>
        <time>2018-02-25T10:52:21.999Z</time>
      </trkpt>
      <trkpt lat="46.63131" lon="0.49315">
        <ele>199.52</ele>
        <time>2018-02-25T10:52:23.999Z</time>
      </trkpt>
      <trkpt lat="46.63139" lon="0.49305">
        <ele>199.71</ele>
        <time>2018-02-25T10:52:25.999Z</time>
      </trkpt>
      <trkpt lat="46.63147" lon="0.49295">
        <ele>199.69</ele>
        <time>2018-02-25T10:52:28.999Z</time>
      </trkpt>
      <trkpt lat="46.63155" lon="0.49286">
        <ele>199.56</ele>
        <time>2018-02-25T10:52:30.999Z</time>
      </trkpt>
      <trkpt lat="46.63165" lon="0.49276">
        <ele>199.3</ele>
        <time>2018-02-25T10:52:32.999Z</time>
      </trkpt>
      <trkpt lat="46.63171" lon="0.49266">
        <ele>198.99</ele>
        <time>2018-02-25T10:52:34.999Z</time>
      </trkpt>
      <trkpt lat="46.63179" lon="0.49255">
        <ele>198.72</ele>
        <time>2018-02-25T10:52:36.999Z</time>
      </trkpt>
      <trkpt lat="46.63189" lon="0.49244">
        <ele>198.4</ele>
        <time>2018-02-25T10:52:38.999Z</time>
      </trkpt>
      <trkpt lat="46.63202" lon="0.4923">
        <ele>198.07</ele>
        <time>2018-02-25T10:52:40.999Z</time>
      </trkpt>
      <trkpt lat="46.6321" lon="0.49221">
        <ele>197.65</ele>
        <time>2018-02-25T10:52:42.999Z</time>
      </trkpt>
      <trkpt lat="46.63218" lon="0.49212">
        <ele>197.16</ele>
        <time>2018-02-25T10:52:44.999Z</time>
      </trkpt>
      <trkpt lat="46.63226" lon="0.49204">
        <ele>196.38</ele>
        <time>2018-02-25T10:52:47.999Z</time>
      </trkpt>
      <trkpt lat="46.63237" lon="0.4919">
        <ele>195.67</ele>
        <time>2018-02-25T10:52:50.999Z</time>
      </trkpt>
      <trkpt lat="46.63245" lon="0.49179">
        <ele>194.95</ele>
        <time>2018-02-25T10:52:52.999Z</time>
      </trkpt>
      <trkpt lat="46.63251" lon="0.49164">
        <ele>193.54</ele>
        <time>2018-02-25T10:52:56.999Z</time>
      </trkpt>
      <trkpt lat="46.6325" lon="0.49149">
        <ele>191.63</ele>
        <time>2018-02-25T10:53:01.999Z</time>
      </trkpt>
      <trkpt lat="46.63245" lon="0.49137">
        <ele>190.56</ele>
        <time>2018-02-25T10:53:04.999Z</time>
      </trkpt>
      <trkpt lat="46.6324" lon="0.49123">
        <ele>189.47</ele>
        <time>2018-02-25T10:53:07.999Z</time>
      </trkpt>
      <trkpt lat="46.63236" lon="0.49112">
        <ele>188.07</ele>
        <time>2018-02-25T10:53:11.999Z</time>
      </trkpt>
      <trkpt lat="46.63241" lon="0.491">
        <ele>186.35</ele>
        <time>2018-02-25T10:53:15.999Z</time>
      </trkpt>
      <trkpt lat="46.63242" lon="0.49087">
        <ele>181.57</ele>
        <time>2018-02-25T10:53:37.999Z</time>
      </trkpt>
    </trkseg>
  </trk>
</gpx>